<?xml version="1.0" encoding="UTF-8" standalone="no" ?>
<gpx xmlns="http://www.topografix.com/GPX/1/1" xmlns:xsi="http://www.w3.org/2001/XMLSchema-instance" xsi:schemaLocation="http://www.topografix.com/GPX/1/1 http://www.topografix.com/GPX/1/1/gpx.xsd" version="1.1" creator="VisuGPX - https://www.visugpx.com">
  <metadata>
    <name>Long de Siagne</name>
    <desc><![CDATA[A éviter, long de Siagne mal entretenu et trop de piste/route.]]></desc>
  </metadata>
  <trk>
    <name><![CDATA[Long de la Siagne]]></name>
    <cmt><![CDATA[A eviter; long de Siagne pas entretenu]]></cmt>
    <trkseg>
      <trkpt lat="43.5941" lon="6.95547">
        <ele>132</ele>
        <time>2012-02-26T07:44:58Z</time>
      </trkpt>
      <trkpt lat="43.59441" lon="6.95552">
        <ele>131</ele>
        <time>2012-02-26T07:45:09Z</time>
      </trkpt>
      <trkpt lat="43.59461" lon="6.95561">
        <ele>131</ele>
        <time>2012-02-26T07:45:14Z</time>
      </trkpt>
      <trkpt lat="43.59478" lon="6.95574">
        <ele>131</ele>
        <time>2012-02-26T07:45:19Z</time>
      </trkpt>
      <trkpt lat="43.59487" lon="6.95596">
        <ele>131</ele>
        <time>2012-02-26T07:45:24Z</time>
      </trkpt>
      <trkpt lat="43.59494" lon="6.95618">
        <ele>131</ele>
        <time>2012-02-26T07:45:29Z</time>
      </trkpt>
      <trkpt lat="43.59507" lon="6.95634">
        <ele>131</ele>
        <time>2012-02-26T07:45:34Z</time>
      </trkpt>
      <trkpt lat="43.59524" lon="6.95627">
        <ele>132</ele>
        <time>2012-02-26T07:45:39Z</time>
      </trkpt>
      <trkpt lat="43.59542" lon="6.95623">
        <ele>132</ele>
        <time>2012-02-26T07:45:44Z</time>
      </trkpt>
      <trkpt lat="43.59561" lon="6.95616">
        <ele>132</ele>
        <time>2012-02-26T07:45:49Z</time>
      </trkpt>
      <trkpt lat="43.59579" lon="6.95608">
        <ele>133</ele>
        <time>2012-02-26T07:45:54Z</time>
      </trkpt>
      <trkpt lat="43.59599" lon="6.956">
        <ele>134</ele>
        <time>2012-02-26T07:45:59Z</time>
      </trkpt>
      <trkpt lat="43.59618" lon="6.9559">
        <ele>134</ele>
        <time>2012-02-26T07:46:04Z</time>
      </trkpt>
      <trkpt lat="43.59634" lon="6.95573">
        <ele>134</ele>
        <time>2012-02-26T07:46:09Z</time>
      </trkpt>
      <trkpt lat="43.59645" lon="6.95551">
        <ele>134</ele>
        <time>2012-02-26T07:46:14Z</time>
      </trkpt>
      <trkpt lat="43.59653" lon="6.95529">
        <ele>135</ele>
        <time>2012-02-26T07:46:19Z</time>
      </trkpt>
      <trkpt lat="43.59663" lon="6.95513">
        <ele>136</ele>
        <time>2012-02-26T07:46:24Z</time>
      </trkpt>
      <trkpt lat="43.59675" lon="6.95503">
        <ele>138</ele>
        <time>2012-02-26T07:46:29Z</time>
      </trkpt>
      <trkpt lat="43.59687" lon="6.95493">
        <ele>140</ele>
        <time>2012-02-26T07:46:34Z</time>
      </trkpt>
      <trkpt lat="43.59695" lon="6.95476">
        <ele>142</ele>
        <time>2012-02-26T07:46:39Z</time>
      </trkpt>
      <trkpt lat="43.59706" lon="6.9546">
        <ele>144</ele>
        <time>2012-02-26T07:46:44Z</time>
      </trkpt>
      <trkpt lat="43.5972" lon="6.95449">
        <ele>145</ele>
        <time>2012-02-26T07:46:49Z</time>
      </trkpt>
      <trkpt lat="43.59734" lon="6.95446">
        <ele>146</ele>
        <time>2012-02-26T07:46:54Z</time>
      </trkpt>
      <trkpt lat="43.5975" lon="6.95446">
        <ele>147</ele>
        <time>2012-02-26T07:46:59Z</time>
      </trkpt>
      <trkpt lat="43.59769" lon="6.95446">
        <ele>148</ele>
        <time>2012-02-26T07:47:04Z</time>
      </trkpt>
      <trkpt lat="43.59778" lon="6.95438">
        <ele>148</ele>
        <time>2012-02-26T07:47:09Z</time>
      </trkpt>
      <trkpt lat="43.59795" lon="6.95447">
        <ele>148</ele>
        <time>2012-02-26T07:47:14Z</time>
      </trkpt>
      <trkpt lat="43.59815" lon="6.95442">
        <ele>148</ele>
        <time>2012-02-26T07:47:19Z</time>
      </trkpt>
      <trkpt lat="43.59834" lon="6.95435">
        <ele>148</ele>
        <time>2012-02-26T07:47:24Z</time>
      </trkpt>
      <trkpt lat="43.59853" lon="6.95428">
        <ele>148</ele>
        <time>2012-02-26T07:47:29Z</time>
      </trkpt>
      <trkpt lat="43.59869" lon="6.95423">
        <ele>149</ele>
        <time>2012-02-26T07:47:34Z</time>
      </trkpt>
      <trkpt lat="43.59886" lon="6.95421">
        <ele>150</ele>
        <time>2012-02-26T07:47:39Z</time>
      </trkpt>
      <trkpt lat="43.59906" lon="6.95417">
        <ele>151</ele>
        <time>2012-02-26T07:47:44Z</time>
      </trkpt>
      <trkpt lat="43.59926" lon="6.95403">
        <ele>151</ele>
        <time>2012-02-26T07:47:49Z</time>
      </trkpt>
      <trkpt lat="43.5994" lon="6.95376">
        <ele>151</ele>
        <time>2012-02-26T07:47:54Z</time>
      </trkpt>
      <trkpt lat="43.59939" lon="6.95342">
        <ele>151</ele>
        <time>2012-02-26T07:47:59Z</time>
      </trkpt>
      <trkpt lat="43.59931" lon="6.9531">
        <ele>151</ele>
        <time>2012-02-26T07:48:04Z</time>
      </trkpt>
      <trkpt lat="43.59918" lon="6.95274">
        <ele>150</ele>
        <time>2012-02-26T07:48:09Z</time>
      </trkpt>
      <trkpt lat="43.59904" lon="6.95235">
        <ele>149</ele>
        <time>2012-02-26T07:48:14Z</time>
      </trkpt>
      <trkpt lat="43.59914" lon="6.95192">
        <ele>148</ele>
        <time>2012-02-26T07:48:19Z</time>
      </trkpt>
      <trkpt lat="43.59929" lon="6.95146">
        <ele>146</ele>
        <time>2012-02-26T07:48:24Z</time>
      </trkpt>
      <trkpt lat="43.59943" lon="6.95099">
        <ele>144</ele>
        <time>2012-02-26T07:48:29Z</time>
      </trkpt>
      <trkpt lat="43.59958" lon="6.95051">
        <ele>142</ele>
        <time>2012-02-26T07:48:34Z</time>
      </trkpt>
      <trkpt lat="43.59971" lon="6.95007">
        <ele>141</ele>
        <time>2012-02-26T07:48:39Z</time>
      </trkpt>
      <trkpt lat="43.59986" lon="6.94957">
        <ele>139</ele>
        <time>2012-02-26T07:48:44Z</time>
      </trkpt>
      <trkpt lat="43.60001" lon="6.94906">
        <ele>138</ele>
        <time>2012-02-26T07:48:49Z</time>
      </trkpt>
      <trkpt lat="43.6001" lon="6.94875">
        <ele>138</ele>
        <time>2012-02-26T07:48:54Z</time>
      </trkpt>
      <trkpt lat="43.60011" lon="6.94874">
        <ele>138</ele>
        <time>2012-02-26T07:49:02Z</time>
      </trkpt>
      <trkpt lat="43.60014" lon="6.94866">
        <ele>138</ele>
        <time>2012-02-26T07:49:07Z</time>
      </trkpt>
      <trkpt lat="43.60013" lon="6.94844">
        <ele>138</ele>
        <time>2012-02-26T07:49:12Z</time>
      </trkpt>
      <trkpt lat="43.60002" lon="6.94814">
        <ele>138</ele>
        <time>2012-02-26T07:49:17Z</time>
      </trkpt>
      <trkpt lat="43.59991" lon="6.94783">
        <ele>138</ele>
        <time>2012-02-26T07:49:22Z</time>
      </trkpt>
      <trkpt lat="43.59981" lon="6.94747">
        <ele>138</ele>
        <time>2012-02-26T07:49:27Z</time>
      </trkpt>
      <trkpt lat="43.5998" lon="6.94722">
        <ele>138</ele>
        <time>2012-02-26T07:49:32Z</time>
      </trkpt>
      <trkpt lat="43.59969" lon="6.94692">
        <ele>138</ele>
        <time>2012-02-26T07:49:37Z</time>
      </trkpt>
      <trkpt lat="43.59962" lon="6.9466">
        <ele>138</ele>
        <time>2012-02-26T07:49:42Z</time>
      </trkpt>
      <trkpt lat="43.59954" lon="6.9463">
        <ele>138</ele>
        <time>2012-02-26T07:49:47Z</time>
      </trkpt>
      <trkpt lat="43.59945" lon="6.94602">
        <ele>138</ele>
        <time>2012-02-26T07:49:52Z</time>
      </trkpt>
      <trkpt lat="43.59937" lon="6.94572">
        <ele>140</ele>
        <time>2012-02-26T07:49:57Z</time>
      </trkpt>
      <trkpt lat="43.5993" lon="6.94541">
        <ele>142</ele>
        <time>2012-02-26T07:50:02Z</time>
      </trkpt>
      <trkpt lat="43.59925" lon="6.94518">
        <ele>142</ele>
        <time>2012-02-26T07:50:07Z</time>
      </trkpt>
      <trkpt lat="43.59922" lon="6.94494">
        <ele>142</ele>
        <time>2012-02-26T07:50:12Z</time>
      </trkpt>
      <trkpt lat="43.59927" lon="6.94471">
        <ele>145</ele>
        <time>2012-02-26T07:50:17Z</time>
      </trkpt>
      <trkpt lat="43.59934" lon="6.9445">
        <ele>145</ele>
        <time>2012-02-26T07:50:22Z</time>
      </trkpt>
      <trkpt lat="43.59941" lon="6.94431">
        <ele>145</ele>
        <time>2012-02-26T07:50:27Z</time>
      </trkpt>
      <trkpt lat="43.59957" lon="6.94419">
        <ele>145</ele>
        <time>2012-02-26T07:50:32Z</time>
      </trkpt>
      <trkpt lat="43.59978" lon="6.94415">
        <ele>145</ele>
        <time>2012-02-26T07:50:37Z</time>
      </trkpt>
      <trkpt lat="43.60002" lon="6.94413">
        <ele>145</ele>
        <time>2012-02-26T07:50:42Z</time>
      </trkpt>
      <trkpt lat="43.60026" lon="6.94402">
        <ele>145</ele>
        <time>2012-02-26T07:50:47Z</time>
      </trkpt>
      <trkpt lat="43.60037" lon="6.94378">
        <ele>145</ele>
        <time>2012-02-26T07:50:52Z</time>
      </trkpt>
      <trkpt lat="43.60034" lon="6.94345">
        <ele>144</ele>
        <time>2012-02-26T07:50:57Z</time>
      </trkpt>
      <trkpt lat="43.6003" lon="6.94329">
        <ele>144</ele>
        <time>2012-02-26T07:51:02Z</time>
      </trkpt>
      <trkpt lat="43.60023" lon="6.94318">
        <ele>144</ele>
        <time>2012-02-26T07:51:07Z</time>
      </trkpt>
      <trkpt lat="43.60014" lon="6.9431">
        <ele>144</ele>
        <time>2012-02-26T07:51:12Z</time>
      </trkpt>
      <trkpt lat="43.60007" lon="6.94303">
        <ele>144</ele>
        <time>2012-02-26T07:51:19Z</time>
      </trkpt>
      <trkpt lat="43.59999" lon="6.94292">
        <ele>144</ele>
        <time>2012-02-26T07:51:24Z</time>
      </trkpt>
      <trkpt lat="43.6" lon="6.94277">
        <ele>143</ele>
        <time>2012-02-26T07:51:29Z</time>
      </trkpt>
      <trkpt lat="43.60008" lon="6.94261">
        <ele>143</ele>
        <time>2012-02-26T07:51:34Z</time>
      </trkpt>
      <trkpt lat="43.60013" lon="6.94245">
        <ele>143</ele>
        <time>2012-02-26T07:51:39Z</time>
      </trkpt>
      <trkpt lat="43.60019" lon="6.94227">
        <ele>143</ele>
        <time>2012-02-26T07:51:44Z</time>
      </trkpt>
      <trkpt lat="43.60028" lon="6.94206">
        <ele>144</ele>
        <time>2012-02-26T07:51:49Z</time>
      </trkpt>
      <trkpt lat="43.60039" lon="6.94188">
        <ele>147</ele>
        <time>2012-02-26T07:51:54Z</time>
      </trkpt>
      <trkpt lat="43.60052" lon="6.94167">
        <ele>148</ele>
        <time>2012-02-26T07:51:59Z</time>
      </trkpt>
      <trkpt lat="43.60068" lon="6.94141">
        <ele>148</ele>
        <time>2012-02-26T07:52:04Z</time>
      </trkpt>
      <trkpt lat="43.60092" lon="6.94106">
        <ele>148</ele>
        <time>2012-02-26T07:52:09Z</time>
      </trkpt>
      <trkpt lat="43.60102" lon="6.94085">
        <ele>147</ele>
        <time>2012-02-26T07:52:16Z</time>
      </trkpt>
      <trkpt lat="43.60107" lon="6.94085">
        <ele>145</ele>
        <time>2012-02-26T07:52:21Z</time>
      </trkpt>
      <trkpt lat="43.6011" lon="6.94083">
        <ele>143</ele>
        <time>2012-02-26T07:52:26Z</time>
      </trkpt>
      <trkpt lat="43.60113" lon="6.94079">
        <ele>139</ele>
        <time>2012-02-26T07:52:31Z</time>
      </trkpt>
      <trkpt lat="43.6012" lon="6.94068">
        <ele>136</ele>
        <time>2012-02-26T07:52:36Z</time>
      </trkpt>
      <trkpt lat="43.60138" lon="6.94061">
        <ele>135</ele>
        <time>2012-02-26T07:52:41Z</time>
      </trkpt>
      <trkpt lat="43.60153" lon="6.94047">
        <ele>131</ele>
        <time>2012-02-26T07:52:46Z</time>
      </trkpt>
      <trkpt lat="43.60165" lon="6.94038">
        <ele>129</ele>
        <time>2012-02-26T07:52:51Z</time>
      </trkpt>
      <trkpt lat="43.60184" lon="6.94024">
        <ele>124</ele>
        <time>2012-02-26T07:52:56Z</time>
      </trkpt>
      <trkpt lat="43.60207" lon="6.9402">
        <ele>123</ele>
        <time>2012-02-26T07:53:01Z</time>
      </trkpt>
      <trkpt lat="43.60228" lon="6.94011">
        <ele>121</ele>
        <time>2012-02-26T07:53:06Z</time>
      </trkpt>
      <trkpt lat="43.60243" lon="6.93985">
        <ele>121</ele>
        <time>2012-02-26T07:53:11Z</time>
      </trkpt>
      <trkpt lat="43.60257" lon="6.93951">
        <ele>121</ele>
        <time>2012-02-26T07:53:16Z</time>
      </trkpt>
      <trkpt lat="43.6027" lon="6.93917">
        <ele>121</ele>
        <time>2012-02-26T07:53:21Z</time>
      </trkpt>
      <trkpt lat="43.60281" lon="6.93882">
        <ele>121</ele>
        <time>2012-02-26T07:53:26Z</time>
      </trkpt>
      <trkpt lat="43.60295" lon="6.93846">
        <ele>121</ele>
        <time>2012-02-26T07:53:31Z</time>
      </trkpt>
      <trkpt lat="43.60313" lon="6.93815">
        <ele>120</ele>
        <time>2012-02-26T07:53:36Z</time>
      </trkpt>
      <trkpt lat="43.6033" lon="6.93786">
        <ele>117</ele>
        <time>2012-02-26T07:53:41Z</time>
      </trkpt>
      <trkpt lat="43.6035" lon="6.9376">
        <ele>115</ele>
        <time>2012-02-26T07:53:46Z</time>
      </trkpt>
      <trkpt lat="43.60366" lon="6.93739">
        <ele>113</ele>
        <time>2012-02-26T07:53:51Z</time>
      </trkpt>
      <trkpt lat="43.60374" lon="6.93714">
        <ele>112</ele>
        <time>2012-02-26T07:53:56Z</time>
      </trkpt>
      <trkpt lat="43.60382" lon="6.93704">
        <ele>112</ele>
        <time>2012-02-26T07:54:01Z</time>
      </trkpt>
      <trkpt lat="43.60392" lon="6.93692">
        <ele>112</ele>
        <time>2012-02-26T07:54:06Z</time>
      </trkpt>
      <trkpt lat="43.60402" lon="6.93681">
        <ele>112</ele>
        <time>2012-02-26T07:54:11Z</time>
      </trkpt>
      <trkpt lat="43.60419" lon="6.93674">
        <ele>112</ele>
        <time>2012-02-26T07:54:16Z</time>
      </trkpt>
      <trkpt lat="43.60443" lon="6.93686">
        <ele>112</ele>
        <time>2012-02-26T07:54:22Z</time>
      </trkpt>
      <trkpt lat="43.60461" lon="6.93701">
        <ele>112</ele>
        <time>2012-02-26T07:54:27Z</time>
      </trkpt>
      <trkpt lat="43.60478" lon="6.93717">
        <ele>112</ele>
        <time>2012-02-26T07:54:32Z</time>
      </trkpt>
      <trkpt lat="43.6049" lon="6.93737">
        <ele>112</ele>
        <time>2012-02-26T07:54:37Z</time>
      </trkpt>
      <trkpt lat="43.60508" lon="6.93751">
        <ele>112</ele>
        <time>2012-02-26T07:54:42Z</time>
      </trkpt>
      <trkpt lat="43.60532" lon="6.93763">
        <ele>112</ele>
        <time>2012-02-26T07:54:47Z</time>
      </trkpt>
      <trkpt lat="43.6055" lon="6.93781">
        <ele>110</ele>
        <time>2012-02-26T07:54:52Z</time>
      </trkpt>
      <trkpt lat="43.60548" lon="6.93811">
        <ele>107</ele>
        <time>2012-02-26T07:54:57Z</time>
      </trkpt>
      <trkpt lat="43.60555" lon="6.93828">
        <ele>103</ele>
        <time>2012-02-26T07:55:02Z</time>
      </trkpt>
      <trkpt lat="43.60568" lon="6.93844">
        <ele>99</ele>
        <time>2012-02-26T07:55:07Z</time>
      </trkpt>
      <trkpt lat="43.60579" lon="6.93845">
        <ele>98</ele>
        <time>2012-02-26T07:55:12Z</time>
      </trkpt>
      <trkpt lat="43.60593" lon="6.9384">
        <ele>96</ele>
        <time>2012-02-26T07:55:17Z</time>
      </trkpt>
      <trkpt lat="43.60615" lon="6.93852">
        <ele>93</ele>
        <time>2012-02-26T07:55:22Z</time>
      </trkpt>
      <trkpt lat="43.6064" lon="6.93859">
        <ele>90</ele>
        <time>2012-02-26T07:55:27Z</time>
      </trkpt>
      <trkpt lat="43.60669" lon="6.93856">
        <ele>90</ele>
        <time>2012-02-26T07:55:33Z</time>
      </trkpt>
      <trkpt lat="43.60683" lon="6.93864">
        <ele>88</ele>
        <time>2012-02-26T07:55:38Z</time>
      </trkpt>
      <trkpt lat="43.60699" lon="6.93868">
        <ele>87</ele>
        <time>2012-02-26T07:55:43Z</time>
      </trkpt>
      <trkpt lat="43.60712" lon="6.93873">
        <ele>85</ele>
        <time>2012-02-26T07:55:48Z</time>
      </trkpt>
      <trkpt lat="43.60725" lon="6.93878">
        <ele>83</ele>
        <time>2012-02-26T07:55:53Z</time>
      </trkpt>
      <trkpt lat="43.60736" lon="6.93884">
        <ele>82</ele>
        <time>2012-02-26T07:55:58Z</time>
      </trkpt>
      <trkpt lat="43.60743" lon="6.93891">
        <ele>79</ele>
        <time>2012-02-26T07:56:03Z</time>
      </trkpt>
      <trkpt lat="43.60746" lon="6.93896">
        <ele>78</ele>
        <time>2012-02-26T07:56:09Z</time>
      </trkpt>
      <trkpt lat="43.60754" lon="6.93908">
        <ele>78</ele>
        <time>2012-02-26T07:56:14Z</time>
      </trkpt>
      <trkpt lat="43.60765" lon="6.93918">
        <ele>78</ele>
        <time>2012-02-26T07:56:19Z</time>
      </trkpt>
      <trkpt lat="43.60768" lon="6.93936">
        <ele>77</ele>
        <time>2012-02-26T07:56:24Z</time>
      </trkpt>
      <trkpt lat="43.60772" lon="6.93948">
        <ele>75</ele>
        <time>2012-02-26T07:56:29Z</time>
      </trkpt>
      <trkpt lat="43.60768" lon="6.93963">
        <ele>74</ele>
        <time>2012-02-26T07:56:34Z</time>
      </trkpt>
      <trkpt lat="43.60769" lon="6.93972">
        <ele>72</ele>
        <time>2012-02-26T07:56:39Z</time>
      </trkpt>
      <trkpt lat="43.6077" lon="6.93975">
        <ele>72</ele>
        <time>2012-02-26T07:56:44Z</time>
      </trkpt>
      <trkpt lat="43.60772" lon="6.93978">
        <ele>72</ele>
        <time>2012-02-26T07:56:49Z</time>
      </trkpt>
      <trkpt lat="43.60776" lon="6.93992">
        <ele>71</ele>
        <time>2012-02-26T07:56:54Z</time>
      </trkpt>
      <trkpt lat="43.60781" lon="6.94006">
        <ele>69</ele>
        <time>2012-02-26T07:56:59Z</time>
      </trkpt>
      <trkpt lat="43.60793" lon="6.94006">
        <ele>66</ele>
        <time>2012-02-26T07:57:04Z</time>
      </trkpt>
      <trkpt lat="43.60798" lon="6.94024">
        <ele>64</ele>
        <time>2012-02-26T07:57:09Z</time>
      </trkpt>
      <trkpt lat="43.60804" lon="6.94035">
        <ele>61</ele>
        <time>2012-02-26T07:57:14Z</time>
      </trkpt>
      <trkpt lat="43.60809" lon="6.94046">
        <ele>59</ele>
        <time>2012-02-26T07:57:19Z</time>
      </trkpt>
      <trkpt lat="43.60811" lon="6.94052">
        <ele>57</ele>
        <time>2012-02-26T07:57:25Z</time>
      </trkpt>
      <trkpt lat="43.60818" lon="6.94047">
        <ele>56</ele>
        <time>2012-02-26T07:57:30Z</time>
      </trkpt>
      <trkpt lat="43.60821" lon="6.94025">
        <ele>55</ele>
        <time>2012-02-26T07:57:35Z</time>
      </trkpt>
      <trkpt lat="43.60825" lon="6.93997">
        <ele>55</ele>
        <time>2012-02-26T07:57:40Z</time>
      </trkpt>
      <trkpt lat="43.60838" lon="6.93974">
        <ele>55</ele>
        <time>2012-02-26T07:57:45Z</time>
      </trkpt>
      <trkpt lat="43.60855" lon="6.93958">
        <ele>55</ele>
        <time>2012-02-26T07:57:50Z</time>
      </trkpt>
      <trkpt lat="43.60869" lon="6.93968">
        <ele>55</ele>
        <time>2012-02-26T07:57:55Z</time>
      </trkpt>
      <trkpt lat="43.60878" lon="6.93976">
        <ele>55</ele>
        <time>2012-02-26T07:58:00Z</time>
      </trkpt>
      <trkpt lat="43.60885" lon="6.93982">
        <ele>55</ele>
        <time>2012-02-26T07:58:05Z</time>
      </trkpt>
      <trkpt lat="43.6088" lon="6.93978">
        <ele>56</ele>
        <time>2012-02-26T07:58:11Z</time>
      </trkpt>
      <trkpt lat="43.60859" lon="6.93954">
        <ele>56</ele>
        <time>2012-02-26T07:58:16Z</time>
      </trkpt>
      <trkpt lat="43.60865" lon="6.93929">
        <ele>55</ele>
        <time>2012-02-26T07:58:21Z</time>
      </trkpt>
      <trkpt lat="43.60879" lon="6.93906">
        <ele>55</ele>
        <time>2012-02-26T07:58:26Z</time>
      </trkpt>
      <trkpt lat="43.60882" lon="6.93868">
        <ele>55</ele>
        <time>2012-02-26T07:58:31Z</time>
      </trkpt>
      <trkpt lat="43.60868" lon="6.93839">
        <ele>55</ele>
        <time>2012-02-26T07:58:37Z</time>
      </trkpt>
      <trkpt lat="43.60849" lon="6.93816">
        <ele>55</ele>
        <time>2012-02-26T07:58:42Z</time>
      </trkpt>
      <trkpt lat="43.60831" lon="6.93788">
        <ele>55</ele>
        <time>2012-02-26T07:58:47Z</time>
      </trkpt>
      <trkpt lat="43.60815" lon="6.93761">
        <ele>55</ele>
        <time>2012-02-26T07:58:52Z</time>
      </trkpt>
      <trkpt lat="43.60798" lon="6.93734">
        <ele>55</ele>
        <time>2012-02-26T07:58:57Z</time>
      </trkpt>
      <trkpt lat="43.60777" lon="6.9371">
        <ele>55</ele>
        <time>2012-02-26T07:59:02Z</time>
      </trkpt>
      <trkpt lat="43.60754" lon="6.93688">
        <ele>55</ele>
        <time>2012-02-26T07:59:07Z</time>
      </trkpt>
      <trkpt lat="43.60731" lon="6.93667">
        <ele>55</ele>
        <time>2012-02-26T07:59:12Z</time>
      </trkpt>
      <trkpt lat="43.60705" lon="6.93647">
        <ele>55</ele>
        <time>2012-02-26T07:59:17Z</time>
      </trkpt>
      <trkpt lat="43.60678" lon="6.93625">
        <ele>55</ele>
        <time>2012-02-26T07:59:22Z</time>
      </trkpt>
      <trkpt lat="43.60653" lon="6.93598">
        <ele>55</ele>
        <time>2012-02-26T07:59:27Z</time>
      </trkpt>
      <trkpt lat="43.6063" lon="6.93565">
        <ele>55</ele>
        <time>2012-02-26T07:59:32Z</time>
      </trkpt>
      <trkpt lat="43.60605" lon="6.93533">
        <ele>55</ele>
        <time>2012-02-26T07:59:37Z</time>
      </trkpt>
      <trkpt lat="43.60576" lon="6.93511">
        <ele>55</ele>
        <time>2012-02-26T07:59:42Z</time>
      </trkpt>
      <trkpt lat="43.60546" lon="6.93485">
        <ele>55</ele>
        <time>2012-02-26T07:59:47Z</time>
      </trkpt>
      <trkpt lat="43.60513" lon="6.93467">
        <ele>55</ele>
        <time>2012-02-26T07:59:52Z</time>
      </trkpt>
      <trkpt lat="43.60475" lon="6.93445">
        <ele>55</ele>
        <time>2012-02-26T07:59:57Z</time>
      </trkpt>
      <trkpt lat="43.6044" lon="6.93428">
        <ele>54</ele>
        <time>2012-02-26T08:00:02Z</time>
      </trkpt>
      <trkpt lat="43.60407" lon="6.93413">
        <ele>53</ele>
        <time>2012-02-26T08:00:07Z</time>
      </trkpt>
      <trkpt lat="43.60374" lon="6.934">
        <ele>52</ele>
        <time>2012-02-26T08:00:12Z</time>
      </trkpt>
      <trkpt lat="43.60341" lon="6.9338">
        <ele>50</ele>
        <time>2012-02-26T08:00:17Z</time>
      </trkpt>
      <trkpt lat="43.60312" lon="6.93352">
        <ele>47</ele>
        <time>2012-02-26T08:00:22Z</time>
      </trkpt>
      <trkpt lat="43.60275" lon="6.93343">
        <ele>46</ele>
        <time>2012-02-26T08:00:27Z</time>
      </trkpt>
      <trkpt lat="43.60239" lon="6.93328">
        <ele>43</ele>
        <time>2012-02-26T08:00:32Z</time>
      </trkpt>
      <trkpt lat="43.6022" lon="6.93278">
        <ele>40</ele>
        <time>2012-02-26T08:00:38Z</time>
      </trkpt>
      <trkpt lat="43.60223" lon="6.9321">
        <ele>38</ele>
        <time>2012-02-26T08:00:43Z</time>
      </trkpt>
      <trkpt lat="43.60183" lon="6.93181">
        <ele>36</ele>
        <time>2012-02-26T08:00:48Z</time>
      </trkpt>
      <trkpt lat="43.60141" lon="6.93148">
        <ele>34</ele>
        <time>2012-02-26T08:00:53Z</time>
      </trkpt>
      <trkpt lat="43.60097" lon="6.93122">
        <ele>31</ele>
        <time>2012-02-26T08:00:58Z</time>
      </trkpt>
      <trkpt lat="43.60048" lon="6.93141">
        <ele>29</ele>
        <time>2012-02-26T08:01:03Z</time>
      </trkpt>
      <trkpt lat="43.60008" lon="6.93172">
        <ele>27</ele>
        <time>2012-02-26T08:01:08Z</time>
      </trkpt>
      <trkpt lat="43.59969" lon="6.93196">
        <ele>25</ele>
        <time>2012-02-26T08:01:13Z</time>
      </trkpt>
      <trkpt lat="43.59929" lon="6.9319">
        <ele>25</ele>
        <time>2012-02-26T08:01:18Z</time>
      </trkpt>
      <trkpt lat="43.59892" lon="6.93184">
        <ele>24</ele>
        <time>2012-02-26T08:01:23Z</time>
      </trkpt>
      <trkpt lat="43.59855" lon="6.93177">
        <ele>23</ele>
        <time>2012-02-26T08:01:28Z</time>
      </trkpt>
      <trkpt lat="43.59827" lon="6.9317">
        <ele>22</ele>
        <time>2012-02-26T08:01:33Z</time>
      </trkpt>
      <trkpt lat="43.59798" lon="6.93157">
        <ele>22</ele>
        <time>2012-02-26T08:01:38Z</time>
      </trkpt>
      <trkpt lat="43.59767" lon="6.93141">
        <ele>22</ele>
        <time>2012-02-26T08:01:43Z</time>
      </trkpt>
      <trkpt lat="43.59735" lon="6.93127">
        <ele>22</ele>
        <time>2012-02-26T08:01:48Z</time>
      </trkpt>
      <trkpt lat="43.59715" lon="6.93099">
        <ele>22</ele>
        <time>2012-02-26T08:01:53Z</time>
      </trkpt>
      <trkpt lat="43.59716" lon="6.93057">
        <ele>22</ele>
        <time>2012-02-26T08:01:58Z</time>
      </trkpt>
      <trkpt lat="43.59695" lon="6.93036">
        <ele>22</ele>
        <time>2012-02-26T08:02:03Z</time>
      </trkpt>
      <trkpt lat="43.59676" lon="6.93018">
        <ele>22</ele>
        <time>2012-02-26T08:02:08Z</time>
      </trkpt>
      <trkpt lat="43.59688" lon="6.92977">
        <ele>22</ele>
        <time>2012-02-26T08:02:14Z</time>
      </trkpt>
      <trkpt lat="43.59699" lon="6.92938">
        <ele>20</ele>
        <time>2012-02-26T08:02:19Z</time>
      </trkpt>
      <trkpt lat="43.59712" lon="6.92892">
        <ele>20</ele>
        <time>2012-02-26T08:02:24Z</time>
      </trkpt>
      <trkpt lat="43.59722" lon="6.92854">
        <ele>20</ele>
        <time>2012-02-26T08:02:29Z</time>
      </trkpt>
      <trkpt lat="43.5973" lon="6.92814">
        <ele>19</ele>
        <time>2012-02-26T08:02:34Z</time>
      </trkpt>
      <trkpt lat="43.59734" lon="6.92777">
        <ele>19</ele>
        <time>2012-02-26T08:02:39Z</time>
      </trkpt>
      <trkpt lat="43.59711" lon="6.92756">
        <ele>19</ele>
        <time>2012-02-26T08:02:44Z</time>
      </trkpt>
      <trkpt lat="43.59681" lon="6.92745">
        <ele>19</ele>
        <time>2012-02-26T08:02:50Z</time>
      </trkpt>
      <trkpt lat="43.59642" lon="6.92733">
        <ele>18</ele>
        <time>2012-02-26T08:02:55Z</time>
      </trkpt>
      <trkpt lat="43.59612" lon="6.92718">
        <ele>18</ele>
        <time>2012-02-26T08:03:00Z</time>
      </trkpt>
      <trkpt lat="43.59582" lon="6.92703">
        <ele>18</ele>
        <time>2012-02-26T08:03:05Z</time>
      </trkpt>
      <trkpt lat="43.59552" lon="6.92688">
        <ele>18</ele>
        <time>2012-02-26T08:03:10Z</time>
      </trkpt>
      <trkpt lat="43.59528" lon="6.9267">
        <ele>17</ele>
        <time>2012-02-26T08:03:15Z</time>
      </trkpt>
      <trkpt lat="43.59511" lon="6.92654">
        <ele>17</ele>
        <time>2012-02-26T08:03:20Z</time>
      </trkpt>
      <trkpt lat="43.59485" lon="6.9265">
        <ele>17</ele>
        <time>2012-02-26T08:03:25Z</time>
      </trkpt>
      <trkpt lat="43.5946" lon="6.92634">
        <ele>17</ele>
        <time>2012-02-26T08:03:30Z</time>
      </trkpt>
      <trkpt lat="43.59452" lon="6.92598">
        <ele>17</ele>
        <time>2012-02-26T08:03:35Z</time>
      </trkpt>
      <trkpt lat="43.59439" lon="6.9256">
        <ele>17</ele>
        <time>2012-02-26T08:03:40Z</time>
      </trkpt>
      <trkpt lat="43.59422" lon="6.92525">
        <ele>17</ele>
        <time>2012-02-26T08:03:45Z</time>
      </trkpt>
      <trkpt lat="43.59403" lon="6.92496">
        <ele>17</ele>
        <time>2012-02-26T08:03:50Z</time>
      </trkpt>
      <trkpt lat="43.59377" lon="6.92481">
        <ele>17</ele>
        <time>2012-02-26T08:03:55Z</time>
      </trkpt>
      <trkpt lat="43.59355" lon="6.92455">
        <ele>17</ele>
        <time>2012-02-26T08:04:00Z</time>
      </trkpt>
      <trkpt lat="43.59338" lon="6.92425">
        <ele>17</ele>
        <time>2012-02-26T08:04:05Z</time>
      </trkpt>
      <trkpt lat="43.59324" lon="6.92395">
        <ele>17</ele>
        <time>2012-02-26T08:04:10Z</time>
      </trkpt>
      <trkpt lat="43.5931" lon="6.92362">
        <ele>17</ele>
        <time>2012-02-26T08:04:15Z</time>
      </trkpt>
      <trkpt lat="43.5929" lon="6.92331">
        <ele>17</ele>
        <time>2012-02-26T08:04:20Z</time>
      </trkpt>
      <trkpt lat="43.59267" lon="6.92306">
        <ele>17</ele>
        <time>2012-02-26T08:04:25Z</time>
      </trkpt>
      <trkpt lat="43.59241" lon="6.92283">
        <ele>17</ele>
        <time>2012-02-26T08:04:30Z</time>
      </trkpt>
      <trkpt lat="43.59222" lon="6.92253">
        <ele>17</ele>
        <time>2012-02-26T08:04:35Z</time>
      </trkpt>
      <trkpt lat="43.59219" lon="6.92216">
        <ele>17</ele>
        <time>2012-02-26T08:04:40Z</time>
      </trkpt>
      <trkpt lat="43.59224" lon="6.92176">
        <ele>17</ele>
        <time>2012-02-26T08:04:45Z</time>
      </trkpt>
      <trkpt lat="43.5923" lon="6.92134">
        <ele>16</ele>
        <time>2012-02-26T08:04:50Z</time>
      </trkpt>
      <trkpt lat="43.59234" lon="6.92089">
        <ele>15</ele>
        <time>2012-02-26T08:04:55Z</time>
      </trkpt>
      <trkpt lat="43.59241" lon="6.92049">
        <ele>15</ele>
        <time>2012-02-26T08:05:00Z</time>
      </trkpt>
      <trkpt lat="43.59252" lon="6.92013">
        <ele>15</ele>
        <time>2012-02-26T08:05:05Z</time>
      </trkpt>
      <trkpt lat="43.59265" lon="6.91977">
        <ele>15</ele>
        <time>2012-02-26T08:05:10Z</time>
      </trkpt>
      <trkpt lat="43.59277" lon="6.91941">
        <ele>15</ele>
        <time>2012-02-26T08:05:15Z</time>
      </trkpt>
      <trkpt lat="43.59291" lon="6.91907">
        <ele>15</ele>
        <time>2012-02-26T08:05:20Z</time>
      </trkpt>
      <trkpt lat="43.59307" lon="6.91875">
        <ele>15</ele>
        <time>2012-02-26T08:05:25Z</time>
      </trkpt>
      <trkpt lat="43.59329" lon="6.91848">
        <ele>15</ele>
        <time>2012-02-26T08:05:30Z</time>
      </trkpt>
      <trkpt lat="43.59354" lon="6.91828">
        <ele>15</ele>
        <time>2012-02-26T08:05:35Z</time>
      </trkpt>
      <trkpt lat="43.59376" lon="6.9181">
        <ele>15</ele>
        <time>2012-02-26T08:05:40Z</time>
      </trkpt>
      <trkpt lat="43.59398" lon="6.91781">
        <ele>15</ele>
        <time>2012-02-26T08:05:45Z</time>
      </trkpt>
      <trkpt lat="43.59419" lon="6.91749">
        <ele>15</ele>
        <time>2012-02-26T08:05:50Z</time>
      </trkpt>
      <trkpt lat="43.59438" lon="6.9172">
        <ele>15</ele>
        <time>2012-02-26T08:05:55Z</time>
      </trkpt>
      <trkpt lat="43.5946" lon="6.91695">
        <ele>15</ele>
        <time>2012-02-26T08:06:00Z</time>
      </trkpt>
      <trkpt lat="43.59482" lon="6.91674">
        <ele>15</ele>
        <time>2012-02-26T08:06:05Z</time>
      </trkpt>
      <trkpt lat="43.59505" lon="6.91652">
        <ele>15</ele>
        <time>2012-02-26T08:06:10Z</time>
      </trkpt>
      <trkpt lat="43.59527" lon="6.91631">
        <ele>15</ele>
        <time>2012-02-26T08:06:15Z</time>
      </trkpt>
      <trkpt lat="43.59552" lon="6.91614">
        <ele>15</ele>
        <time>2012-02-26T08:06:20Z</time>
      </trkpt>
      <trkpt lat="43.59574" lon="6.9159">
        <ele>15</ele>
        <time>2012-02-26T08:06:25Z</time>
      </trkpt>
      <trkpt lat="43.59589" lon="6.91558">
        <ele>15</ele>
        <time>2012-02-26T08:06:30Z</time>
      </trkpt>
      <trkpt lat="43.59604" lon="6.91526">
        <ele>15</ele>
        <time>2012-02-26T08:06:35Z</time>
      </trkpt>
      <trkpt lat="43.59618" lon="6.91495">
        <ele>15</ele>
        <time>2012-02-26T08:06:40Z</time>
      </trkpt>
      <trkpt lat="43.59634" lon="6.91467">
        <ele>15</ele>
        <time>2012-02-26T08:06:45Z</time>
      </trkpt>
      <trkpt lat="43.59658" lon="6.91449">
        <ele>15</ele>
        <time>2012-02-26T08:06:50Z</time>
      </trkpt>
      <trkpt lat="43.59679" lon="6.91428">
        <ele>15</ele>
        <time>2012-02-26T08:06:55Z</time>
      </trkpt>
      <trkpt lat="43.59698" lon="6.91398">
        <ele>15</ele>
        <time>2012-02-26T08:07:00Z</time>
      </trkpt>
      <trkpt lat="43.5972" lon="6.91378">
        <ele>15</ele>
        <time>2012-02-26T08:07:05Z</time>
      </trkpt>
      <trkpt lat="43.59739" lon="6.91366">
        <ele>15</ele>
        <time>2012-02-26T08:07:10Z</time>
      </trkpt>
      <trkpt lat="43.59761" lon="6.91365">
        <ele>15</ele>
        <time>2012-02-26T08:07:15Z</time>
      </trkpt>
      <trkpt lat="43.59776" lon="6.91366">
        <ele>15</ele>
        <time>2012-02-26T08:07:20Z</time>
      </trkpt>
      <trkpt lat="43.5979" lon="6.91358">
        <ele>15</ele>
        <time>2012-02-26T08:07:25Z</time>
      </trkpt>
      <trkpt lat="43.5981" lon="6.91348">
        <ele>18</ele>
        <time>2012-02-26T08:07:30Z</time>
      </trkpt>
      <trkpt lat="43.59835" lon="6.9134">
        <ele>20</ele>
        <time>2012-02-26T08:07:35Z</time>
      </trkpt>
      <trkpt lat="43.59854" lon="6.91329">
        <ele>20</ele>
        <time>2012-02-26T08:07:40Z</time>
      </trkpt>
      <trkpt lat="43.59869" lon="6.91309">
        <ele>20</ele>
        <time>2012-02-26T08:07:45Z</time>
      </trkpt>
      <trkpt lat="43.59873" lon="6.91278">
        <ele>20</ele>
        <time>2012-02-26T08:07:50Z</time>
      </trkpt>
      <trkpt lat="43.59876" lon="6.91259">
        <ele>20</ele>
        <time>2012-02-26T08:07:56Z</time>
      </trkpt>
      <trkpt lat="43.59879" lon="6.91258">
        <ele>20</ele>
        <time>2012-02-26T08:08:01Z</time>
      </trkpt>
      <trkpt lat="43.59881" lon="6.91256">
        <ele>21</ele>
        <time>2012-02-26T08:08:06Z</time>
      </trkpt>
      <trkpt lat="43.59889" lon="6.91253">
        <ele>21</ele>
        <time>2012-02-26T08:08:11Z</time>
      </trkpt>
      <trkpt lat="43.599" lon="6.9125">
        <ele>22</ele>
        <time>2012-02-26T08:08:16Z</time>
      </trkpt>
      <trkpt lat="43.59908" lon="6.91235">
        <ele>22</ele>
        <time>2012-02-26T08:08:21Z</time>
      </trkpt>
      <trkpt lat="43.59919" lon="6.91231">
        <ele>22</ele>
        <time>2012-02-26T08:08:26Z</time>
      </trkpt>
      <trkpt lat="43.59924" lon="6.91227">
        <ele>22</ele>
        <time>2012-02-26T08:08:31Z</time>
      </trkpt>
      <trkpt lat="43.59922" lon="6.91215">
        <ele>22</ele>
        <time>2012-02-26T08:08:36Z</time>
      </trkpt>
      <trkpt lat="43.59919" lon="6.91205">
        <ele>22</ele>
        <time>2012-02-26T08:08:41Z</time>
      </trkpt>
      <trkpt lat="43.59915" lon="6.91196">
        <ele>22</ele>
        <time>2012-02-26T08:08:46Z</time>
      </trkpt>
      <trkpt lat="43.59912" lon="6.91186">
        <ele>22</ele>
        <time>2012-02-26T08:08:53Z</time>
      </trkpt>
      <trkpt lat="43.59911" lon="6.9118">
        <ele>22</ele>
        <time>2012-02-26T08:08:58Z</time>
      </trkpt>
      <trkpt lat="43.59911" lon="6.9117">
        <ele>22</ele>
        <time>2012-02-26T08:09:04Z</time>
      </trkpt>
      <trkpt lat="43.59912" lon="6.91167">
        <ele>23</ele>
        <time>2012-02-26T08:09:10Z</time>
      </trkpt>
      <trkpt lat="43.59911" lon="6.91164">
        <ele>26</ele>
        <time>2012-02-26T08:09:15Z</time>
      </trkpt>
      <trkpt lat="43.59911" lon="6.91161">
        <ele>30</ele>
        <time>2012-02-26T08:09:21Z</time>
      </trkpt>
      <trkpt lat="43.5991" lon="6.91156">
        <ele>32</ele>
        <time>2012-02-26T08:09:26Z</time>
      </trkpt>
      <trkpt lat="43.59909" lon="6.9115">
        <ele>32</ele>
        <time>2012-02-26T08:09:32Z</time>
      </trkpt>
      <trkpt lat="43.59908" lon="6.91142">
        <ele>32</ele>
        <time>2012-02-26T08:09:37Z</time>
      </trkpt>
      <trkpt lat="43.59908" lon="6.91134">
        <ele>32</ele>
        <time>2012-02-26T08:09:42Z</time>
      </trkpt>
      <trkpt lat="43.59906" lon="6.91127">
        <ele>32</ele>
        <time>2012-02-26T08:09:47Z</time>
      </trkpt>
      <trkpt lat="43.59904" lon="6.91118">
        <ele>31</ele>
        <time>2012-02-26T08:09:53Z</time>
      </trkpt>
      <trkpt lat="43.59903" lon="6.91112">
        <ele>30</ele>
        <time>2012-02-26T08:09:59Z</time>
      </trkpt>
      <trkpt lat="43.59904" lon="6.91103">
        <ele>30</ele>
        <time>2012-02-26T08:10:04Z</time>
      </trkpt>
      <trkpt lat="43.59905" lon="6.91086">
        <ele>30</ele>
        <time>2012-02-26T08:10:09Z</time>
      </trkpt>
      <trkpt lat="43.59906" lon="6.91074">
        <ele>30</ele>
        <time>2012-02-26T08:10:14Z</time>
      </trkpt>
      <trkpt lat="43.59899" lon="6.91062">
        <ele>30</ele>
        <time>2012-02-26T08:10:19Z</time>
      </trkpt>
      <trkpt lat="43.59891" lon="6.91042">
        <ele>30</ele>
        <time>2012-02-26T08:10:24Z</time>
      </trkpt>
      <trkpt lat="43.5989" lon="6.91035">
        <ele>32</ele>
        <time>2012-02-26T08:10:29Z</time>
      </trkpt>
      <trkpt lat="43.59885" lon="6.91021">
        <ele>32</ele>
        <time>2012-02-26T08:10:34Z</time>
      </trkpt>
      <trkpt lat="43.59885" lon="6.91018">
        <ele>32</ele>
        <time>2012-02-26T08:10:39Z</time>
      </trkpt>
      <trkpt lat="43.59883" lon="6.91015">
        <ele>32</ele>
        <time>2012-02-26T08:10:46Z</time>
      </trkpt>
      <trkpt lat="43.59883" lon="6.91012">
        <ele>32</ele>
        <time>2012-02-26T08:10:51Z</time>
      </trkpt>
      <trkpt lat="43.59881" lon="6.91009">
        <ele>32</ele>
        <time>2012-02-26T08:10:56Z</time>
      </trkpt>
      <trkpt lat="43.59879" lon="6.91006">
        <ele>32</ele>
        <time>2012-02-26T08:11:01Z</time>
      </trkpt>
      <trkpt lat="43.59876" lon="6.91007">
        <ele>32</ele>
        <time>2012-02-26T08:11:06Z</time>
      </trkpt>
      <trkpt lat="43.59875" lon="6.91007">
        <ele>28</ele>
        <time>2012-02-26T08:11:14Z</time>
      </trkpt>
      <trkpt lat="43.59872" lon="6.91005">
        <ele>26</ele>
        <time>2012-02-26T08:11:20Z</time>
      </trkpt>
      <trkpt lat="43.59873" lon="6.91005">
        <ele>23</ele>
        <time>2012-02-26T08:11:28Z</time>
      </trkpt>
      <trkpt lat="43.59873" lon="6.91004">
        <ele>22</ele>
        <time>2012-02-26T08:11:34Z</time>
      </trkpt>
      <trkpt lat="43.59875" lon="6.91006">
        <ele>22</ele>
        <time>2012-02-26T08:11:39Z</time>
      </trkpt>
      <trkpt lat="43.59876" lon="6.91005">
        <ele>22</ele>
        <time>2012-02-26T08:11:50Z</time>
      </trkpt>
      <trkpt lat="43.59876" lon="6.91001">
        <ele>22</ele>
        <time>2012-02-26T08:11:55Z</time>
      </trkpt>
      <trkpt lat="43.59876" lon="6.91">
        <ele>22</ele>
        <time>2012-02-26T08:12:02Z</time>
      </trkpt>
      <trkpt lat="43.59875" lon="6.91002">
        <ele>23</ele>
        <time>2012-02-26T08:12:12Z</time>
      </trkpt>
      <trkpt lat="43.59872" lon="6.91009">
        <ele>23</ele>
        <time>2012-02-26T08:12:18Z</time>
      </trkpt>
      <trkpt lat="43.59869" lon="6.91013">
        <ele>23</ele>
        <time>2012-02-26T08:12:24Z</time>
      </trkpt>
      <trkpt lat="43.59866" lon="6.91012">
        <ele>23</ele>
        <time>2012-02-26T08:12:32Z</time>
      </trkpt>
      <trkpt lat="43.59866" lon="6.91014">
        <ele>23</ele>
        <time>2012-02-26T08:12:37Z</time>
      </trkpt>
      <trkpt lat="43.59861" lon="6.91013">
        <ele>25</ele>
        <time>2012-02-26T08:12:47Z</time>
      </trkpt>
      <trkpt lat="43.59867" lon="6.9101">
        <ele>28</ele>
        <time>2012-02-26T08:12:57Z</time>
      </trkpt>
      <trkpt lat="43.59866" lon="6.91007">
        <ele>26</ele>
        <time>2012-02-26T08:13:02Z</time>
      </trkpt>
      <trkpt lat="43.59861" lon="6.91008">
        <ele>21</ele>
        <time>2012-02-26T08:13:07Z</time>
      </trkpt>
      <trkpt lat="43.59858" lon="6.91008">
        <ele>17</ele>
        <time>2012-02-26T08:13:14Z</time>
      </trkpt>
      <trkpt lat="43.59857" lon="6.91005">
        <ele>19</ele>
        <time>2012-02-26T08:13:22Z</time>
      </trkpt>
      <trkpt lat="43.59862" lon="6.91009">
        <ele>20</ele>
        <time>2012-02-26T08:13:27Z</time>
      </trkpt>
      <trkpt lat="43.59867" lon="6.9101">
        <ele>20</ele>
        <time>2012-02-26T08:13:33Z</time>
      </trkpt>
      <trkpt lat="43.59871" lon="6.91009">
        <ele>20</ele>
        <time>2012-02-26T08:13:38Z</time>
      </trkpt>
      <trkpt lat="43.59873" lon="6.91008">
        <ele>20</ele>
        <time>2012-02-26T08:13:46Z</time>
      </trkpt>
      <trkpt lat="43.59876" lon="6.91004">
        <ele>20</ele>
        <time>2012-02-26T08:13:52Z</time>
      </trkpt>
      <trkpt lat="43.59879" lon="6.91003">
        <ele>20</ele>
        <time>2012-02-26T08:13:57Z</time>
      </trkpt>
      <trkpt lat="43.5988" lon="6.91001">
        <ele>20</ele>
        <time>2012-02-26T08:14:02Z</time>
      </trkpt>
      <trkpt lat="43.5988" lon="6.91001">
        <ele>20</ele>
        <time>2012-02-26T08:14:11Z</time>
      </trkpt>
      <trkpt lat="43.59879" lon="6.90999">
        <ele>20</ele>
        <time>2012-02-26T08:14:17Z</time>
      </trkpt>
      <trkpt lat="43.59881" lon="6.90998">
        <ele>20</ele>
        <time>2012-02-26T08:14:23Z</time>
      </trkpt>
      <trkpt lat="43.59885" lon="6.90992">
        <ele>20</ele>
        <time>2012-02-26T08:14:29Z</time>
      </trkpt>
      <trkpt lat="43.59889" lon="6.90989">
        <ele>20</ele>
        <time>2012-02-26T08:14:34Z</time>
      </trkpt>
      <trkpt lat="43.59888" lon="6.90992">
        <ele>20</ele>
        <time>2012-02-26T08:14:39Z</time>
      </trkpt>
      <trkpt lat="43.59882" lon="6.90998">
        <ele>18</ele>
        <time>2012-02-26T08:14:45Z</time>
      </trkpt>
      <trkpt lat="43.59879" lon="6.91001">
        <ele>18</ele>
        <time>2012-02-26T08:14:54Z</time>
      </trkpt>
      <trkpt lat="43.59877" lon="6.91004">
        <ele>18</ele>
        <time>2012-02-26T08:15:02Z</time>
      </trkpt>
      <trkpt lat="43.5988" lon="6.91003">
        <ele>17</ele>
        <time>2012-02-26T08:15:07Z</time>
      </trkpt>
      <trkpt lat="43.5988" lon="6.91004">
        <ele>14</ele>
        <time>2012-02-26T08:15:14Z</time>
      </trkpt>
      <trkpt lat="43.59878" lon="6.91002">
        <ele>15</ele>
        <time>2012-02-26T08:15:24Z</time>
      </trkpt>
      <trkpt lat="43.59877" lon="6.91001">
        <ele>16</ele>
        <time>2012-02-26T08:15:31Z</time>
      </trkpt>
      <trkpt lat="43.59874" lon="6.91001">
        <ele>18</ele>
        <time>2012-02-26T08:15:37Z</time>
      </trkpt>
      <trkpt lat="43.59876" lon="6.91006">
        <ele>19</ele>
        <time>2012-02-26T08:15:42Z</time>
      </trkpt>
      <trkpt lat="43.59876" lon="6.91006">
        <ele>19</ele>
        <time>2012-02-26T08:15:48Z</time>
      </trkpt>
      <trkpt lat="43.59876" lon="6.91003">
        <ele>19</ele>
        <time>2012-02-26T08:15:54Z</time>
      </trkpt>
      <trkpt lat="43.59876" lon="6.91001">
        <ele>19</ele>
        <time>2012-02-26T08:16:01Z</time>
      </trkpt>
      <trkpt lat="43.59874" lon="6.90999">
        <ele>23</ele>
        <time>2012-02-26T08:16:10Z</time>
      </trkpt>
      <trkpt lat="43.59874" lon="6.91006">
        <ele>23</ele>
        <time>2012-02-26T08:16:16Z</time>
      </trkpt>
      <trkpt lat="43.59875" lon="6.91007">
        <ele>22</ele>
        <time>2012-02-26T08:16:28Z</time>
      </trkpt>
      <trkpt lat="43.59874" lon="6.91003">
        <ele>26</ele>
        <time>2012-02-26T08:16:33Z</time>
      </trkpt>
      <trkpt lat="43.59874" lon="6.90999">
        <ele>28</ele>
        <time>2012-02-26T08:16:41Z</time>
      </trkpt>
      <trkpt lat="43.59875" lon="6.90998">
        <ele>29</ele>
        <time>2012-02-26T08:16:47Z</time>
      </trkpt>
      <trkpt lat="43.59873" lon="6.90997">
        <ele>29</ele>
        <time>2012-02-26T08:16:56Z</time>
      </trkpt>
      <trkpt lat="43.59871" lon="6.90999">
        <ele>29</ele>
        <time>2012-02-26T08:17:02Z</time>
      </trkpt>
      <trkpt lat="43.59869" lon="6.90996">
        <ele>29</ele>
        <time>2012-02-26T08:17:12Z</time>
      </trkpt>
      <trkpt lat="43.59867" lon="6.90979">
        <ele>29</ele>
        <time>2012-02-26T08:17:17Z</time>
      </trkpt>
      <trkpt lat="43.59872" lon="6.90964">
        <ele>26</ele>
        <time>2012-02-26T08:17:22Z</time>
      </trkpt>
      <trkpt lat="43.59879" lon="6.90949">
        <ele>23</ele>
        <time>2012-02-26T08:17:27Z</time>
      </trkpt>
      <trkpt lat="43.59885" lon="6.90926">
        <ele>22</ele>
        <time>2012-02-26T08:17:32Z</time>
      </trkpt>
      <trkpt lat="43.59894" lon="6.90907">
        <ele>21</ele>
        <time>2012-02-26T08:17:37Z</time>
      </trkpt>
      <trkpt lat="43.59903" lon="6.90889">
        <ele>21</ele>
        <time>2012-02-26T08:17:42Z</time>
      </trkpt>
      <trkpt lat="43.5991" lon="6.9087">
        <ele>20</ele>
        <time>2012-02-26T08:17:47Z</time>
      </trkpt>
      <trkpt lat="43.59918" lon="6.90851">
        <ele>20</ele>
        <time>2012-02-26T08:17:52Z</time>
      </trkpt>
      <trkpt lat="43.59925" lon="6.90832">
        <ele>20</ele>
        <time>2012-02-26T08:17:57Z</time>
      </trkpt>
      <trkpt lat="43.59939" lon="6.90817">
        <ele>20</ele>
        <time>2012-02-26T08:18:02Z</time>
      </trkpt>
      <trkpt lat="43.59959" lon="6.90802">
        <ele>20</ele>
        <time>2012-02-26T08:18:07Z</time>
      </trkpt>
      <trkpt lat="43.59975" lon="6.90784">
        <ele>20</ele>
        <time>2012-02-26T08:18:12Z</time>
      </trkpt>
      <trkpt lat="43.59992" lon="6.90778">
        <ele>21</ele>
        <time>2012-02-26T08:18:17Z</time>
      </trkpt>
      <trkpt lat="43.60007" lon="6.90773">
        <ele>25</ele>
        <time>2012-02-26T08:18:22Z</time>
      </trkpt>
      <trkpt lat="43.60025" lon="6.9077">
        <ele>26</ele>
        <time>2012-02-26T08:18:27Z</time>
      </trkpt>
      <trkpt lat="43.60041" lon="6.90765">
        <ele>27</ele>
        <time>2012-02-26T08:18:32Z</time>
      </trkpt>
      <trkpt lat="43.60059" lon="6.90754">
        <ele>27</ele>
        <time>2012-02-26T08:18:37Z</time>
      </trkpt>
      <trkpt lat="43.60075" lon="6.90738">
        <ele>27</ele>
        <time>2012-02-26T08:18:42Z</time>
      </trkpt>
      <trkpt lat="43.60085" lon="6.9074">
        <ele>27</ele>
        <time>2012-02-26T08:18:47Z</time>
      </trkpt>
      <trkpt lat="43.601" lon="6.90738">
        <ele>27</ele>
        <time>2012-02-26T08:18:52Z</time>
      </trkpt>
      <trkpt lat="43.60115" lon="6.90736">
        <ele>27</ele>
        <time>2012-02-26T08:18:57Z</time>
      </trkpt>
      <trkpt lat="43.60131" lon="6.90727">
        <ele>26</ele>
        <time>2012-02-26T08:19:02Z</time>
      </trkpt>
      <trkpt lat="43.60146" lon="6.90713">
        <ele>25</ele>
        <time>2012-02-26T08:19:07Z</time>
      </trkpt>
      <trkpt lat="43.60162" lon="6.90698">
        <ele>25</ele>
        <time>2012-02-26T08:19:12Z</time>
      </trkpt>
      <trkpt lat="43.60177" lon="6.90682">
        <ele>24</ele>
        <time>2012-02-26T08:19:17Z</time>
      </trkpt>
      <trkpt lat="43.60193" lon="6.90665">
        <ele>24</ele>
        <time>2012-02-26T08:19:22Z</time>
      </trkpt>
      <trkpt lat="43.60209" lon="6.90641">
        <ele>24</ele>
        <time>2012-02-26T08:19:27Z</time>
      </trkpt>
      <trkpt lat="43.60227" lon="6.90624">
        <ele>24</ele>
        <time>2012-02-26T08:19:32Z</time>
      </trkpt>
      <trkpt lat="43.60244" lon="6.90607">
        <ele>24</ele>
        <time>2012-02-26T08:19:37Z</time>
      </trkpt>
      <trkpt lat="43.60261" lon="6.90592">
        <ele>24</ele>
        <time>2012-02-26T08:19:42Z</time>
      </trkpt>
      <trkpt lat="43.60274" lon="6.90587">
        <ele>23</ele>
        <time>2012-02-26T08:19:49Z</time>
      </trkpt>
      <trkpt lat="43.60286" lon="6.90582">
        <ele>22</ele>
        <time>2012-02-26T08:19:54Z</time>
      </trkpt>
      <trkpt lat="43.60296" lon="6.90573">
        <ele>22</ele>
        <time>2012-02-26T08:19:59Z</time>
      </trkpt>
      <trkpt lat="43.603" lon="6.90568">
        <ele>22</ele>
        <time>2012-02-26T08:20:05Z</time>
      </trkpt>
      <trkpt lat="43.60303" lon="6.90563">
        <ele>21</ele>
        <time>2012-02-26T08:20:11Z</time>
      </trkpt>
      <trkpt lat="43.60307" lon="6.90548">
        <ele>21</ele>
        <time>2012-02-26T08:20:16Z</time>
      </trkpt>
      <trkpt lat="43.60315" lon="6.90532">
        <ele>21</ele>
        <time>2012-02-26T08:20:22Z</time>
      </trkpt>
      <trkpt lat="43.60317" lon="6.90529">
        <ele>21</ele>
        <time>2012-02-26T08:20:28Z</time>
      </trkpt>
      <trkpt lat="43.60318" lon="6.90524">
        <ele>21</ele>
        <time>2012-02-26T08:20:33Z</time>
      </trkpt>
      <trkpt lat="43.60321" lon="6.90515">
        <ele>21</ele>
        <time>2012-02-26T08:20:39Z</time>
      </trkpt>
      <trkpt lat="43.60321" lon="6.9051">
        <ele>21</ele>
        <time>2012-02-26T08:20:44Z</time>
      </trkpt>
      <trkpt lat="43.60325" lon="6.90498">
        <ele>21</ele>
        <time>2012-02-26T08:20:49Z</time>
      </trkpt>
      <trkpt lat="43.60329" lon="6.90474">
        <ele>21</ele>
        <time>2012-02-26T08:20:54Z</time>
      </trkpt>
      <trkpt lat="43.60329" lon="6.90446">
        <ele>21</ele>
        <time>2012-02-26T08:20:59Z</time>
      </trkpt>
      <trkpt lat="43.60323" lon="6.90418">
        <ele>21</ele>
        <time>2012-02-26T08:21:04Z</time>
      </trkpt>
      <trkpt lat="43.60317" lon="6.90392">
        <ele>21</ele>
        <time>2012-02-26T08:21:09Z</time>
      </trkpt>
      <trkpt lat="43.60313" lon="6.90365">
        <ele>21</ele>
        <time>2012-02-26T08:21:14Z</time>
      </trkpt>
      <trkpt lat="43.60312" lon="6.90343">
        <ele>21</ele>
        <time>2012-02-26T08:21:19Z</time>
      </trkpt>
      <trkpt lat="43.60314" lon="6.90323">
        <ele>21</ele>
        <time>2012-02-26T08:21:24Z</time>
      </trkpt>
      <trkpt lat="43.60319" lon="6.90308">
        <ele>22</ele>
        <time>2012-02-26T08:21:29Z</time>
      </trkpt>
      <trkpt lat="43.60324" lon="6.90296">
        <ele>23</ele>
        <time>2012-02-26T08:21:34Z</time>
      </trkpt>
      <trkpt lat="43.60327" lon="6.90281">
        <ele>23</ele>
        <time>2012-02-26T08:21:39Z</time>
      </trkpt>
      <trkpt lat="43.60329" lon="6.90268">
        <ele>24</ele>
        <time>2012-02-26T08:21:44Z</time>
      </trkpt>
      <trkpt lat="43.60329" lon="6.90262">
        <ele>25</ele>
        <time>2012-02-26T08:21:49Z</time>
      </trkpt>
      <trkpt lat="43.60326" lon="6.90258">
        <ele>27</ele>
        <time>2012-02-26T08:21:55Z</time>
      </trkpt>
      <trkpt lat="43.60329" lon="6.90254">
        <ele>27</ele>
        <time>2012-02-26T08:22:00Z</time>
      </trkpt>
      <trkpt lat="43.60336" lon="6.9025">
        <ele>28</ele>
        <time>2012-02-26T08:22:05Z</time>
      </trkpt>
      <trkpt lat="43.60351" lon="6.90251">
        <ele>28</ele>
        <time>2012-02-26T08:22:10Z</time>
      </trkpt>
      <trkpt lat="43.60369" lon="6.90247">
        <ele>28</ele>
        <time>2012-02-26T08:22:15Z</time>
      </trkpt>
      <trkpt lat="43.60387" lon="6.90237">
        <ele>28</ele>
        <time>2012-02-26T08:22:20Z</time>
      </trkpt>
      <trkpt lat="43.60408" lon="6.90228">
        <ele>28</ele>
        <time>2012-02-26T08:22:25Z</time>
      </trkpt>
      <trkpt lat="43.6043" lon="6.9022">
        <ele>28</ele>
        <time>2012-02-26T08:22:30Z</time>
      </trkpt>
      <trkpt lat="43.60449" lon="6.90209">
        <ele>28</ele>
        <time>2012-02-26T08:22:35Z</time>
      </trkpt>
      <trkpt lat="43.60469" lon="6.90198">
        <ele>28</ele>
        <time>2012-02-26T08:22:40Z</time>
      </trkpt>
      <trkpt lat="43.6049" lon="6.90192">
        <ele>29</ele>
        <time>2012-02-26T08:22:45Z</time>
      </trkpt>
      <trkpt lat="43.60513" lon="6.90192">
        <ele>29</ele>
        <time>2012-02-26T08:22:50Z</time>
      </trkpt>
      <trkpt lat="43.60534" lon="6.90204">
        <ele>29</ele>
        <time>2012-02-26T08:22:55Z</time>
      </trkpt>
      <trkpt lat="43.60553" lon="6.90222">
        <ele>29</ele>
        <time>2012-02-26T08:23:00Z</time>
      </trkpt>
      <trkpt lat="43.60567" lon="6.90248">
        <ele>29</ele>
        <time>2012-02-26T08:23:06Z</time>
      </trkpt>
      <trkpt lat="43.60583" lon="6.90281">
        <ele>29</ele>
        <time>2012-02-26T08:23:11Z</time>
      </trkpt>
      <trkpt lat="43.60598" lon="6.90309">
        <ele>29</ele>
        <time>2012-02-26T08:23:16Z</time>
      </trkpt>
      <trkpt lat="43.60614" lon="6.90335">
        <ele>29</ele>
        <time>2012-02-26T08:23:21Z</time>
      </trkpt>
      <trkpt lat="43.60618" lon="6.90366">
        <ele>29</ele>
        <time>2012-02-26T08:23:26Z</time>
      </trkpt>
      <trkpt lat="43.60613" lon="6.90393">
        <ele>29</ele>
        <time>2012-02-26T08:23:31Z</time>
      </trkpt>
      <trkpt lat="43.60625" lon="6.90379">
        <ele>29</ele>
        <time>2012-02-26T08:23:36Z</time>
      </trkpt>
      <trkpt lat="43.60646" lon="6.90334">
        <ele>29</ele>
        <time>2012-02-26T08:23:41Z</time>
      </trkpt>
      <trkpt lat="43.60672" lon="6.90281">
        <ele>25</ele>
        <time>2012-02-26T08:23:46Z</time>
      </trkpt>
      <trkpt lat="43.60666" lon="6.9023">
        <ele>24</ele>
        <time>2012-02-26T08:23:51Z</time>
      </trkpt>
      <trkpt lat="43.60663" lon="6.90183">
        <ele>24</ele>
        <time>2012-02-26T08:23:56Z</time>
      </trkpt>
      <trkpt lat="43.60665" lon="6.90137">
        <ele>24</ele>
        <time>2012-02-26T08:24:01Z</time>
      </trkpt>
      <trkpt lat="43.60684" lon="6.90103">
        <ele>24</ele>
        <time>2012-02-26T08:24:06Z</time>
      </trkpt>
      <trkpt lat="43.60705" lon="6.90073">
        <ele>24</ele>
        <time>2012-02-26T08:24:11Z</time>
      </trkpt>
      <trkpt lat="43.60722" lon="6.90039">
        <ele>24</ele>
        <time>2012-02-26T08:24:16Z</time>
      </trkpt>
      <trkpt lat="43.60739" lon="6.90006">
        <ele>24</ele>
        <time>2012-02-26T08:24:21Z</time>
      </trkpt>
      <trkpt lat="43.60757" lon="6.89973">
        <ele>24</ele>
        <time>2012-02-26T08:24:26Z</time>
      </trkpt>
      <trkpt lat="43.60773" lon="6.8994">
        <ele>24</ele>
        <time>2012-02-26T08:24:31Z</time>
      </trkpt>
      <trkpt lat="43.60788" lon="6.89908">
        <ele>24</ele>
        <time>2012-02-26T08:24:36Z</time>
      </trkpt>
      <trkpt lat="43.60799" lon="6.89875">
        <ele>24</ele>
        <time>2012-02-26T08:24:41Z</time>
      </trkpt>
      <trkpt lat="43.60815" lon="6.89846">
        <ele>24</ele>
        <time>2012-02-26T08:24:46Z</time>
      </trkpt>
      <trkpt lat="43.60837" lon="6.89828">
        <ele>24</ele>
        <time>2012-02-26T08:24:51Z</time>
      </trkpt>
      <trkpt lat="43.6086" lon="6.8981">
        <ele>24</ele>
        <time>2012-02-26T08:24:56Z</time>
      </trkpt>
      <trkpt lat="43.6088" lon="6.89786">
        <ele>24</ele>
        <time>2012-02-26T08:25:01Z</time>
      </trkpt>
      <trkpt lat="43.60898" lon="6.89758">
        <ele>24</ele>
        <time>2012-02-26T08:25:06Z</time>
      </trkpt>
      <trkpt lat="43.60914" lon="6.89726">
        <ele>24</ele>
        <time>2012-02-26T08:25:11Z</time>
      </trkpt>
      <trkpt lat="43.60927" lon="6.89693">
        <ele>24</ele>
        <time>2012-02-26T08:25:16Z</time>
      </trkpt>
      <trkpt lat="43.60939" lon="6.89659">
        <ele>24</ele>
        <time>2012-02-26T08:25:21Z</time>
      </trkpt>
      <trkpt lat="43.60954" lon="6.89629">
        <ele>24</ele>
        <time>2012-02-26T08:25:26Z</time>
      </trkpt>
      <trkpt lat="43.60972" lon="6.89602">
        <ele>24</ele>
        <time>2012-02-26T08:25:31Z</time>
      </trkpt>
      <trkpt lat="43.60994" lon="6.8958">
        <ele>25</ele>
        <time>2012-02-26T08:25:36Z</time>
      </trkpt>
      <trkpt lat="43.61017" lon="6.89564">
        <ele>25</ele>
        <time>2012-02-26T08:25:41Z</time>
      </trkpt>
      <trkpt lat="43.61038" lon="6.89555">
        <ele>25</ele>
        <time>2012-02-26T08:25:46Z</time>
      </trkpt>
      <trkpt lat="43.61049" lon="6.89557">
        <ele>25</ele>
        <time>2012-02-26T08:25:53Z</time>
      </trkpt>
      <trkpt lat="43.61051" lon="6.89554">
        <ele>25</ele>
        <time>2012-02-26T08:26:00Z</time>
      </trkpt>
      <trkpt lat="43.61058" lon="6.8955">
        <ele>25</ele>
        <time>2012-02-26T08:26:05Z</time>
      </trkpt>
      <trkpt lat="43.61066" lon="6.89547">
        <ele>27</ele>
        <time>2012-02-26T08:26:10Z</time>
      </trkpt>
      <trkpt lat="43.61076" lon="6.89545">
        <ele>28</ele>
        <time>2012-02-26T08:26:15Z</time>
      </trkpt>
      <trkpt lat="43.61085" lon="6.89546">
        <ele>29</ele>
        <time>2012-02-26T08:26:20Z</time>
      </trkpt>
      <trkpt lat="43.61095" lon="6.89546">
        <ele>30</ele>
        <time>2012-02-26T08:26:25Z</time>
      </trkpt>
      <trkpt lat="43.61104" lon="6.89543">
        <ele>31</ele>
        <time>2012-02-26T08:26:30Z</time>
      </trkpt>
      <trkpt lat="43.61112" lon="6.8954">
        <ele>33</ele>
        <time>2012-02-26T08:26:35Z</time>
      </trkpt>
      <trkpt lat="43.61118" lon="6.89548">
        <ele>35</ele>
        <time>2012-02-26T08:26:40Z</time>
      </trkpt>
      <trkpt lat="43.61113" lon="6.89559">
        <ele>35</ele>
        <time>2012-02-26T08:26:45Z</time>
      </trkpt>
      <trkpt lat="43.61105" lon="6.89565">
        <ele>36</ele>
        <time>2012-02-26T08:26:50Z</time>
      </trkpt>
      <trkpt lat="43.61097" lon="6.8957">
        <ele>36</ele>
        <time>2012-02-26T08:26:55Z</time>
      </trkpt>
      <trkpt lat="43.6109" lon="6.89576">
        <ele>37</ele>
        <time>2012-02-26T08:27:00Z</time>
      </trkpt>
      <trkpt lat="43.61083" lon="6.8958">
        <ele>37</ele>
        <time>2012-02-26T08:27:05Z</time>
      </trkpt>
      <trkpt lat="43.61076" lon="6.89585">
        <ele>38</ele>
        <time>2012-02-26T08:27:10Z</time>
      </trkpt>
      <trkpt lat="43.61069" lon="6.8959">
        <ele>39</ele>
        <time>2012-02-26T08:27:15Z</time>
      </trkpt>
      <trkpt lat="43.61062" lon="6.89594">
        <ele>40</ele>
        <time>2012-02-26T08:27:20Z</time>
      </trkpt>
      <trkpt lat="43.61056" lon="6.89597">
        <ele>42</ele>
        <time>2012-02-26T08:27:25Z</time>
      </trkpt>
      <trkpt lat="43.61052" lon="6.89605">
        <ele>43</ele>
        <time>2012-02-26T08:27:30Z</time>
      </trkpt>
      <trkpt lat="43.61055" lon="6.89613">
        <ele>44</ele>
        <time>2012-02-26T08:27:35Z</time>
      </trkpt>
      <trkpt lat="43.61063" lon="6.89614">
        <ele>44</ele>
        <time>2012-02-26T08:27:40Z</time>
      </trkpt>
      <trkpt lat="43.6107" lon="6.89612">
        <ele>44</ele>
        <time>2012-02-26T08:27:45Z</time>
      </trkpt>
      <trkpt lat="43.61078" lon="6.89612">
        <ele>45</ele>
        <time>2012-02-26T08:27:50Z</time>
      </trkpt>
      <trkpt lat="43.61084" lon="6.89613">
        <ele>47</ele>
        <time>2012-02-26T08:27:55Z</time>
      </trkpt>
      <trkpt lat="43.61092" lon="6.89616">
        <ele>47</ele>
        <time>2012-02-26T08:28:00Z</time>
      </trkpt>
      <trkpt lat="43.61099" lon="6.89618">
        <ele>48</ele>
        <time>2012-02-26T08:28:05Z</time>
      </trkpt>
      <trkpt lat="43.61105" lon="6.89617">
        <ele>49</ele>
        <time>2012-02-26T08:28:10Z</time>
      </trkpt>
      <trkpt lat="43.61112" lon="6.89615">
        <ele>51</ele>
        <time>2012-02-26T08:28:16Z</time>
      </trkpt>
      <trkpt lat="43.61119" lon="6.89617">
        <ele>52</ele>
        <time>2012-02-26T08:28:21Z</time>
      </trkpt>
      <trkpt lat="43.6112" lon="6.89627">
        <ele>53</ele>
        <time>2012-02-26T08:28:26Z</time>
      </trkpt>
      <trkpt lat="43.61115" lon="6.89635">
        <ele>54</ele>
        <time>2012-02-26T08:28:31Z</time>
      </trkpt>
      <trkpt lat="43.61108" lon="6.89638">
        <ele>54</ele>
        <time>2012-02-26T08:28:36Z</time>
      </trkpt>
      <trkpt lat="43.61102" lon="6.89641">
        <ele>55</ele>
        <time>2012-02-26T08:28:41Z</time>
      </trkpt>
      <trkpt lat="43.61095" lon="6.89645">
        <ele>56</ele>
        <time>2012-02-26T08:28:46Z</time>
      </trkpt>
      <trkpt lat="43.61087" lon="6.89645">
        <ele>57</ele>
        <time>2012-02-26T08:28:51Z</time>
      </trkpt>
      <trkpt lat="43.61079" lon="6.89642">
        <ele>57</ele>
        <time>2012-02-26T08:28:56Z</time>
      </trkpt>
      <trkpt lat="43.61072" lon="6.8964">
        <ele>59</ele>
        <time>2012-02-26T08:29:01Z</time>
      </trkpt>
      <trkpt lat="43.61065" lon="6.89643">
        <ele>60</ele>
        <time>2012-02-26T08:29:06Z</time>
      </trkpt>
      <trkpt lat="43.61059" lon="6.89647">
        <ele>61</ele>
        <time>2012-02-26T08:29:11Z</time>
      </trkpt>
      <trkpt lat="43.61053" lon="6.89653">
        <ele>61</ele>
        <time>2012-02-26T08:29:16Z</time>
      </trkpt>
      <trkpt lat="43.61049" lon="6.8966">
        <ele>62</ele>
        <time>2012-02-26T08:29:21Z</time>
      </trkpt>
      <trkpt lat="43.61045" lon="6.89667">
        <ele>63</ele>
        <time>2012-02-26T08:29:26Z</time>
      </trkpt>
      <trkpt lat="43.61041" lon="6.89673">
        <ele>63</ele>
        <time>2012-02-26T08:29:31Z</time>
      </trkpt>
      <trkpt lat="43.61035" lon="6.89681">
        <ele>64</ele>
        <time>2012-02-26T08:29:37Z</time>
      </trkpt>
      <trkpt lat="43.61031" lon="6.8969">
        <ele>65</ele>
        <time>2012-02-26T08:29:42Z</time>
      </trkpt>
      <trkpt lat="43.61028" lon="6.89698">
        <ele>65</ele>
        <time>2012-02-26T08:29:47Z</time>
      </trkpt>
      <trkpt lat="43.61025" lon="6.89706">
        <ele>66</ele>
        <time>2012-02-26T08:29:52Z</time>
      </trkpt>
      <trkpt lat="43.61022" lon="6.89714">
        <ele>67</ele>
        <time>2012-02-26T08:29:57Z</time>
      </trkpt>
      <trkpt lat="43.61021" lon="6.89724">
        <ele>68</ele>
        <time>2012-02-26T08:30:02Z</time>
      </trkpt>
      <trkpt lat="43.61019" lon="6.89734">
        <ele>69</ele>
        <time>2012-02-26T08:30:07Z</time>
      </trkpt>
      <trkpt lat="43.61014" lon="6.89742">
        <ele>70</ele>
        <time>2012-02-26T08:30:13Z</time>
      </trkpt>
      <trkpt lat="43.61012" lon="6.8975">
        <ele>71</ele>
        <time>2012-02-26T08:30:18Z</time>
      </trkpt>
      <trkpt lat="43.61011" lon="6.89759">
        <ele>72</ele>
        <time>2012-02-26T08:30:23Z</time>
      </trkpt>
      <trkpt lat="43.61008" lon="6.89767">
        <ele>73</ele>
        <time>2012-02-26T08:30:28Z</time>
      </trkpt>
      <trkpt lat="43.61007" lon="6.89776">
        <ele>74</ele>
        <time>2012-02-26T08:30:33Z</time>
      </trkpt>
      <trkpt lat="43.61005" lon="6.89785">
        <ele>75</ele>
        <time>2012-02-26T08:30:38Z</time>
      </trkpt>
      <trkpt lat="43.61004" lon="6.89794">
        <ele>75</ele>
        <time>2012-02-26T08:30:43Z</time>
      </trkpt>
      <trkpt lat="43.61002" lon="6.89803">
        <ele>76</ele>
        <time>2012-02-26T08:30:48Z</time>
      </trkpt>
      <trkpt lat="43.61002" lon="6.89813">
        <ele>77</ele>
        <time>2012-02-26T08:30:53Z</time>
      </trkpt>
      <trkpt lat="43.61" lon="6.89822">
        <ele>79</ele>
        <time>2012-02-26T08:30:58Z</time>
      </trkpt>
      <trkpt lat="43.61002" lon="6.89831">
        <ele>79</ele>
        <time>2012-02-26T08:31:03Z</time>
      </trkpt>
      <trkpt lat="43.61003" lon="6.89841">
        <ele>79</ele>
        <time>2012-02-26T08:31:08Z</time>
      </trkpt>
      <trkpt lat="43.61003" lon="6.8985">
        <ele>80</ele>
        <time>2012-02-26T08:31:13Z</time>
      </trkpt>
      <trkpt lat="43.61" lon="6.8986">
        <ele>81</ele>
        <time>2012-02-26T08:31:18Z</time>
      </trkpt>
      <trkpt lat="43.60995" lon="6.89867">
        <ele>82</ele>
        <time>2012-02-26T08:31:23Z</time>
      </trkpt>
      <trkpt lat="43.60991" lon="6.89875">
        <ele>82</ele>
        <time>2012-02-26T08:31:28Z</time>
      </trkpt>
      <trkpt lat="43.60986" lon="6.89882">
        <ele>82</ele>
        <time>2012-02-26T08:31:33Z</time>
      </trkpt>
      <trkpt lat="43.60981" lon="6.89891">
        <ele>83</ele>
        <time>2012-02-26T08:31:38Z</time>
      </trkpt>
      <trkpt lat="43.60978" lon="6.899">
        <ele>84</ele>
        <time>2012-02-26T08:31:43Z</time>
      </trkpt>
      <trkpt lat="43.60973" lon="6.89909">
        <ele>85</ele>
        <time>2012-02-26T08:31:48Z</time>
      </trkpt>
      <trkpt lat="43.6097" lon="6.89918">
        <ele>86</ele>
        <time>2012-02-26T08:31:53Z</time>
      </trkpt>
      <trkpt lat="43.60968" lon="6.89928">
        <ele>87</ele>
        <time>2012-02-26T08:31:58Z</time>
      </trkpt>
      <trkpt lat="43.60965" lon="6.89937">
        <ele>88</ele>
        <time>2012-02-26T08:32:03Z</time>
      </trkpt>
      <trkpt lat="43.60963" lon="6.89947">
        <ele>89</ele>
        <time>2012-02-26T08:32:08Z</time>
      </trkpt>
      <trkpt lat="43.60962" lon="6.89956">
        <ele>89</ele>
        <time>2012-02-26T08:32:13Z</time>
      </trkpt>
      <trkpt lat="43.6096" lon="6.89965">
        <ele>90</ele>
        <time>2012-02-26T08:32:18Z</time>
      </trkpt>
      <trkpt lat="43.60957" lon="6.89976">
        <ele>91</ele>
        <time>2012-02-26T08:32:23Z</time>
      </trkpt>
      <trkpt lat="43.60956" lon="6.89987">
        <ele>91</ele>
        <time>2012-02-26T08:32:28Z</time>
      </trkpt>
      <trkpt lat="43.60956" lon="6.89998">
        <ele>92</ele>
        <time>2012-02-26T08:32:33Z</time>
      </trkpt>
      <trkpt lat="43.60956" lon="6.90011">
        <ele>92</ele>
        <time>2012-02-26T08:32:38Z</time>
      </trkpt>
      <trkpt lat="43.60957" lon="6.90023">
        <ele>92</ele>
        <time>2012-02-26T08:32:43Z</time>
      </trkpt>
      <trkpt lat="43.6096" lon="6.90034">
        <ele>94</ele>
        <time>2012-02-26T08:32:48Z</time>
      </trkpt>
      <trkpt lat="43.60962" lon="6.90045">
        <ele>95</ele>
        <time>2012-02-26T08:32:53Z</time>
      </trkpt>
      <trkpt lat="43.60968" lon="6.90055">
        <ele>96</ele>
        <time>2012-02-26T08:32:58Z</time>
      </trkpt>
      <trkpt lat="43.60976" lon="6.90061">
        <ele>97</ele>
        <time>2012-02-26T08:33:03Z</time>
      </trkpt>
      <trkpt lat="43.60985" lon="6.90066">
        <ele>98</ele>
        <time>2012-02-26T08:33:08Z</time>
      </trkpt>
      <trkpt lat="43.60995" lon="6.90073">
        <ele>99</ele>
        <time>2012-02-26T08:33:13Z</time>
      </trkpt>
      <trkpt lat="43.61002" lon="6.90085">
        <ele>100</ele>
        <time>2012-02-26T08:33:18Z</time>
      </trkpt>
      <trkpt lat="43.61008" lon="6.90097">
        <ele>100</ele>
        <time>2012-02-26T08:33:23Z</time>
      </trkpt>
      <trkpt lat="43.61015" lon="6.90108">
        <ele>101</ele>
        <time>2012-02-26T08:33:28Z</time>
      </trkpt>
      <trkpt lat="43.61023" lon="6.90117">
        <ele>101</ele>
        <time>2012-02-26T08:33:33Z</time>
      </trkpt>
      <trkpt lat="43.61033" lon="6.90127">
        <ele>102</ele>
        <time>2012-02-26T08:33:38Z</time>
      </trkpt>
      <trkpt lat="43.61043" lon="6.9014">
        <ele>102</ele>
        <time>2012-02-26T08:33:43Z</time>
      </trkpt>
      <trkpt lat="43.61052" lon="6.90156">
        <ele>103</ele>
        <time>2012-02-26T08:33:48Z</time>
      </trkpt>
      <trkpt lat="43.61066" lon="6.90164">
        <ele>104</ele>
        <time>2012-02-26T08:33:53Z</time>
      </trkpt>
      <trkpt lat="43.61082" lon="6.90172">
        <ele>104</ele>
        <time>2012-02-26T08:33:58Z</time>
      </trkpt>
      <trkpt lat="43.61093" lon="6.90186">
        <ele>104</ele>
        <time>2012-02-26T08:34:03Z</time>
      </trkpt>
      <trkpt lat="43.61107" lon="6.9019">
        <ele>105</ele>
        <time>2012-02-26T08:34:08Z</time>
      </trkpt>
      <trkpt lat="43.61122" lon="6.90187">
        <ele>106</ele>
        <time>2012-02-26T08:34:13Z</time>
      </trkpt>
      <trkpt lat="43.61137" lon="6.90184">
        <ele>106</ele>
        <time>2012-02-26T08:34:18Z</time>
      </trkpt>
      <trkpt lat="43.61153" lon="6.90187">
        <ele>106</ele>
        <time>2012-02-26T08:34:23Z</time>
      </trkpt>
      <trkpt lat="43.61163" lon="6.90205">
        <ele>106</ele>
        <time>2012-02-26T08:34:28Z</time>
      </trkpt>
      <trkpt lat="43.61163" lon="6.90233">
        <ele>106</ele>
        <time>2012-02-26T08:34:33Z</time>
      </trkpt>
      <trkpt lat="43.61153" lon="6.90255">
        <ele>106</ele>
        <time>2012-02-26T08:34:38Z</time>
      </trkpt>
      <trkpt lat="43.6114" lon="6.90274">
        <ele>106</ele>
        <time>2012-02-26T08:34:43Z</time>
      </trkpt>
      <trkpt lat="43.61135" lon="6.90297">
        <ele>106</ele>
        <time>2012-02-26T08:34:48Z</time>
      </trkpt>
      <trkpt lat="43.61132" lon="6.90322">
        <ele>106</ele>
        <time>2012-02-26T08:34:53Z</time>
      </trkpt>
      <trkpt lat="43.61129" lon="6.90347">
        <ele>106</ele>
        <time>2012-02-26T08:34:58Z</time>
      </trkpt>
      <trkpt lat="43.61128" lon="6.90371">
        <ele>107</ele>
        <time>2012-02-26T08:35:03Z</time>
      </trkpt>
      <trkpt lat="43.61133" lon="6.90391">
        <ele>107</ele>
        <time>2012-02-26T08:35:08Z</time>
      </trkpt>
      <trkpt lat="43.61144" lon="6.90407">
        <ele>108</ele>
        <time>2012-02-26T08:35:13Z</time>
      </trkpt>
      <trkpt lat="43.61153" lon="6.90432">
        <ele>108</ele>
        <time>2012-02-26T08:35:18Z</time>
      </trkpt>
      <trkpt lat="43.6116" lon="6.90456">
        <ele>109</ele>
        <time>2012-02-26T08:35:23Z</time>
      </trkpt>
      <trkpt lat="43.61158" lon="6.90478">
        <ele>110</ele>
        <time>2012-02-26T08:35:28Z</time>
      </trkpt>
      <trkpt lat="43.6115" lon="6.90494">
        <ele>111</ele>
        <time>2012-02-26T08:35:33Z</time>
      </trkpt>
      <trkpt lat="43.61143" lon="6.90515">
        <ele>111</ele>
        <time>2012-02-26T08:35:38Z</time>
      </trkpt>
      <trkpt lat="43.61149" lon="6.90533">
        <ele>112</ele>
        <time>2012-02-26T08:35:43Z</time>
      </trkpt>
      <trkpt lat="43.61162" lon="6.90544">
        <ele>112</ele>
        <time>2012-02-26T08:35:48Z</time>
      </trkpt>
      <trkpt lat="43.61178" lon="6.9055">
        <ele>113</ele>
        <time>2012-02-26T08:35:53Z</time>
      </trkpt>
      <trkpt lat="43.6119" lon="6.90563">
        <ele>113</ele>
        <time>2012-02-26T08:35:58Z</time>
      </trkpt>
      <trkpt lat="43.61183" lon="6.90583">
        <ele>114</ele>
        <time>2012-02-26T08:36:03Z</time>
      </trkpt>
      <trkpt lat="43.61176" lon="6.90602">
        <ele>115</ele>
        <time>2012-02-26T08:36:08Z</time>
      </trkpt>
      <trkpt lat="43.61172" lon="6.90623">
        <ele>115</ele>
        <time>2012-02-26T08:36:13Z</time>
      </trkpt>
      <trkpt lat="43.61174" lon="6.90647">
        <ele>115</ele>
        <time>2012-02-26T08:36:18Z</time>
      </trkpt>
      <trkpt lat="43.6118" lon="6.90669">
        <ele>116</ele>
        <time>2012-02-26T08:36:23Z</time>
      </trkpt>
      <trkpt lat="43.61179" lon="6.90691">
        <ele>117</ele>
        <time>2012-02-26T08:36:28Z</time>
      </trkpt>
      <trkpt lat="43.61171" lon="6.90707">
        <ele>118</ele>
        <time>2012-02-26T08:36:33Z</time>
      </trkpt>
      <trkpt lat="43.61171" lon="6.90729">
        <ele>118</ele>
        <time>2012-02-26T08:36:38Z</time>
      </trkpt>
      <trkpt lat="43.61176" lon="6.9075">
        <ele>119</ele>
        <time>2012-02-26T08:36:43Z</time>
      </trkpt>
      <trkpt lat="43.61177" lon="6.90772">
        <ele>119</ele>
        <time>2012-02-26T08:36:48Z</time>
      </trkpt>
      <trkpt lat="43.61185" lon="6.90791">
        <ele>119</ele>
        <time>2012-02-26T08:36:53Z</time>
      </trkpt>
      <trkpt lat="43.6119" lon="6.90808">
        <ele>119</ele>
        <time>2012-02-26T08:36:58Z</time>
      </trkpt>
      <trkpt lat="43.61182" lon="6.90819">
        <ele>121</ele>
        <time>2012-02-26T08:37:03Z</time>
      </trkpt>
      <trkpt lat="43.61173" lon="6.90827">
        <ele>123</ele>
        <time>2012-02-26T08:37:08Z</time>
      </trkpt>
      <trkpt lat="43.61176" lon="6.90838">
        <ele>123</ele>
        <time>2012-02-26T08:37:13Z</time>
      </trkpt>
      <trkpt lat="43.61185" lon="6.90844">
        <ele>123</ele>
        <time>2012-02-26T08:37:18Z</time>
      </trkpt>
      <trkpt lat="43.61193" lon="6.90848">
        <ele>124</ele>
        <time>2012-02-26T08:37:23Z</time>
      </trkpt>
      <trkpt lat="43.612" lon="6.9085">
        <ele>125</ele>
        <time>2012-02-26T08:37:28Z</time>
      </trkpt>
      <trkpt lat="43.61211" lon="6.90853">
        <ele>126</ele>
        <time>2012-02-26T08:37:33Z</time>
      </trkpt>
      <trkpt lat="43.61221" lon="6.90854">
        <ele>127</ele>
        <time>2012-02-26T08:37:38Z</time>
      </trkpt>
      <trkpt lat="43.61229" lon="6.90849">
        <ele>128</ele>
        <time>2012-02-26T08:37:43Z</time>
      </trkpt>
      <trkpt lat="43.61236" lon="6.90843">
        <ele>128</ele>
        <time>2012-02-26T08:37:48Z</time>
      </trkpt>
      <trkpt lat="43.61244" lon="6.90838">
        <ele>130</ele>
        <time>2012-02-26T08:37:53Z</time>
      </trkpt>
      <trkpt lat="43.6125" lon="6.90832">
        <ele>131</ele>
        <time>2012-02-26T08:37:58Z</time>
      </trkpt>
      <trkpt lat="43.61256" lon="6.90826">
        <ele>132</ele>
        <time>2012-02-26T08:38:03Z</time>
      </trkpt>
      <trkpt lat="43.61263" lon="6.90823">
        <ele>133</ele>
        <time>2012-02-26T08:38:08Z</time>
      </trkpt>
      <trkpt lat="43.61269" lon="6.90821">
        <ele>134</ele>
        <time>2012-02-26T08:38:13Z</time>
      </trkpt>
      <trkpt lat="43.61274" lon="6.90813">
        <ele>135</ele>
        <time>2012-02-26T08:38:18Z</time>
      </trkpt>
      <trkpt lat="43.61273" lon="6.90803">
        <ele>135</ele>
        <time>2012-02-26T08:38:23Z</time>
      </trkpt>
      <trkpt lat="43.61269" lon="6.90794">
        <ele>136</ele>
        <time>2012-02-26T08:38:28Z</time>
      </trkpt>
      <trkpt lat="43.61263" lon="6.90785">
        <ele>136</ele>
        <time>2012-02-26T08:38:33Z</time>
      </trkpt>
      <trkpt lat="43.61256" lon="6.90777">
        <ele>136</ele>
        <time>2012-02-26T08:38:38Z</time>
      </trkpt>
      <trkpt lat="43.61249" lon="6.90769">
        <ele>137</ele>
        <time>2012-02-26T08:38:43Z</time>
      </trkpt>
      <trkpt lat="43.61244" lon="6.90763">
        <ele>139</ele>
        <time>2012-02-26T08:38:48Z</time>
      </trkpt>
      <trkpt lat="43.6124" lon="6.90754">
        <ele>140</ele>
        <time>2012-02-26T08:38:53Z</time>
      </trkpt>
      <trkpt lat="43.61239" lon="6.90743">
        <ele>141</ele>
        <time>2012-02-26T08:38:58Z</time>
      </trkpt>
      <trkpt lat="43.6124" lon="6.90732">
        <ele>142</ele>
        <time>2012-02-26T08:39:03Z</time>
      </trkpt>
      <trkpt lat="43.61245" lon="6.90721">
        <ele>143</ele>
        <time>2012-02-26T08:39:08Z</time>
      </trkpt>
      <trkpt lat="43.61249" lon="6.90711">
        <ele>143</ele>
        <time>2012-02-26T08:39:13Z</time>
      </trkpt>
      <trkpt lat="43.61251" lon="6.907">
        <ele>144</ele>
        <time>2012-02-26T08:39:18Z</time>
      </trkpt>
      <trkpt lat="43.61252" lon="6.90687">
        <ele>145</ele>
        <time>2012-02-26T08:39:23Z</time>
      </trkpt>
      <trkpt lat="43.61252" lon="6.90674">
        <ele>145</ele>
        <time>2012-02-26T08:39:28Z</time>
      </trkpt>
      <trkpt lat="43.61252" lon="6.9066">
        <ele>146</ele>
        <time>2012-02-26T08:39:33Z</time>
      </trkpt>
      <trkpt lat="43.61255" lon="6.90648">
        <ele>146</ele>
        <time>2012-02-26T08:39:38Z</time>
      </trkpt>
      <trkpt lat="43.61259" lon="6.90638">
        <ele>146</ele>
        <time>2012-02-26T08:39:43Z</time>
      </trkpt>
      <trkpt lat="43.61264" lon="6.90628">
        <ele>147</ele>
        <time>2012-02-26T08:39:48Z</time>
      </trkpt>
      <trkpt lat="43.61267" lon="6.90618">
        <ele>147</ele>
        <time>2012-02-26T08:39:53Z</time>
      </trkpt>
      <trkpt lat="43.61271" lon="6.90607">
        <ele>148</ele>
        <time>2012-02-26T08:39:58Z</time>
      </trkpt>
      <trkpt lat="43.61277" lon="6.90597">
        <ele>149</ele>
        <time>2012-02-26T08:40:03Z</time>
      </trkpt>
      <trkpt lat="43.61282" lon="6.90589">
        <ele>150</ele>
        <time>2012-02-26T08:40:08Z</time>
      </trkpt>
      <trkpt lat="43.61285" lon="6.90577">
        <ele>150</ele>
        <time>2012-02-26T08:40:13Z</time>
      </trkpt>
      <trkpt lat="43.61285" lon="6.90563">
        <ele>150</ele>
        <time>2012-02-26T08:40:18Z</time>
      </trkpt>
      <trkpt lat="43.6128" lon="6.90551">
        <ele>151</ele>
        <time>2012-02-26T08:40:23Z</time>
      </trkpt>
      <trkpt lat="43.61279" lon="6.90536">
        <ele>152</ele>
        <time>2012-02-26T08:40:28Z</time>
      </trkpt>
      <trkpt lat="43.61283" lon="6.90526">
        <ele>153</ele>
        <time>2012-02-26T08:40:33Z</time>
      </trkpt>
      <trkpt lat="43.6129" lon="6.90521">
        <ele>154</ele>
        <time>2012-02-26T08:40:38Z</time>
      </trkpt>
      <trkpt lat="43.61298" lon="6.90519">
        <ele>155</ele>
        <time>2012-02-26T08:40:43Z</time>
      </trkpt>
      <trkpt lat="43.61307" lon="6.90518">
        <ele>156</ele>
        <time>2012-02-26T08:40:48Z</time>
      </trkpt>
      <trkpt lat="43.61315" lon="6.90515">
        <ele>157</ele>
        <time>2012-02-26T08:40:53Z</time>
      </trkpt>
      <trkpt lat="43.61324" lon="6.90513">
        <ele>157</ele>
        <time>2012-02-26T08:40:58Z</time>
      </trkpt>
      <trkpt lat="43.61332" lon="6.9051">
        <ele>158</ele>
        <time>2012-02-26T08:41:03Z</time>
      </trkpt>
      <trkpt lat="43.6134" lon="6.9051">
        <ele>159</ele>
        <time>2012-02-26T08:41:08Z</time>
      </trkpt>
      <trkpt lat="43.61349" lon="6.90505">
        <ele>159</ele>
        <time>2012-02-26T08:41:13Z</time>
      </trkpt>
      <trkpt lat="43.61354" lon="6.90494">
        <ele>159</ele>
        <time>2012-02-26T08:41:18Z</time>
      </trkpt>
      <trkpt lat="43.61354" lon="6.90481">
        <ele>159</ele>
        <time>2012-02-26T08:41:23Z</time>
      </trkpt>
      <trkpt lat="43.61348" lon="6.90474">
        <ele>159</ele>
        <time>2012-02-26T08:41:28Z</time>
      </trkpt>
      <trkpt lat="43.61339" lon="6.90469">
        <ele>159</ele>
        <time>2012-02-26T08:41:33Z</time>
      </trkpt>
      <trkpt lat="43.61329" lon="6.90463">
        <ele>159</ele>
        <time>2012-02-26T08:41:38Z</time>
      </trkpt>
      <trkpt lat="43.61318" lon="6.90456">
        <ele>159</ele>
        <time>2012-02-26T08:41:43Z</time>
      </trkpt>
      <trkpt lat="43.61308" lon="6.90447">
        <ele>159</ele>
        <time>2012-02-26T08:41:48Z</time>
      </trkpt>
      <trkpt lat="43.61297" lon="6.90439">
        <ele>159</ele>
        <time>2012-02-26T08:41:53Z</time>
      </trkpt>
      <trkpt lat="43.61287" lon="6.9043">
        <ele>160</ele>
        <time>2012-02-26T08:41:58Z</time>
      </trkpt>
      <trkpt lat="43.61277" lon="6.90422">
        <ele>160</ele>
        <time>2012-02-26T08:42:03Z</time>
      </trkpt>
      <trkpt lat="43.61267" lon="6.90411">
        <ele>160</ele>
        <time>2012-02-26T08:42:08Z</time>
      </trkpt>
      <trkpt lat="43.6126" lon="6.90396">
        <ele>162</ele>
        <time>2012-02-26T08:42:13Z</time>
      </trkpt>
      <trkpt lat="43.61259" lon="6.90379">
        <ele>164</ele>
        <time>2012-02-26T08:42:18Z</time>
      </trkpt>
      <trkpt lat="43.61264" lon="6.90363">
        <ele>164</ele>
        <time>2012-02-26T08:42:23Z</time>
      </trkpt>
      <trkpt lat="43.61271" lon="6.90349">
        <ele>165</ele>
        <time>2012-02-26T08:42:28Z</time>
      </trkpt>
      <trkpt lat="43.61281" lon="6.90336">
        <ele>165</ele>
        <time>2012-02-26T08:42:33Z</time>
      </trkpt>
      <trkpt lat="43.61291" lon="6.90327">
        <ele>165</ele>
        <time>2012-02-26T08:42:38Z</time>
      </trkpt>
      <trkpt lat="43.61298" lon="6.90317">
        <ele>165</ele>
        <time>2012-02-26T08:42:43Z</time>
      </trkpt>
      <trkpt lat="43.61301" lon="6.90304">
        <ele>166</ele>
        <time>2012-02-26T08:42:48Z</time>
      </trkpt>
      <trkpt lat="43.61298" lon="6.9029">
        <ele>167</ele>
        <time>2012-02-26T08:42:53Z</time>
      </trkpt>
      <trkpt lat="43.61293" lon="6.90276">
        <ele>167</ele>
        <time>2012-02-26T08:42:58Z</time>
      </trkpt>
      <trkpt lat="43.61287" lon="6.90262">
        <ele>168</ele>
        <time>2012-02-26T08:43:03Z</time>
      </trkpt>
      <trkpt lat="43.61284" lon="6.90243">
        <ele>168</ele>
        <time>2012-02-26T08:43:08Z</time>
      </trkpt>
      <trkpt lat="43.61283" lon="6.90224">
        <ele>168</ele>
        <time>2012-02-26T08:43:13Z</time>
      </trkpt>
      <trkpt lat="43.61281" lon="6.90199">
        <ele>169</ele>
        <time>2012-02-26T08:43:18Z</time>
      </trkpt>
      <trkpt lat="43.6128" lon="6.90168">
        <ele>169</ele>
        <time>2012-02-26T08:43:23Z</time>
      </trkpt>
      <trkpt lat="43.61282" lon="6.90136">
        <ele>169</ele>
        <time>2012-02-26T08:43:28Z</time>
      </trkpt>
      <trkpt lat="43.61281" lon="6.90104">
        <ele>169</ele>
        <time>2012-02-26T08:43:33Z</time>
      </trkpt>
      <trkpt lat="43.61275" lon="6.90077">
        <ele>169</ele>
        <time>2012-02-26T08:43:38Z</time>
      </trkpt>
      <trkpt lat="43.61264" lon="6.90057">
        <ele>169</ele>
        <time>2012-02-26T08:43:43Z</time>
      </trkpt>
      <trkpt lat="43.61253" lon="6.90045">
        <ele>169</ele>
        <time>2012-02-26T08:43:48Z</time>
      </trkpt>
      <trkpt lat="43.6124" lon="6.90037">
        <ele>169</ele>
        <time>2012-02-26T08:43:53Z</time>
      </trkpt>
      <trkpt lat="43.61227" lon="6.90033">
        <ele>169</ele>
        <time>2012-02-26T08:43:58Z</time>
      </trkpt>
      <trkpt lat="43.61217" lon="6.90025">
        <ele>169</ele>
        <time>2012-02-26T08:44:03Z</time>
      </trkpt>
      <trkpt lat="43.61214" lon="6.90015">
        <ele>170</ele>
        <time>2012-02-26T08:44:08Z</time>
      </trkpt>
      <trkpt lat="43.61214" lon="6.9001">
        <ele>173</ele>
        <time>2012-02-26T08:44:39Z</time>
      </trkpt>
      <trkpt lat="43.61217" lon="6.89999">
        <ele>173</ele>
        <time>2012-02-26T08:44:44Z</time>
      </trkpt>
      <trkpt lat="43.61225" lon="6.8999">
        <ele>173</ele>
        <time>2012-02-26T08:44:49Z</time>
      </trkpt>
      <trkpt lat="43.61232" lon="6.89976">
        <ele>173</ele>
        <time>2012-02-26T08:44:54Z</time>
      </trkpt>
      <trkpt lat="43.6124" lon="6.89962">
        <ele>174</ele>
        <time>2012-02-26T08:44:59Z</time>
      </trkpt>
      <trkpt lat="43.61247" lon="6.89948">
        <ele>175</ele>
        <time>2012-02-26T08:45:04Z</time>
      </trkpt>
      <trkpt lat="43.61255" lon="6.89934">
        <ele>176</ele>
        <time>2012-02-26T08:45:09Z</time>
      </trkpt>
      <trkpt lat="43.61262" lon="6.89917">
        <ele>177</ele>
        <time>2012-02-26T08:45:14Z</time>
      </trkpt>
      <trkpt lat="43.61271" lon="6.89904">
        <ele>178</ele>
        <time>2012-02-26T08:45:19Z</time>
      </trkpt>
      <trkpt lat="43.61281" lon="6.89892">
        <ele>178</ele>
        <time>2012-02-26T08:45:24Z</time>
      </trkpt>
      <trkpt lat="43.61293" lon="6.89885">
        <ele>178</ele>
        <time>2012-02-26T08:45:29Z</time>
      </trkpt>
      <trkpt lat="43.61305" lon="6.89879">
        <ele>178</ele>
        <time>2012-02-26T08:45:34Z</time>
      </trkpt>
      <trkpt lat="43.61317" lon="6.89875">
        <ele>178</ele>
        <time>2012-02-26T08:45:39Z</time>
      </trkpt>
      <trkpt lat="43.6133" lon="6.89872">
        <ele>179</ele>
        <time>2012-02-26T08:45:44Z</time>
      </trkpt>
      <trkpt lat="43.61344" lon="6.89869">
        <ele>179</ele>
        <time>2012-02-26T08:45:49Z</time>
      </trkpt>
      <trkpt lat="43.61362" lon="6.89873">
        <ele>179</ele>
        <time>2012-02-26T08:45:54Z</time>
      </trkpt>
      <trkpt lat="43.6138" lon="6.89878">
        <ele>179</ele>
        <time>2012-02-26T08:45:59Z</time>
      </trkpt>
      <trkpt lat="43.61397" lon="6.89886">
        <ele>179</ele>
        <time>2012-02-26T08:46:04Z</time>
      </trkpt>
      <trkpt lat="43.61415" lon="6.89895">
        <ele>179</ele>
        <time>2012-02-26T08:46:09Z</time>
      </trkpt>
      <trkpt lat="43.61439" lon="6.89902">
        <ele>179</ele>
        <time>2012-02-26T08:46:14Z</time>
      </trkpt>
      <trkpt lat="43.61464" lon="6.89891">
        <ele>179</ele>
        <time>2012-02-26T08:46:19Z</time>
      </trkpt>
      <trkpt lat="43.61473" lon="6.89865">
        <ele>179</ele>
        <time>2012-02-26T08:46:24Z</time>
      </trkpt>
      <trkpt lat="43.61481" lon="6.89843">
        <ele>179</ele>
        <time>2012-02-26T08:46:30Z</time>
      </trkpt>
      <trkpt lat="43.61494" lon="6.89829">
        <ele>179</ele>
        <time>2012-02-26T08:46:35Z</time>
      </trkpt>
      <trkpt lat="43.6151" lon="6.89823">
        <ele>179</ele>
        <time>2012-02-26T08:46:40Z</time>
      </trkpt>
      <trkpt lat="43.61525" lon="6.89821">
        <ele>180</ele>
        <time>2012-02-26T08:46:45Z</time>
      </trkpt>
      <trkpt lat="43.6154" lon="6.8982">
        <ele>180</ele>
        <time>2012-02-26T08:46:50Z</time>
      </trkpt>
      <trkpt lat="43.61555" lon="6.8982">
        <ele>180</ele>
        <time>2012-02-26T08:46:55Z</time>
      </trkpt>
      <trkpt lat="43.61573" lon="6.8982">
        <ele>180</ele>
        <time>2012-02-26T08:47:00Z</time>
      </trkpt>
      <trkpt lat="43.6159" lon="6.89822">
        <ele>180</ele>
        <time>2012-02-26T08:47:05Z</time>
      </trkpt>
      <trkpt lat="43.61607" lon="6.89826">
        <ele>180</ele>
        <time>2012-02-26T08:47:10Z</time>
      </trkpt>
      <trkpt lat="43.61627" lon="6.89836">
        <ele>181</ele>
        <time>2012-02-26T08:47:16Z</time>
      </trkpt>
      <trkpt lat="43.61645" lon="6.89853">
        <ele>182</ele>
        <time>2012-02-26T08:47:22Z</time>
      </trkpt>
      <trkpt lat="43.6166" lon="6.89866">
        <ele>183</ele>
        <time>2012-02-26T08:47:27Z</time>
      </trkpt>
      <trkpt lat="43.61673" lon="6.89882">
        <ele>184</ele>
        <time>2012-02-26T08:47:32Z</time>
      </trkpt>
      <trkpt lat="43.61687" lon="6.89891">
        <ele>184</ele>
        <time>2012-02-26T08:47:37Z</time>
      </trkpt>
      <trkpt lat="43.61705" lon="6.89898">
        <ele>184</ele>
        <time>2012-02-26T08:47:42Z</time>
      </trkpt>
      <trkpt lat="43.61726" lon="6.89885">
        <ele>184</ele>
        <time>2012-02-26T08:47:47Z</time>
      </trkpt>
      <trkpt lat="43.61746" lon="6.89851">
        <ele>184</ele>
        <time>2012-02-26T08:47:52Z</time>
      </trkpt>
      <trkpt lat="43.61747" lon="6.89812">
        <ele>184</ele>
        <time>2012-02-26T08:47:57Z</time>
      </trkpt>
      <trkpt lat="43.61749" lon="6.89782">
        <ele>184</ele>
        <time>2012-02-26T08:48:02Z</time>
      </trkpt>
      <trkpt lat="43.61765" lon="6.89767">
        <ele>184</ele>
        <time>2012-02-26T08:48:07Z</time>
      </trkpt>
      <trkpt lat="43.61783" lon="6.89763">
        <ele>184</ele>
        <time>2012-02-26T08:48:12Z</time>
      </trkpt>
      <trkpt lat="43.61798" lon="6.89761">
        <ele>185</ele>
        <time>2012-02-26T08:48:17Z</time>
      </trkpt>
      <trkpt lat="43.61814" lon="6.89764">
        <ele>185</ele>
        <time>2012-02-26T08:48:22Z</time>
      </trkpt>
      <trkpt lat="43.61829" lon="6.89764">
        <ele>185</ele>
        <time>2012-02-26T08:48:27Z</time>
      </trkpt>
      <trkpt lat="43.61844" lon="6.89752">
        <ele>185</ele>
        <time>2012-02-26T08:48:32Z</time>
      </trkpt>
      <trkpt lat="43.61859" lon="6.89743">
        <ele>185</ele>
        <time>2012-02-26T08:48:37Z</time>
      </trkpt>
      <trkpt lat="43.61873" lon="6.89744">
        <ele>186</ele>
        <time>2012-02-26T08:48:42Z</time>
      </trkpt>
      <trkpt lat="43.61888" lon="6.89745">
        <ele>187</ele>
        <time>2012-02-26T08:48:47Z</time>
      </trkpt>
      <trkpt lat="43.61902" lon="6.89742">
        <ele>187</ele>
        <time>2012-02-26T08:48:52Z</time>
      </trkpt>
      <trkpt lat="43.61914" lon="6.89736">
        <ele>190</ele>
        <time>2012-02-26T08:48:57Z</time>
      </trkpt>
      <trkpt lat="43.61929" lon="6.89733">
        <ele>190</ele>
        <time>2012-02-26T08:49:02Z</time>
      </trkpt>
      <trkpt lat="43.61944" lon="6.89732">
        <ele>191</ele>
        <time>2012-02-26T08:49:07Z</time>
      </trkpt>
      <trkpt lat="43.6196" lon="6.89727">
        <ele>191</ele>
        <time>2012-02-26T08:49:12Z</time>
      </trkpt>
      <trkpt lat="43.61974" lon="6.89717">
        <ele>191</ele>
        <time>2012-02-26T08:49:17Z</time>
      </trkpt>
      <trkpt lat="43.61987" lon="6.89706">
        <ele>191</ele>
        <time>2012-02-26T08:49:22Z</time>
      </trkpt>
      <trkpt lat="43.61998" lon="6.89699">
        <ele>191</ele>
        <time>2012-02-26T08:49:27Z</time>
      </trkpt>
      <trkpt lat="43.6201" lon="6.89694">
        <ele>192</ele>
        <time>2012-02-26T08:49:32Z</time>
      </trkpt>
      <trkpt lat="43.62022" lon="6.89689">
        <ele>193</ele>
        <time>2012-02-26T08:49:37Z</time>
      </trkpt>
      <trkpt lat="43.62034" lon="6.89687">
        <ele>195</ele>
        <time>2012-02-26T08:49:42Z</time>
      </trkpt>
      <trkpt lat="43.62047" lon="6.89684">
        <ele>196</ele>
        <time>2012-02-26T08:49:47Z</time>
      </trkpt>
      <trkpt lat="43.62059" lon="6.89683">
        <ele>196</ele>
        <time>2012-02-26T08:49:52Z</time>
      </trkpt>
      <trkpt lat="43.62071" lon="6.89681">
        <ele>197</ele>
        <time>2012-02-26T08:49:57Z</time>
      </trkpt>
      <trkpt lat="43.62083" lon="6.89676">
        <ele>197</ele>
        <time>2012-02-26T08:50:02Z</time>
      </trkpt>
      <trkpt lat="43.62095" lon="6.89672">
        <ele>199</ele>
        <time>2012-02-26T08:50:07Z</time>
      </trkpt>
      <trkpt lat="43.62107" lon="6.8967">
        <ele>199</ele>
        <time>2012-02-26T08:50:12Z</time>
      </trkpt>
      <trkpt lat="43.62119" lon="6.89668">
        <ele>200</ele>
        <time>2012-02-26T08:50:17Z</time>
      </trkpt>
      <trkpt lat="43.6213" lon="6.89665">
        <ele>201</ele>
        <time>2012-02-26T08:50:22Z</time>
      </trkpt>
      <trkpt lat="43.62142" lon="6.89663">
        <ele>201</ele>
        <time>2012-02-26T08:50:27Z</time>
      </trkpt>
      <trkpt lat="43.62155" lon="6.89663">
        <ele>201</ele>
        <time>2012-02-26T08:50:32Z</time>
      </trkpt>
      <trkpt lat="43.62168" lon="6.89666">
        <ele>201</ele>
        <time>2012-02-26T08:50:37Z</time>
      </trkpt>
      <trkpt lat="43.6218" lon="6.89664">
        <ele>201</ele>
        <time>2012-02-26T08:50:42Z</time>
      </trkpt>
      <trkpt lat="43.62191" lon="6.89658">
        <ele>201</ele>
        <time>2012-02-26T08:50:47Z</time>
      </trkpt>
      <trkpt lat="43.62202" lon="6.89649">
        <ele>201</ele>
        <time>2012-02-26T08:50:52Z</time>
      </trkpt>
      <trkpt lat="43.62212" lon="6.89635">
        <ele>201</ele>
        <time>2012-02-26T08:50:57Z</time>
      </trkpt>
      <trkpt lat="43.62222" lon="6.89621">
        <ele>202</ele>
        <time>2012-02-26T08:51:02Z</time>
      </trkpt>
      <trkpt lat="43.62232" lon="6.8961">
        <ele>203</ele>
        <time>2012-02-26T08:51:07Z</time>
      </trkpt>
      <trkpt lat="43.62241" lon="6.89599">
        <ele>204</ele>
        <time>2012-02-26T08:51:12Z</time>
      </trkpt>
      <trkpt lat="43.62249" lon="6.89587">
        <ele>205</ele>
        <time>2012-02-26T08:51:17Z</time>
      </trkpt>
      <trkpt lat="43.62258" lon="6.89573">
        <ele>207</ele>
        <time>2012-02-26T08:51:22Z</time>
      </trkpt>
      <trkpt lat="43.62263" lon="6.89558">
        <ele>209</ele>
        <time>2012-02-26T08:51:27Z</time>
      </trkpt>
      <trkpt lat="43.62268" lon="6.89544">
        <ele>210</ele>
        <time>2012-02-26T08:51:32Z</time>
      </trkpt>
      <trkpt lat="43.62271" lon="6.89529">
        <ele>211</ele>
        <time>2012-02-26T08:51:37Z</time>
      </trkpt>
      <trkpt lat="43.62275" lon="6.89515">
        <ele>211</ele>
        <time>2012-02-26T08:51:42Z</time>
      </trkpt>
      <trkpt lat="43.62278" lon="6.89501">
        <ele>212</ele>
        <time>2012-02-26T08:51:47Z</time>
      </trkpt>
      <trkpt lat="43.62281" lon="6.89486">
        <ele>212</ele>
        <time>2012-02-26T08:51:52Z</time>
      </trkpt>
      <trkpt lat="43.62284" lon="6.89471">
        <ele>212</ele>
        <time>2012-02-26T08:51:57Z</time>
      </trkpt>
      <trkpt lat="43.62288" lon="6.8946">
        <ele>213</ele>
        <time>2012-02-26T08:52:02Z</time>
      </trkpt>
      <trkpt lat="43.62291" lon="6.89448">
        <ele>213</ele>
        <time>2012-02-26T08:52:07Z</time>
      </trkpt>
      <trkpt lat="43.62295" lon="6.89436">
        <ele>215</ele>
        <time>2012-02-26T08:52:12Z</time>
      </trkpt>
      <trkpt lat="43.62299" lon="6.89426">
        <ele>216</ele>
        <time>2012-02-26T08:52:17Z</time>
      </trkpt>
      <trkpt lat="43.62302" lon="6.89416">
        <ele>217</ele>
        <time>2012-02-26T08:52:22Z</time>
      </trkpt>
      <trkpt lat="43.62307" lon="6.89407">
        <ele>218</ele>
        <time>2012-02-26T08:52:27Z</time>
      </trkpt>
      <trkpt lat="43.62312" lon="6.89398">
        <ele>219</ele>
        <time>2012-02-26T08:52:32Z</time>
      </trkpt>
      <trkpt lat="43.62316" lon="6.8939">
        <ele>221</ele>
        <time>2012-02-26T08:52:37Z</time>
      </trkpt>
      <trkpt lat="43.6232" lon="6.89382">
        <ele>222</ele>
        <time>2012-02-26T08:52:42Z</time>
      </trkpt>
      <trkpt lat="43.62324" lon="6.89374">
        <ele>223</ele>
        <time>2012-02-26T08:52:47Z</time>
      </trkpt>
      <trkpt lat="43.62329" lon="6.89365">
        <ele>224</ele>
        <time>2012-02-26T08:52:53Z</time>
      </trkpt>
      <trkpt lat="43.62333" lon="6.89357">
        <ele>225</ele>
        <time>2012-02-26T08:52:58Z</time>
      </trkpt>
      <trkpt lat="43.62337" lon="6.89348">
        <ele>226</ele>
        <time>2012-02-26T08:53:03Z</time>
      </trkpt>
      <trkpt lat="43.62341" lon="6.89339">
        <ele>227</ele>
        <time>2012-02-26T08:53:08Z</time>
      </trkpt>
      <trkpt lat="43.62346" lon="6.89331">
        <ele>228</ele>
        <time>2012-02-26T08:53:13Z</time>
      </trkpt>
      <trkpt lat="43.62349" lon="6.89323">
        <ele>228</ele>
        <time>2012-02-26T08:53:18Z</time>
      </trkpt>
      <trkpt lat="43.62353" lon="6.89313">
        <ele>228</ele>
        <time>2012-02-26T08:53:23Z</time>
      </trkpt>
      <trkpt lat="43.62359" lon="6.89305">
        <ele>229</ele>
        <time>2012-02-26T08:53:28Z</time>
      </trkpt>
      <trkpt lat="43.62364" lon="6.89298">
        <ele>230</ele>
        <time>2012-02-26T08:53:33Z</time>
      </trkpt>
      <trkpt lat="43.6237" lon="6.89288">
        <ele>231</ele>
        <time>2012-02-26T08:53:39Z</time>
      </trkpt>
      <trkpt lat="43.62375" lon="6.89281">
        <ele>232</ele>
        <time>2012-02-26T08:53:44Z</time>
      </trkpt>
      <trkpt lat="43.62381" lon="6.89273">
        <ele>233</ele>
        <time>2012-02-26T08:53:49Z</time>
      </trkpt>
      <trkpt lat="43.62386" lon="6.89266">
        <ele>234</ele>
        <time>2012-02-26T08:53:54Z</time>
      </trkpt>
      <trkpt lat="43.62392" lon="6.89258">
        <ele>235</ele>
        <time>2012-02-26T08:53:59Z</time>
      </trkpt>
      <trkpt lat="43.62397" lon="6.89251">
        <ele>236</ele>
        <time>2012-02-26T08:54:04Z</time>
      </trkpt>
      <trkpt lat="43.62402" lon="6.89242">
        <ele>237</ele>
        <time>2012-02-26T08:54:09Z</time>
      </trkpt>
      <trkpt lat="43.62406" lon="6.89234">
        <ele>237</ele>
        <time>2012-02-26T08:54:14Z</time>
      </trkpt>
      <trkpt lat="43.62411" lon="6.89226">
        <ele>237</ele>
        <time>2012-02-26T08:54:19Z</time>
      </trkpt>
      <trkpt lat="43.62416" lon="6.89219">
        <ele>238</ele>
        <time>2012-02-26T08:54:24Z</time>
      </trkpt>
      <trkpt lat="43.62421" lon="6.8921">
        <ele>239</ele>
        <time>2012-02-26T08:54:29Z</time>
      </trkpt>
      <trkpt lat="43.62424" lon="6.89201">
        <ele>240</ele>
        <time>2012-02-26T08:54:34Z</time>
      </trkpt>
      <trkpt lat="43.62427" lon="6.89192">
        <ele>241</ele>
        <time>2012-02-26T08:54:39Z</time>
      </trkpt>
      <trkpt lat="43.62431" lon="6.89182">
        <ele>241</ele>
        <time>2012-02-26T08:54:44Z</time>
      </trkpt>
      <trkpt lat="43.62434" lon="6.89171">
        <ele>242</ele>
        <time>2012-02-26T08:54:49Z</time>
      </trkpt>
      <trkpt lat="43.62439" lon="6.89162">
        <ele>242</ele>
        <time>2012-02-26T08:54:54Z</time>
      </trkpt>
      <trkpt lat="43.62443" lon="6.89153">
        <ele>243</ele>
        <time>2012-02-26T08:54:59Z</time>
      </trkpt>
      <trkpt lat="43.62449" lon="6.89143">
        <ele>244</ele>
        <time>2012-02-26T08:55:04Z</time>
      </trkpt>
      <trkpt lat="43.62455" lon="6.89133">
        <ele>245</ele>
        <time>2012-02-26T08:55:09Z</time>
      </trkpt>
      <trkpt lat="43.62461" lon="6.89124">
        <ele>247</ele>
        <time>2012-02-26T08:55:14Z</time>
      </trkpt>
      <trkpt lat="43.62466" lon="6.89114">
        <ele>248</ele>
        <time>2012-02-26T08:55:19Z</time>
      </trkpt>
      <trkpt lat="43.62471" lon="6.89105">
        <ele>248</ele>
        <time>2012-02-26T08:55:24Z</time>
      </trkpt>
      <trkpt lat="43.62476" lon="6.89096">
        <ele>249</ele>
        <time>2012-02-26T08:55:29Z</time>
      </trkpt>
      <trkpt lat="43.62482" lon="6.89087">
        <ele>249</ele>
        <time>2012-02-26T08:55:34Z</time>
      </trkpt>
      <trkpt lat="43.62487" lon="6.89082">
        <ele>250</ele>
        <time>2012-02-26T08:55:53Z</time>
      </trkpt>
      <trkpt lat="43.62488" lon="6.8908">
        <ele>250</ele>
        <time>2012-02-26T08:56:04Z</time>
      </trkpt>
      <trkpt lat="43.62493" lon="6.8907">
        <ele>250</ele>
        <time>2012-02-26T08:56:09Z</time>
      </trkpt>
      <trkpt lat="43.62502" lon="6.89058">
        <ele>251</ele>
        <time>2012-02-26T08:56:14Z</time>
      </trkpt>
      <trkpt lat="43.62512" lon="6.89042">
        <ele>251</ele>
        <time>2012-02-26T08:56:19Z</time>
      </trkpt>
      <trkpt lat="43.62523" lon="6.89025">
        <ele>251</ele>
        <time>2012-02-26T08:56:24Z</time>
      </trkpt>
      <trkpt lat="43.62531" lon="6.89005">
        <ele>251</ele>
        <time>2012-02-26T08:56:29Z</time>
      </trkpt>
      <trkpt lat="43.62538" lon="6.88989">
        <ele>251</ele>
        <time>2012-02-26T08:56:34Z</time>
      </trkpt>
      <trkpt lat="43.62544" lon="6.88972">
        <ele>251</ele>
        <time>2012-02-26T08:56:39Z</time>
      </trkpt>
      <trkpt lat="43.62548" lon="6.88955">
        <ele>251</ele>
        <time>2012-02-26T08:56:44Z</time>
      </trkpt>
      <trkpt lat="43.62551" lon="6.88938">
        <ele>251</ele>
        <time>2012-02-26T08:56:49Z</time>
      </trkpt>
      <trkpt lat="43.62553" lon="6.88921">
        <ele>252</ele>
        <time>2012-02-26T08:56:54Z</time>
      </trkpt>
      <trkpt lat="43.62554" lon="6.88902">
        <ele>252</ele>
        <time>2012-02-26T08:56:59Z</time>
      </trkpt>
      <trkpt lat="43.62553" lon="6.88883">
        <ele>253</ele>
        <time>2012-02-26T08:57:04Z</time>
      </trkpt>
      <trkpt lat="43.62554" lon="6.88864">
        <ele>254</ele>
        <time>2012-02-26T08:57:09Z</time>
      </trkpt>
      <trkpt lat="43.62552" lon="6.88845">
        <ele>254</ele>
        <time>2012-02-26T08:57:14Z</time>
      </trkpt>
      <trkpt lat="43.62551" lon="6.88828">
        <ele>255</ele>
        <time>2012-02-26T08:57:19Z</time>
      </trkpt>
      <trkpt lat="43.62548" lon="6.88806">
        <ele>256</ele>
        <time>2012-02-26T08:57:25Z</time>
      </trkpt>
      <trkpt lat="43.62544" lon="6.88789">
        <ele>256</ele>
        <time>2012-02-26T08:57:30Z</time>
      </trkpt>
      <trkpt lat="43.62542" lon="6.88771">
        <ele>256</ele>
        <time>2012-02-26T08:57:35Z</time>
      </trkpt>
      <trkpt lat="43.62537" lon="6.88744">
        <ele>257</ele>
        <time>2012-02-26T08:57:41Z</time>
      </trkpt>
      <trkpt lat="43.62531" lon="6.88722">
        <ele>257</ele>
        <time>2012-02-26T08:57:46Z</time>
      </trkpt>
      <trkpt lat="43.62523" lon="6.88696">
        <ele>257</ele>
        <time>2012-02-26T08:57:51Z</time>
      </trkpt>
      <trkpt lat="43.62514" lon="6.88672">
        <ele>257</ele>
        <time>2012-02-26T08:57:56Z</time>
      </trkpt>
      <trkpt lat="43.6251" lon="6.88649">
        <ele>257</ele>
        <time>2012-02-26T08:58:01Z</time>
      </trkpt>
      <trkpt lat="43.62506" lon="6.88629">
        <ele>257</ele>
        <time>2012-02-26T08:58:06Z</time>
      </trkpt>
      <trkpt lat="43.62503" lon="6.88609">
        <ele>257</ele>
        <time>2012-02-26T08:58:11Z</time>
      </trkpt>
      <trkpt lat="43.625" lon="6.88587">
        <ele>258</ele>
        <time>2012-02-26T08:58:16Z</time>
      </trkpt>
      <trkpt lat="43.62496" lon="6.8856">
        <ele>258</ele>
        <time>2012-02-26T08:58:22Z</time>
      </trkpt>
      <trkpt lat="43.62493" lon="6.88536">
        <ele>258</ele>
        <time>2012-02-26T08:58:28Z</time>
      </trkpt>
      <trkpt lat="43.62492" lon="6.88515">
        <ele>258</ele>
        <time>2012-02-26T08:58:33Z</time>
      </trkpt>
      <trkpt lat="43.62496" lon="6.88492">
        <ele>258</ele>
        <time>2012-02-26T08:58:38Z</time>
      </trkpt>
      <trkpt lat="43.62496" lon="6.88465">
        <ele>258</ele>
        <time>2012-02-26T08:58:43Z</time>
      </trkpt>
      <trkpt lat="43.62493" lon="6.88439">
        <ele>258</ele>
        <time>2012-02-26T08:58:48Z</time>
      </trkpt>
      <trkpt lat="43.62488" lon="6.88414">
        <ele>258</ele>
        <time>2012-02-26T08:58:54Z</time>
      </trkpt>
      <trkpt lat="43.62485" lon="6.88396">
        <ele>258</ele>
        <time>2012-02-26T08:58:59Z</time>
      </trkpt>
      <trkpt lat="43.6248" lon="6.88375">
        <ele>259</ele>
        <time>2012-02-26T08:59:05Z</time>
      </trkpt>
      <trkpt lat="43.62474" lon="6.88357">
        <ele>260</ele>
        <time>2012-02-26T08:59:10Z</time>
      </trkpt>
      <trkpt lat="43.6247" lon="6.88339">
        <ele>260</ele>
        <time>2012-02-26T08:59:15Z</time>
      </trkpt>
      <trkpt lat="43.62467" lon="6.8832">
        <ele>260</ele>
        <time>2012-02-26T08:59:20Z</time>
      </trkpt>
      <trkpt lat="43.62463" lon="6.88298">
        <ele>260</ele>
        <time>2012-02-26T08:59:26Z</time>
      </trkpt>
      <trkpt lat="43.62461" lon="6.88275">
        <ele>261</ele>
        <time>2012-02-26T08:59:31Z</time>
      </trkpt>
      <trkpt lat="43.6246" lon="6.88254">
        <ele>262</ele>
        <time>2012-02-26T08:59:36Z</time>
      </trkpt>
      <trkpt lat="43.6246" lon="6.88233">
        <ele>263</ele>
        <time>2012-02-26T08:59:41Z</time>
      </trkpt>
      <trkpt lat="43.62461" lon="6.88212">
        <ele>265</ele>
        <time>2012-02-26T08:59:46Z</time>
      </trkpt>
      <trkpt lat="43.62464" lon="6.88194">
        <ele>265</ele>
        <time>2012-02-26T08:59:51Z</time>
      </trkpt>
      <trkpt lat="43.62469" lon="6.88175">
        <ele>266</ele>
        <time>2012-02-26T08:59:56Z</time>
      </trkpt>
      <trkpt lat="43.62474" lon="6.88155">
        <ele>267</ele>
        <time>2012-02-26T09:00:01Z</time>
      </trkpt>
      <trkpt lat="43.62478" lon="6.88134">
        <ele>268</ele>
        <time>2012-02-26T09:00:06Z</time>
      </trkpt>
      <trkpt lat="43.62481" lon="6.88109">
        <ele>268</ele>
        <time>2012-02-26T09:00:11Z</time>
      </trkpt>
      <trkpt lat="43.62484" lon="6.88082">
        <ele>268</ele>
        <time>2012-02-26T09:00:16Z</time>
      </trkpt>
      <trkpt lat="43.62487" lon="6.88053">
        <ele>268</ele>
        <time>2012-02-26T09:00:21Z</time>
      </trkpt>
      <trkpt lat="43.62489" lon="6.88025">
        <ele>268</ele>
        <time>2012-02-26T09:00:26Z</time>
      </trkpt>
      <trkpt lat="43.62491" lon="6.87992">
        <ele>268</ele>
        <time>2012-02-26T09:00:31Z</time>
      </trkpt>
      <trkpt lat="43.62494" lon="6.87956">
        <ele>268</ele>
        <time>2012-02-26T09:00:36Z</time>
      </trkpt>
      <trkpt lat="43.62498" lon="6.87917">
        <ele>268</ele>
        <time>2012-02-26T09:00:41Z</time>
      </trkpt>
      <trkpt lat="43.62505" lon="6.87876">
        <ele>268</ele>
        <time>2012-02-26T09:00:46Z</time>
      </trkpt>
      <trkpt lat="43.62516" lon="6.87835">
        <ele>268</ele>
        <time>2012-02-26T09:00:51Z</time>
      </trkpt>
      <trkpt lat="43.62529" lon="6.87795">
        <ele>268</ele>
        <time>2012-02-26T09:00:56Z</time>
      </trkpt>
      <trkpt lat="43.62543" lon="6.87759">
        <ele>268</ele>
        <time>2012-02-26T09:01:01Z</time>
      </trkpt>
      <trkpt lat="43.62559" lon="6.87726">
        <ele>268</ele>
        <time>2012-02-26T09:01:06Z</time>
      </trkpt>
      <trkpt lat="43.62577" lon="6.87694">
        <ele>268</ele>
        <time>2012-02-26T09:01:11Z</time>
      </trkpt>
      <trkpt lat="43.6259" lon="6.87659">
        <ele>267</ele>
        <time>2012-02-26T09:01:16Z</time>
      </trkpt>
      <trkpt lat="43.62602" lon="6.87624">
        <ele>267</ele>
        <time>2012-02-26T09:01:21Z</time>
      </trkpt>
      <trkpt lat="43.62611" lon="6.87588">
        <ele>266</ele>
        <time>2012-02-26T09:01:26Z</time>
      </trkpt>
      <trkpt lat="43.62615" lon="6.8755">
        <ele>265</ele>
        <time>2012-02-26T09:01:31Z</time>
      </trkpt>
      <trkpt lat="43.62616" lon="6.8751">
        <ele>265</ele>
        <time>2012-02-26T09:01:36Z</time>
      </trkpt>
      <trkpt lat="43.62617" lon="6.87469">
        <ele>264</ele>
        <time>2012-02-26T09:01:41Z</time>
      </trkpt>
      <trkpt lat="43.62623" lon="6.87425">
        <ele>264</ele>
        <time>2012-02-26T09:01:46Z</time>
      </trkpt>
      <trkpt lat="43.62629" lon="6.8738">
        <ele>263</ele>
        <time>2012-02-26T09:01:51Z</time>
      </trkpt>
      <trkpt lat="43.62637" lon="6.87335">
        <ele>261</ele>
        <time>2012-02-26T09:01:56Z</time>
      </trkpt>
      <trkpt lat="43.62648" lon="6.87295">
        <ele>260</ele>
        <time>2012-02-26T09:02:01Z</time>
      </trkpt>
      <trkpt lat="43.62666" lon="6.87251">
        <ele>258</ele>
        <time>2012-02-26T09:02:06Z</time>
      </trkpt>
      <trkpt lat="43.62691" lon="6.87207">
        <ele>256</ele>
        <time>2012-02-26T09:02:11Z</time>
      </trkpt>
      <trkpt lat="43.62723" lon="6.8716">
        <ele>253</ele>
        <time>2012-02-26T09:02:16Z</time>
      </trkpt>
      <trkpt lat="43.62772" lon="6.87111">
        <ele>249</ele>
        <time>2012-02-26T09:02:22Z</time>
      </trkpt>
      <trkpt lat="43.6282" lon="6.87082">
        <ele>246</ele>
        <time>2012-02-26T09:02:27Z</time>
      </trkpt>
      <trkpt lat="43.62867" lon="6.87053">
        <ele>243</ele>
        <time>2012-02-26T09:02:32Z</time>
      </trkpt>
      <trkpt lat="43.62915" lon="6.87024">
        <ele>241</ele>
        <time>2012-02-26T09:02:37Z</time>
      </trkpt>
      <trkpt lat="43.62956" lon="6.86984">
        <ele>239</ele>
        <time>2012-02-26T09:02:42Z</time>
      </trkpt>
      <trkpt lat="43.62983" lon="6.8693">
        <ele>237</ele>
        <time>2012-02-26T09:02:47Z</time>
      </trkpt>
      <trkpt lat="43.63008" lon="6.86879">
        <ele>236</ele>
        <time>2012-02-26T09:02:52Z</time>
      </trkpt>
      <trkpt lat="43.63036" lon="6.86828">
        <ele>235</ele>
        <time>2012-02-26T09:02:58Z</time>
      </trkpt>
      <trkpt lat="43.6306" lon="6.86794">
        <ele>235</ele>
        <time>2012-02-26T09:03:03Z</time>
      </trkpt>
      <trkpt lat="43.63077" lon="6.86759">
        <ele>234</ele>
        <time>2012-02-26T09:03:08Z</time>
      </trkpt>
      <trkpt lat="43.63092" lon="6.86732">
        <ele>234</ele>
        <time>2012-02-26T09:03:13Z</time>
      </trkpt>
      <trkpt lat="43.63107" lon="6.86706">
        <ele>234</ele>
        <time>2012-02-26T09:03:18Z</time>
      </trkpt>
      <trkpt lat="43.63123" lon="6.86682">
        <ele>234</ele>
        <time>2012-02-26T09:03:23Z</time>
      </trkpt>
      <trkpt lat="43.63136" lon="6.86657">
        <ele>234</ele>
        <time>2012-02-26T09:03:28Z</time>
      </trkpt>
      <trkpt lat="43.63148" lon="6.86632">
        <ele>234</ele>
        <time>2012-02-26T09:03:33Z</time>
      </trkpt>
      <trkpt lat="43.6316" lon="6.86606">
        <ele>234</ele>
        <time>2012-02-26T09:03:38Z</time>
      </trkpt>
      <trkpt lat="43.6317" lon="6.86581">
        <ele>234</ele>
        <time>2012-02-26T09:03:43Z</time>
      </trkpt>
      <trkpt lat="43.6318" lon="6.86555">
        <ele>234</ele>
        <time>2012-02-26T09:03:48Z</time>
      </trkpt>
      <trkpt lat="43.63193" lon="6.86524">
        <ele>234</ele>
        <time>2012-02-26T09:03:53Z</time>
      </trkpt>
      <trkpt lat="43.63203" lon="6.86492">
        <ele>234</ele>
        <time>2012-02-26T09:03:58Z</time>
      </trkpt>
      <trkpt lat="43.63214" lon="6.86461">
        <ele>234</ele>
        <time>2012-02-26T09:04:03Z</time>
      </trkpt>
      <trkpt lat="43.63223" lon="6.86431">
        <ele>234</ele>
        <time>2012-02-26T09:04:08Z</time>
      </trkpt>
      <trkpt lat="43.63231" lon="6.86403">
        <ele>234</ele>
        <time>2012-02-26T09:04:13Z</time>
      </trkpt>
      <trkpt lat="43.63241" lon="6.86378">
        <ele>234</ele>
        <time>2012-02-26T09:04:18Z</time>
      </trkpt>
      <trkpt lat="43.63254" lon="6.8635">
        <ele>234</ele>
        <time>2012-02-26T09:04:23Z</time>
      </trkpt>
      <trkpt lat="43.63264" lon="6.86306">
        <ele>234</ele>
        <time>2012-02-26T09:04:29Z</time>
      </trkpt>
      <trkpt lat="43.63268" lon="6.86268">
        <ele>234</ele>
        <time>2012-02-26T09:04:34Z</time>
      </trkpt>
      <trkpt lat="43.63265" lon="6.86233">
        <ele>234</ele>
        <time>2012-02-26T09:04:39Z</time>
      </trkpt>
      <trkpt lat="43.63267" lon="6.86198">
        <ele>234</ele>
        <time>2012-02-26T09:04:44Z</time>
      </trkpt>
      <trkpt lat="43.6326" lon="6.86169">
        <ele>233</ele>
        <time>2012-02-26T09:04:49Z</time>
      </trkpt>
      <trkpt lat="43.63251" lon="6.86147">
        <ele>233</ele>
        <time>2012-02-26T09:04:54Z</time>
      </trkpt>
      <trkpt lat="43.63232" lon="6.86142">
        <ele>232</ele>
        <time>2012-02-26T09:04:59Z</time>
      </trkpt>
      <trkpt lat="43.63211" lon="6.86141">
        <ele>232</ele>
        <time>2012-02-26T09:05:04Z</time>
      </trkpt>
      <trkpt lat="43.63189" lon="6.86143">
        <ele>232</ele>
        <time>2012-02-26T09:05:09Z</time>
      </trkpt>
      <trkpt lat="43.63165" lon="6.86145">
        <ele>232</ele>
        <time>2012-02-26T09:05:14Z</time>
      </trkpt>
      <trkpt lat="43.6314" lon="6.86146">
        <ele>232</ele>
        <time>2012-02-26T09:05:19Z</time>
      </trkpt>
      <trkpt lat="43.63114" lon="6.86148">
        <ele>232</ele>
        <time>2012-02-26T09:05:24Z</time>
      </trkpt>
      <trkpt lat="43.63088" lon="6.86149">
        <ele>232</ele>
        <time>2012-02-26T09:05:29Z</time>
      </trkpt>
      <trkpt lat="43.6306" lon="6.8615">
        <ele>232</ele>
        <time>2012-02-26T09:05:34Z</time>
      </trkpt>
      <trkpt lat="43.63028" lon="6.8615">
        <ele>232</ele>
        <time>2012-02-26T09:05:39Z</time>
      </trkpt>
      <trkpt lat="43.62997" lon="6.8615">
        <ele>231</ele>
        <time>2012-02-26T09:05:44Z</time>
      </trkpt>
      <trkpt lat="43.62968" lon="6.86151">
        <ele>230</ele>
        <time>2012-02-26T09:05:49Z</time>
      </trkpt>
      <trkpt lat="43.62938" lon="6.86154">
        <ele>229</ele>
        <time>2012-02-26T09:05:54Z</time>
      </trkpt>
      <trkpt lat="43.62908" lon="6.86158">
        <ele>229</ele>
        <time>2012-02-26T09:05:59Z</time>
      </trkpt>
      <trkpt lat="43.62875" lon="6.86161">
        <ele>227</ele>
        <time>2012-02-26T09:06:04Z</time>
      </trkpt>
      <trkpt lat="43.62837" lon="6.86162">
        <ele>226</ele>
        <time>2012-02-26T09:06:09Z</time>
      </trkpt>
      <trkpt lat="43.62801" lon="6.86151">
        <ele>223</ele>
        <time>2012-02-26T09:06:14Z</time>
      </trkpt>
      <trkpt lat="43.62765" lon="6.86132">
        <ele>223</ele>
        <time>2012-02-26T09:06:19Z</time>
      </trkpt>
      <trkpt lat="43.62732" lon="6.86109">
        <ele>222</ele>
        <time>2012-02-26T09:06:24Z</time>
      </trkpt>
      <trkpt lat="43.62701" lon="6.86081">
        <ele>219</ele>
        <time>2012-02-26T09:06:29Z</time>
      </trkpt>
      <trkpt lat="43.62679" lon="6.86045">
        <ele>218</ele>
        <time>2012-02-26T09:06:34Z</time>
      </trkpt>
      <trkpt lat="43.62659" lon="6.8602">
        <ele>218</ele>
        <time>2012-02-26T09:06:39Z</time>
      </trkpt>
      <trkpt lat="43.62656" lon="6.86009">
        <ele>218</ele>
        <time>2012-02-26T09:06:44Z</time>
      </trkpt>
      <trkpt lat="43.62644" lon="6.85987">
        <ele>218</ele>
        <time>2012-02-26T09:06:49Z</time>
      </trkpt>
      <trkpt lat="43.62632" lon="6.85965">
        <ele>218</ele>
        <time>2012-02-26T09:06:54Z</time>
      </trkpt>
      <trkpt lat="43.62625" lon="6.85957">
        <ele>217</ele>
        <time>2012-02-26T09:07:01Z</time>
      </trkpt>
      <trkpt lat="43.6262" lon="6.8595">
        <ele>216</ele>
        <time>2012-02-26T09:07:06Z</time>
      </trkpt>
      <trkpt lat="43.62611" lon="6.85931">
        <ele>216</ele>
        <time>2012-02-26T09:07:11Z</time>
      </trkpt>
      <trkpt lat="43.62602" lon="6.85908">
        <ele>216</ele>
        <time>2012-02-26T09:07:16Z</time>
      </trkpt>
      <trkpt lat="43.62599" lon="6.85895">
        <ele>216</ele>
        <time>2012-02-26T09:07:21Z</time>
      </trkpt>
      <trkpt lat="43.62594" lon="6.85881">
        <ele>216</ele>
        <time>2012-02-26T09:07:26Z</time>
      </trkpt>
      <trkpt lat="43.62592" lon="6.85865">
        <ele>216</ele>
        <time>2012-02-26T09:07:31Z</time>
      </trkpt>
      <trkpt lat="43.6259" lon="6.85847">
        <ele>216</ele>
        <time>2012-02-26T09:07:36Z</time>
      </trkpt>
      <trkpt lat="43.62588" lon="6.85829">
        <ele>216</ele>
        <time>2012-02-26T09:07:41Z</time>
      </trkpt>
      <trkpt lat="43.62587" lon="6.85812">
        <ele>216</ele>
        <time>2012-02-26T09:07:46Z</time>
      </trkpt>
      <trkpt lat="43.62586" lon="6.85795">
        <ele>216</ele>
        <time>2012-02-26T09:07:51Z</time>
      </trkpt>
      <trkpt lat="43.62584" lon="6.85783">
        <ele>216</ele>
        <time>2012-02-26T09:07:56Z</time>
      </trkpt>
      <trkpt lat="43.62583" lon="6.8577">
        <ele>216</ele>
        <time>2012-02-26T09:08:01Z</time>
      </trkpt>
      <trkpt lat="43.62585" lon="6.85758">
        <ele>216</ele>
        <time>2012-02-26T09:08:06Z</time>
      </trkpt>
      <trkpt lat="43.6259" lon="6.85749">
        <ele>218</ele>
        <time>2012-02-26T09:08:11Z</time>
      </trkpt>
      <trkpt lat="43.62595" lon="6.85741">
        <ele>220</ele>
        <time>2012-02-26T09:08:16Z</time>
      </trkpt>
      <trkpt lat="43.62597" lon="6.85731">
        <ele>222</ele>
        <time>2012-02-26T09:08:21Z</time>
      </trkpt>
      <trkpt lat="43.62595" lon="6.85721">
        <ele>223</ele>
        <time>2012-02-26T09:08:26Z</time>
      </trkpt>
      <trkpt lat="43.62591" lon="6.85706">
        <ele>223</ele>
        <time>2012-02-26T09:08:32Z</time>
      </trkpt>
      <trkpt lat="43.62589" lon="6.85693">
        <ele>223</ele>
        <time>2012-02-26T09:08:37Z</time>
      </trkpt>
      <trkpt lat="43.62591" lon="6.85682">
        <ele>224</ele>
        <time>2012-02-26T09:08:42Z</time>
      </trkpt>
      <trkpt lat="43.62594" lon="6.85672">
        <ele>225</ele>
        <time>2012-02-26T09:08:47Z</time>
      </trkpt>
      <trkpt lat="43.62598" lon="6.85662">
        <ele>225</ele>
        <time>2012-02-26T09:08:52Z</time>
      </trkpt>
      <trkpt lat="43.626" lon="6.85653">
        <ele>227</ele>
        <time>2012-02-26T09:08:57Z</time>
      </trkpt>
      <trkpt lat="43.626" lon="6.85642">
        <ele>228</ele>
        <time>2012-02-26T09:09:02Z</time>
      </trkpt>
      <trkpt lat="43.62599" lon="6.85632">
        <ele>228</ele>
        <time>2012-02-26T09:09:07Z</time>
      </trkpt>
      <trkpt lat="43.62601" lon="6.85621">
        <ele>229</ele>
        <time>2012-02-26T09:09:12Z</time>
      </trkpt>
      <trkpt lat="43.62603" lon="6.85608">
        <ele>230</ele>
        <time>2012-02-26T09:09:17Z</time>
      </trkpt>
      <trkpt lat="43.62607" lon="6.85597">
        <ele>230</ele>
        <time>2012-02-26T09:09:22Z</time>
      </trkpt>
      <trkpt lat="43.62611" lon="6.85584">
        <ele>231</ele>
        <time>2012-02-26T09:09:27Z</time>
      </trkpt>
      <trkpt lat="43.62613" lon="6.85569">
        <ele>231</ele>
        <time>2012-02-26T09:09:32Z</time>
      </trkpt>
      <trkpt lat="43.62614" lon="6.85554">
        <ele>231</ele>
        <time>2012-02-26T09:09:37Z</time>
      </trkpt>
      <trkpt lat="43.62618" lon="6.85541">
        <ele>232</ele>
        <time>2012-02-26T09:09:42Z</time>
      </trkpt>
      <trkpt lat="43.62623" lon="6.8553">
        <ele>234</ele>
        <time>2012-02-26T09:09:47Z</time>
      </trkpt>
      <trkpt lat="43.62627" lon="6.85516">
        <ele>234</ele>
        <time>2012-02-26T09:09:52Z</time>
      </trkpt>
      <trkpt lat="43.62633" lon="6.85504">
        <ele>234</ele>
        <time>2012-02-26T09:09:57Z</time>
      </trkpt>
      <trkpt lat="43.62639" lon="6.85487">
        <ele>235</ele>
        <time>2012-02-26T09:10:02Z</time>
      </trkpt>
      <trkpt lat="43.62655" lon="6.85472">
        <ele>235</ele>
        <time>2012-02-26T09:10:07Z</time>
      </trkpt>
      <trkpt lat="43.6267" lon="6.85454">
        <ele>235</ele>
        <time>2012-02-26T09:10:12Z</time>
      </trkpt>
      <trkpt lat="43.62682" lon="6.85438">
        <ele>235</ele>
        <time>2012-02-26T09:10:17Z</time>
      </trkpt>
      <trkpt lat="43.62697" lon="6.85425">
        <ele>236</ele>
        <time>2012-02-26T09:10:22Z</time>
      </trkpt>
      <trkpt lat="43.62709" lon="6.8541">
        <ele>237</ele>
        <time>2012-02-26T09:10:27Z</time>
      </trkpt>
      <trkpt lat="43.62728" lon="6.85389">
        <ele>237</ele>
        <time>2012-02-26T09:10:32Z</time>
      </trkpt>
      <trkpt lat="43.62752" lon="6.85362">
        <ele>237</ele>
        <time>2012-02-26T09:10:37Z</time>
      </trkpt>
      <trkpt lat="43.62769" lon="6.8534">
        <ele>237</ele>
        <time>2012-02-26T09:10:42Z</time>
      </trkpt>
      <trkpt lat="43.62785" lon="6.85331">
        <ele>237</ele>
        <time>2012-02-26T09:10:47Z</time>
      </trkpt>
      <trkpt lat="43.628" lon="6.8532">
        <ele>237</ele>
        <time>2012-02-26T09:10:52Z</time>
      </trkpt>
      <trkpt lat="43.62806" lon="6.85294">
        <ele>237</ele>
        <time>2012-02-26T09:10:57Z</time>
      </trkpt>
      <trkpt lat="43.6281" lon="6.85256">
        <ele>237</ele>
        <time>2012-02-26T09:11:02Z</time>
      </trkpt>
      <trkpt lat="43.62815" lon="6.85199">
        <ele>237</ele>
        <time>2012-02-26T09:11:07Z</time>
      </trkpt>
      <trkpt lat="43.62828" lon="6.8514">
        <ele>234</ele>
        <time>2012-02-26T09:11:12Z</time>
      </trkpt>
      <trkpt lat="43.6285" lon="6.85062">
        <ele>230</ele>
        <time>2012-02-26T09:11:18Z</time>
      </trkpt>
      <trkpt lat="43.62876" lon="6.85001">
        <ele>226</ele>
        <time>2012-02-26T09:11:23Z</time>
      </trkpt>
      <trkpt lat="43.62904" lon="6.84948">
        <ele>222</ele>
        <time>2012-02-26T09:11:28Z</time>
      </trkpt>
      <trkpt lat="43.62935" lon="6.84907">
        <ele>220</ele>
        <time>2012-02-26T09:11:33Z</time>
      </trkpt>
      <trkpt lat="43.62965" lon="6.84868">
        <ele>219</ele>
        <time>2012-02-26T09:11:38Z</time>
      </trkpt>
      <trkpt lat="43.63007" lon="6.84841">
        <ele>218</ele>
        <time>2012-02-26T09:11:44Z</time>
      </trkpt>
      <trkpt lat="43.63033" lon="6.84834">
        <ele>218</ele>
        <time>2012-02-26T09:11:49Z</time>
      </trkpt>
      <trkpt lat="43.63052" lon="6.84826">
        <ele>217</ele>
        <time>2012-02-26T09:11:54Z</time>
      </trkpt>
      <trkpt lat="43.63056" lon="6.84783">
        <ele>215</ele>
        <time>2012-02-26T09:11:59Z</time>
      </trkpt>
      <trkpt lat="43.63025" lon="6.84762">
        <ele>211</ele>
        <time>2012-02-26T09:12:04Z</time>
      </trkpt>
      <trkpt lat="43.62988" lon="6.84753">
        <ele>207</ele>
        <time>2012-02-26T09:12:09Z</time>
      </trkpt>
      <trkpt lat="43.62959" lon="6.84753">
        <ele>207</ele>
        <time>2012-02-26T09:12:15Z</time>
      </trkpt>
      <trkpt lat="43.62944" lon="6.84752">
        <ele>207</ele>
        <time>2012-02-26T09:12:20Z</time>
      </trkpt>
      <trkpt lat="43.62934" lon="6.84754">
        <ele>207</ele>
        <time>2012-02-26T09:12:25Z</time>
      </trkpt>
      <trkpt lat="43.62926" lon="6.84756">
        <ele>207</ele>
        <time>2012-02-26T09:12:31Z</time>
      </trkpt>
      <trkpt lat="43.62925" lon="6.84751">
        <ele>207</ele>
        <time>2012-02-26T09:12:37Z</time>
      </trkpt>
      <trkpt lat="43.62936" lon="6.84753">
        <ele>207</ele>
        <time>2012-02-26T09:12:42Z</time>
      </trkpt>
      <trkpt lat="43.62949" lon="6.84756">
        <ele>207</ele>
        <time>2012-02-26T09:12:47Z</time>
      </trkpt>
      <trkpt lat="43.62962" lon="6.84754">
        <ele>207</ele>
        <time>2012-02-26T09:12:52Z</time>
      </trkpt>
      <trkpt lat="43.62974" lon="6.84753">
        <ele>207</ele>
        <time>2012-02-26T09:12:57Z</time>
      </trkpt>
      <trkpt lat="43.62989" lon="6.84757">
        <ele>207</ele>
        <time>2012-02-26T09:13:02Z</time>
      </trkpt>
      <trkpt lat="43.63008" lon="6.84762">
        <ele>207</ele>
        <time>2012-02-26T09:13:07Z</time>
      </trkpt>
      <trkpt lat="43.63026" lon="6.84764">
        <ele>207</ele>
        <time>2012-02-26T09:13:12Z</time>
      </trkpt>
      <trkpt lat="43.63043" lon="6.84768">
        <ele>207</ele>
        <time>2012-02-26T09:13:17Z</time>
      </trkpt>
      <trkpt lat="43.63054" lon="6.8478">
        <ele>207</ele>
        <time>2012-02-26T09:13:22Z</time>
      </trkpt>
      <trkpt lat="43.63055" lon="6.848">
        <ele>207</ele>
        <time>2012-02-26T09:13:27Z</time>
      </trkpt>
      <trkpt lat="43.63053" lon="6.84817">
        <ele>207</ele>
        <time>2012-02-26T09:13:32Z</time>
      </trkpt>
      <trkpt lat="43.63054" lon="6.84832">
        <ele>209</ele>
        <time>2012-02-26T09:13:37Z</time>
      </trkpt>
      <trkpt lat="43.63065" lon="6.84836">
        <ele>211</ele>
        <time>2012-02-26T09:13:42Z</time>
      </trkpt>
      <trkpt lat="43.63076" lon="6.84839">
        <ele>212</ele>
        <time>2012-02-26T09:13:47Z</time>
      </trkpt>
      <trkpt lat="43.63089" lon="6.84844">
        <ele>213</ele>
        <time>2012-02-26T09:13:53Z</time>
      </trkpt>
      <trkpt lat="43.63101" lon="6.84848">
        <ele>214</ele>
        <time>2012-02-26T09:13:58Z</time>
      </trkpt>
      <trkpt lat="43.63113" lon="6.84852">
        <ele>214</ele>
        <time>2012-02-26T09:14:03Z</time>
      </trkpt>
      <trkpt lat="43.63123" lon="6.84857">
        <ele>215</ele>
        <time>2012-02-26T09:14:08Z</time>
      </trkpt>
      <trkpt lat="43.63132" lon="6.84867">
        <ele>215</ele>
        <time>2012-02-26T09:14:13Z</time>
      </trkpt>
      <trkpt lat="43.63141" lon="6.84878">
        <ele>216</ele>
        <time>2012-02-26T09:14:18Z</time>
      </trkpt>
      <trkpt lat="43.6315" lon="6.84889">
        <ele>216</ele>
        <time>2012-02-26T09:14:23Z</time>
      </trkpt>
      <trkpt lat="43.6316" lon="6.84899">
        <ele>217</ele>
        <time>2012-02-26T09:14:28Z</time>
      </trkpt>
      <trkpt lat="43.63171" lon="6.84909">
        <ele>218</ele>
        <time>2012-02-26T09:14:33Z</time>
      </trkpt>
      <trkpt lat="43.6318" lon="6.84923">
        <ele>218</ele>
        <time>2012-02-26T09:14:38Z</time>
      </trkpt>
      <trkpt lat="43.63191" lon="6.84936">
        <ele>218</ele>
        <time>2012-02-26T09:14:43Z</time>
      </trkpt>
      <trkpt lat="43.632" lon="6.84949">
        <ele>218</ele>
        <time>2012-02-26T09:14:48Z</time>
      </trkpt>
      <trkpt lat="43.63208" lon="6.84961">
        <ele>218</ele>
        <time>2012-02-26T09:14:53Z</time>
      </trkpt>
      <trkpt lat="43.63216" lon="6.84973">
        <ele>219</ele>
        <time>2012-02-26T09:14:58Z</time>
      </trkpt>
      <trkpt lat="43.63223" lon="6.84985">
        <ele>222</ele>
        <time>2012-02-26T09:15:03Z</time>
      </trkpt>
      <trkpt lat="43.63229" lon="6.84998">
        <ele>224</ele>
        <time>2012-02-26T09:15:08Z</time>
      </trkpt>
      <trkpt lat="43.63235" lon="6.85011">
        <ele>225</ele>
        <time>2012-02-26T09:15:13Z</time>
      </trkpt>
      <trkpt lat="43.63242" lon="6.85026">
        <ele>226</ele>
        <time>2012-02-26T09:15:18Z</time>
      </trkpt>
      <trkpt lat="43.63248" lon="6.85041">
        <ele>227</ele>
        <time>2012-02-26T09:15:23Z</time>
      </trkpt>
      <trkpt lat="43.63254" lon="6.85056">
        <ele>227</ele>
        <time>2012-02-26T09:15:28Z</time>
      </trkpt>
      <trkpt lat="43.6326" lon="6.85076">
        <ele>229</ele>
        <time>2012-02-26T09:15:34Z</time>
      </trkpt>
      <trkpt lat="43.63266" lon="6.85092">
        <ele>230</ele>
        <time>2012-02-26T09:15:39Z</time>
      </trkpt>
      <trkpt lat="43.63273" lon="6.8511">
        <ele>230</ele>
        <time>2012-02-26T09:15:44Z</time>
      </trkpt>
      <trkpt lat="43.63279" lon="6.85128">
        <ele>230</ele>
        <time>2012-02-26T09:15:49Z</time>
      </trkpt>
      <trkpt lat="43.63288" lon="6.8515">
        <ele>231</ele>
        <time>2012-02-26T09:15:55Z</time>
      </trkpt>
      <trkpt lat="43.63295" lon="6.8517">
        <ele>231</ele>
        <time>2012-02-26T09:16:00Z</time>
      </trkpt>
      <trkpt lat="43.63303" lon="6.85191">
        <ele>232</ele>
        <time>2012-02-26T09:16:05Z</time>
      </trkpt>
      <trkpt lat="43.63314" lon="6.8521">
        <ele>232</ele>
        <time>2012-02-26T09:16:10Z</time>
      </trkpt>
      <trkpt lat="43.63326" lon="6.8523">
        <ele>232</ele>
        <time>2012-02-26T09:16:15Z</time>
      </trkpt>
      <trkpt lat="43.63337" lon="6.85248">
        <ele>232</ele>
        <time>2012-02-26T09:16:20Z</time>
      </trkpt>
      <trkpt lat="43.63349" lon="6.85266">
        <ele>232</ele>
        <time>2012-02-26T09:16:25Z</time>
      </trkpt>
      <trkpt lat="43.63358" lon="6.85287">
        <ele>233</ele>
        <time>2012-02-26T09:16:30Z</time>
      </trkpt>
      <trkpt lat="43.63367" lon="6.85307">
        <ele>234</ele>
        <time>2012-02-26T09:16:35Z</time>
      </trkpt>
      <trkpt lat="43.63377" lon="6.85325">
        <ele>235</ele>
        <time>2012-02-26T09:16:40Z</time>
      </trkpt>
      <trkpt lat="43.63384" lon="6.85345">
        <ele>236</ele>
        <time>2012-02-26T09:16:45Z</time>
      </trkpt>
      <trkpt lat="43.63389" lon="6.85366">
        <ele>236</ele>
        <time>2012-02-26T09:16:50Z</time>
      </trkpt>
      <trkpt lat="43.63395" lon="6.85387">
        <ele>237</ele>
        <time>2012-02-26T09:16:55Z</time>
      </trkpt>
      <trkpt lat="43.63402" lon="6.85408">
        <ele>237</ele>
        <time>2012-02-26T09:17:00Z</time>
      </trkpt>
      <trkpt lat="43.63412" lon="6.85433">
        <ele>237</ele>
        <time>2012-02-26T09:17:06Z</time>
      </trkpt>
      <trkpt lat="43.6342" lon="6.85453">
        <ele>237</ele>
        <time>2012-02-26T09:17:11Z</time>
      </trkpt>
      <trkpt lat="43.63427" lon="6.85473">
        <ele>237</ele>
        <time>2012-02-26T09:17:16Z</time>
      </trkpt>
      <trkpt lat="43.63438" lon="6.85493">
        <ele>237</ele>
        <time>2012-02-26T09:17:21Z</time>
      </trkpt>
      <trkpt lat="43.63452" lon="6.85515">
        <ele>237</ele>
        <time>2012-02-26T09:17:26Z</time>
      </trkpt>
      <trkpt lat="43.6347" lon="6.85529">
        <ele>237</ele>
        <time>2012-02-26T09:17:31Z</time>
      </trkpt>
      <trkpt lat="43.63485" lon="6.85546">
        <ele>237</ele>
        <time>2012-02-26T09:17:36Z</time>
      </trkpt>
      <trkpt lat="43.635" lon="6.85565">
        <ele>237</ele>
        <time>2012-02-26T09:17:41Z</time>
      </trkpt>
      <trkpt lat="43.63511" lon="6.85571">
        <ele>237</ele>
        <time>2012-02-26T09:17:46Z</time>
      </trkpt>
      <trkpt lat="43.63515" lon="6.85564">
        <ele>237</ele>
        <time>2012-02-26T09:17:51Z</time>
      </trkpt>
      <trkpt lat="43.63514" lon="6.85544">
        <ele>237</ele>
        <time>2012-02-26T09:17:56Z</time>
      </trkpt>
      <trkpt lat="43.63509" lon="6.85518">
        <ele>237</ele>
        <time>2012-02-26T09:18:01Z</time>
      </trkpt>
      <trkpt lat="43.63504" lon="6.85491">
        <ele>237</ele>
        <time>2012-02-26T09:18:06Z</time>
      </trkpt>
      <trkpt lat="43.63498" lon="6.85467">
        <ele>237</ele>
        <time>2012-02-26T09:18:11Z</time>
      </trkpt>
      <trkpt lat="43.63492" lon="6.85442">
        <ele>237</ele>
        <time>2012-02-26T09:18:16Z</time>
      </trkpt>
      <trkpt lat="43.63485" lon="6.85414">
        <ele>237</ele>
        <time>2012-02-26T09:18:21Z</time>
      </trkpt>
      <trkpt lat="43.63479" lon="6.85385">
        <ele>237</ele>
        <time>2012-02-26T09:18:26Z</time>
      </trkpt>
      <trkpt lat="43.63473" lon="6.85356">
        <ele>237</ele>
        <time>2012-02-26T09:18:31Z</time>
      </trkpt>
      <trkpt lat="43.63466" lon="6.85324">
        <ele>237</ele>
        <time>2012-02-26T09:18:36Z</time>
      </trkpt>
      <trkpt lat="43.6346" lon="6.8529">
        <ele>237</ele>
        <time>2012-02-26T09:18:41Z</time>
      </trkpt>
      <trkpt lat="43.63456" lon="6.85254">
        <ele>237</ele>
        <time>2012-02-26T09:18:46Z</time>
      </trkpt>
      <trkpt lat="43.63453" lon="6.85213">
        <ele>237</ele>
        <time>2012-02-26T09:18:52Z</time>
      </trkpt>
      <trkpt lat="43.63449" lon="6.85179">
        <ele>237</ele>
        <time>2012-02-26T09:18:57Z</time>
      </trkpt>
      <trkpt lat="43.63444" lon="6.85147">
        <ele>237</ele>
        <time>2012-02-26T09:19:02Z</time>
      </trkpt>
      <trkpt lat="43.63432" lon="6.85109">
        <ele>237</ele>
        <time>2012-02-26T09:19:08Z</time>
      </trkpt>
      <trkpt lat="43.63417" lon="6.85077">
        <ele>237</ele>
        <time>2012-02-26T09:19:13Z</time>
      </trkpt>
      <trkpt lat="43.63401" lon="6.85047">
        <ele>237</ele>
        <time>2012-02-26T09:19:18Z</time>
      </trkpt>
      <trkpt lat="43.63387" lon="6.85018">
        <ele>237</ele>
        <time>2012-02-26T09:19:23Z</time>
      </trkpt>
      <trkpt lat="43.63375" lon="6.84988">
        <ele>237</ele>
        <time>2012-02-26T09:19:28Z</time>
      </trkpt>
      <trkpt lat="43.63363" lon="6.8496">
        <ele>238</ele>
        <time>2012-02-26T09:19:33Z</time>
      </trkpt>
      <trkpt lat="43.63353" lon="6.84933">
        <ele>238</ele>
        <time>2012-02-26T09:19:38Z</time>
      </trkpt>
      <trkpt lat="43.63342" lon="6.84906">
        <ele>238</ele>
        <time>2012-02-26T09:19:43Z</time>
      </trkpt>
      <trkpt lat="43.63332" lon="6.84882">
        <ele>238</ele>
        <time>2012-02-26T09:19:48Z</time>
      </trkpt>
      <trkpt lat="43.63321" lon="6.84855">
        <ele>238</ele>
        <time>2012-02-26T09:19:53Z</time>
      </trkpt>
      <trkpt lat="43.63309" lon="6.84829">
        <ele>238</ele>
        <time>2012-02-26T09:19:58Z</time>
      </trkpt>
      <trkpt lat="43.63302" lon="6.84804">
        <ele>238</ele>
        <time>2012-02-26T09:20:03Z</time>
      </trkpt>
      <trkpt lat="43.63298" lon="6.84772">
        <ele>238</ele>
        <time>2012-02-26T09:20:08Z</time>
      </trkpt>
      <trkpt lat="43.63298" lon="6.84736">
        <ele>238</ele>
        <time>2012-02-26T09:20:13Z</time>
      </trkpt>
      <trkpt lat="43.633" lon="6.84693">
        <ele>238</ele>
        <time>2012-02-26T09:20:18Z</time>
      </trkpt>
      <trkpt lat="43.63303" lon="6.84649">
        <ele>238</ele>
        <time>2012-02-26T09:20:23Z</time>
      </trkpt>
      <trkpt lat="43.63303" lon="6.84604">
        <ele>238</ele>
        <time>2012-02-26T09:20:28Z</time>
      </trkpt>
      <trkpt lat="43.63294" lon="6.8456">
        <ele>238</ele>
        <time>2012-02-26T09:20:33Z</time>
      </trkpt>
      <trkpt lat="43.63274" lon="6.84524">
        <ele>238</ele>
        <time>2012-02-26T09:20:38Z</time>
      </trkpt>
      <trkpt lat="43.63251" lon="6.84502">
        <ele>238</ele>
        <time>2012-02-26T09:20:43Z</time>
      </trkpt>
      <trkpt lat="43.6323" lon="6.84485">
        <ele>238</ele>
        <time>2012-02-26T09:20:48Z</time>
      </trkpt>
      <trkpt lat="43.63208" lon="6.84469">
        <ele>238</ele>
        <time>2012-02-26T09:20:53Z</time>
      </trkpt>
      <trkpt lat="43.63189" lon="6.84453">
        <ele>238</ele>
        <time>2012-02-26T09:20:58Z</time>
      </trkpt>
      <trkpt lat="43.63175" lon="6.84429">
        <ele>238</ele>
        <time>2012-02-26T09:21:03Z</time>
      </trkpt>
      <trkpt lat="43.63166" lon="6.84403">
        <ele>238</ele>
        <time>2012-02-26T09:21:08Z</time>
      </trkpt>
      <trkpt lat="43.63162" lon="6.84378">
        <ele>238</ele>
        <time>2012-02-26T09:21:13Z</time>
      </trkpt>
      <trkpt lat="43.63165" lon="6.84354">
        <ele>238</ele>
        <time>2012-02-26T09:21:18Z</time>
      </trkpt>
      <trkpt lat="43.63157" lon="6.84334">
        <ele>238</ele>
        <time>2012-02-26T09:21:23Z</time>
      </trkpt>
      <trkpt lat="43.63136" lon="6.84331">
        <ele>238</ele>
        <time>2012-02-26T09:21:28Z</time>
      </trkpt>
      <trkpt lat="43.63117" lon="6.84332">
        <ele>238</ele>
        <time>2012-02-26T09:21:33Z</time>
      </trkpt>
      <trkpt lat="43.631" lon="6.84341">
        <ele>238</ele>
        <time>2012-02-26T09:21:38Z</time>
      </trkpt>
      <trkpt lat="43.6308" lon="6.84355">
        <ele>238</ele>
        <time>2012-02-26T09:21:43Z</time>
      </trkpt>
      <trkpt lat="43.63052" lon="6.8437">
        <ele>238</ele>
        <time>2012-02-26T09:21:48Z</time>
      </trkpt>
      <trkpt lat="43.63028" lon="6.84391">
        <ele>238</ele>
        <time>2012-02-26T09:21:53Z</time>
      </trkpt>
      <trkpt lat="43.6303" lon="6.84425">
        <ele>238</ele>
        <time>2012-02-26T09:21:58Z</time>
      </trkpt>
      <trkpt lat="43.6304" lon="6.84457">
        <ele>238</ele>
        <time>2012-02-26T09:22:03Z</time>
      </trkpt>
      <trkpt lat="43.63048" lon="6.84493">
        <ele>238</ele>
        <time>2012-02-26T09:22:08Z</time>
      </trkpt>
      <trkpt lat="43.63045" lon="6.84538">
        <ele>237</ele>
        <time>2012-02-26T09:22:13Z</time>
      </trkpt>
      <trkpt lat="43.63027" lon="6.84579">
        <ele>237</ele>
        <time>2012-02-26T09:22:18Z</time>
      </trkpt>
      <trkpt lat="43.63001" lon="6.84604">
        <ele>236</ele>
        <time>2012-02-26T09:22:23Z</time>
      </trkpt>
      <trkpt lat="43.62974" lon="6.84618">
        <ele>236</ele>
        <time>2012-02-26T09:22:28Z</time>
      </trkpt>
      <trkpt lat="43.62952" lon="6.84623">
        <ele>236</ele>
        <time>2012-02-26T09:22:33Z</time>
      </trkpt>
      <trkpt lat="43.62934" lon="6.84624">
        <ele>236</ele>
        <time>2012-02-26T09:22:38Z</time>
      </trkpt>
      <trkpt lat="43.62917" lon="6.84622">
        <ele>236</ele>
        <time>2012-02-26T09:22:43Z</time>
      </trkpt>
      <trkpt lat="43.62903" lon="6.84621">
        <ele>239</ele>
        <time>2012-02-26T09:22:48Z</time>
      </trkpt>
      <trkpt lat="43.6289" lon="6.8462">
        <ele>241</ele>
        <time>2012-02-26T09:22:53Z</time>
      </trkpt>
      <trkpt lat="43.62878" lon="6.8462">
        <ele>242</ele>
        <time>2012-02-26T09:22:58Z</time>
      </trkpt>
      <trkpt lat="43.62864" lon="6.84619">
        <ele>243</ele>
        <time>2012-02-26T09:23:03Z</time>
      </trkpt>
      <trkpt lat="43.62848" lon="6.84616">
        <ele>243</ele>
        <time>2012-02-26T09:23:08Z</time>
      </trkpt>
      <trkpt lat="43.6283" lon="6.84617">
        <ele>243</ele>
        <time>2012-02-26T09:23:13Z</time>
      </trkpt>
      <trkpt lat="43.62813" lon="6.84619">
        <ele>243</ele>
        <time>2012-02-26T09:23:18Z</time>
      </trkpt>
      <trkpt lat="43.62798" lon="6.84625">
        <ele>243</ele>
        <time>2012-02-26T09:23:23Z</time>
      </trkpt>
      <trkpt lat="43.62779" lon="6.84628">
        <ele>243</ele>
        <time>2012-02-26T09:23:28Z</time>
      </trkpt>
      <trkpt lat="43.62751" lon="6.84619">
        <ele>243</ele>
        <time>2012-02-26T09:23:33Z</time>
      </trkpt>
      <trkpt lat="43.62718" lon="6.8463">
        <ele>243</ele>
        <time>2012-02-26T09:23:38Z</time>
      </trkpt>
      <trkpt lat="43.62685" lon="6.84635">
        <ele>243</ele>
        <time>2012-02-26T09:23:43Z</time>
      </trkpt>
      <trkpt lat="43.62654" lon="6.8463">
        <ele>243</ele>
        <time>2012-02-26T09:23:48Z</time>
      </trkpt>
      <trkpt lat="43.62637" lon="6.84624">
        <ele>243</ele>
        <time>2012-02-26T09:23:53Z</time>
      </trkpt>
      <trkpt lat="43.62622" lon="6.84606">
        <ele>242</ele>
        <time>2012-02-26T09:23:58Z</time>
      </trkpt>
      <trkpt lat="43.62603" lon="6.84586">
        <ele>241</ele>
        <time>2012-02-26T09:24:03Z</time>
      </trkpt>
      <trkpt lat="43.62586" lon="6.8456">
        <ele>240</ele>
        <time>2012-02-26T09:24:08Z</time>
      </trkpt>
      <trkpt lat="43.62571" lon="6.84528">
        <ele>239</ele>
        <time>2012-02-26T09:24:13Z</time>
      </trkpt>
      <trkpt lat="43.62556" lon="6.84496">
        <ele>239</ele>
        <time>2012-02-26T09:24:18Z</time>
      </trkpt>
      <trkpt lat="43.62548" lon="6.84467">
        <ele>239</ele>
        <time>2012-02-26T09:24:23Z</time>
      </trkpt>
      <trkpt lat="43.62539" lon="6.84436">
        <ele>237</ele>
        <time>2012-02-26T09:24:28Z</time>
      </trkpt>
      <trkpt lat="43.62512" lon="6.84421">
        <ele>234</ele>
        <time>2012-02-26T09:24:33Z</time>
      </trkpt>
      <trkpt lat="43.62499" lon="6.84392">
        <ele>234</ele>
        <time>2012-02-26T09:24:38Z</time>
      </trkpt>
      <trkpt lat="43.62496" lon="6.84357">
        <ele>233</ele>
        <time>2012-02-26T09:24:43Z</time>
      </trkpt>
      <trkpt lat="43.62484" lon="6.84308">
        <ele>229</ele>
        <time>2012-02-26T09:24:48Z</time>
      </trkpt>
      <trkpt lat="43.62478" lon="6.84256">
        <ele>226</ele>
        <time>2012-02-26T09:24:53Z</time>
      </trkpt>
      <trkpt lat="43.62472" lon="6.84208">
        <ele>221</ele>
        <time>2012-02-26T09:24:58Z</time>
      </trkpt>
      <trkpt lat="43.62451" lon="6.84167">
        <ele>216</ele>
        <time>2012-02-26T09:25:03Z</time>
      </trkpt>
      <trkpt lat="43.62415" lon="6.84126">
        <ele>211</ele>
        <time>2012-02-26T09:25:08Z</time>
      </trkpt>
      <trkpt lat="43.6239" lon="6.84102">
        <ele>206</ele>
        <time>2012-02-26T09:25:13Z</time>
      </trkpt>
      <trkpt lat="43.62384" lon="6.84102">
        <ele>201</ele>
        <time>2012-02-26T09:25:18Z</time>
      </trkpt>
      <trkpt lat="43.62381" lon="6.84075">
        <ele>197</ele>
        <time>2012-02-26T09:25:23Z</time>
      </trkpt>
      <trkpt lat="43.62397" lon="6.84047">
        <ele>194</ele>
        <time>2012-02-26T09:25:28Z</time>
      </trkpt>
      <trkpt lat="43.62403" lon="6.84011">
        <ele>190</ele>
        <time>2012-02-26T09:25:33Z</time>
      </trkpt>
      <trkpt lat="43.62391" lon="6.83965">
        <ele>187</ele>
        <time>2012-02-26T09:25:38Z</time>
      </trkpt>
      <trkpt lat="43.6239" lon="6.8394">
        <ele>186</ele>
        <time>2012-02-26T09:25:43Z</time>
      </trkpt>
      <trkpt lat="43.62401" lon="6.83936">
        <ele>184</ele>
        <time>2012-02-26T09:25:48Z</time>
      </trkpt>
      <trkpt lat="43.62419" lon="6.83943">
        <ele>181</ele>
        <time>2012-02-26T09:25:53Z</time>
      </trkpt>
      <trkpt lat="43.62421" lon="6.83943">
        <ele>180</ele>
        <time>2012-02-26T09:26:04Z</time>
      </trkpt>
      <trkpt lat="43.6242" lon="6.83943">
        <ele>180</ele>
        <time>2012-02-26T09:26:16Z</time>
      </trkpt>
      <trkpt lat="43.62413" lon="6.83942">
        <ele>180</ele>
        <time>2012-02-26T09:26:21Z</time>
      </trkpt>
      <trkpt lat="43.62402" lon="6.8394">
        <ele>180</ele>
        <time>2012-02-26T09:26:26Z</time>
      </trkpt>
      <trkpt lat="43.62392" lon="6.83943">
        <ele>180</ele>
        <time>2012-02-26T09:26:31Z</time>
      </trkpt>
      <trkpt lat="43.62389" lon="6.83953">
        <ele>180</ele>
        <time>2012-02-26T09:26:36Z</time>
      </trkpt>
      <trkpt lat="43.62386" lon="6.83951">
        <ele>181</ele>
        <time>2012-02-26T09:26:41Z</time>
      </trkpt>
      <trkpt lat="43.62383" lon="6.83943">
        <ele>182</ele>
        <time>2012-02-26T09:26:46Z</time>
      </trkpt>
      <trkpt lat="43.62375" lon="6.83923">
        <ele>182</ele>
        <time>2012-02-26T09:26:51Z</time>
      </trkpt>
      <trkpt lat="43.62361" lon="6.839">
        <ele>182</ele>
        <time>2012-02-26T09:26:56Z</time>
      </trkpt>
      <trkpt lat="43.62358" lon="6.83899">
        <ele>182</ele>
        <time>2012-02-26T09:27:07Z</time>
      </trkpt>
      <trkpt lat="43.62353" lon="6.83885">
        <ele>182</ele>
        <time>2012-02-26T09:27:12Z</time>
      </trkpt>
      <trkpt lat="43.62347" lon="6.8386">
        <ele>181</ele>
        <time>2012-02-26T09:27:17Z</time>
      </trkpt>
      <trkpt lat="43.62336" lon="6.83834">
        <ele>177</ele>
        <time>2012-02-26T09:27:22Z</time>
      </trkpt>
      <trkpt lat="43.62324" lon="6.83809">
        <ele>173</ele>
        <time>2012-02-26T09:27:27Z</time>
      </trkpt>
      <trkpt lat="43.62305" lon="6.83784">
        <ele>169</ele>
        <time>2012-02-26T09:27:32Z</time>
      </trkpt>
      <trkpt lat="43.62288" lon="6.83759">
        <ele>164</ele>
        <time>2012-02-26T09:27:37Z</time>
      </trkpt>
      <trkpt lat="43.62276" lon="6.83733">
        <ele>160</ele>
        <time>2012-02-26T09:27:42Z</time>
      </trkpt>
      <trkpt lat="43.62254" lon="6.83706">
        <ele>155</ele>
        <time>2012-02-26T09:27:47Z</time>
      </trkpt>
      <trkpt lat="43.62237" lon="6.83677">
        <ele>153</ele>
        <time>2012-02-26T09:27:52Z</time>
      </trkpt>
      <trkpt lat="43.62227" lon="6.83654">
        <ele>150</ele>
        <time>2012-02-26T09:27:57Z</time>
      </trkpt>
      <trkpt lat="43.62217" lon="6.83634">
        <ele>147</ele>
        <time>2012-02-26T09:28:02Z</time>
      </trkpt>
      <trkpt lat="43.62201" lon="6.83617">
        <ele>142</ele>
        <time>2012-02-26T09:28:07Z</time>
      </trkpt>
      <trkpt lat="43.62181" lon="6.83604">
        <ele>138</ele>
        <time>2012-02-26T09:28:12Z</time>
      </trkpt>
      <trkpt lat="43.6217" lon="6.83589">
        <ele>134</ele>
        <time>2012-02-26T09:28:17Z</time>
      </trkpt>
      <trkpt lat="43.62166" lon="6.83575">
        <ele>132</ele>
        <time>2012-02-26T09:28:22Z</time>
      </trkpt>
      <trkpt lat="43.62162" lon="6.83566">
        <ele>130</ele>
        <time>2012-02-26T09:28:27Z</time>
      </trkpt>
      <trkpt lat="43.62157" lon="6.83557">
        <ele>128</ele>
        <time>2012-02-26T09:28:44Z</time>
      </trkpt>
      <trkpt lat="43.62153" lon="6.83551">
        <ele>126</ele>
        <time>2012-02-26T09:28:50Z</time>
      </trkpt>
      <trkpt lat="43.62146" lon="6.83543">
        <ele>124</ele>
        <time>2012-02-26T09:28:55Z</time>
      </trkpt>
      <trkpt lat="43.62139" lon="6.83537">
        <ele>120</ele>
        <time>2012-02-26T09:29:00Z</time>
      </trkpt>
      <trkpt lat="43.6213" lon="6.83532">
        <ele>118</ele>
        <time>2012-02-26T09:29:05Z</time>
      </trkpt>
      <trkpt lat="43.6212" lon="6.83524">
        <ele>115</ele>
        <time>2012-02-26T09:29:10Z</time>
      </trkpt>
      <trkpt lat="43.62109" lon="6.83513">
        <ele>112</ele>
        <time>2012-02-26T09:29:15Z</time>
      </trkpt>
      <trkpt lat="43.62101" lon="6.83503">
        <ele>108</ele>
        <time>2012-02-26T09:29:20Z</time>
      </trkpt>
      <trkpt lat="43.62092" lon="6.83497">
        <ele>105</ele>
        <time>2012-02-26T09:29:25Z</time>
      </trkpt>
      <trkpt lat="43.6209" lon="6.83494">
        <ele>102</ele>
        <time>2012-02-26T09:29:33Z</time>
      </trkpt>
      <trkpt lat="43.62082" lon="6.83485">
        <ele>100</ele>
        <time>2012-02-26T09:29:38Z</time>
      </trkpt>
      <trkpt lat="43.62077" lon="6.83469">
        <ele>97</ele>
        <time>2012-02-26T09:29:43Z</time>
      </trkpt>
      <trkpt lat="43.62074" lon="6.83456">
        <ele>94</ele>
        <time>2012-02-26T09:29:48Z</time>
      </trkpt>
      <trkpt lat="43.62073" lon="6.83438">
        <ele>92</ele>
        <time>2012-02-26T09:29:53Z</time>
      </trkpt>
      <trkpt lat="43.62076" lon="6.83428">
        <ele>89</ele>
        <time>2012-02-26T09:29:58Z</time>
      </trkpt>
      <trkpt lat="43.62078" lon="6.83413">
        <ele>86</ele>
        <time>2012-02-26T09:30:03Z</time>
      </trkpt>
      <trkpt lat="43.62083" lon="6.83397">
        <ele>83</ele>
        <time>2012-02-26T09:30:08Z</time>
      </trkpt>
      <trkpt lat="43.62084" lon="6.83389">
        <ele>80</ele>
        <time>2012-02-26T09:30:13Z</time>
      </trkpt>
      <trkpt lat="43.62081" lon="6.83388">
        <ele>79</ele>
        <time>2012-02-26T09:30:19Z</time>
      </trkpt>
      <trkpt lat="43.62077" lon="6.8339">
        <ele>79</ele>
        <time>2012-02-26T09:30:24Z</time>
      </trkpt>
      <trkpt lat="43.62067" lon="6.83394">
        <ele>79</ele>
        <time>2012-02-26T09:30:29Z</time>
      </trkpt>
      <trkpt lat="43.62056" lon="6.834">
        <ele>79</ele>
        <time>2012-02-26T09:30:34Z</time>
      </trkpt>
      <trkpt lat="43.62043" lon="6.83401">
        <ele>81</ele>
        <time>2012-02-26T09:30:39Z</time>
      </trkpt>
      <trkpt lat="43.62032" lon="6.83412">
        <ele>83</ele>
        <time>2012-02-26T09:30:44Z</time>
      </trkpt>
      <trkpt lat="43.62032" lon="6.83427">
        <ele>84</ele>
        <time>2012-02-26T09:30:49Z</time>
      </trkpt>
      <trkpt lat="43.62032" lon="6.83435">
        <ele>84</ele>
        <time>2012-02-26T09:30:55Z</time>
      </trkpt>
      <trkpt lat="43.6203" lon="6.83442">
        <ele>84</ele>
        <time>2012-02-26T09:31:00Z</time>
      </trkpt>
      <trkpt lat="43.62029" lon="6.83451">
        <ele>84</ele>
        <time>2012-02-26T09:31:05Z</time>
      </trkpt>
      <trkpt lat="43.62026" lon="6.83462">
        <ele>84</ele>
        <time>2012-02-26T09:31:10Z</time>
      </trkpt>
      <trkpt lat="43.62021" lon="6.83478">
        <ele>84</ele>
        <time>2012-02-26T09:31:15Z</time>
      </trkpt>
      <trkpt lat="43.62017" lon="6.83491">
        <ele>84</ele>
        <time>2012-02-26T09:31:20Z</time>
      </trkpt>
      <trkpt lat="43.62015" lon="6.83494">
        <ele>84</ele>
        <time>2012-02-26T09:31:27Z</time>
      </trkpt>
      <trkpt lat="43.62013" lon="6.83503">
        <ele>84</ele>
        <time>2012-02-26T09:31:34Z</time>
      </trkpt>
      <trkpt lat="43.62014" lon="6.8351">
        <ele>84</ele>
        <time>2012-02-26T09:31:40Z</time>
      </trkpt>
      <trkpt lat="43.62012" lon="6.83516">
        <ele>84</ele>
        <time>2012-02-26T09:31:46Z</time>
      </trkpt>
      <trkpt lat="43.6201" lon="6.83522">
        <ele>83</ele>
        <time>2012-02-26T09:31:52Z</time>
      </trkpt>
      <trkpt lat="43.62003" lon="6.83531">
        <ele>83</ele>
        <time>2012-02-26T09:31:57Z</time>
      </trkpt>
      <trkpt lat="43.61991" lon="6.83542">
        <ele>83</ele>
        <time>2012-02-26T09:32:02Z</time>
      </trkpt>
      <trkpt lat="43.61983" lon="6.83548">
        <ele>83</ele>
        <time>2012-02-26T09:32:09Z</time>
      </trkpt>
      <trkpt lat="43.6198" lon="6.83551">
        <ele>83</ele>
        <time>2012-02-26T09:32:16Z</time>
      </trkpt>
      <trkpt lat="43.61977" lon="6.83555">
        <ele>83</ele>
        <time>2012-02-26T09:32:22Z</time>
      </trkpt>
      <trkpt lat="43.61975" lon="6.83559">
        <ele>83</ele>
        <time>2012-02-26T09:32:27Z</time>
      </trkpt>
      <trkpt lat="43.61972" lon="6.83567">
        <ele>83</ele>
        <time>2012-02-26T09:32:33Z</time>
      </trkpt>
      <trkpt lat="43.61963" lon="6.83573">
        <ele>82</ele>
        <time>2012-02-26T09:32:38Z</time>
      </trkpt>
      <trkpt lat="43.61951" lon="6.83578">
        <ele>82</ele>
        <time>2012-02-26T09:32:43Z</time>
      </trkpt>
      <trkpt lat="43.61938" lon="6.83587">
        <ele>82</ele>
        <time>2012-02-26T09:32:48Z</time>
      </trkpt>
      <trkpt lat="43.61928" lon="6.83593">
        <ele>82</ele>
        <time>2012-02-26T09:32:53Z</time>
      </trkpt>
      <trkpt lat="43.61919" lon="6.83598">
        <ele>82</ele>
        <time>2012-02-26T09:32:58Z</time>
      </trkpt>
      <trkpt lat="43.61909" lon="6.83603">
        <ele>82</ele>
        <time>2012-02-26T09:33:03Z</time>
      </trkpt>
      <trkpt lat="43.61903" lon="6.83612">
        <ele>83</ele>
        <time>2012-02-26T09:33:10Z</time>
      </trkpt>
      <trkpt lat="43.61896" lon="6.83616">
        <ele>83</ele>
        <time>2012-02-26T09:33:15Z</time>
      </trkpt>
      <trkpt lat="43.61886" lon="6.83625">
        <ele>83</ele>
        <time>2012-02-26T09:33:20Z</time>
      </trkpt>
      <trkpt lat="43.6188" lon="6.83628">
        <ele>85</ele>
        <time>2012-02-26T09:33:26Z</time>
      </trkpt>
      <trkpt lat="43.61877" lon="6.83632">
        <ele>87</ele>
        <time>2012-02-26T09:33:35Z</time>
      </trkpt>
      <trkpt lat="43.61875" lon="6.83633">
        <ele>87</ele>
        <time>2012-02-26T09:33:40Z</time>
      </trkpt>
      <trkpt lat="43.61872" lon="6.83638">
        <ele>87</ele>
        <time>2012-02-26T09:33:46Z</time>
      </trkpt>
      <trkpt lat="43.61868" lon="6.83638">
        <ele>89</ele>
        <time>2012-02-26T09:33:52Z</time>
      </trkpt>
      <trkpt lat="43.61866" lon="6.83644">
        <ele>94</ele>
        <time>2012-02-26T09:33:57Z</time>
      </trkpt>
      <trkpt lat="43.61863" lon="6.83649">
        <ele>96</ele>
        <time>2012-02-26T09:34:04Z</time>
      </trkpt>
      <trkpt lat="43.61863" lon="6.83656">
        <ele>97</ele>
        <time>2012-02-26T09:34:09Z</time>
      </trkpt>
      <trkpt lat="43.61858" lon="6.8366">
        <ele>97</ele>
        <time>2012-02-26T09:34:14Z</time>
      </trkpt>
      <trkpt lat="43.61855" lon="6.83665">
        <ele>97</ele>
        <time>2012-02-26T09:34:20Z</time>
      </trkpt>
      <trkpt lat="43.61851" lon="6.83669">
        <ele>97</ele>
        <time>2012-02-26T09:34:27Z</time>
      </trkpt>
      <trkpt lat="43.61848" lon="6.83672">
        <ele>97</ele>
        <time>2012-02-26T09:34:33Z</time>
      </trkpt>
      <trkpt lat="43.61845" lon="6.83676">
        <ele>97</ele>
        <time>2012-02-26T09:34:39Z</time>
      </trkpt>
      <trkpt lat="43.61836" lon="6.83671">
        <ele>97</ele>
        <time>2012-02-26T09:34:44Z</time>
      </trkpt>
      <trkpt lat="43.61826" lon="6.83673">
        <ele>95</ele>
        <time>2012-02-26T09:34:49Z</time>
      </trkpt>
      <trkpt lat="43.61823" lon="6.83689">
        <ele>91</ele>
        <time>2012-02-26T09:34:54Z</time>
      </trkpt>
      <trkpt lat="43.61822" lon="6.83705">
        <ele>88</ele>
        <time>2012-02-26T09:34:59Z</time>
      </trkpt>
      <trkpt lat="43.61819" lon="6.83714">
        <ele>86</ele>
        <time>2012-02-26T09:35:04Z</time>
      </trkpt>
      <trkpt lat="43.61816" lon="6.8373">
        <ele>85</ele>
        <time>2012-02-26T09:35:09Z</time>
      </trkpt>
      <trkpt lat="43.61816" lon="6.83734">
        <ele>85</ele>
        <time>2012-02-26T09:35:15Z</time>
      </trkpt>
      <trkpt lat="43.61817" lon="6.8374">
        <ele>85</ele>
        <time>2012-02-26T09:35:21Z</time>
      </trkpt>
      <trkpt lat="43.61816" lon="6.83747">
        <ele>83</ele>
        <time>2012-02-26T09:35:26Z</time>
      </trkpt>
      <trkpt lat="43.61811" lon="6.83757">
        <ele>81</ele>
        <time>2012-02-26T09:35:31Z</time>
      </trkpt>
      <trkpt lat="43.61811" lon="6.83762">
        <ele>81</ele>
        <time>2012-02-26T09:35:37Z</time>
      </trkpt>
      <trkpt lat="43.61808" lon="6.83767">
        <ele>81</ele>
        <time>2012-02-26T09:35:42Z</time>
      </trkpt>
      <trkpt lat="43.61808" lon="6.83777">
        <ele>81</ele>
        <time>2012-02-26T09:35:47Z</time>
      </trkpt>
      <trkpt lat="43.61804" lon="6.83781">
        <ele>81</ele>
        <time>2012-02-26T09:35:52Z</time>
      </trkpt>
      <trkpt lat="43.61803" lon="6.83787">
        <ele>81</ele>
        <time>2012-02-26T09:35:58Z</time>
      </trkpt>
      <trkpt lat="43.61799" lon="6.83793">
        <ele>81</ele>
        <time>2012-02-26T09:36:04Z</time>
      </trkpt>
      <trkpt lat="43.61795" lon="6.83803">
        <ele>81</ele>
        <time>2012-02-26T09:36:09Z</time>
      </trkpt>
      <trkpt lat="43.61794" lon="6.8381">
        <ele>81</ele>
        <time>2012-02-26T09:36:19Z</time>
      </trkpt>
      <trkpt lat="43.61794" lon="6.83816">
        <ele>81</ele>
        <time>2012-02-26T09:36:27Z</time>
      </trkpt>
      <trkpt lat="43.61793" lon="6.8382">
        <ele>81</ele>
        <time>2012-02-26T09:36:32Z</time>
      </trkpt>
      <trkpt lat="43.61788" lon="6.83827">
        <ele>81</ele>
        <time>2012-02-26T09:36:38Z</time>
      </trkpt>
      <trkpt lat="43.61784" lon="6.83832">
        <ele>81</ele>
        <time>2012-02-26T09:36:44Z</time>
      </trkpt>
      <trkpt lat="43.61779" lon="6.83838">
        <ele>81</ele>
        <time>2012-02-26T09:36:50Z</time>
      </trkpt>
      <trkpt lat="43.61776" lon="6.83842">
        <ele>81</ele>
        <time>2012-02-26T09:36:58Z</time>
      </trkpt>
      <trkpt lat="43.61774" lon="6.83849">
        <ele>81</ele>
        <time>2012-02-26T09:37:04Z</time>
      </trkpt>
      <trkpt lat="43.6177" lon="6.83851">
        <ele>81</ele>
        <time>2012-02-26T09:37:10Z</time>
      </trkpt>
      <trkpt lat="43.61771" lon="6.83858">
        <ele>80</ele>
        <time>2012-02-26T09:37:15Z</time>
      </trkpt>
      <trkpt lat="43.61765" lon="6.83858">
        <ele>80</ele>
        <time>2012-02-26T09:37:21Z</time>
      </trkpt>
      <trkpt lat="43.6176" lon="6.83859">
        <ele>80</ele>
        <time>2012-02-26T09:37:26Z</time>
      </trkpt>
      <trkpt lat="43.61756" lon="6.83865">
        <ele>80</ele>
        <time>2012-02-26T09:37:32Z</time>
      </trkpt>
      <trkpt lat="43.6175" lon="6.83865">
        <ele>80</ele>
        <time>2012-02-26T09:37:40Z</time>
      </trkpt>
      <trkpt lat="43.61748" lon="6.83867">
        <ele>79</ele>
        <time>2012-02-26T09:37:46Z</time>
      </trkpt>
      <trkpt lat="43.61742" lon="6.83872">
        <ele>79</ele>
        <time>2012-02-26T09:37:52Z</time>
      </trkpt>
      <trkpt lat="43.61737" lon="6.83877">
        <ele>79</ele>
        <time>2012-02-26T09:37:58Z</time>
      </trkpt>
      <trkpt lat="43.61731" lon="6.83878">
        <ele>79</ele>
        <time>2012-02-26T09:38:03Z</time>
      </trkpt>
      <trkpt lat="43.61727" lon="6.83878">
        <ele>79</ele>
        <time>2012-02-26T09:38:09Z</time>
      </trkpt>
      <trkpt lat="43.61721" lon="6.83881">
        <ele>79</ele>
        <time>2012-02-26T09:38:14Z</time>
      </trkpt>
      <trkpt lat="43.61716" lon="6.83883">
        <ele>79</ele>
        <time>2012-02-26T09:38:19Z</time>
      </trkpt>
      <trkpt lat="43.6171" lon="6.83886">
        <ele>79</ele>
        <time>2012-02-26T09:38:25Z</time>
      </trkpt>
      <trkpt lat="43.61705" lon="6.83888">
        <ele>79</ele>
        <time>2012-02-26T09:38:30Z</time>
      </trkpt>
      <trkpt lat="43.61701" lon="6.83893">
        <ele>79</ele>
        <time>2012-02-26T09:38:36Z</time>
      </trkpt>
      <trkpt lat="43.61696" lon="6.83897">
        <ele>78</ele>
        <time>2012-02-26T09:38:43Z</time>
      </trkpt>
      <trkpt lat="43.61692" lon="6.83903">
        <ele>77</ele>
        <time>2012-02-26T09:38:49Z</time>
      </trkpt>
      <trkpt lat="43.61686" lon="6.83903">
        <ele>77</ele>
        <time>2012-02-26T09:38:55Z</time>
      </trkpt>
      <trkpt lat="43.61684" lon="6.83901">
        <ele>77</ele>
        <time>2012-02-26T09:39:00Z</time>
      </trkpt>
      <trkpt lat="43.61672" lon="6.83905">
        <ele>77</ele>
        <time>2012-02-26T09:39:05Z</time>
      </trkpt>
      <trkpt lat="43.61664" lon="6.8391">
        <ele>79</ele>
        <time>2012-02-26T09:39:10Z</time>
      </trkpt>
      <trkpt lat="43.61658" lon="6.83914">
        <ele>80</ele>
        <time>2012-02-26T09:39:16Z</time>
      </trkpt>
      <trkpt lat="43.61655" lon="6.83919">
        <ele>82</ele>
        <time>2012-02-26T09:39:22Z</time>
      </trkpt>
      <trkpt lat="43.61654" lon="6.83922">
        <ele>82</ele>
        <time>2012-02-26T09:39:28Z</time>
      </trkpt>
      <trkpt lat="43.61647" lon="6.83934">
        <ele>82</ele>
        <time>2012-02-26T09:39:34Z</time>
      </trkpt>
      <trkpt lat="43.61639" lon="6.8394">
        <ele>82</ele>
        <time>2012-02-26T09:39:39Z</time>
      </trkpt>
      <trkpt lat="43.61632" lon="6.83941">
        <ele>82</ele>
        <time>2012-02-26T09:39:44Z</time>
      </trkpt>
      <trkpt lat="43.61623" lon="6.8395">
        <ele>82</ele>
        <time>2012-02-26T09:39:50Z</time>
      </trkpt>
      <trkpt lat="43.6162" lon="6.8395">
        <ele>82</ele>
        <time>2012-02-26T09:39:58Z</time>
      </trkpt>
      <trkpt lat="43.61617" lon="6.83947">
        <ele>82</ele>
        <time>2012-02-26T09:40:05Z</time>
      </trkpt>
      <trkpt lat="43.61615" lon="6.83946">
        <ele>81</ele>
        <time>2012-02-26T09:40:13Z</time>
      </trkpt>
      <trkpt lat="43.6161" lon="6.83947">
        <ele>77</ele>
        <time>2012-02-26T09:40:20Z</time>
      </trkpt>
      <trkpt lat="43.61605" lon="6.83951">
        <ele>73</ele>
        <time>2012-02-26T09:40:26Z</time>
      </trkpt>
      <trkpt lat="43.61604" lon="6.83954">
        <ele>73</ele>
        <time>2012-02-26T09:40:31Z</time>
      </trkpt>
      <trkpt lat="43.61602" lon="6.83957">
        <ele>73</ele>
        <time>2012-02-26T09:40:37Z</time>
      </trkpt>
      <trkpt lat="43.61596" lon="6.83963">
        <ele>73</ele>
        <time>2012-02-26T09:40:42Z</time>
      </trkpt>
      <trkpt lat="43.61589" lon="6.83971">
        <ele>76</ele>
        <time>2012-02-26T09:40:47Z</time>
      </trkpt>
      <trkpt lat="43.61583" lon="6.83984">
        <ele>78</ele>
        <time>2012-02-26T09:40:52Z</time>
      </trkpt>
      <trkpt lat="43.61574" lon="6.83994">
        <ele>83</ele>
        <time>2012-02-26T09:40:57Z</time>
      </trkpt>
      <trkpt lat="43.61561" lon="6.84009">
        <ele>89</ele>
        <time>2012-02-26T09:41:03Z</time>
      </trkpt>
      <trkpt lat="43.6155" lon="6.8402">
        <ele>94</ele>
        <time>2012-02-26T09:41:08Z</time>
      </trkpt>
      <trkpt lat="43.61537" lon="6.8403">
        <ele>96</ele>
        <time>2012-02-26T09:41:13Z</time>
      </trkpt>
      <trkpt lat="43.61521" lon="6.84045">
        <ele>96</ele>
        <time>2012-02-26T09:41:19Z</time>
      </trkpt>
      <trkpt lat="43.61514" lon="6.84054">
        <ele>96</ele>
        <time>2012-02-26T09:41:24Z</time>
      </trkpt>
      <trkpt lat="43.61508" lon="6.84064">
        <ele>93</ele>
        <time>2012-02-26T09:41:29Z</time>
      </trkpt>
      <trkpt lat="43.61497" lon="6.84067">
        <ele>89</ele>
        <time>2012-02-26T09:41:34Z</time>
      </trkpt>
      <trkpt lat="43.61493" lon="6.84071">
        <ele>82</ele>
        <time>2012-02-26T09:41:42Z</time>
      </trkpt>
      <trkpt lat="43.61488" lon="6.84072">
        <ele>72</ele>
        <time>2012-02-26T09:41:48Z</time>
      </trkpt>
      <trkpt lat="43.61483" lon="6.84072">
        <ele>68</ele>
        <time>2012-02-26T09:41:54Z</time>
      </trkpt>
      <trkpt lat="43.61479" lon="6.84071">
        <ele>68</ele>
        <time>2012-02-26T09:41:59Z</time>
      </trkpt>
      <trkpt lat="43.61473" lon="6.84065">
        <ele>68</ele>
        <time>2012-02-26T09:42:05Z</time>
      </trkpt>
      <trkpt lat="43.61467" lon="6.84058">
        <ele>71</ele>
        <time>2012-02-26T09:42:11Z</time>
      </trkpt>
      <trkpt lat="43.61462" lon="6.84056">
        <ele>79</ele>
        <time>2012-02-26T09:42:19Z</time>
      </trkpt>
      <trkpt lat="43.61459" lon="6.84055">
        <ele>82</ele>
        <time>2012-02-26T09:42:24Z</time>
      </trkpt>
      <trkpt lat="43.61455" lon="6.84048">
        <ele>82</ele>
        <time>2012-02-26T09:42:31Z</time>
      </trkpt>
      <trkpt lat="43.61458" lon="6.8405">
        <ele>82</ele>
        <time>2012-02-26T09:42:36Z</time>
      </trkpt>
      <trkpt lat="43.61458" lon="6.84053">
        <ele>82</ele>
        <time>2012-02-26T09:42:45Z</time>
      </trkpt>
      <trkpt lat="43.6146" lon="6.84051">
        <ele>82</ele>
        <time>2012-02-26T09:42:50Z</time>
      </trkpt>
      <trkpt lat="43.6146" lon="6.84043">
        <ele>84</ele>
        <time>2012-02-26T09:42:56Z</time>
      </trkpt>
      <trkpt lat="43.6146" lon="6.8404">
        <ele>90</ele>
        <time>2012-02-26T09:43:08Z</time>
      </trkpt>
      <trkpt lat="43.61458" lon="6.8404">
        <ele>90</ele>
        <time>2012-02-26T09:43:13Z</time>
      </trkpt>
      <trkpt lat="43.61456" lon="6.8404">
        <ele>90</ele>
        <time>2012-02-26T09:43:20Z</time>
      </trkpt>
      <trkpt lat="43.61452" lon="6.84035">
        <ele>86</ele>
        <time>2012-02-26T09:43:25Z</time>
      </trkpt>
      <trkpt lat="43.61451" lon="6.84033">
        <ele>84</ele>
        <time>2012-02-26T09:43:30Z</time>
      </trkpt>
      <trkpt lat="43.61449" lon="6.84029">
        <ele>84</ele>
        <time>2012-02-26T09:43:38Z</time>
      </trkpt>
      <trkpt lat="43.61448" lon="6.84022">
        <ele>84</ele>
        <time>2012-02-26T09:43:43Z</time>
      </trkpt>
      <trkpt lat="43.61445" lon="6.8401">
        <ele>84</ele>
        <time>2012-02-26T09:43:48Z</time>
      </trkpt>
      <trkpt lat="43.61441" lon="6.83997">
        <ele>84</ele>
        <time>2012-02-26T09:43:54Z</time>
      </trkpt>
      <trkpt lat="43.61439" lon="6.83991">
        <ele>84</ele>
        <time>2012-02-26T09:43:59Z</time>
      </trkpt>
      <trkpt lat="43.6144" lon="6.83978">
        <ele>84</ele>
        <time>2012-02-26T09:44:04Z</time>
      </trkpt>
      <trkpt lat="43.61438" lon="6.83961">
        <ele>83</ele>
        <time>2012-02-26T09:44:09Z</time>
      </trkpt>
      <trkpt lat="43.61433" lon="6.83942">
        <ele>82</ele>
        <time>2012-02-26T09:44:14Z</time>
      </trkpt>
      <trkpt lat="43.61434" lon="6.83932">
        <ele>82</ele>
        <time>2012-02-26T09:44:23Z</time>
      </trkpt>
      <trkpt lat="43.61434" lon="6.83926">
        <ele>81</ele>
        <time>2012-02-26T09:44:29Z</time>
      </trkpt>
      <trkpt lat="43.61431" lon="6.83919">
        <ele>78</ele>
        <time>2012-02-26T09:44:34Z</time>
      </trkpt>
      <trkpt lat="43.61431" lon="6.83912">
        <ele>76</ele>
        <time>2012-02-26T09:44:39Z</time>
      </trkpt>
      <trkpt lat="43.61422" lon="6.8391">
        <ele>75</ele>
        <time>2012-02-26T09:44:45Z</time>
      </trkpt>
      <trkpt lat="43.61413" lon="6.83907">
        <ele>75</ele>
        <time>2012-02-26T09:44:50Z</time>
      </trkpt>
      <trkpt lat="43.61403" lon="6.83907">
        <ele>73</ele>
        <time>2012-02-26T09:44:55Z</time>
      </trkpt>
      <trkpt lat="43.6139" lon="6.83919">
        <ele>72</ele>
        <time>2012-02-26T09:45:01Z</time>
      </trkpt>
      <trkpt lat="43.6138" lon="6.83934">
        <ele>72</ele>
        <time>2012-02-26T09:45:06Z</time>
      </trkpt>
      <trkpt lat="43.61374" lon="6.83948">
        <ele>74</ele>
        <time>2012-02-26T09:45:11Z</time>
      </trkpt>
      <trkpt lat="43.61366" lon="6.83959">
        <ele>78</ele>
        <time>2012-02-26T09:45:16Z</time>
      </trkpt>
      <trkpt lat="43.61358" lon="6.83965">
        <ele>83</ele>
        <time>2012-02-26T09:45:27Z</time>
      </trkpt>
      <trkpt lat="43.61355" lon="6.83968">
        <ele>87</ele>
        <time>2012-02-26T09:45:32Z</time>
      </trkpt>
      <trkpt lat="43.61354" lon="6.83972">
        <ele>88</ele>
        <time>2012-02-26T09:45:38Z</time>
      </trkpt>
      <trkpt lat="43.61354" lon="6.83975">
        <ele>88</ele>
        <time>2012-02-26T09:45:46Z</time>
      </trkpt>
      <trkpt lat="43.61353" lon="6.83977">
        <ele>80</ele>
        <time>2012-02-26T09:45:55Z</time>
      </trkpt>
      <trkpt lat="43.61352" lon="6.83979">
        <ele>80</ele>
        <time>2012-02-26T09:46:00Z</time>
      </trkpt>
      <trkpt lat="43.61345" lon="6.83985">
        <ele>80</ele>
        <time>2012-02-26T09:46:06Z</time>
      </trkpt>
      <trkpt lat="43.61339" lon="6.83993">
        <ele>79</ele>
        <time>2012-02-26T09:46:12Z</time>
      </trkpt>
      <trkpt lat="43.61335" lon="6.83998">
        <ele>76</ele>
        <time>2012-02-26T09:46:18Z</time>
      </trkpt>
      <trkpt lat="43.61332" lon="6.83999">
        <ele>75</ele>
        <time>2012-02-26T09:46:27Z</time>
      </trkpt>
      <trkpt lat="43.61332" lon="6.83997">
        <ele>75</ele>
        <time>2012-02-26T09:46:38Z</time>
      </trkpt>
      <trkpt lat="43.61331" lon="6.83993">
        <ele>75</ele>
        <time>2012-02-26T09:46:46Z</time>
      </trkpt>
      <trkpt lat="43.61331" lon="6.83991">
        <ele>75</ele>
        <time>2012-02-26T09:46:52Z</time>
      </trkpt>
      <trkpt lat="43.61331" lon="6.83991">
        <ele>75</ele>
        <time>2012-02-26T09:47:08Z</time>
      </trkpt>
      <trkpt lat="43.61331" lon="6.83995">
        <ele>75</ele>
        <time>2012-02-26T09:47:15Z</time>
      </trkpt>
      <trkpt lat="43.6133" lon="6.83995">
        <ele>74</ele>
        <time>2012-02-26T09:47:23Z</time>
      </trkpt>
      <trkpt lat="43.61329" lon="6.83993">
        <ele>75</ele>
        <time>2012-02-26T09:47:34Z</time>
      </trkpt>
      <trkpt lat="43.61325" lon="6.83996">
        <ele>75</ele>
        <time>2012-02-26T09:47:41Z</time>
      </trkpt>
      <trkpt lat="43.61323" lon="6.84003">
        <ele>75</ele>
        <time>2012-02-26T09:47:47Z</time>
      </trkpt>
      <trkpt lat="43.61322" lon="6.84006">
        <ele>75</ele>
        <time>2012-02-26T09:47:55Z</time>
      </trkpt>
      <trkpt lat="43.61319" lon="6.84016">
        <ele>75</ele>
        <time>2012-02-26T09:48:00Z</time>
      </trkpt>
      <trkpt lat="43.61313" lon="6.84028">
        <ele>75</ele>
        <time>2012-02-26T09:48:05Z</time>
      </trkpt>
      <trkpt lat="43.61311" lon="6.84047">
        <ele>75</ele>
        <time>2012-02-26T09:48:10Z</time>
      </trkpt>
      <trkpt lat="43.61309" lon="6.84061">
        <ele>75</ele>
        <time>2012-02-26T09:48:15Z</time>
      </trkpt>
      <trkpt lat="43.61308" lon="6.84079">
        <ele>75</ele>
        <time>2012-02-26T09:48:20Z</time>
      </trkpt>
      <trkpt lat="43.61306" lon="6.84098">
        <ele>75</ele>
        <time>2012-02-26T09:48:25Z</time>
      </trkpt>
      <trkpt lat="43.61303" lon="6.84114">
        <ele>75</ele>
        <time>2012-02-26T09:48:30Z</time>
      </trkpt>
      <trkpt lat="43.61301" lon="6.84131">
        <ele>75</ele>
        <time>2012-02-26T09:48:35Z</time>
      </trkpt>
      <trkpt lat="43.61298" lon="6.84148">
        <ele>75</ele>
        <time>2012-02-26T09:48:40Z</time>
      </trkpt>
      <trkpt lat="43.61295" lon="6.84168">
        <ele>75</ele>
        <time>2012-02-26T09:48:46Z</time>
      </trkpt>
      <trkpt lat="43.61294" lon="6.8419">
        <ele>75</ele>
        <time>2012-02-26T09:48:51Z</time>
      </trkpt>
      <trkpt lat="43.61293" lon="6.84209">
        <ele>75</ele>
        <time>2012-02-26T09:48:56Z</time>
      </trkpt>
      <trkpt lat="43.61292" lon="6.84231">
        <ele>74</ele>
        <time>2012-02-26T09:49:01Z</time>
      </trkpt>
      <trkpt lat="43.61294" lon="6.84249">
        <ele>73</ele>
        <time>2012-02-26T09:49:06Z</time>
      </trkpt>
      <trkpt lat="43.61295" lon="6.84272">
        <ele>73</ele>
        <time>2012-02-26T09:49:11Z</time>
      </trkpt>
      <trkpt lat="43.61294" lon="6.84296">
        <ele>72</ele>
        <time>2012-02-26T09:49:16Z</time>
      </trkpt>
      <trkpt lat="43.61296" lon="6.84318">
        <ele>71</ele>
        <time>2012-02-26T09:49:21Z</time>
      </trkpt>
      <trkpt lat="43.61299" lon="6.8434">
        <ele>71</ele>
        <time>2012-02-26T09:49:26Z</time>
      </trkpt>
      <trkpt lat="43.613" lon="6.84359">
        <ele>71</ele>
        <time>2012-02-26T09:49:31Z</time>
      </trkpt>
      <trkpt lat="43.61301" lon="6.84373">
        <ele>71</ele>
        <time>2012-02-26T09:49:36Z</time>
      </trkpt>
      <trkpt lat="43.61301" lon="6.84377">
        <ele>71</ele>
        <time>2012-02-26T09:49:41Z</time>
      </trkpt>
      <trkpt lat="43.61301" lon="6.84383">
        <ele>71</ele>
        <time>2012-02-26T09:49:47Z</time>
      </trkpt>
      <trkpt lat="43.61301" lon="6.84387">
        <ele>71</ele>
        <time>2012-02-26T09:49:52Z</time>
      </trkpt>
      <trkpt lat="43.61302" lon="6.84393">
        <ele>74</ele>
        <time>2012-02-26T09:49:59Z</time>
      </trkpt>
      <trkpt lat="43.61301" lon="6.84403">
        <ele>74</ele>
        <time>2012-02-26T09:50:04Z</time>
      </trkpt>
      <trkpt lat="43.61299" lon="6.84409">
        <ele>74</ele>
        <time>2012-02-26T09:50:09Z</time>
      </trkpt>
      <trkpt lat="43.61302" lon="6.84416">
        <ele>74</ele>
        <time>2012-02-26T09:50:14Z</time>
      </trkpt>
      <trkpt lat="43.61302" lon="6.84421">
        <ele>74</ele>
        <time>2012-02-26T09:50:19Z</time>
      </trkpt>
      <trkpt lat="43.61301" lon="6.84421">
        <ele>72</ele>
        <time>2012-02-26T09:50:28Z</time>
      </trkpt>
      <trkpt lat="43.61298" lon="6.84418">
        <ele>69</ele>
        <time>2012-02-26T09:50:33Z</time>
      </trkpt>
      <trkpt lat="43.61288" lon="6.84414">
        <ele>68</ele>
        <time>2012-02-26T09:50:38Z</time>
      </trkpt>
      <trkpt lat="43.61279" lon="6.84409">
        <ele>68</ele>
        <time>2012-02-26T09:50:43Z</time>
      </trkpt>
      <trkpt lat="43.61271" lon="6.84411">
        <ele>67</ele>
        <time>2012-02-26T09:50:48Z</time>
      </trkpt>
      <trkpt lat="43.61269" lon="6.84425">
        <ele>67</ele>
        <time>2012-02-26T09:50:53Z</time>
      </trkpt>
      <trkpt lat="43.61259" lon="6.84446">
        <ele>67</ele>
        <time>2012-02-26T09:50:58Z</time>
      </trkpt>
      <trkpt lat="43.61241" lon="6.8446">
        <ele>67</ele>
        <time>2012-02-26T09:51:03Z</time>
      </trkpt>
      <trkpt lat="43.61227" lon="6.84456">
        <ele>68</ele>
        <time>2012-02-26T09:51:08Z</time>
      </trkpt>
      <trkpt lat="43.61214" lon="6.84456">
        <ele>68</ele>
        <time>2012-02-26T09:51:13Z</time>
      </trkpt>
      <trkpt lat="43.61203" lon="6.84458">
        <ele>73</ele>
        <time>2012-02-26T09:51:18Z</time>
      </trkpt>
      <trkpt lat="43.61199" lon="6.84457">
        <ele>74</ele>
        <time>2012-02-26T09:51:24Z</time>
      </trkpt>
      <trkpt lat="43.61191" lon="6.84458">
        <ele>74</ele>
        <time>2012-02-26T09:51:30Z</time>
      </trkpt>
      <trkpt lat="43.61191" lon="6.84461">
        <ele>77</ele>
        <time>2012-02-26T09:51:39Z</time>
      </trkpt>
      <trkpt lat="43.61195" lon="6.84456">
        <ele>79</ele>
        <time>2012-02-26T09:51:44Z</time>
      </trkpt>
      <trkpt lat="43.612" lon="6.84456">
        <ele>79</ele>
        <time>2012-02-26T09:51:49Z</time>
      </trkpt>
      <trkpt lat="43.61206" lon="6.84454">
        <ele>79</ele>
        <time>2012-02-26T09:51:54Z</time>
      </trkpt>
      <trkpt lat="43.61214" lon="6.84452">
        <ele>79</ele>
        <time>2012-02-26T09:51:59Z</time>
      </trkpt>
      <trkpt lat="43.61223" lon="6.84453">
        <ele>79</ele>
        <time>2012-02-26T09:52:04Z</time>
      </trkpt>
      <trkpt lat="43.61233" lon="6.84456">
        <ele>79</ele>
        <time>2012-02-26T09:52:09Z</time>
      </trkpt>
      <trkpt lat="43.61243" lon="6.84458">
        <ele>79</ele>
        <time>2012-02-26T09:52:14Z</time>
      </trkpt>
      <trkpt lat="43.61252" lon="6.84454">
        <ele>79</ele>
        <time>2012-02-26T09:52:19Z</time>
      </trkpt>
      <trkpt lat="43.61259" lon="6.84446">
        <ele>79</ele>
        <time>2012-02-26T09:52:24Z</time>
      </trkpt>
      <trkpt lat="43.61265" lon="6.84436">
        <ele>78</ele>
        <time>2012-02-26T09:52:29Z</time>
      </trkpt>
      <trkpt lat="43.61268" lon="6.84427">
        <ele>74</ele>
        <time>2012-02-26T09:52:34Z</time>
      </trkpt>
      <trkpt lat="43.61269" lon="6.84419">
        <ele>71</ele>
        <time>2012-02-26T09:52:39Z</time>
      </trkpt>
      <trkpt lat="43.61264" lon="6.8442">
        <ele>70</ele>
        <time>2012-02-26T09:52:44Z</time>
      </trkpt>
      <trkpt lat="43.61257" lon="6.84423">
        <ele>70</ele>
        <time>2012-02-26T09:52:49Z</time>
      </trkpt>
      <trkpt lat="43.61249" lon="6.84426">
        <ele>70</ele>
        <time>2012-02-26T09:52:54Z</time>
      </trkpt>
      <trkpt lat="43.61241" lon="6.84429">
        <ele>70</ele>
        <time>2012-02-26T09:52:59Z</time>
      </trkpt>
      <trkpt lat="43.61233" lon="6.8443">
        <ele>71</ele>
        <time>2012-02-26T09:53:04Z</time>
      </trkpt>
      <trkpt lat="43.61225" lon="6.8443">
        <ele>71</ele>
        <time>2012-02-26T09:53:09Z</time>
      </trkpt>
      <trkpt lat="43.61216" lon="6.8443">
        <ele>71</ele>
        <time>2012-02-26T09:53:14Z</time>
      </trkpt>
      <trkpt lat="43.61208" lon="6.84429">
        <ele>71</ele>
        <time>2012-02-26T09:53:19Z</time>
      </trkpt>
      <trkpt lat="43.612" lon="6.84429">
        <ele>71</ele>
        <time>2012-02-26T09:53:24Z</time>
      </trkpt>
      <trkpt lat="43.61194" lon="6.8443">
        <ele>73</ele>
        <time>2012-02-26T09:53:29Z</time>
      </trkpt>
      <trkpt lat="43.61188" lon="6.8443">
        <ele>74</ele>
        <time>2012-02-26T09:53:35Z</time>
      </trkpt>
      <trkpt lat="43.61187" lon="6.84431">
        <ele>75</ele>
        <time>2012-02-26T09:53:49Z</time>
      </trkpt>
      <trkpt lat="43.61186" lon="6.84432">
        <ele>76</ele>
        <time>2012-02-26T09:53:58Z</time>
      </trkpt>
      <trkpt lat="43.61186" lon="6.8443">
        <ele>77</ele>
        <time>2012-02-26T09:54:14Z</time>
      </trkpt>
      <trkpt lat="43.61186" lon="6.84428">
        <ele>77</ele>
        <time>2012-02-26T09:54:19Z</time>
      </trkpt>
      <trkpt lat="43.61183" lon="6.8443">
        <ele>79</ele>
        <time>2012-02-26T09:54:41Z</time>
      </trkpt>
      <trkpt lat="43.61169" lon="6.84434">
        <ele>79</ele>
        <time>2012-02-26T09:54:46Z</time>
      </trkpt>
      <trkpt lat="43.61146" lon="6.84443">
        <ele>79</ele>
        <time>2012-02-26T09:54:51Z</time>
      </trkpt>
      <trkpt lat="43.61117" lon="6.8446">
        <ele>79</ele>
        <time>2012-02-26T09:54:56Z</time>
      </trkpt>
      <trkpt lat="43.6109" lon="6.84487">
        <ele>76</ele>
        <time>2012-02-26T09:55:01Z</time>
      </trkpt>
      <trkpt lat="43.61071" lon="6.84503">
        <ele>71</ele>
        <time>2012-02-26T09:55:06Z</time>
      </trkpt>
      <trkpt lat="43.61063" lon="6.84512">
        <ele>70</ele>
        <time>2012-02-26T09:55:11Z</time>
      </trkpt>
      <trkpt lat="43.61056" lon="6.84511">
        <ele>69</ele>
        <time>2012-02-26T09:55:16Z</time>
      </trkpt>
      <trkpt lat="43.61046" lon="6.84508">
        <ele>67</ele>
        <time>2012-02-26T09:55:21Z</time>
      </trkpt>
      <trkpt lat="43.61035" lon="6.84499">
        <ele>64</ele>
        <time>2012-02-26T09:55:26Z</time>
      </trkpt>
      <trkpt lat="43.61023" lon="6.84487">
        <ele>62</ele>
        <time>2012-02-26T09:55:31Z</time>
      </trkpt>
      <trkpt lat="43.61009" lon="6.84481">
        <ele>62</ele>
        <time>2012-02-26T09:55:36Z</time>
      </trkpt>
      <trkpt lat="43.60994" lon="6.8448">
        <ele>62</ele>
        <time>2012-02-26T09:55:41Z</time>
      </trkpt>
      <trkpt lat="43.60979" lon="6.84481">
        <ele>63</ele>
        <time>2012-02-26T09:55:46Z</time>
      </trkpt>
      <trkpt lat="43.60964" lon="6.84488">
        <ele>63</ele>
        <time>2012-02-26T09:55:51Z</time>
      </trkpt>
      <trkpt lat="43.60947" lon="6.84494">
        <ele>63</ele>
        <time>2012-02-26T09:55:56Z</time>
      </trkpt>
      <trkpt lat="43.60934" lon="6.84503">
        <ele>63</ele>
        <time>2012-02-26T09:56:01Z</time>
      </trkpt>
      <trkpt lat="43.60933" lon="6.8452">
        <ele>63</ele>
        <time>2012-02-26T09:56:06Z</time>
      </trkpt>
      <trkpt lat="43.60936" lon="6.84538">
        <ele>63</ele>
        <time>2012-02-26T09:56:11Z</time>
      </trkpt>
      <trkpt lat="43.60938" lon="6.84557">
        <ele>63</ele>
        <time>2012-02-26T09:56:16Z</time>
      </trkpt>
      <trkpt lat="43.60945" lon="6.84574">
        <ele>63</ele>
        <time>2012-02-26T09:56:21Z</time>
      </trkpt>
      <trkpt lat="43.6096" lon="6.84573">
        <ele>63</ele>
        <time>2012-02-26T09:56:26Z</time>
      </trkpt>
      <trkpt lat="43.60972" lon="6.8458">
        <ele>63</ele>
        <time>2012-02-26T09:56:31Z</time>
      </trkpt>
      <trkpt lat="43.60978" lon="6.84589">
        <ele>63</ele>
        <time>2012-02-26T09:56:36Z</time>
      </trkpt>
      <trkpt lat="43.60988" lon="6.8461">
        <ele>63</ele>
        <time>2012-02-26T09:56:41Z</time>
      </trkpt>
      <trkpt lat="43.60995" lon="6.8464">
        <ele>63</ele>
        <time>2012-02-26T09:56:46Z</time>
      </trkpt>
      <trkpt lat="43.60986" lon="6.84672">
        <ele>64</ele>
        <time>2012-02-26T09:56:51Z</time>
      </trkpt>
      <trkpt lat="43.60966" lon="6.84704">
        <ele>64</ele>
        <time>2012-02-26T09:56:56Z</time>
      </trkpt>
      <trkpt lat="43.60942" lon="6.84725">
        <ele>64</ele>
        <time>2012-02-26T09:57:01Z</time>
      </trkpt>
      <trkpt lat="43.60924" lon="6.84755">
        <ele>64</ele>
        <time>2012-02-26T09:57:06Z</time>
      </trkpt>
      <trkpt lat="43.60907" lon="6.84781">
        <ele>64</ele>
        <time>2012-02-26T09:57:11Z</time>
      </trkpt>
      <trkpt lat="43.6089" lon="6.84808">
        <ele>64</ele>
        <time>2012-02-26T09:57:16Z</time>
      </trkpt>
      <trkpt lat="43.60873" lon="6.8483">
        <ele>64</ele>
        <time>2012-02-26T09:57:21Z</time>
      </trkpt>
      <trkpt lat="43.60855" lon="6.84851">
        <ele>64</ele>
        <time>2012-02-26T09:57:26Z</time>
      </trkpt>
      <trkpt lat="43.60838" lon="6.84867">
        <ele>64</ele>
        <time>2012-02-26T09:57:31Z</time>
      </trkpt>
      <trkpt lat="43.60822" lon="6.84881">
        <ele>64</ele>
        <time>2012-02-26T09:57:36Z</time>
      </trkpt>
      <trkpt lat="43.60812" lon="6.84893">
        <ele>65</ele>
        <time>2012-02-26T09:57:46Z</time>
      </trkpt>
      <trkpt lat="43.60809" lon="6.84896">
        <ele>75</ele>
        <time>2012-02-26T09:57:57Z</time>
      </trkpt>
      <trkpt lat="43.60806" lon="6.84897">
        <ele>75</ele>
        <time>2012-02-26T09:58:04Z</time>
      </trkpt>
      <trkpt lat="43.608" lon="6.84903">
        <ele>70</ele>
        <time>2012-02-26T09:58:10Z</time>
      </trkpt>
      <trkpt lat="43.60796" lon="6.84904">
        <ele>69</ele>
        <time>2012-02-26T09:58:18Z</time>
      </trkpt>
      <trkpt lat="43.60795" lon="6.84903">
        <ele>70</ele>
        <time>2012-02-26T09:58:23Z</time>
      </trkpt>
      <trkpt lat="43.6079" lon="6.84907">
        <ele>69</ele>
        <time>2012-02-26T09:58:28Z</time>
      </trkpt>
      <trkpt lat="43.6078" lon="6.84915">
        <ele>68</ele>
        <time>2012-02-26T09:58:33Z</time>
      </trkpt>
      <trkpt lat="43.60771" lon="6.8492">
        <ele>65</ele>
        <time>2012-02-26T09:58:38Z</time>
      </trkpt>
      <trkpt lat="43.60764" lon="6.84929">
        <ele>62</ele>
        <time>2012-02-26T09:58:43Z</time>
      </trkpt>
      <trkpt lat="43.60757" lon="6.84934">
        <ele>61</ele>
        <time>2012-02-26T09:58:48Z</time>
      </trkpt>
      <trkpt lat="43.60755" lon="6.84936">
        <ele>56</ele>
        <time>2012-02-26T09:58:54Z</time>
      </trkpt>
      <trkpt lat="43.60755" lon="6.84933">
        <ele>49</ele>
        <time>2012-02-26T09:59:01Z</time>
      </trkpt>
      <trkpt lat="43.60751" lon="6.84932">
        <ele>48</ele>
        <time>2012-02-26T09:59:06Z</time>
      </trkpt>
      <trkpt lat="43.60744" lon="6.84932">
        <ele>45</ele>
        <time>2012-02-26T09:59:11Z</time>
      </trkpt>
      <trkpt lat="43.60738" lon="6.84939">
        <ele>45</ele>
        <time>2012-02-26T09:59:16Z</time>
      </trkpt>
      <trkpt lat="43.60729" lon="6.84942">
        <ele>45</ele>
        <time>2012-02-26T09:59:21Z</time>
      </trkpt>
      <trkpt lat="43.6072" lon="6.8494">
        <ele>45</ele>
        <time>2012-02-26T09:59:26Z</time>
      </trkpt>
      <trkpt lat="43.60711" lon="6.8494">
        <ele>45</ele>
        <time>2012-02-26T09:59:31Z</time>
      </trkpt>
      <trkpt lat="43.60704" lon="6.84945">
        <ele>48</ele>
        <time>2012-02-26T09:59:39Z</time>
      </trkpt>
      <trkpt lat="43.60697" lon="6.84945">
        <ele>52</ele>
        <time>2012-02-26T09:59:45Z</time>
      </trkpt>
      <trkpt lat="43.60696" lon="6.84942">
        <ele>52</ele>
        <time>2012-02-26T09:59:51Z</time>
      </trkpt>
      <trkpt lat="43.60695" lon="6.84938">
        <ele>52</ele>
        <time>2012-02-26T09:59:56Z</time>
      </trkpt>
      <trkpt lat="43.60693" lon="6.84933">
        <ele>52</ele>
        <time>2012-02-26T10:00:02Z</time>
      </trkpt>
      <trkpt lat="43.60688" lon="6.84931">
        <ele>52</ele>
        <time>2012-02-26T10:00:08Z</time>
      </trkpt>
      <trkpt lat="43.60681" lon="6.84934">
        <ele>52</ele>
        <time>2012-02-26T10:00:13Z</time>
      </trkpt>
      <trkpt lat="43.60672" lon="6.84938">
        <ele>52</ele>
        <time>2012-02-26T10:00:18Z</time>
      </trkpt>
      <trkpt lat="43.60663" lon="6.8494">
        <ele>52</ele>
        <time>2012-02-26T10:00:23Z</time>
      </trkpt>
      <trkpt lat="43.60654" lon="6.84938">
        <ele>52</ele>
        <time>2012-02-26T10:00:28Z</time>
      </trkpt>
      <trkpt lat="43.60645" lon="6.84937">
        <ele>52</ele>
        <time>2012-02-26T10:00:33Z</time>
      </trkpt>
      <trkpt lat="43.60636" lon="6.84936">
        <ele>52</ele>
        <time>2012-02-26T10:00:38Z</time>
      </trkpt>
      <trkpt lat="43.60628" lon="6.84941">
        <ele>55</ele>
        <time>2012-02-26T10:00:43Z</time>
      </trkpt>
      <trkpt lat="43.60616" lon="6.84955">
        <ele>57</ele>
        <time>2012-02-26T10:00:48Z</time>
      </trkpt>
      <trkpt lat="43.60605" lon="6.8496">
        <ele>61</ele>
        <time>2012-02-26T10:00:53Z</time>
      </trkpt>
      <trkpt lat="43.60602" lon="6.84962">
        <ele>61</ele>
        <time>2012-02-26T10:00:58Z</time>
      </trkpt>
      <trkpt lat="43.60598" lon="6.84969">
        <ele>61</ele>
        <time>2012-02-26T10:01:03Z</time>
      </trkpt>
      <trkpt lat="43.60592" lon="6.84976">
        <ele>61</ele>
        <time>2012-02-26T10:01:08Z</time>
      </trkpt>
      <trkpt lat="43.60583" lon="6.84982">
        <ele>61</ele>
        <time>2012-02-26T10:01:13Z</time>
      </trkpt>
      <trkpt lat="43.60578" lon="6.84991">
        <ele>61</ele>
        <time>2012-02-26T10:01:18Z</time>
      </trkpt>
      <trkpt lat="43.60572" lon="6.84997">
        <ele>61</ele>
        <time>2012-02-26T10:01:23Z</time>
      </trkpt>
      <trkpt lat="43.60564" lon="6.85008">
        <ele>61</ele>
        <time>2012-02-26T10:01:28Z</time>
      </trkpt>
      <trkpt lat="43.60556" lon="6.85021">
        <ele>61</ele>
        <time>2012-02-26T10:01:33Z</time>
      </trkpt>
      <trkpt lat="43.60547" lon="6.8503">
        <ele>61</ele>
        <time>2012-02-26T10:01:38Z</time>
      </trkpt>
      <trkpt lat="43.60539" lon="6.85043">
        <ele>61</ele>
        <time>2012-02-26T10:01:43Z</time>
      </trkpt>
      <trkpt lat="43.6053" lon="6.8505">
        <ele>61</ele>
        <time>2012-02-26T10:01:48Z</time>
      </trkpt>
      <trkpt lat="43.60522" lon="6.85058">
        <ele>61</ele>
        <time>2012-02-26T10:01:53Z</time>
      </trkpt>
      <trkpt lat="43.60513" lon="6.85068">
        <ele>61</ele>
        <time>2012-02-26T10:01:58Z</time>
      </trkpt>
      <trkpt lat="43.60503" lon="6.85074">
        <ele>61</ele>
        <time>2012-02-26T10:02:04Z</time>
      </trkpt>
      <trkpt lat="43.60502" lon="6.85076">
        <ele>61</ele>
        <time>2012-02-26T10:02:13Z</time>
      </trkpt>
      <trkpt lat="43.60495" lon="6.85083">
        <ele>61</ele>
        <time>2012-02-26T10:02:18Z</time>
      </trkpt>
      <trkpt lat="43.60487" lon="6.85093">
        <ele>61</ele>
        <time>2012-02-26T10:02:23Z</time>
      </trkpt>
      <trkpt lat="43.60478" lon="6.85103">
        <ele>61</ele>
        <time>2012-02-26T10:02:28Z</time>
      </trkpt>
      <trkpt lat="43.60471" lon="6.85113">
        <ele>61</ele>
        <time>2012-02-26T10:02:33Z</time>
      </trkpt>
      <trkpt lat="43.60463" lon="6.85124">
        <ele>61</ele>
        <time>2012-02-26T10:02:38Z</time>
      </trkpt>
      <trkpt lat="43.60456" lon="6.85133">
        <ele>61</ele>
        <time>2012-02-26T10:02:43Z</time>
      </trkpt>
      <trkpt lat="43.6045" lon="6.85142">
        <ele>61</ele>
        <time>2012-02-26T10:02:48Z</time>
      </trkpt>
      <trkpt lat="43.60444" lon="6.85151">
        <ele>61</ele>
        <time>2012-02-26T10:02:53Z</time>
      </trkpt>
      <trkpt lat="43.6044" lon="6.85156">
        <ele>63</ele>
        <time>2012-02-26T10:03:04Z</time>
      </trkpt>
      <trkpt lat="43.60438" lon="6.85162">
        <ele>65</ele>
        <time>2012-02-26T10:03:09Z</time>
      </trkpt>
      <trkpt lat="43.60436" lon="6.85167">
        <ele>66</ele>
        <time>2012-02-26T10:03:14Z</time>
      </trkpt>
      <trkpt lat="43.60436" lon="6.85172">
        <ele>66</ele>
        <time>2012-02-26T10:03:19Z</time>
      </trkpt>
      <trkpt lat="43.60429" lon="6.8518">
        <ele>66</ele>
        <time>2012-02-26T10:03:24Z</time>
      </trkpt>
      <trkpt lat="43.60426" lon="6.85184">
        <ele>66</ele>
        <time>2012-02-26T10:03:29Z</time>
      </trkpt>
      <trkpt lat="43.60423" lon="6.85194">
        <ele>66</ele>
        <time>2012-02-26T10:03:34Z</time>
      </trkpt>
      <trkpt lat="43.60418" lon="6.85207">
        <ele>65</ele>
        <time>2012-02-26T10:03:39Z</time>
      </trkpt>
      <trkpt lat="43.60413" lon="6.85223">
        <ele>65</ele>
        <time>2012-02-26T10:03:44Z</time>
      </trkpt>
      <trkpt lat="43.60416" lon="6.85236">
        <ele>68</ele>
        <time>2012-02-26T10:03:49Z</time>
      </trkpt>
      <trkpt lat="43.60418" lon="6.85241">
        <ele>74</ele>
        <time>2012-02-26T10:03:55Z</time>
      </trkpt>
      <trkpt lat="43.60419" lon="6.85249">
        <ele>74</ele>
        <time>2012-02-26T10:04:00Z</time>
      </trkpt>
      <trkpt lat="43.60416" lon="6.8526">
        <ele>74</ele>
        <time>2012-02-26T10:04:05Z</time>
      </trkpt>
      <trkpt lat="43.60417" lon="6.85274">
        <ele>74</ele>
        <time>2012-02-26T10:04:10Z</time>
      </trkpt>
      <trkpt lat="43.60414" lon="6.85287">
        <ele>74</ele>
        <time>2012-02-26T10:04:15Z</time>
      </trkpt>
      <trkpt lat="43.60408" lon="6.85299">
        <ele>70</ele>
        <time>2012-02-26T10:04:21Z</time>
      </trkpt>
      <trkpt lat="43.60407" lon="6.85305">
        <ele>68</ele>
        <time>2012-02-26T10:04:26Z</time>
      </trkpt>
      <trkpt lat="43.60409" lon="6.85321">
        <ele>66</ele>
        <time>2012-02-26T10:04:31Z</time>
      </trkpt>
      <trkpt lat="43.60411" lon="6.85337">
        <ele>65</ele>
        <time>2012-02-26T10:04:36Z</time>
      </trkpt>
      <trkpt lat="43.60411" lon="6.85346">
        <ele>64</ele>
        <time>2012-02-26T10:04:41Z</time>
      </trkpt>
      <trkpt lat="43.60416" lon="6.85361">
        <ele>64</ele>
        <time>2012-02-26T10:04:46Z</time>
      </trkpt>
      <trkpt lat="43.60419" lon="6.85376">
        <ele>67</ele>
        <time>2012-02-26T10:04:51Z</time>
      </trkpt>
      <trkpt lat="43.60421" lon="6.85385">
        <ele>70</ele>
        <time>2012-02-26T10:04:56Z</time>
      </trkpt>
      <trkpt lat="43.60424" lon="6.85395">
        <ele>72</ele>
        <time>2012-02-26T10:05:01Z</time>
      </trkpt>
      <trkpt lat="43.60428" lon="6.85405">
        <ele>72</ele>
        <time>2012-02-26T10:05:06Z</time>
      </trkpt>
      <trkpt lat="43.60434" lon="6.85413">
        <ele>72</ele>
        <time>2012-02-26T10:05:11Z</time>
      </trkpt>
      <trkpt lat="43.60441" lon="6.85421">
        <ele>72</ele>
        <time>2012-02-26T10:05:19Z</time>
      </trkpt>
      <trkpt lat="43.60442" lon="6.85424">
        <ele>71</ele>
        <time>2012-02-26T10:05:24Z</time>
      </trkpt>
      <trkpt lat="43.60444" lon="6.85427">
        <ele>67</ele>
        <time>2012-02-26T10:05:30Z</time>
      </trkpt>
      <trkpt lat="43.60448" lon="6.8543">
        <ele>66</ele>
        <time>2012-02-26T10:05:36Z</time>
      </trkpt>
      <trkpt lat="43.60456" lon="6.85435">
        <ele>62</ele>
        <time>2012-02-26T10:05:41Z</time>
      </trkpt>
      <trkpt lat="43.60466" lon="6.85439">
        <ele>59</ele>
        <time>2012-02-26T10:05:46Z</time>
      </trkpt>
      <trkpt lat="43.60475" lon="6.85442">
        <ele>58</ele>
        <time>2012-02-26T10:05:51Z</time>
      </trkpt>
      <trkpt lat="43.6048" lon="6.85442">
        <ele>57</ele>
        <time>2012-02-26T10:05:56Z</time>
      </trkpt>
      <trkpt lat="43.60485" lon="6.85444">
        <ele>57</ele>
        <time>2012-02-26T10:06:01Z</time>
      </trkpt>
      <trkpt lat="43.60493" lon="6.85445">
        <ele>57</ele>
        <time>2012-02-26T10:06:07Z</time>
      </trkpt>
      <trkpt lat="43.60499" lon="6.85447">
        <ele>56</ele>
        <time>2012-02-26T10:06:12Z</time>
      </trkpt>
      <trkpt lat="43.60509" lon="6.85445">
        <ele>56</ele>
        <time>2012-02-26T10:06:17Z</time>
      </trkpt>
      <trkpt lat="43.60519" lon="6.85445">
        <ele>56</ele>
        <time>2012-02-26T10:06:22Z</time>
      </trkpt>
      <trkpt lat="43.60527" lon="6.85441">
        <ele>56</ele>
        <time>2012-02-26T10:06:27Z</time>
      </trkpt>
      <trkpt lat="43.60537" lon="6.85441">
        <ele>56</ele>
        <time>2012-02-26T10:06:32Z</time>
      </trkpt>
      <trkpt lat="43.60545" lon="6.85442">
        <ele>56</ele>
        <time>2012-02-26T10:06:37Z</time>
      </trkpt>
      <trkpt lat="43.60554" lon="6.85441">
        <ele>56</ele>
        <time>2012-02-26T10:06:42Z</time>
      </trkpt>
      <trkpt lat="43.60564" lon="6.8544">
        <ele>56</ele>
        <time>2012-02-26T10:06:47Z</time>
      </trkpt>
      <trkpt lat="43.60573" lon="6.85437">
        <ele>56</ele>
        <time>2012-02-26T10:06:52Z</time>
      </trkpt>
      <trkpt lat="43.6058" lon="6.85435">
        <ele>56</ele>
        <time>2012-02-26T10:06:57Z</time>
      </trkpt>
      <trkpt lat="43.60589" lon="6.85432">
        <ele>56</ele>
        <time>2012-02-26T10:07:02Z</time>
      </trkpt>
      <trkpt lat="43.60597" lon="6.85427">
        <ele>56</ele>
        <time>2012-02-26T10:07:07Z</time>
      </trkpt>
      <trkpt lat="43.60601" lon="6.85428">
        <ele>54</ele>
        <time>2012-02-26T10:07:15Z</time>
      </trkpt>
      <trkpt lat="43.60605" lon="6.85429">
        <ele>54</ele>
        <time>2012-02-26T10:07:20Z</time>
      </trkpt>
      <trkpt lat="43.60608" lon="6.85425">
        <ele>54</ele>
        <time>2012-02-26T10:07:27Z</time>
      </trkpt>
      <trkpt lat="43.60611" lon="6.8542">
        <ele>54</ele>
        <time>2012-02-26T10:07:32Z</time>
      </trkpt>
      <trkpt lat="43.60615" lon="6.85417">
        <ele>54</ele>
        <time>2012-02-26T10:07:37Z</time>
      </trkpt>
      <trkpt lat="43.6062" lon="6.85414">
        <ele>54</ele>
        <time>2012-02-26T10:07:43Z</time>
      </trkpt>
      <trkpt lat="43.60625" lon="6.85411">
        <ele>54</ele>
        <time>2012-02-26T10:07:49Z</time>
      </trkpt>
      <trkpt lat="43.60631" lon="6.85407">
        <ele>54</ele>
        <time>2012-02-26T10:07:55Z</time>
      </trkpt>
      <trkpt lat="43.60634" lon="6.85405">
        <ele>54</ele>
        <time>2012-02-26T10:08:00Z</time>
      </trkpt>
      <trkpt lat="43.60638" lon="6.85403">
        <ele>54</ele>
        <time>2012-02-26T10:08:05Z</time>
      </trkpt>
      <trkpt lat="43.60644" lon="6.85401">
        <ele>54</ele>
        <time>2012-02-26T10:08:10Z</time>
      </trkpt>
      <trkpt lat="43.60652" lon="6.85397">
        <ele>53</ele>
        <time>2012-02-26T10:08:15Z</time>
      </trkpt>
      <trkpt lat="43.60659" lon="6.8539">
        <ele>52</ele>
        <time>2012-02-26T10:08:21Z</time>
      </trkpt>
      <trkpt lat="43.60662" lon="6.85391">
        <ele>49</ele>
        <time>2012-02-26T10:08:26Z</time>
      </trkpt>
      <trkpt lat="43.60665" lon="6.8539">
        <ele>47</ele>
        <time>2012-02-26T10:08:31Z</time>
      </trkpt>
      <trkpt lat="43.60667" lon="6.85384">
        <ele>47</ele>
        <time>2012-02-26T10:08:37Z</time>
      </trkpt>
      <trkpt lat="43.60672" lon="6.8538">
        <ele>47</ele>
        <time>2012-02-26T10:08:42Z</time>
      </trkpt>
      <trkpt lat="43.60678" lon="6.85372">
        <ele>47</ele>
        <time>2012-02-26T10:08:47Z</time>
      </trkpt>
      <trkpt lat="43.60687" lon="6.85369">
        <ele>46</ele>
        <time>2012-02-26T10:08:52Z</time>
      </trkpt>
      <trkpt lat="43.60695" lon="6.85366">
        <ele>45</ele>
        <time>2012-02-26T10:08:57Z</time>
      </trkpt>
      <trkpt lat="43.607" lon="6.85363">
        <ele>47</ele>
        <time>2012-02-26T10:09:04Z</time>
      </trkpt>
      <trkpt lat="43.60701" lon="6.85357">
        <ele>53</ele>
        <time>2012-02-26T10:09:10Z</time>
      </trkpt>
      <trkpt lat="43.60705" lon="6.85357">
        <ele>54</ele>
        <time>2012-02-26T10:09:16Z</time>
      </trkpt>
      <trkpt lat="43.60708" lon="6.85354">
        <ele>55</ele>
        <time>2012-02-26T10:09:21Z</time>
      </trkpt>
      <trkpt lat="43.60712" lon="6.85353">
        <ele>58</ele>
        <time>2012-02-26T10:09:26Z</time>
      </trkpt>
      <trkpt lat="43.60719" lon="6.85348">
        <ele>58</ele>
        <time>2012-02-26T10:09:31Z</time>
      </trkpt>
      <trkpt lat="43.60726" lon="6.85342">
        <ele>54</ele>
        <time>2012-02-26T10:09:36Z</time>
      </trkpt>
      <trkpt lat="43.60733" lon="6.85334">
        <ele>51</ele>
        <time>2012-02-26T10:09:41Z</time>
      </trkpt>
      <trkpt lat="43.6074" lon="6.8533">
        <ele>47</ele>
        <time>2012-02-26T10:09:46Z</time>
      </trkpt>
      <trkpt lat="43.60749" lon="6.85324">
        <ele>46</ele>
        <time>2012-02-26T10:09:51Z</time>
      </trkpt>
      <trkpt lat="43.60752" lon="6.85321">
        <ele>46</ele>
        <time>2012-02-26T10:09:58Z</time>
      </trkpt>
      <trkpt lat="43.60754" lon="6.85321">
        <ele>46</ele>
        <time>2012-02-26T10:10:04Z</time>
      </trkpt>
      <trkpt lat="43.60757" lon="6.85319">
        <ele>46</ele>
        <time>2012-02-26T10:10:09Z</time>
      </trkpt>
      <trkpt lat="43.6076" lon="6.85314">
        <ele>45</ele>
        <time>2012-02-26T10:10:15Z</time>
      </trkpt>
      <trkpt lat="43.60764" lon="6.85309">
        <ele>45</ele>
        <time>2012-02-26T10:10:21Z</time>
      </trkpt>
      <trkpt lat="43.6077" lon="6.85303">
        <ele>45</ele>
        <time>2012-02-26T10:10:27Z</time>
      </trkpt>
      <trkpt lat="43.60775" lon="6.85302">
        <ele>45</ele>
        <time>2012-02-26T10:10:33Z</time>
      </trkpt>
      <trkpt lat="43.60778" lon="6.85299">
        <ele>45</ele>
        <time>2012-02-26T10:10:38Z</time>
      </trkpt>
      <trkpt lat="43.60783" lon="6.85297">
        <ele>45</ele>
        <time>2012-02-26T10:10:43Z</time>
      </trkpt>
      <trkpt lat="43.60789" lon="6.85296">
        <ele>45</ele>
        <time>2012-02-26T10:10:48Z</time>
      </trkpt>
      <trkpt lat="43.60794" lon="6.85295">
        <ele>45</ele>
        <time>2012-02-26T10:10:53Z</time>
      </trkpt>
      <trkpt lat="43.608" lon="6.85292">
        <ele>45</ele>
        <time>2012-02-26T10:10:58Z</time>
      </trkpt>
      <trkpt lat="43.60805" lon="6.85294">
        <ele>45</ele>
        <time>2012-02-26T10:11:03Z</time>
      </trkpt>
      <trkpt lat="43.60811" lon="6.85295">
        <ele>45</ele>
        <time>2012-02-26T10:11:08Z</time>
      </trkpt>
      <trkpt lat="43.60816" lon="6.85296">
        <ele>45</ele>
        <time>2012-02-26T10:11:13Z</time>
      </trkpt>
      <trkpt lat="43.6082" lon="6.85295">
        <ele>45</ele>
        <time>2012-02-26T10:11:18Z</time>
      </trkpt>
      <trkpt lat="43.6083" lon="6.85293">
        <ele>47</ele>
        <time>2012-02-26T10:11:23Z</time>
      </trkpt>
      <trkpt lat="43.6084" lon="6.8529">
        <ele>48</ele>
        <time>2012-02-26T10:11:28Z</time>
      </trkpt>
      <trkpt lat="43.60851" lon="6.8529">
        <ele>49</ele>
        <time>2012-02-26T10:11:33Z</time>
      </trkpt>
      <trkpt lat="43.60858" lon="6.85297">
        <ele>49</ele>
        <time>2012-02-26T10:11:38Z</time>
      </trkpt>
      <trkpt lat="43.6086" lon="6.85311">
        <ele>51</ele>
        <time>2012-02-26T10:11:43Z</time>
      </trkpt>
      <trkpt lat="43.60862" lon="6.85322">
        <ele>53</ele>
        <time>2012-02-26T10:11:48Z</time>
      </trkpt>
      <trkpt lat="43.60863" lon="6.85333">
        <ele>54</ele>
        <time>2012-02-26T10:11:53Z</time>
      </trkpt>
      <trkpt lat="43.60865" lon="6.85344">
        <ele>55</ele>
        <time>2012-02-26T10:11:58Z</time>
      </trkpt>
      <trkpt lat="43.60866" lon="6.85355">
        <ele>56</ele>
        <time>2012-02-26T10:12:03Z</time>
      </trkpt>
      <trkpt lat="43.60872" lon="6.85367">
        <ele>56</ele>
        <time>2012-02-26T10:12:08Z</time>
      </trkpt>
      <trkpt lat="43.60881" lon="6.85379">
        <ele>56</ele>
        <time>2012-02-26T10:12:13Z</time>
      </trkpt>
      <trkpt lat="43.60887" lon="6.85393">
        <ele>56</ele>
        <time>2012-02-26T10:12:18Z</time>
      </trkpt>
      <trkpt lat="43.6089" lon="6.85405">
        <ele>56</ele>
        <time>2012-02-26T10:12:23Z</time>
      </trkpt>
      <trkpt lat="43.6089" lon="6.85408">
        <ele>56</ele>
        <time>2012-02-26T10:12:28Z</time>
      </trkpt>
      <trkpt lat="43.60891" lon="6.85414">
        <ele>56</ele>
        <time>2012-02-26T10:12:33Z</time>
      </trkpt>
      <trkpt lat="43.60892" lon="6.85424">
        <ele>56</ele>
        <time>2012-02-26T10:12:38Z</time>
      </trkpt>
      <trkpt lat="43.60894" lon="6.85436">
        <ele>56</ele>
        <time>2012-02-26T10:12:43Z</time>
      </trkpt>
      <trkpt lat="43.60894" lon="6.85448">
        <ele>56</ele>
        <time>2012-02-26T10:12:48Z</time>
      </trkpt>
      <trkpt lat="43.60894" lon="6.85459">
        <ele>56</ele>
        <time>2012-02-26T10:12:53Z</time>
      </trkpt>
      <trkpt lat="43.6089" lon="6.85468">
        <ele>56</ele>
        <time>2012-02-26T10:12:58Z</time>
      </trkpt>
      <trkpt lat="43.60889" lon="6.85481">
        <ele>56</ele>
        <time>2012-02-26T10:13:03Z</time>
      </trkpt>
      <trkpt lat="43.60885" lon="6.85504">
        <ele>56</ele>
        <time>2012-02-26T10:13:08Z</time>
      </trkpt>
      <trkpt lat="43.60881" lon="6.8552">
        <ele>56</ele>
        <time>2012-02-26T10:13:13Z</time>
      </trkpt>
      <trkpt lat="43.60879" lon="6.85543">
        <ele>56</ele>
        <time>2012-02-26T10:13:18Z</time>
      </trkpt>
      <trkpt lat="43.60876" lon="6.85567">
        <ele>53</ele>
        <time>2012-02-26T10:13:23Z</time>
      </trkpt>
      <trkpt lat="43.60875" lon="6.85577">
        <ele>53</ele>
        <time>2012-02-26T10:13:28Z</time>
      </trkpt>
      <trkpt lat="43.60875" lon="6.85586">
        <ele>53</ele>
        <time>2012-02-26T10:13:33Z</time>
      </trkpt>
      <trkpt lat="43.60875" lon="6.85584">
        <ele>56</ele>
        <time>2012-02-26T10:13:39Z</time>
      </trkpt>
      <trkpt lat="43.60873" lon="6.85581">
        <ele>56</ele>
        <time>2012-02-26T10:13:44Z</time>
      </trkpt>
      <trkpt lat="43.60873" lon="6.85587">
        <ele>56</ele>
        <time>2012-02-26T10:13:50Z</time>
      </trkpt>
      <trkpt lat="43.60873" lon="6.8559">
        <ele>56</ele>
        <time>2012-02-26T10:13:56Z</time>
      </trkpt>
      <trkpt lat="43.60874" lon="6.85593">
        <ele>55</ele>
        <time>2012-02-26T10:14:03Z</time>
      </trkpt>
      <trkpt lat="43.60874" lon="6.85596">
        <ele>55</ele>
        <time>2012-02-26T10:14:09Z</time>
      </trkpt>
      <trkpt lat="43.60872" lon="6.85604">
        <ele>55</ele>
        <time>2012-02-26T10:14:15Z</time>
      </trkpt>
      <trkpt lat="43.60871" lon="6.85612">
        <ele>55</ele>
        <time>2012-02-26T10:14:20Z</time>
      </trkpt>
      <trkpt lat="43.60872" lon="6.85621">
        <ele>55</ele>
        <time>2012-02-26T10:14:26Z</time>
      </trkpt>
      <trkpt lat="43.60876" lon="6.8562">
        <ele>55</ele>
        <time>2012-02-26T10:14:35Z</time>
      </trkpt>
      <trkpt lat="43.60877" lon="6.85623">
        <ele>55</ele>
        <time>2012-02-26T10:14:41Z</time>
      </trkpt>
      <trkpt lat="43.60883" lon="6.85619">
        <ele>55</ele>
        <time>2012-02-26T10:14:50Z</time>
      </trkpt>
      <trkpt lat="43.60885" lon="6.85615">
        <ele>54</ele>
        <time>2012-02-26T10:15:01Z</time>
      </trkpt>
      <trkpt lat="43.60889" lon="6.85618">
        <ele>49</ele>
        <time>2012-02-26T10:15:17Z</time>
      </trkpt>
      <trkpt lat="43.60893" lon="6.85618">
        <ele>49</ele>
        <time>2012-02-26T10:15:24Z</time>
      </trkpt>
      <trkpt lat="43.60888" lon="6.85622">
        <ele>53</ele>
        <time>2012-02-26T10:15:33Z</time>
      </trkpt>
      <trkpt lat="43.60882" lon="6.85625">
        <ele>54</ele>
        <time>2012-02-26T10:15:40Z</time>
      </trkpt>
      <trkpt lat="43.60883" lon="6.85622">
        <ele>55</ele>
        <time>2012-02-26T10:15:48Z</time>
      </trkpt>
      <trkpt lat="43.6088" lon="6.85617">
        <ele>55</ele>
        <time>2012-02-26T10:15:56Z</time>
      </trkpt>
      <trkpt lat="43.60874" lon="6.85615">
        <ele>55</ele>
        <time>2012-02-26T10:16:05Z</time>
      </trkpt>
      <trkpt lat="43.60876" lon="6.85612">
        <ele>53</ele>
        <time>2012-02-26T10:16:14Z</time>
      </trkpt>
      <trkpt lat="43.60875" lon="6.85606">
        <ele>51</ele>
        <time>2012-02-26T10:16:21Z</time>
      </trkpt>
      <trkpt lat="43.60876" lon="6.856">
        <ele>50</ele>
        <time>2012-02-26T10:16:29Z</time>
      </trkpt>
      <trkpt lat="43.60871" lon="6.85596">
        <ele>48</ele>
        <time>2012-02-26T10:16:38Z</time>
      </trkpt>
      <trkpt lat="43.60868" lon="6.85592">
        <ele>48</ele>
        <time>2012-02-26T10:16:45Z</time>
      </trkpt>
      <trkpt lat="43.6087" lon="6.85588">
        <ele>46</ele>
        <time>2012-02-26T10:16:53Z</time>
      </trkpt>
      <trkpt lat="43.60872" lon="6.8558">
        <ele>46</ele>
        <time>2012-02-26T10:17:00Z</time>
      </trkpt>
      <trkpt lat="43.60876" lon="6.85568">
        <ele>46</ele>
        <time>2012-02-26T10:17:08Z</time>
      </trkpt>
      <trkpt lat="43.60878" lon="6.85563">
        <ele>45</ele>
        <time>2012-02-26T10:17:15Z</time>
      </trkpt>
      <trkpt lat="43.60881" lon="6.85559">
        <ele>45</ele>
        <time>2012-02-26T10:17:22Z</time>
      </trkpt>
      <trkpt lat="43.60883" lon="6.85552">
        <ele>46</ele>
        <time>2012-02-26T10:17:30Z</time>
      </trkpt>
      <trkpt lat="43.60884" lon="6.85541">
        <ele>49</ele>
        <time>2012-02-26T10:17:37Z</time>
      </trkpt>
      <trkpt lat="43.60884" lon="6.85531">
        <ele>51</ele>
        <time>2012-02-26T10:17:46Z</time>
      </trkpt>
      <trkpt lat="43.60884" lon="6.8552">
        <ele>52</ele>
        <time>2012-02-26T10:17:52Z</time>
      </trkpt>
      <trkpt lat="43.60884" lon="6.8551">
        <ele>53</ele>
        <time>2012-02-26T10:17:58Z</time>
      </trkpt>
      <trkpt lat="43.60889" lon="6.85495">
        <ele>53</ele>
        <time>2012-02-26T10:18:05Z</time>
      </trkpt>
      <trkpt lat="43.6089" lon="6.85486">
        <ele>53</ele>
        <time>2012-02-26T10:18:11Z</time>
      </trkpt>
      <trkpt lat="43.60889" lon="6.85474">
        <ele>53</ele>
        <time>2012-02-26T10:18:18Z</time>
      </trkpt>
      <trkpt lat="43.6089" lon="6.85469">
        <ele>53</ele>
        <time>2012-02-26T10:18:25Z</time>
      </trkpt>
      <trkpt lat="43.60893" lon="6.8546">
        <ele>54</ele>
        <time>2012-02-26T10:18:32Z</time>
      </trkpt>
      <trkpt lat="43.60896" lon="6.85451">
        <ele>54</ele>
        <time>2012-02-26T10:18:38Z</time>
      </trkpt>
      <trkpt lat="43.60893" lon="6.85439">
        <ele>54</ele>
        <time>2012-02-26T10:18:46Z</time>
      </trkpt>
      <trkpt lat="43.60894" lon="6.85428">
        <ele>54</ele>
        <time>2012-02-26T10:18:55Z</time>
      </trkpt>
      <trkpt lat="43.60894" lon="6.85418">
        <ele>54</ele>
        <time>2012-02-26T10:19:02Z</time>
      </trkpt>
      <trkpt lat="43.60893" lon="6.85406">
        <ele>54</ele>
        <time>2012-02-26T10:19:08Z</time>
      </trkpt>
      <trkpt lat="43.60891" lon="6.85402">
        <ele>54</ele>
        <time>2012-02-26T10:19:15Z</time>
      </trkpt>
      <trkpt lat="43.6089" lon="6.85396">
        <ele>54</ele>
        <time>2012-02-26T10:19:21Z</time>
      </trkpt>
      <trkpt lat="43.60885" lon="6.85388">
        <ele>54</ele>
        <time>2012-02-26T10:19:29Z</time>
      </trkpt>
      <trkpt lat="43.60882" lon="6.85383">
        <ele>55</ele>
        <time>2012-02-26T10:19:35Z</time>
      </trkpt>
      <trkpt lat="43.60877" lon="6.85374">
        <ele>57</ele>
        <time>2012-02-26T10:19:42Z</time>
      </trkpt>
      <trkpt lat="43.60874" lon="6.85371">
        <ele>57</ele>
        <time>2012-02-26T10:19:52Z</time>
      </trkpt>
      <trkpt lat="43.6087" lon="6.85366">
        <ele>57</ele>
        <time>2012-02-26T10:20:00Z</time>
      </trkpt>
      <trkpt lat="43.60858" lon="6.85353">
        <ele>57</ele>
        <time>2012-02-26T10:20:05Z</time>
      </trkpt>
      <trkpt lat="43.6085" lon="6.85342">
        <ele>57</ele>
        <time>2012-02-26T10:20:12Z</time>
      </trkpt>
      <trkpt lat="43.60844" lon="6.85339">
        <ele>57</ele>
        <time>2012-02-26T10:20:19Z</time>
      </trkpt>
      <trkpt lat="43.6083" lon="6.85338">
        <ele>57</ele>
        <time>2012-02-26T10:20:25Z</time>
      </trkpt>
      <trkpt lat="43.60824" lon="6.85339">
        <ele>58</ele>
        <time>2012-02-26T10:20:32Z</time>
      </trkpt>
      <trkpt lat="43.60815" lon="6.85346">
        <ele>61</ele>
        <time>2012-02-26T10:20:41Z</time>
      </trkpt>
      <trkpt lat="43.60809" lon="6.8535">
        <ele>64</ele>
        <time>2012-02-26T10:20:50Z</time>
      </trkpt>
      <trkpt lat="43.60806" lon="6.85352">
        <ele>64</ele>
        <time>2012-02-26T10:20:56Z</time>
      </trkpt>
      <trkpt lat="43.60799" lon="6.85354">
        <ele>65</ele>
        <time>2012-02-26T10:21:05Z</time>
      </trkpt>
      <trkpt lat="43.60793" lon="6.85355">
        <ele>65</ele>
        <time>2012-02-26T10:21:10Z</time>
      </trkpt>
      <trkpt lat="43.6079" lon="6.85356">
        <ele>65</ele>
        <time>2012-02-26T10:21:17Z</time>
      </trkpt>
      <trkpt lat="43.60784" lon="6.8536">
        <ele>65</ele>
        <time>2012-02-26T10:21:24Z</time>
      </trkpt>
      <trkpt lat="43.60776" lon="6.85366">
        <ele>66</ele>
        <time>2012-02-26T10:21:30Z</time>
      </trkpt>
      <trkpt lat="43.60773" lon="6.85368">
        <ele>69</ele>
        <time>2012-02-26T10:21:37Z</time>
      </trkpt>
      <trkpt lat="43.60767" lon="6.85371">
        <ele>70</ele>
        <time>2012-02-26T10:21:45Z</time>
      </trkpt>
      <trkpt lat="43.60762" lon="6.85377">
        <ele>71</ele>
        <time>2012-02-26T10:21:52Z</time>
      </trkpt>
      <trkpt lat="43.60758" lon="6.85382">
        <ele>71</ele>
        <time>2012-02-26T10:21:58Z</time>
      </trkpt>
      <trkpt lat="43.60755" lon="6.85386">
        <ele>72</ele>
        <time>2012-02-26T10:22:04Z</time>
      </trkpt>
      <trkpt lat="43.60752" lon="6.85392">
        <ele>72</ele>
        <time>2012-02-26T10:22:11Z</time>
      </trkpt>
      <trkpt lat="43.60751" lon="6.85398">
        <ele>75</ele>
        <time>2012-02-26T10:22:20Z</time>
      </trkpt>
      <trkpt lat="43.60749" lon="6.85405">
        <ele>77</ele>
        <time>2012-02-26T10:22:27Z</time>
      </trkpt>
      <trkpt lat="43.60747" lon="6.85412">
        <ele>80</ele>
        <time>2012-02-26T10:22:33Z</time>
      </trkpt>
      <trkpt lat="43.60747" lon="6.85419">
        <ele>83</ele>
        <time>2012-02-26T10:22:40Z</time>
      </trkpt>
      <trkpt lat="43.60748" lon="6.85428">
        <ele>85</ele>
        <time>2012-02-26T10:22:48Z</time>
      </trkpt>
      <trkpt lat="43.60749" lon="6.85434">
        <ele>86</ele>
        <time>2012-02-26T10:22:54Z</time>
      </trkpt>
      <trkpt lat="43.60751" lon="6.8544">
        <ele>86</ele>
        <time>2012-02-26T10:23:00Z</time>
      </trkpt>
      <trkpt lat="43.60754" lon="6.85448">
        <ele>86</ele>
        <time>2012-02-26T10:23:08Z</time>
      </trkpt>
      <trkpt lat="43.60757" lon="6.85455">
        <ele>87</ele>
        <time>2012-02-26T10:23:17Z</time>
      </trkpt>
      <trkpt lat="43.60759" lon="6.85462">
        <ele>89</ele>
        <time>2012-02-26T10:23:22Z</time>
      </trkpt>
      <trkpt lat="43.60762" lon="6.85471">
        <ele>90</ele>
        <time>2012-02-26T10:23:29Z</time>
      </trkpt>
      <trkpt lat="43.60764" lon="6.85478">
        <ele>90</ele>
        <time>2012-02-26T10:23:35Z</time>
      </trkpt>
      <trkpt lat="43.60766" lon="6.85484">
        <ele>91</ele>
        <time>2012-02-26T10:23:41Z</time>
      </trkpt>
      <trkpt lat="43.60769" lon="6.85496">
        <ele>94</ele>
        <time>2012-02-26T10:23:49Z</time>
      </trkpt>
      <trkpt lat="43.60769" lon="6.855">
        <ele>95</ele>
        <time>2012-02-26T10:23:57Z</time>
      </trkpt>
      <trkpt lat="43.60765" lon="6.85504">
        <ele>96</ele>
        <time>2012-02-26T10:24:05Z</time>
      </trkpt>
      <trkpt lat="43.6076" lon="6.85499">
        <ele>97</ele>
        <time>2012-02-26T10:24:13Z</time>
      </trkpt>
      <trkpt lat="43.60757" lon="6.85495">
        <ele>97</ele>
        <time>2012-02-26T10:24:18Z</time>
      </trkpt>
      <trkpt lat="43.6075" lon="6.85491">
        <ele>98</ele>
        <time>2012-02-26T10:24:25Z</time>
      </trkpt>
      <trkpt lat="43.60744" lon="6.85488">
        <ele>99</ele>
        <time>2012-02-26T10:24:32Z</time>
      </trkpt>
      <trkpt lat="43.60735" lon="6.85483">
        <ele>99</ele>
        <time>2012-02-26T10:24:38Z</time>
      </trkpt>
      <trkpt lat="43.60733" lon="6.85482">
        <ele>99</ele>
        <time>2012-02-26T10:24:45Z</time>
      </trkpt>
      <trkpt lat="43.60727" lon="6.85478">
        <ele>100</ele>
        <time>2012-02-26T10:24:52Z</time>
      </trkpt>
      <trkpt lat="43.60722" lon="6.85478">
        <ele>100</ele>
        <time>2012-02-26T10:24:58Z</time>
      </trkpt>
      <trkpt lat="43.60716" lon="6.85476">
        <ele>101</ele>
        <time>2012-02-26T10:25:05Z</time>
      </trkpt>
      <trkpt lat="43.60711" lon="6.85476">
        <ele>102</ele>
        <time>2012-02-26T10:25:11Z</time>
      </trkpt>
      <trkpt lat="43.60703" lon="6.85478">
        <ele>102</ele>
        <time>2012-02-26T10:25:20Z</time>
      </trkpt>
      <trkpt lat="43.60694" lon="6.85479">
        <ele>102</ele>
        <time>2012-02-26T10:25:26Z</time>
      </trkpt>
      <trkpt lat="43.60691" lon="6.85481">
        <ele>102</ele>
        <time>2012-02-26T10:25:32Z</time>
      </trkpt>
      <trkpt lat="43.60685" lon="6.85484">
        <ele>103</ele>
        <time>2012-02-26T10:25:39Z</time>
      </trkpt>
      <trkpt lat="43.60679" lon="6.85488">
        <ele>105</ele>
        <time>2012-02-26T10:25:45Z</time>
      </trkpt>
      <trkpt lat="43.60675" lon="6.85491">
        <ele>108</ele>
        <time>2012-02-26T10:25:53Z</time>
      </trkpt>
      <trkpt lat="43.60665" lon="6.85499">
        <ele>109</ele>
        <time>2012-02-26T10:26:02Z</time>
      </trkpt>
      <trkpt lat="43.6066" lon="6.85502">
        <ele>109</ele>
        <time>2012-02-26T10:26:08Z</time>
      </trkpt>
      <trkpt lat="43.60645" lon="6.85517">
        <ele>110</ele>
        <time>2012-02-26T10:26:16Z</time>
      </trkpt>
      <trkpt lat="43.60642" lon="6.85522">
        <ele>110</ele>
        <time>2012-02-26T10:26:22Z</time>
      </trkpt>
      <trkpt lat="43.60632" lon="6.85531">
        <ele>110</ele>
        <time>2012-02-26T10:26:30Z</time>
      </trkpt>
      <trkpt lat="43.6064" lon="6.85532">
        <ele>111</ele>
        <time>2012-02-26T10:26:38Z</time>
      </trkpt>
      <trkpt lat="43.60652" lon="6.85529">
        <ele>112</ele>
        <time>2012-02-26T10:26:44Z</time>
      </trkpt>
      <trkpt lat="43.60658" lon="6.85527">
        <ele>114</ele>
        <time>2012-02-26T10:26:51Z</time>
      </trkpt>
      <trkpt lat="43.60667" lon="6.85524">
        <ele>116</ele>
        <time>2012-02-26T10:26:58Z</time>
      </trkpt>
      <trkpt lat="43.60676" lon="6.85523">
        <ele>118</ele>
        <time>2012-02-26T10:27:05Z</time>
      </trkpt>
      <trkpt lat="43.60687" lon="6.85522">
        <ele>120</ele>
        <time>2012-02-26T10:27:11Z</time>
      </trkpt>
      <trkpt lat="43.607" lon="6.85528">
        <ele>120</ele>
        <time>2012-02-26T10:27:20Z</time>
      </trkpt>
      <trkpt lat="43.60708" lon="6.85546">
        <ele>120</ele>
        <time>2012-02-26T10:27:27Z</time>
      </trkpt>
      <trkpt lat="43.60725" lon="6.85568">
        <ele>120</ele>
        <time>2012-02-26T10:27:33Z</time>
      </trkpt>
      <trkpt lat="43.60732" lon="6.85575">
        <ele>120</ele>
        <time>2012-02-26T10:27:40Z</time>
      </trkpt>
      <trkpt lat="43.60742" lon="6.85583">
        <ele>120</ele>
        <time>2012-02-26T10:27:47Z</time>
      </trkpt>
      <trkpt lat="43.6075" lon="6.85594">
        <ele>120</ele>
        <time>2012-02-26T10:27:54Z</time>
      </trkpt>
      <trkpt lat="43.6076" lon="6.85602">
        <ele>120</ele>
        <time>2012-02-26T10:28:01Z</time>
      </trkpt>
      <trkpt lat="43.60774" lon="6.85612">
        <ele>120</ele>
        <time>2012-02-26T10:28:07Z</time>
      </trkpt>
      <trkpt lat="43.60778" lon="6.85622">
        <ele>120</ele>
        <time>2012-02-26T10:28:16Z</time>
      </trkpt>
      <trkpt lat="43.60783" lon="6.85641">
        <ele>120</ele>
        <time>2012-02-26T10:28:23Z</time>
      </trkpt>
      <trkpt lat="43.60792" lon="6.85678">
        <ele>120</ele>
        <time>2012-02-26T10:28:29Z</time>
      </trkpt>
      <trkpt lat="43.60808" lon="6.85703">
        <ele>118</ele>
        <time>2012-02-26T10:28:37Z</time>
      </trkpt>
      <trkpt lat="43.60823" lon="6.85735">
        <ele>115</ele>
        <time>2012-02-26T10:28:43Z</time>
      </trkpt>
      <trkpt lat="43.60824" lon="6.85736">
        <ele>114</ele>
        <time>2012-02-26T10:28:52Z</time>
      </trkpt>
      <trkpt lat="43.60844" lon="6.85753">
        <ele>112</ele>
        <time>2012-02-26T10:28:59Z</time>
      </trkpt>
      <trkpt lat="43.60876" lon="6.85763">
        <ele>108</ele>
        <time>2012-02-26T10:29:06Z</time>
      </trkpt>
      <trkpt lat="43.60912" lon="6.85787">
        <ele>104</ele>
        <time>2012-02-26T10:29:15Z</time>
      </trkpt>
      <trkpt lat="43.60941" lon="6.85789">
        <ele>99</ele>
        <time>2012-02-26T10:29:24Z</time>
      </trkpt>
      <trkpt lat="43.60963" lon="6.85786">
        <ele>97</ele>
        <time>2012-02-26T10:29:30Z</time>
      </trkpt>
      <trkpt lat="43.60988" lon="6.85781">
        <ele>93</ele>
        <time>2012-02-26T10:29:37Z</time>
      </trkpt>
      <trkpt lat="43.61002" lon="6.85779">
        <ele>90</ele>
        <time>2012-02-26T10:29:47Z</time>
      </trkpt>
      <trkpt lat="43.61008" lon="6.85769">
        <ele>88</ele>
        <time>2012-02-26T10:29:56Z</time>
      </trkpt>
      <trkpt lat="43.61006" lon="6.85774">
        <ele>88</ele>
        <time>2012-02-26T10:30:05Z</time>
      </trkpt>
      <trkpt lat="43.61002" lon="6.85783">
        <ele>88</ele>
        <time>2012-02-26T10:30:11Z</time>
      </trkpt>
      <trkpt lat="43.61001" lon="6.85786">
        <ele>88</ele>
        <time>2012-02-26T10:30:17Z</time>
      </trkpt>
      <trkpt lat="43.60998" lon="6.85793">
        <ele>88</ele>
        <time>2012-02-26T10:30:24Z</time>
      </trkpt>
      <trkpt lat="43.60999" lon="6.85792">
        <ele>88</ele>
        <time>2012-02-26T10:30:33Z</time>
      </trkpt>
      <trkpt lat="43.61007" lon="6.85796">
        <ele>88</ele>
        <time>2012-02-26T10:30:44Z</time>
      </trkpt>
      <trkpt lat="43.61008" lon="6.858">
        <ele>88</ele>
        <time>2012-02-26T10:30:50Z</time>
      </trkpt>
      <trkpt lat="43.61009" lon="6.85797">
        <ele>86</ele>
        <time>2012-02-26T10:31:08Z</time>
      </trkpt>
      <trkpt lat="43.61005" lon="6.85793">
        <ele>86</ele>
        <time>2012-02-26T10:31:15Z</time>
      </trkpt>
      <trkpt lat="43.61003" lon="6.85792">
        <ele>86</ele>
        <time>2012-02-26T10:31:23Z</time>
      </trkpt>
      <trkpt lat="43.60998" lon="6.85789">
        <ele>86</ele>
        <time>2012-02-26T10:31:31Z</time>
      </trkpt>
      <trkpt lat="43.60999" lon="6.85786">
        <ele>86</ele>
        <time>2012-02-26T10:31:40Z</time>
      </trkpt>
      <trkpt lat="43.60998" lon="6.85788">
        <ele>86</ele>
        <time>2012-02-26T10:31:48Z</time>
      </trkpt>
      <trkpt lat="43.60997" lon="6.85786">
        <ele>86</ele>
        <time>2012-02-26T10:31:56Z</time>
      </trkpt>
      <trkpt lat="43.60997" lon="6.85785">
        <ele>86</ele>
        <time>2012-02-26T10:32:05Z</time>
      </trkpt>
      <trkpt lat="43.61" lon="6.85783">
        <ele>86</ele>
        <time>2012-02-26T10:32:12Z</time>
      </trkpt>
      <trkpt lat="43.61005" lon="6.85774">
        <ele>86</ele>
        <time>2012-02-26T10:32:19Z</time>
      </trkpt>
      <trkpt lat="43.6101" lon="6.85766">
        <ele>86</ele>
        <time>2012-02-26T10:32:28Z</time>
      </trkpt>
      <trkpt lat="43.61016" lon="6.85762">
        <ele>84</ele>
        <time>2012-02-26T10:32:37Z</time>
      </trkpt>
      <trkpt lat="43.6102" lon="6.85756">
        <ele>81</ele>
        <time>2012-02-26T10:32:45Z</time>
      </trkpt>
      <trkpt lat="43.61024" lon="6.85751">
        <ele>80</ele>
        <time>2012-02-26T10:32:51Z</time>
      </trkpt>
      <trkpt lat="43.61027" lon="6.85751">
        <ele>78</ele>
        <time>2012-02-26T10:32:59Z</time>
      </trkpt>
      <trkpt lat="43.61029" lon="6.85751">
        <ele>76</ele>
        <time>2012-02-26T10:33:09Z</time>
      </trkpt>
      <trkpt lat="43.6103" lon="6.85752">
        <ele>76</ele>
        <time>2012-02-26T10:33:18Z</time>
      </trkpt>
      <trkpt lat="43.61029" lon="6.85751">
        <ele>76</ele>
        <time>2012-02-26T10:33:25Z</time>
      </trkpt>
      <trkpt lat="43.61027" lon="6.85751">
        <ele>76</ele>
        <time>2012-02-26T10:33:32Z</time>
      </trkpt>
      <trkpt lat="43.61024" lon="6.85752">
        <ele>76</ele>
        <time>2012-02-26T10:33:41Z</time>
      </trkpt>
      <trkpt lat="43.61017" lon="6.85759">
        <ele>76</ele>
        <time>2012-02-26T10:33:49Z</time>
      </trkpt>
      <trkpt lat="43.61016" lon="6.85762">
        <ele>79</ele>
        <time>2012-02-26T10:33:57Z</time>
      </trkpt>
      <trkpt lat="43.61011" lon="6.85769">
        <ele>82</ele>
        <time>2012-02-26T10:34:05Z</time>
      </trkpt>
      <trkpt lat="43.61009" lon="6.85772">
        <ele>82</ele>
        <time>2012-02-26T10:34:10Z</time>
      </trkpt>
      <trkpt lat="43.61004" lon="6.85779">
        <ele>84</ele>
        <time>2012-02-26T10:34:19Z</time>
      </trkpt>
      <trkpt lat="43.60996" lon="6.85786">
        <ele>84</ele>
        <time>2012-02-26T10:34:26Z</time>
      </trkpt>
      <trkpt lat="43.60994" lon="6.85784">
        <ele>86</ele>
        <time>2012-02-26T10:34:35Z</time>
      </trkpt>
      <trkpt lat="43.60975" lon="6.85783">
        <ele>87</ele>
        <time>2012-02-26T10:34:42Z</time>
      </trkpt>
      <trkpt lat="43.60963" lon="6.85787">
        <ele>87</ele>
        <time>2012-02-26T10:34:52Z</time>
      </trkpt>
      <trkpt lat="43.60953" lon="6.85792">
        <ele>87</ele>
        <time>2012-02-26T10:34:58Z</time>
      </trkpt>
      <trkpt lat="43.60941" lon="6.85789">
        <ele>89</ele>
        <time>2012-02-26T10:35:07Z</time>
      </trkpt>
      <trkpt lat="43.60931" lon="6.85787">
        <ele>89</ele>
        <time>2012-02-26T10:35:13Z</time>
      </trkpt>
      <trkpt lat="43.6092" lon="6.85791">
        <ele>89</ele>
        <time>2012-02-26T10:35:21Z</time>
      </trkpt>
      <trkpt lat="43.60912" lon="6.85806">
        <ele>89</ele>
        <time>2012-02-26T10:35:30Z</time>
      </trkpt>
      <trkpt lat="43.60895" lon="6.85827">
        <ele>89</ele>
        <time>2012-02-26T10:35:37Z</time>
      </trkpt>
      <trkpt lat="43.60886" lon="6.85833">
        <ele>87</ele>
        <time>2012-02-26T10:35:43Z</time>
      </trkpt>
      <trkpt lat="43.6086" lon="6.85845">
        <ele>83</ele>
        <time>2012-02-26T10:35:50Z</time>
      </trkpt>
      <trkpt lat="43.60844" lon="6.85849">
        <ele>80</ele>
        <time>2012-02-26T10:35:56Z</time>
      </trkpt>
      <trkpt lat="43.60838" lon="6.85849">
        <ele>75</ele>
        <time>2012-02-26T10:36:06Z</time>
      </trkpt>
      <trkpt lat="43.60834" lon="6.85849">
        <ele>74</ele>
        <time>2012-02-26T10:36:16Z</time>
      </trkpt>
      <trkpt lat="43.6083" lon="6.8585">
        <ele>74</ele>
        <time>2012-02-26T10:36:24Z</time>
      </trkpt>
      <trkpt lat="43.60803" lon="6.85869">
        <ele>71</ele>
        <time>2012-02-26T10:36:30Z</time>
      </trkpt>
      <trkpt lat="43.60796" lon="6.85875">
        <ele>68</ele>
        <time>2012-02-26T10:36:37Z</time>
      </trkpt>
      <trkpt lat="43.60781" lon="6.85871">
        <ele>64</ele>
        <time>2012-02-26T10:36:46Z</time>
      </trkpt>
      <trkpt lat="43.60769" lon="6.85859">
        <ele>64</ele>
        <time>2012-02-26T10:36:51Z</time>
      </trkpt>
      <trkpt lat="43.60757" lon="6.85845">
        <ele>63</ele>
        <time>2012-02-26T10:36:58Z</time>
      </trkpt>
      <trkpt lat="43.60749" lon="6.85829">
        <ele>63</ele>
        <time>2012-02-26T10:37:05Z</time>
      </trkpt>
      <trkpt lat="43.60743" lon="6.85819">
        <ele>63</ele>
        <time>2012-02-26T10:37:11Z</time>
      </trkpt>
      <trkpt lat="43.60734" lon="6.85809">
        <ele>63</ele>
        <time>2012-02-26T10:37:18Z</time>
      </trkpt>
      <trkpt lat="43.60726" lon="6.85799">
        <ele>63</ele>
        <time>2012-02-26T10:37:24Z</time>
      </trkpt>
      <trkpt lat="43.60718" lon="6.85776">
        <ele>63</ele>
        <time>2012-02-26T10:37:32Z</time>
      </trkpt>
      <trkpt lat="43.60717" lon="6.85771">
        <ele>63</ele>
        <time>2012-02-26T10:37:43Z</time>
      </trkpt>
      <trkpt lat="43.60716" lon="6.85767">
        <ele>63</ele>
        <time>2012-02-26T10:37:49Z</time>
      </trkpt>
      <trkpt lat="43.60716" lon="6.85759">
        <ele>63</ele>
        <time>2012-02-26T10:37:55Z</time>
      </trkpt>
      <trkpt lat="43.60714" lon="6.85753">
        <ele>63</ele>
        <time>2012-02-26T10:38:01Z</time>
      </trkpt>
      <trkpt lat="43.60711" lon="6.85745">
        <ele>63</ele>
        <time>2012-02-26T10:38:09Z</time>
      </trkpt>
      <trkpt lat="43.60705" lon="6.85738">
        <ele>63</ele>
        <time>2012-02-26T10:38:16Z</time>
      </trkpt>
      <trkpt lat="43.60702" lon="6.85729">
        <ele>63</ele>
        <time>2012-02-26T10:38:23Z</time>
      </trkpt>
      <trkpt lat="43.607" lon="6.85722">
        <ele>65</ele>
        <time>2012-02-26T10:38:35Z</time>
      </trkpt>
      <trkpt lat="43.607" lon="6.85718">
        <ele>66</ele>
        <time>2012-02-26T10:38:42Z</time>
      </trkpt>
      <trkpt lat="43.60699" lon="6.85706">
        <ele>68</ele>
        <time>2012-02-26T10:38:49Z</time>
      </trkpt>
      <trkpt lat="43.60699" lon="6.857">
        <ele>70</ele>
        <time>2012-02-26T10:38:56Z</time>
      </trkpt>
      <trkpt lat="43.60698" lon="6.85693">
        <ele>71</ele>
        <time>2012-02-26T10:39:02Z</time>
      </trkpt>
      <trkpt lat="43.60696" lon="6.85684">
        <ele>72</ele>
        <time>2012-02-26T10:39:09Z</time>
      </trkpt>
      <trkpt lat="43.60695" lon="6.85673">
        <ele>72</ele>
        <time>2012-02-26T10:39:19Z</time>
      </trkpt>
      <trkpt lat="43.60693" lon="6.85667">
        <ele>72</ele>
        <time>2012-02-26T10:39:24Z</time>
      </trkpt>
      <trkpt lat="43.60691" lon="6.8566">
        <ele>74</ele>
        <time>2012-02-26T10:39:31Z</time>
      </trkpt>
      <trkpt lat="43.60689" lon="6.85654">
        <ele>76</ele>
        <time>2012-02-26T10:39:37Z</time>
      </trkpt>
      <trkpt lat="43.60686" lon="6.85644">
        <ele>77</ele>
        <time>2012-02-26T10:39:44Z</time>
      </trkpt>
      <trkpt lat="43.60684" lon="6.85641">
        <ele>78</ele>
        <time>2012-02-26T10:39:51Z</time>
      </trkpt>
      <trkpt lat="43.60682" lon="6.85632">
        <ele>78</ele>
        <time>2012-02-26T10:39:57Z</time>
      </trkpt>
      <trkpt lat="43.60677" lon="6.85622">
        <ele>79</ele>
        <time>2012-02-26T10:40:04Z</time>
      </trkpt>
      <trkpt lat="43.60672" lon="6.85616">
        <ele>79</ele>
        <time>2012-02-26T10:40:11Z</time>
      </trkpt>
      <trkpt lat="43.60669" lon="6.85611">
        <ele>80</ele>
        <time>2012-02-26T10:40:17Z</time>
      </trkpt>
      <trkpt lat="43.60665" lon="6.85608">
        <ele>82</ele>
        <time>2012-02-26T10:40:24Z</time>
      </trkpt>
      <trkpt lat="43.6066" lon="6.85606">
        <ele>85</ele>
        <time>2012-02-26T10:40:30Z</time>
      </trkpt>
      <trkpt lat="43.60651" lon="6.85601">
        <ele>86</ele>
        <time>2012-02-26T10:40:37Z</time>
      </trkpt>
      <trkpt lat="43.60648" lon="6.85599">
        <ele>87</ele>
        <time>2012-02-26T10:40:44Z</time>
      </trkpt>
      <trkpt lat="43.60643" lon="6.85596">
        <ele>90</ele>
        <time>2012-02-26T10:40:51Z</time>
      </trkpt>
      <trkpt lat="43.6064" lon="6.85593">
        <ele>91</ele>
        <time>2012-02-26T10:40:59Z</time>
      </trkpt>
      <trkpt lat="43.60632" lon="6.85591">
        <ele>91</ele>
        <time>2012-02-26T10:41:06Z</time>
      </trkpt>
      <trkpt lat="43.6062" lon="6.85593">
        <ele>91</ele>
        <time>2012-02-26T10:41:12Z</time>
      </trkpt>
      <trkpt lat="43.60606" lon="6.85592">
        <ele>91</ele>
        <time>2012-02-26T10:41:21Z</time>
      </trkpt>
      <trkpt lat="43.60592" lon="6.85591">
        <ele>91</ele>
        <time>2012-02-26T10:41:28Z</time>
      </trkpt>
      <trkpt lat="43.60581" lon="6.85586">
        <ele>91</ele>
        <time>2012-02-26T10:41:34Z</time>
      </trkpt>
      <trkpt lat="43.6057" lon="6.85578">
        <ele>91</ele>
        <time>2012-02-26T10:41:41Z</time>
      </trkpt>
      <trkpt lat="43.60562" lon="6.85571">
        <ele>93</ele>
        <time>2012-02-26T10:41:47Z</time>
      </trkpt>
      <trkpt lat="43.60552" lon="6.85565">
        <ele>95</ele>
        <time>2012-02-26T10:41:54Z</time>
      </trkpt>
      <trkpt lat="43.6055" lon="6.85564">
        <ele>97</ele>
        <time>2012-02-26T10:42:01Z</time>
      </trkpt>
      <trkpt lat="43.60544" lon="6.85561">
        <ele>97</ele>
        <time>2012-02-26T10:42:09Z</time>
      </trkpt>
      <trkpt lat="43.60539" lon="6.8556">
        <ele>97</ele>
        <time>2012-02-26T10:42:15Z</time>
      </trkpt>
      <trkpt lat="43.60533" lon="6.85559">
        <ele>98</ele>
        <time>2012-02-26T10:42:23Z</time>
      </trkpt>
      <trkpt lat="43.60529" lon="6.85558">
        <ele>101</ele>
        <time>2012-02-26T10:42:32Z</time>
      </trkpt>
      <trkpt lat="43.60525" lon="6.85557">
        <ele>102</ele>
        <time>2012-02-26T10:42:38Z</time>
      </trkpt>
      <trkpt lat="43.60521" lon="6.85553">
        <ele>102</ele>
        <time>2012-02-26T10:42:44Z</time>
      </trkpt>
      <trkpt lat="43.60519" lon="6.85552">
        <ele>104</ele>
        <time>2012-02-26T10:42:49Z</time>
      </trkpt>
      <trkpt lat="43.60514" lon="6.8555">
        <ele>105</ele>
        <time>2012-02-26T10:42:55Z</time>
      </trkpt>
      <trkpt lat="43.60509" lon="6.85546">
        <ele>106</ele>
        <time>2012-02-26T10:43:01Z</time>
      </trkpt>
      <trkpt lat="43.60506" lon="6.85548">
        <ele>107</ele>
        <time>2012-02-26T10:43:08Z</time>
      </trkpt>
      <trkpt lat="43.60501" lon="6.8555">
        <ele>108</ele>
        <time>2012-02-26T10:43:14Z</time>
      </trkpt>
      <trkpt lat="43.60497" lon="6.85554">
        <ele>109</ele>
        <time>2012-02-26T10:43:20Z</time>
      </trkpt>
      <trkpt lat="43.60492" lon="6.85557">
        <ele>109</ele>
        <time>2012-02-26T10:43:26Z</time>
      </trkpt>
      <trkpt lat="43.60489" lon="6.8556">
        <ele>110</ele>
        <time>2012-02-26T10:43:32Z</time>
      </trkpt>
      <trkpt lat="43.60484" lon="6.85565">
        <ele>111</ele>
        <time>2012-02-26T10:43:38Z</time>
      </trkpt>
      <trkpt lat="43.60479" lon="6.85568">
        <ele>112</ele>
        <time>2012-02-26T10:43:44Z</time>
      </trkpt>
      <trkpt lat="43.60474" lon="6.8557">
        <ele>113</ele>
        <time>2012-02-26T10:43:50Z</time>
      </trkpt>
      <trkpt lat="43.60469" lon="6.85572">
        <ele>113</ele>
        <time>2012-02-26T10:43:56Z</time>
      </trkpt>
      <trkpt lat="43.60463" lon="6.85573">
        <ele>114</ele>
        <time>2012-02-26T10:44:02Z</time>
      </trkpt>
      <trkpt lat="43.6046" lon="6.85575">
        <ele>116</ele>
        <time>2012-02-26T10:44:09Z</time>
      </trkpt>
      <trkpt lat="43.60455" lon="6.85574">
        <ele>116</ele>
        <time>2012-02-26T10:44:14Z</time>
      </trkpt>
      <trkpt lat="43.60447" lon="6.85572">
        <ele>116</ele>
        <time>2012-02-26T10:44:20Z</time>
      </trkpt>
      <trkpt lat="43.60442" lon="6.8557">
        <ele>117</ele>
        <time>2012-02-26T10:44:25Z</time>
      </trkpt>
      <trkpt lat="43.60437" lon="6.85568">
        <ele>118</ele>
        <time>2012-02-26T10:44:30Z</time>
      </trkpt>
      <trkpt lat="43.60431" lon="6.85565">
        <ele>120</ele>
        <time>2012-02-26T10:44:36Z</time>
      </trkpt>
      <trkpt lat="43.60425" lon="6.85563">
        <ele>121</ele>
        <time>2012-02-26T10:44:42Z</time>
      </trkpt>
      <trkpt lat="43.60419" lon="6.85561">
        <ele>122</ele>
        <time>2012-02-26T10:44:48Z</time>
      </trkpt>
      <trkpt lat="43.60415" lon="6.85558">
        <ele>124</ele>
        <time>2012-02-26T10:44:58Z</time>
      </trkpt>
      <trkpt lat="43.6041" lon="6.85557">
        <ele>124</ele>
        <time>2012-02-26T10:45:04Z</time>
      </trkpt>
      <trkpt lat="43.60405" lon="6.85554">
        <ele>124</ele>
        <time>2012-02-26T10:45:10Z</time>
      </trkpt>
      <trkpt lat="43.60403" lon="6.85555">
        <ele>124</ele>
        <time>2012-02-26T10:45:20Z</time>
      </trkpt>
      <trkpt lat="43.60398" lon="6.85554">
        <ele>125</ele>
        <time>2012-02-26T10:45:25Z</time>
      </trkpt>
      <trkpt lat="43.60392" lon="6.85552">
        <ele>126</ele>
        <time>2012-02-26T10:45:31Z</time>
      </trkpt>
      <trkpt lat="43.60386" lon="6.8555">
        <ele>127</ele>
        <time>2012-02-26T10:45:37Z</time>
      </trkpt>
      <trkpt lat="43.6038" lon="6.85549">
        <ele>129</ele>
        <time>2012-02-26T10:45:43Z</time>
      </trkpt>
      <trkpt lat="43.60375" lon="6.85549">
        <ele>130</ele>
        <time>2012-02-26T10:45:49Z</time>
      </trkpt>
      <trkpt lat="43.6037" lon="6.85547">
        <ele>130</ele>
        <time>2012-02-26T10:45:55Z</time>
      </trkpt>
      <trkpt lat="43.60365" lon="6.85546">
        <ele>130</ele>
        <time>2012-02-26T10:46:01Z</time>
      </trkpt>
      <trkpt lat="43.6036" lon="6.85544">
        <ele>130</ele>
        <time>2012-02-26T10:46:14Z</time>
      </trkpt>
      <trkpt lat="43.60358" lon="6.85543">
        <ele>130</ele>
        <time>2012-02-26T10:46:20Z</time>
      </trkpt>
      <trkpt lat="43.60352" lon="6.85541">
        <ele>130</ele>
        <time>2012-02-26T10:46:26Z</time>
      </trkpt>
      <trkpt lat="43.60348" lon="6.8554">
        <ele>132</ele>
        <time>2012-02-26T10:46:31Z</time>
      </trkpt>
      <trkpt lat="43.60343" lon="6.85539">
        <ele>134</ele>
        <time>2012-02-26T10:46:37Z</time>
      </trkpt>
      <trkpt lat="43.60337" lon="6.85538">
        <ele>135</ele>
        <time>2012-02-26T10:46:43Z</time>
      </trkpt>
      <trkpt lat="43.60332" lon="6.85538">
        <ele>136</ele>
        <time>2012-02-26T10:46:49Z</time>
      </trkpt>
      <trkpt lat="43.60327" lon="6.85538">
        <ele>138</ele>
        <time>2012-02-26T10:46:55Z</time>
      </trkpt>
      <trkpt lat="43.60321" lon="6.85539">
        <ele>138</ele>
        <time>2012-02-26T10:47:01Z</time>
      </trkpt>
      <trkpt lat="43.60316" lon="6.85541">
        <ele>138</ele>
        <time>2012-02-26T10:47:07Z</time>
      </trkpt>
      <trkpt lat="43.60312" lon="6.85542">
        <ele>138</ele>
        <time>2012-02-26T10:47:13Z</time>
      </trkpt>
      <trkpt lat="43.60311" lon="6.85545">
        <ele>145</ele>
        <time>2012-02-26T10:47:45Z</time>
      </trkpt>
      <trkpt lat="43.60305" lon="6.85543">
        <ele>145</ele>
        <time>2012-02-26T10:47:51Z</time>
      </trkpt>
      <trkpt lat="43.603" lon="6.85542">
        <ele>145</ele>
        <time>2012-02-26T10:47:57Z</time>
      </trkpt>
      <trkpt lat="43.60295" lon="6.85542">
        <ele>145</ele>
        <time>2012-02-26T10:48:02Z</time>
      </trkpt>
      <trkpt lat="43.60289" lon="6.85543">
        <ele>145</ele>
        <time>2012-02-26T10:48:08Z</time>
      </trkpt>
      <trkpt lat="43.60284" lon="6.85543">
        <ele>145</ele>
        <time>2012-02-26T10:48:13Z</time>
      </trkpt>
      <trkpt lat="43.60279" lon="6.85541">
        <ele>146</ele>
        <time>2012-02-26T10:48:19Z</time>
      </trkpt>
      <trkpt lat="43.60274" lon="6.85539">
        <ele>148</ele>
        <time>2012-02-26T10:48:25Z</time>
      </trkpt>
      <trkpt lat="43.60269" lon="6.85539">
        <ele>150</ele>
        <time>2012-02-26T10:48:42Z</time>
      </trkpt>
      <trkpt lat="43.60267" lon="6.85534">
        <ele>150</ele>
        <time>2012-02-26T10:48:48Z</time>
      </trkpt>
      <trkpt lat="43.60262" lon="6.85529">
        <ele>150</ele>
        <time>2012-02-26T10:48:54Z</time>
      </trkpt>
      <trkpt lat="43.60257" lon="6.85525">
        <ele>150</ele>
        <time>2012-02-26T10:49:00Z</time>
      </trkpt>
      <trkpt lat="43.60252" lon="6.8552">
        <ele>150</ele>
        <time>2012-02-26T10:49:06Z</time>
      </trkpt>
      <trkpt lat="43.60248" lon="6.85516">
        <ele>150</ele>
        <time>2012-02-26T10:49:12Z</time>
      </trkpt>
      <trkpt lat="43.60242" lon="6.85512">
        <ele>150</ele>
        <time>2012-02-26T10:49:18Z</time>
      </trkpt>
      <trkpt lat="43.60238" lon="6.85509">
        <ele>151</ele>
        <time>2012-02-26T10:49:24Z</time>
      </trkpt>
      <trkpt lat="43.60233" lon="6.85505">
        <ele>153</ele>
        <time>2012-02-26T10:49:46Z</time>
      </trkpt>
      <trkpt lat="43.60228" lon="6.85503">
        <ele>154</ele>
        <time>2012-02-26T10:49:52Z</time>
      </trkpt>
      <trkpt lat="43.60224" lon="6.855">
        <ele>155</ele>
        <time>2012-02-26T10:49:58Z</time>
      </trkpt>
      <trkpt lat="43.6022" lon="6.85498">
        <ele>156</ele>
        <time>2012-02-26T10:50:04Z</time>
      </trkpt>
      <trkpt lat="43.60216" lon="6.85495">
        <ele>156</ele>
        <time>2012-02-26T10:50:10Z</time>
      </trkpt>
      <trkpt lat="43.60212" lon="6.85493">
        <ele>157</ele>
        <time>2012-02-26T10:50:16Z</time>
      </trkpt>
      <trkpt lat="43.60207" lon="6.85491">
        <ele>158</ele>
        <time>2012-02-26T10:50:21Z</time>
      </trkpt>
      <trkpt lat="43.60201" lon="6.85488">
        <ele>160</ele>
        <time>2012-02-26T10:50:27Z</time>
      </trkpt>
      <trkpt lat="43.60196" lon="6.85486">
        <ele>162</ele>
        <time>2012-02-26T10:50:33Z</time>
      </trkpt>
      <trkpt lat="43.6019" lon="6.85486">
        <ele>165</ele>
        <time>2012-02-26T10:50:49Z</time>
      </trkpt>
      <trkpt lat="43.60183" lon="6.85487">
        <ele>166</ele>
        <time>2012-02-26T10:50:55Z</time>
      </trkpt>
      <trkpt lat="43.60176" lon="6.8549">
        <ele>168</ele>
        <time>2012-02-26T10:51:01Z</time>
      </trkpt>
      <trkpt lat="43.60171" lon="6.85493">
        <ele>170</ele>
        <time>2012-02-26T10:51:06Z</time>
      </trkpt>
      <trkpt lat="43.60165" lon="6.85495">
        <ele>170</ele>
        <time>2012-02-26T10:51:12Z</time>
      </trkpt>
      <trkpt lat="43.6016" lon="6.85497">
        <ele>171</ele>
        <time>2012-02-26T10:51:17Z</time>
      </trkpt>
      <trkpt lat="43.60154" lon="6.85498">
        <ele>172</ele>
        <time>2012-02-26T10:51:22Z</time>
      </trkpt>
      <trkpt lat="43.6015" lon="6.85498">
        <ele>173</ele>
        <time>2012-02-26T10:51:27Z</time>
      </trkpt>
      <trkpt lat="43.60145" lon="6.855">
        <ele>173</ele>
        <time>2012-02-26T10:51:32Z</time>
      </trkpt>
      <trkpt lat="43.60139" lon="6.85507">
        <ele>174</ele>
        <time>2012-02-26T10:51:37Z</time>
      </trkpt>
      <trkpt lat="43.60135" lon="6.85514">
        <ele>175</ele>
        <time>2012-02-26T10:51:42Z</time>
      </trkpt>
      <trkpt lat="43.60131" lon="6.85521">
        <ele>175</ele>
        <time>2012-02-26T10:51:47Z</time>
      </trkpt>
      <trkpt lat="43.60126" lon="6.85527">
        <ele>175</ele>
        <time>2012-02-26T10:51:52Z</time>
      </trkpt>
      <trkpt lat="43.60119" lon="6.85532">
        <ele>175</ele>
        <time>2012-02-26T10:51:58Z</time>
      </trkpt>
      <trkpt lat="43.60113" lon="6.85537">
        <ele>176</ele>
        <time>2012-02-26T10:52:03Z</time>
      </trkpt>
      <trkpt lat="43.60107" lon="6.85541">
        <ele>176</ele>
        <time>2012-02-26T10:52:08Z</time>
      </trkpt>
      <trkpt lat="43.60101" lon="6.85544">
        <ele>176</ele>
        <time>2012-02-26T10:52:13Z</time>
      </trkpt>
      <trkpt lat="43.60094" lon="6.85545">
        <ele>177</ele>
        <time>2012-02-26T10:52:18Z</time>
      </trkpt>
      <trkpt lat="43.60088" lon="6.85545">
        <ele>178</ele>
        <time>2012-02-26T10:52:23Z</time>
      </trkpt>
      <trkpt lat="43.60081" lon="6.85543">
        <ele>179</ele>
        <time>2012-02-26T10:52:28Z</time>
      </trkpt>
      <trkpt lat="43.60075" lon="6.85543">
        <ele>180</ele>
        <time>2012-02-26T10:52:33Z</time>
      </trkpt>
      <trkpt lat="43.6007" lon="6.85539">
        <ele>181</ele>
        <time>2012-02-26T10:52:38Z</time>
      </trkpt>
      <trkpt lat="43.60069" lon="6.85531">
        <ele>182</ele>
        <time>2012-02-26T10:52:43Z</time>
      </trkpt>
      <trkpt lat="43.60073" lon="6.85529">
        <ele>183</ele>
        <time>2012-02-26T10:52:53Z</time>
      </trkpt>
      <trkpt lat="43.60076" lon="6.8553">
        <ele>183</ele>
        <time>2012-02-26T10:53:00Z</time>
      </trkpt>
      <trkpt lat="43.6008" lon="6.85533">
        <ele>183</ele>
        <time>2012-02-26T10:53:06Z</time>
      </trkpt>
      <trkpt lat="43.60086" lon="6.8553">
        <ele>183</ele>
        <time>2012-02-26T10:53:12Z</time>
      </trkpt>
      <trkpt lat="43.60092" lon="6.85525">
        <ele>183</ele>
        <time>2012-02-26T10:53:18Z</time>
      </trkpt>
      <trkpt lat="43.60096" lon="6.85521">
        <ele>184</ele>
        <time>2012-02-26T10:53:23Z</time>
      </trkpt>
      <trkpt lat="43.60099" lon="6.85515">
        <ele>185</ele>
        <time>2012-02-26T10:53:29Z</time>
      </trkpt>
      <trkpt lat="43.60104" lon="6.8551">
        <ele>186</ele>
        <time>2012-02-26T10:53:34Z</time>
      </trkpt>
      <trkpt lat="43.6011" lon="6.85506">
        <ele>187</ele>
        <time>2012-02-26T10:53:40Z</time>
      </trkpt>
      <trkpt lat="43.60115" lon="6.855">
        <ele>187</ele>
        <time>2012-02-26T10:53:45Z</time>
      </trkpt>
      <trkpt lat="43.60118" lon="6.85493">
        <ele>187</ele>
        <time>2012-02-26T10:53:51Z</time>
      </trkpt>
      <trkpt lat="43.6012" lon="6.85486">
        <ele>188</ele>
        <time>2012-02-26T10:53:57Z</time>
      </trkpt>
      <trkpt lat="43.60121" lon="6.85478">
        <ele>188</ele>
        <time>2012-02-26T10:54:03Z</time>
      </trkpt>
      <trkpt lat="43.60123" lon="6.85472">
        <ele>188</ele>
        <time>2012-02-26T10:54:08Z</time>
      </trkpt>
      <trkpt lat="43.60127" lon="6.85466">
        <ele>188</ele>
        <time>2012-02-26T10:54:14Z</time>
      </trkpt>
      <trkpt lat="43.60133" lon="6.85462">
        <ele>191</ele>
        <time>2012-02-26T10:54:20Z</time>
      </trkpt>
      <trkpt lat="43.60138" lon="6.85459">
        <ele>193</ele>
        <time>2012-02-26T10:54:25Z</time>
      </trkpt>
      <trkpt lat="43.60144" lon="6.85456">
        <ele>195</ele>
        <time>2012-02-26T10:54:31Z</time>
      </trkpt>
      <trkpt lat="43.60148" lon="6.85452">
        <ele>197</ele>
        <time>2012-02-26T10:54:37Z</time>
      </trkpt>
      <trkpt lat="43.60153" lon="6.85448">
        <ele>197</ele>
        <time>2012-02-26T10:54:42Z</time>
      </trkpt>
      <trkpt lat="43.60157" lon="6.85444">
        <ele>199</ele>
        <time>2012-02-26T10:54:48Z</time>
      </trkpt>
      <trkpt lat="43.60162" lon="6.8544">
        <ele>200</ele>
        <time>2012-02-26T10:54:53Z</time>
      </trkpt>
      <trkpt lat="43.60166" lon="6.85434">
        <ele>200</ele>
        <time>2012-02-26T10:54:58Z</time>
      </trkpt>
      <trkpt lat="43.60171" lon="6.85429">
        <ele>200</ele>
        <time>2012-02-26T10:55:03Z</time>
      </trkpt>
      <trkpt lat="43.60172" lon="6.85427">
        <ele>200</ele>
        <time>2012-02-26T10:55:10Z</time>
      </trkpt>
      <trkpt lat="43.60175" lon="6.8542">
        <ele>200</ele>
        <time>2012-02-26T10:55:16Z</time>
      </trkpt>
      <trkpt lat="43.60176" lon="6.85413">
        <ele>201</ele>
        <time>2012-02-26T10:55:21Z</time>
      </trkpt>
      <trkpt lat="43.60175" lon="6.85407">
        <ele>201</ele>
        <time>2012-02-26T10:55:26Z</time>
      </trkpt>
      <trkpt lat="43.60172" lon="6.85399">
        <ele>201</ele>
        <time>2012-02-26T10:55:32Z</time>
      </trkpt>
      <trkpt lat="43.6017" lon="6.85393">
        <ele>202</ele>
        <time>2012-02-26T10:55:47Z</time>
      </trkpt>
      <trkpt lat="43.60167" lon="6.85387">
        <ele>204</ele>
        <time>2012-02-26T10:55:53Z</time>
      </trkpt>
      <trkpt lat="43.60163" lon="6.85383">
        <ele>205</ele>
        <time>2012-02-26T10:55:59Z</time>
      </trkpt>
      <trkpt lat="43.6016" lon="6.85381">
        <ele>206</ele>
        <time>2012-02-26T10:56:04Z</time>
      </trkpt>
      <trkpt lat="43.60159" lon="6.8538">
        <ele>207</ele>
        <time>2012-02-26T10:56:13Z</time>
      </trkpt>
      <trkpt lat="43.60155" lon="6.85377">
        <ele>207</ele>
        <time>2012-02-26T10:56:19Z</time>
      </trkpt>
      <trkpt lat="43.6015" lon="6.85372">
        <ele>208</ele>
        <time>2012-02-26T10:56:25Z</time>
      </trkpt>
      <trkpt lat="43.60145" lon="6.85368">
        <ele>210</ele>
        <time>2012-02-26T10:56:31Z</time>
      </trkpt>
      <trkpt lat="43.60142" lon="6.85365">
        <ele>212</ele>
        <time>2012-02-26T10:56:37Z</time>
      </trkpt>
      <trkpt lat="43.60138" lon="6.85361">
        <ele>213</ele>
        <time>2012-02-26T10:56:43Z</time>
      </trkpt>
      <trkpt lat="43.60136" lon="6.85359">
        <ele>214</ele>
        <time>2012-02-26T10:56:53Z</time>
      </trkpt>
      <trkpt lat="43.60133" lon="6.85354">
        <ele>214</ele>
        <time>2012-02-26T10:56:59Z</time>
      </trkpt>
      <trkpt lat="43.6013" lon="6.85351">
        <ele>214</ele>
        <time>2012-02-26T10:57:04Z</time>
      </trkpt>
      <trkpt lat="43.60126" lon="6.85346">
        <ele>214</ele>
        <time>2012-02-26T10:57:10Z</time>
      </trkpt>
      <trkpt lat="43.60122" lon="6.8534">
        <ele>214</ele>
        <time>2012-02-26T10:57:16Z</time>
      </trkpt>
      <trkpt lat="43.60119" lon="6.85336">
        <ele>215</ele>
        <time>2012-02-26T10:57:21Z</time>
      </trkpt>
      <trkpt lat="43.60116" lon="6.85332">
        <ele>216</ele>
        <time>2012-02-26T10:57:27Z</time>
      </trkpt>
      <trkpt lat="43.60112" lon="6.85327">
        <ele>217</ele>
        <time>2012-02-26T10:57:40Z</time>
      </trkpt>
      <trkpt lat="43.6011" lon="6.8532">
        <ele>217</ele>
        <time>2012-02-26T10:57:46Z</time>
      </trkpt>
      <trkpt lat="43.60108" lon="6.85314">
        <ele>217</ele>
        <time>2012-02-26T10:57:52Z</time>
      </trkpt>
      <trkpt lat="43.60106" lon="6.85307">
        <ele>218</ele>
        <time>2012-02-26T10:57:58Z</time>
      </trkpt>
      <trkpt lat="43.60106" lon="6.85301">
        <ele>220</ele>
        <time>2012-02-26T10:58:04Z</time>
      </trkpt>
      <trkpt lat="43.60106" lon="6.85293">
        <ele>222</ele>
        <time>2012-02-26T10:58:10Z</time>
      </trkpt>
      <trkpt lat="43.60107" lon="6.85286">
        <ele>224</ele>
        <time>2012-02-26T10:58:16Z</time>
      </trkpt>
      <trkpt lat="43.6011" lon="6.85279">
        <ele>225</ele>
        <time>2012-02-26T10:58:22Z</time>
      </trkpt>
      <trkpt lat="43.60112" lon="6.85272">
        <ele>226</ele>
        <time>2012-02-26T10:58:28Z</time>
      </trkpt>
      <trkpt lat="43.60113" lon="6.85264">
        <ele>227</ele>
        <time>2012-02-26T10:58:34Z</time>
      </trkpt>
      <trkpt lat="43.60114" lon="6.85258">
        <ele>228</ele>
        <time>2012-02-26T10:58:39Z</time>
      </trkpt>
      <trkpt lat="43.60116" lon="6.85251">
        <ele>228</ele>
        <time>2012-02-26T10:58:45Z</time>
      </trkpt>
      <trkpt lat="43.60114" lon="6.85246">
        <ele>228</ele>
        <time>2012-02-26T10:58:52Z</time>
      </trkpt>
      <trkpt lat="43.60111" lon="6.8525">
        <ele>228</ele>
        <time>2012-02-26T10:58:57Z</time>
      </trkpt>
      <trkpt lat="43.60109" lon="6.85256">
        <ele>229</ele>
        <time>2012-02-26T10:59:02Z</time>
      </trkpt>
      <trkpt lat="43.60106" lon="6.85263">
        <ele>231</ele>
        <time>2012-02-26T10:59:08Z</time>
      </trkpt>
      <trkpt lat="43.60104" lon="6.85267">
        <ele>232</ele>
        <time>2012-02-26T10:59:13Z</time>
      </trkpt>
      <trkpt lat="43.60099" lon="6.85273">
        <ele>232</ele>
        <time>2012-02-26T10:59:19Z</time>
      </trkpt>
      <trkpt lat="43.60094" lon="6.8528">
        <ele>232</ele>
        <time>2012-02-26T10:59:24Z</time>
      </trkpt>
      <trkpt lat="43.60089" lon="6.85287">
        <ele>232</ele>
        <time>2012-02-26T10:59:29Z</time>
      </trkpt>
      <trkpt lat="43.60083" lon="6.85294">
        <ele>232</ele>
        <time>2012-02-26T10:59:34Z</time>
      </trkpt>
      <trkpt lat="43.60078" lon="6.85302">
        <ele>232</ele>
        <time>2012-02-26T10:59:39Z</time>
      </trkpt>
      <trkpt lat="43.60071" lon="6.85308">
        <ele>233</ele>
        <time>2012-02-26T10:59:44Z</time>
      </trkpt>
      <trkpt lat="43.60064" lon="6.85316">
        <ele>234</ele>
        <time>2012-02-26T10:59:50Z</time>
      </trkpt>
      <trkpt lat="43.60058" lon="6.85324">
        <ele>235</ele>
        <time>2012-02-26T10:59:55Z</time>
      </trkpt>
      <trkpt lat="43.60051" lon="6.85333">
        <ele>236</ele>
        <time>2012-02-26T11:00:00Z</time>
      </trkpt>
      <trkpt lat="43.60043" lon="6.85342">
        <ele>236</ele>
        <time>2012-02-26T11:00:05Z</time>
      </trkpt>
      <trkpt lat="43.60033" lon="6.85351">
        <ele>237</ele>
        <time>2012-02-26T11:00:10Z</time>
      </trkpt>
      <trkpt lat="43.60026" lon="6.8536">
        <ele>237</ele>
        <time>2012-02-26T11:00:15Z</time>
      </trkpt>
      <trkpt lat="43.60018" lon="6.85371">
        <ele>238</ele>
        <time>2012-02-26T11:00:20Z</time>
      </trkpt>
      <trkpt lat="43.60009" lon="6.85379">
        <ele>239</ele>
        <time>2012-02-26T11:00:25Z</time>
      </trkpt>
      <trkpt lat="43.59999" lon="6.85385">
        <ele>240</ele>
        <time>2012-02-26T11:00:30Z</time>
      </trkpt>
      <trkpt lat="43.59989" lon="6.85391">
        <ele>241</ele>
        <time>2012-02-26T11:00:35Z</time>
      </trkpt>
      <trkpt lat="43.5998" lon="6.85396">
        <ele>242</ele>
        <time>2012-02-26T11:00:40Z</time>
      </trkpt>
      <trkpt lat="43.59973" lon="6.85405">
        <ele>243</ele>
        <time>2012-02-26T11:00:46Z</time>
      </trkpt>
      <trkpt lat="43.59966" lon="6.85412">
        <ele>244</ele>
        <time>2012-02-26T11:00:51Z</time>
      </trkpt>
      <trkpt lat="43.59958" lon="6.85419">
        <ele>245</ele>
        <time>2012-02-26T11:00:56Z</time>
      </trkpt>
      <trkpt lat="43.5995" lon="6.85426">
        <ele>245</ele>
        <time>2012-02-26T11:01:01Z</time>
      </trkpt>
      <trkpt lat="43.5994" lon="6.8543">
        <ele>246</ele>
        <time>2012-02-26T11:01:06Z</time>
      </trkpt>
      <trkpt lat="43.59931" lon="6.85434">
        <ele>247</ele>
        <time>2012-02-26T11:01:11Z</time>
      </trkpt>
      <trkpt lat="43.59922" lon="6.85433">
        <ele>248</ele>
        <time>2012-02-26T11:01:16Z</time>
      </trkpt>
      <trkpt lat="43.5991" lon="6.85433">
        <ele>250</ele>
        <time>2012-02-26T11:01:22Z</time>
      </trkpt>
      <trkpt lat="43.599" lon="6.85435">
        <ele>252</ele>
        <time>2012-02-26T11:01:27Z</time>
      </trkpt>
      <trkpt lat="43.59892" lon="6.8544">
        <ele>252</ele>
        <time>2012-02-26T11:01:32Z</time>
      </trkpt>
      <trkpt lat="43.59884" lon="6.85449">
        <ele>253</ele>
        <time>2012-02-26T11:01:37Z</time>
      </trkpt>
      <trkpt lat="43.59874" lon="6.85461">
        <ele>254</ele>
        <time>2012-02-26T11:01:43Z</time>
      </trkpt>
      <trkpt lat="43.59866" lon="6.85468">
        <ele>254</ele>
        <time>2012-02-26T11:01:48Z</time>
      </trkpt>
      <trkpt lat="43.59857" lon="6.85472">
        <ele>255</ele>
        <time>2012-02-26T11:01:53Z</time>
      </trkpt>
      <trkpt lat="43.59848" lon="6.85476">
        <ele>256</ele>
        <time>2012-02-26T11:01:58Z</time>
      </trkpt>
      <trkpt lat="43.5984" lon="6.85483">
        <ele>257</ele>
        <time>2012-02-26T11:02:03Z</time>
      </trkpt>
      <trkpt lat="43.59835" lon="6.85495">
        <ele>258</ele>
        <time>2012-02-26T11:02:08Z</time>
      </trkpt>
      <trkpt lat="43.59836" lon="6.85508">
        <ele>258</ele>
        <time>2012-02-26T11:02:13Z</time>
      </trkpt>
      <trkpt lat="43.59839" lon="6.8552">
        <ele>259</ele>
        <time>2012-02-26T11:02:18Z</time>
      </trkpt>
      <trkpt lat="43.59844" lon="6.85531">
        <ele>260</ele>
        <time>2012-02-26T11:02:23Z</time>
      </trkpt>
      <trkpt lat="43.59848" lon="6.85544">
        <ele>260</ele>
        <time>2012-02-26T11:02:28Z</time>
      </trkpt>
      <trkpt lat="43.59852" lon="6.85556">
        <ele>261</ele>
        <time>2012-02-26T11:02:33Z</time>
      </trkpt>
      <trkpt lat="43.59855" lon="6.85567">
        <ele>262</ele>
        <time>2012-02-26T11:02:38Z</time>
      </trkpt>
      <trkpt lat="43.59859" lon="6.85579">
        <ele>263</ele>
        <time>2012-02-26T11:02:43Z</time>
      </trkpt>
      <trkpt lat="43.59862" lon="6.85592">
        <ele>264</ele>
        <time>2012-02-26T11:02:48Z</time>
      </trkpt>
      <trkpt lat="43.59865" lon="6.85607">
        <ele>264</ele>
        <time>2012-02-26T11:02:54Z</time>
      </trkpt>
      <trkpt lat="43.59866" lon="6.8562">
        <ele>265</ele>
        <time>2012-02-26T11:02:59Z</time>
      </trkpt>
      <trkpt lat="43.59869" lon="6.85635">
        <ele>266</ele>
        <time>2012-02-26T11:03:05Z</time>
      </trkpt>
      <trkpt lat="43.59872" lon="6.85646">
        <ele>267</ele>
        <time>2012-02-26T11:03:10Z</time>
      </trkpt>
      <trkpt lat="43.59875" lon="6.85659">
        <ele>268</ele>
        <time>2012-02-26T11:03:16Z</time>
      </trkpt>
      <trkpt lat="43.59877" lon="6.85666">
        <ele>270</ele>
        <time>2012-02-26T11:03:39Z</time>
      </trkpt>
      <trkpt lat="43.59875" lon="6.85665">
        <ele>270</ele>
        <time>2012-02-26T11:03:47Z</time>
      </trkpt>
      <trkpt lat="43.59875" lon="6.85666">
        <ele>270</ele>
        <time>2012-02-26T11:03:56Z</time>
      </trkpt>
      <trkpt lat="43.59873" lon="6.85668">
        <ele>270</ele>
        <time>2012-02-26T11:04:03Z</time>
      </trkpt>
      <trkpt lat="43.59859" lon="6.85672">
        <ele>270</ele>
        <time>2012-02-26T11:04:09Z</time>
      </trkpt>
      <trkpt lat="43.59843" lon="6.8569">
        <ele>270</ele>
        <time>2012-02-26T11:04:17Z</time>
      </trkpt>
      <trkpt lat="43.59839" lon="6.85696">
        <ele>270</ele>
        <time>2012-02-26T11:04:24Z</time>
      </trkpt>
      <trkpt lat="43.59824" lon="6.85712">
        <ele>270</ele>
        <time>2012-02-26T11:04:30Z</time>
      </trkpt>
      <trkpt lat="43.59813" lon="6.85718">
        <ele>270</ele>
        <time>2012-02-26T11:04:37Z</time>
      </trkpt>
      <trkpt lat="43.59802" lon="6.85719">
        <ele>270</ele>
        <time>2012-02-26T11:04:42Z</time>
      </trkpt>
      <trkpt lat="43.59792" lon="6.85721">
        <ele>271</ele>
        <time>2012-02-26T11:04:47Z</time>
      </trkpt>
      <trkpt lat="43.59784" lon="6.8572">
        <ele>271</ele>
        <time>2012-02-26T11:04:52Z</time>
      </trkpt>
      <trkpt lat="43.59774" lon="6.85719">
        <ele>271</ele>
        <time>2012-02-26T11:04:57Z</time>
      </trkpt>
      <trkpt lat="43.59765" lon="6.85717">
        <ele>271</ele>
        <time>2012-02-26T11:05:02Z</time>
      </trkpt>
      <trkpt lat="43.59756" lon="6.85717">
        <ele>271</ele>
        <time>2012-02-26T11:05:07Z</time>
      </trkpt>
      <trkpt lat="43.59752" lon="6.85718">
        <ele>272</ele>
        <time>2012-02-26T11:05:14Z</time>
      </trkpt>
      <trkpt lat="43.59751" lon="6.8572">
        <ele>274</ele>
        <time>2012-02-26T11:05:21Z</time>
      </trkpt>
      <trkpt lat="43.59751" lon="6.85721">
        <ele>276</ele>
        <time>2012-02-26T11:05:27Z</time>
      </trkpt>
      <trkpt lat="43.59752" lon="6.85722">
        <ele>277</ele>
        <time>2012-02-26T11:05:38Z</time>
      </trkpt>
      <trkpt lat="43.59752" lon="6.85724">
        <ele>277</ele>
        <time>2012-02-26T11:05:44Z</time>
      </trkpt>
      <trkpt lat="43.59751" lon="6.85724">
        <ele>277</ele>
        <time>2012-02-26T11:05:50Z</time>
      </trkpt>
      <trkpt lat="43.59743" lon="6.85728">
        <ele>278</ele>
        <time>2012-02-26T11:05:55Z</time>
      </trkpt>
      <trkpt lat="43.59734" lon="6.85736">
        <ele>278</ele>
        <time>2012-02-26T11:06:00Z</time>
      </trkpt>
      <trkpt lat="43.59726" lon="6.85745">
        <ele>278</ele>
        <time>2012-02-26T11:06:05Z</time>
      </trkpt>
      <trkpt lat="43.59718" lon="6.85754">
        <ele>278</ele>
        <time>2012-02-26T11:06:10Z</time>
      </trkpt>
      <trkpt lat="43.59709" lon="6.85758">
        <ele>278</ele>
        <time>2012-02-26T11:06:15Z</time>
      </trkpt>
      <trkpt lat="43.59697" lon="6.85763">
        <ele>278</ele>
        <time>2012-02-26T11:06:21Z</time>
      </trkpt>
      <trkpt lat="43.59687" lon="6.85767">
        <ele>278</ele>
        <time>2012-02-26T11:06:26Z</time>
      </trkpt>
      <trkpt lat="43.59678" lon="6.85773">
        <ele>279</ele>
        <time>2012-02-26T11:06:31Z</time>
      </trkpt>
      <trkpt lat="43.59671" lon="6.85784">
        <ele>279</ele>
        <time>2012-02-26T11:06:36Z</time>
      </trkpt>
      <trkpt lat="43.59662" lon="6.85794">
        <ele>280</ele>
        <time>2012-02-26T11:06:41Z</time>
      </trkpt>
      <trkpt lat="43.59653" lon="6.85804">
        <ele>280</ele>
        <time>2012-02-26T11:06:46Z</time>
      </trkpt>
      <trkpt lat="43.59643" lon="6.85808">
        <ele>280</ele>
        <time>2012-02-26T11:06:51Z</time>
      </trkpt>
      <trkpt lat="43.59633" lon="6.85812">
        <ele>281</ele>
        <time>2012-02-26T11:06:56Z</time>
      </trkpt>
      <trkpt lat="43.59625" lon="6.85819">
        <ele>281</ele>
        <time>2012-02-26T11:07:01Z</time>
      </trkpt>
      <trkpt lat="43.59617" lon="6.85827">
        <ele>281</ele>
        <time>2012-02-26T11:07:06Z</time>
      </trkpt>
      <trkpt lat="43.59608" lon="6.85833">
        <ele>282</ele>
        <time>2012-02-26T11:07:11Z</time>
      </trkpt>
      <trkpt lat="43.59598" lon="6.85838">
        <ele>282</ele>
        <time>2012-02-26T11:07:16Z</time>
      </trkpt>
      <trkpt lat="43.59589" lon="6.85844">
        <ele>283</ele>
        <time>2012-02-26T11:07:21Z</time>
      </trkpt>
      <trkpt lat="43.5958" lon="6.85853">
        <ele>284</ele>
        <time>2012-02-26T11:07:26Z</time>
      </trkpt>
      <trkpt lat="43.59575" lon="6.85866">
        <ele>284</ele>
        <time>2012-02-26T11:07:31Z</time>
      </trkpt>
      <trkpt lat="43.59571" lon="6.85884">
        <ele>284</ele>
        <time>2012-02-26T11:07:36Z</time>
      </trkpt>
      <trkpt lat="43.59563" lon="6.85902">
        <ele>284</ele>
        <time>2012-02-26T11:07:41Z</time>
      </trkpt>
      <trkpt lat="43.59553" lon="6.85915">
        <ele>285</ele>
        <time>2012-02-26T11:07:46Z</time>
      </trkpt>
      <trkpt lat="43.59541" lon="6.85925">
        <ele>286</ele>
        <time>2012-02-26T11:07:51Z</time>
      </trkpt>
      <trkpt lat="43.59529" lon="6.85935">
        <ele>288</ele>
        <time>2012-02-26T11:07:56Z</time>
      </trkpt>
      <trkpt lat="43.59517" lon="6.85944">
        <ele>289</ele>
        <time>2012-02-26T11:08:01Z</time>
      </trkpt>
      <trkpt lat="43.59504" lon="6.85952">
        <ele>290</ele>
        <time>2012-02-26T11:08:06Z</time>
      </trkpt>
      <trkpt lat="43.59492" lon="6.8596">
        <ele>290</ele>
        <time>2012-02-26T11:08:11Z</time>
      </trkpt>
      <trkpt lat="43.5948" lon="6.85968">
        <ele>290</ele>
        <time>2012-02-26T11:08:16Z</time>
      </trkpt>
      <trkpt lat="43.59468" lon="6.85977">
        <ele>291</ele>
        <time>2012-02-26T11:08:21Z</time>
      </trkpt>
      <trkpt lat="43.59457" lon="6.85986">
        <ele>291</ele>
        <time>2012-02-26T11:08:26Z</time>
      </trkpt>
      <trkpt lat="43.59446" lon="6.85995">
        <ele>292</ele>
        <time>2012-02-26T11:08:31Z</time>
      </trkpt>
      <trkpt lat="43.59436" lon="6.86005">
        <ele>292</ele>
        <time>2012-02-26T11:08:36Z</time>
      </trkpt>
      <trkpt lat="43.59428" lon="6.86019">
        <ele>292</ele>
        <time>2012-02-26T11:08:41Z</time>
      </trkpt>
      <trkpt lat="43.59418" lon="6.86037">
        <ele>293</ele>
        <time>2012-02-26T11:08:46Z</time>
      </trkpt>
      <trkpt lat="43.59407" lon="6.8605">
        <ele>294</ele>
        <time>2012-02-26T11:08:51Z</time>
      </trkpt>
      <trkpt lat="43.59394" lon="6.86058">
        <ele>294</ele>
        <time>2012-02-26T11:08:56Z</time>
      </trkpt>
      <trkpt lat="43.59382" lon="6.86068">
        <ele>294</ele>
        <time>2012-02-26T11:09:01Z</time>
      </trkpt>
      <trkpt lat="43.59373" lon="6.86081">
        <ele>295</ele>
        <time>2012-02-26T11:09:06Z</time>
      </trkpt>
      <trkpt lat="43.59366" lon="6.86098">
        <ele>296</ele>
        <time>2012-02-26T11:09:11Z</time>
      </trkpt>
      <trkpt lat="43.59357" lon="6.86116">
        <ele>297</ele>
        <time>2012-02-26T11:09:16Z</time>
      </trkpt>
      <trkpt lat="43.59348" lon="6.8613">
        <ele>298</ele>
        <time>2012-02-26T11:09:21Z</time>
      </trkpt>
      <trkpt lat="43.59338" lon="6.86145">
        <ele>298</ele>
        <time>2012-02-26T11:09:26Z</time>
      </trkpt>
      <trkpt lat="43.59328" lon="6.86158">
        <ele>299</ele>
        <time>2012-02-26T11:09:31Z</time>
      </trkpt>
      <trkpt lat="43.59316" lon="6.86168">
        <ele>299</ele>
        <time>2012-02-26T11:09:36Z</time>
      </trkpt>
      <trkpt lat="43.59303" lon="6.86176">
        <ele>299</ele>
        <time>2012-02-26T11:09:41Z</time>
      </trkpt>
      <trkpt lat="43.5929" lon="6.86184">
        <ele>301</ele>
        <time>2012-02-26T11:09:46Z</time>
      </trkpt>
      <trkpt lat="43.59279" lon="6.86195">
        <ele>302</ele>
        <time>2012-02-26T11:09:51Z</time>
      </trkpt>
      <trkpt lat="43.5927" lon="6.86208">
        <ele>302</ele>
        <time>2012-02-26T11:09:56Z</time>
      </trkpt>
      <trkpt lat="43.59262" lon="6.86222">
        <ele>303</ele>
        <time>2012-02-26T11:10:01Z</time>
      </trkpt>
      <trkpt lat="43.59255" lon="6.86238">
        <ele>303</ele>
        <time>2012-02-26T11:10:06Z</time>
      </trkpt>
      <trkpt lat="43.59246" lon="6.86252">
        <ele>303</ele>
        <time>2012-02-26T11:10:11Z</time>
      </trkpt>
      <trkpt lat="43.59236" lon="6.86266">
        <ele>303</ele>
        <time>2012-02-26T11:10:16Z</time>
      </trkpt>
      <trkpt lat="43.59227" lon="6.8628">
        <ele>304</ele>
        <time>2012-02-26T11:10:21Z</time>
      </trkpt>
      <trkpt lat="43.59222" lon="6.86297">
        <ele>304</ele>
        <time>2012-02-26T11:10:26Z</time>
      </trkpt>
      <trkpt lat="43.59218" lon="6.86316">
        <ele>304</ele>
        <time>2012-02-26T11:10:31Z</time>
      </trkpt>
      <trkpt lat="43.59216" lon="6.86331">
        <ele>306</ele>
        <time>2012-02-26T11:10:36Z</time>
      </trkpt>
      <trkpt lat="43.59215" lon="6.86347">
        <ele>306</ele>
        <time>2012-02-26T11:10:41Z</time>
      </trkpt>
      <trkpt lat="43.59214" lon="6.86365">
        <ele>307</ele>
        <time>2012-02-26T11:10:46Z</time>
      </trkpt>
      <trkpt lat="43.59216" lon="6.86384">
        <ele>308</ele>
        <time>2012-02-26T11:10:51Z</time>
      </trkpt>
      <trkpt lat="43.59218" lon="6.86401">
        <ele>308</ele>
        <time>2012-02-26T11:10:56Z</time>
      </trkpt>
      <trkpt lat="43.59221" lon="6.86419">
        <ele>309</ele>
        <time>2012-02-26T11:11:01Z</time>
      </trkpt>
      <trkpt lat="43.59223" lon="6.86436">
        <ele>310</ele>
        <time>2012-02-26T11:11:06Z</time>
      </trkpt>
      <trkpt lat="43.59225" lon="6.86452">
        <ele>311</ele>
        <time>2012-02-26T11:11:11Z</time>
      </trkpt>
      <trkpt lat="43.59228" lon="6.86469">
        <ele>311</ele>
        <time>2012-02-26T11:11:16Z</time>
      </trkpt>
      <trkpt lat="43.5923" lon="6.86486">
        <ele>312</ele>
        <time>2012-02-26T11:11:21Z</time>
      </trkpt>
      <trkpt lat="43.59232" lon="6.86504">
        <ele>313</ele>
        <time>2012-02-26T11:11:26Z</time>
      </trkpt>
      <trkpt lat="43.59235" lon="6.86521">
        <ele>313</ele>
        <time>2012-02-26T11:11:31Z</time>
      </trkpt>
      <trkpt lat="43.59239" lon="6.86537">
        <ele>314</ele>
        <time>2012-02-26T11:11:36Z</time>
      </trkpt>
      <trkpt lat="43.59248" lon="6.86551">
        <ele>315</ele>
        <time>2012-02-26T11:11:41Z</time>
      </trkpt>
      <trkpt lat="43.59257" lon="6.86564">
        <ele>315</ele>
        <time>2012-02-26T11:11:46Z</time>
      </trkpt>
      <trkpt lat="43.59264" lon="6.86579">
        <ele>316</ele>
        <time>2012-02-26T11:11:51Z</time>
      </trkpt>
      <trkpt lat="43.5927" lon="6.86596">
        <ele>317</ele>
        <time>2012-02-26T11:11:56Z</time>
      </trkpt>
      <trkpt lat="43.59278" lon="6.86609">
        <ele>318</ele>
        <time>2012-02-26T11:12:01Z</time>
      </trkpt>
      <trkpt lat="43.5929" lon="6.86617">
        <ele>319</ele>
        <time>2012-02-26T11:12:06Z</time>
      </trkpt>
      <trkpt lat="43.59304" lon="6.86618">
        <ele>319</ele>
        <time>2012-02-26T11:12:11Z</time>
      </trkpt>
      <trkpt lat="43.59317" lon="6.86623">
        <ele>320</ele>
        <time>2012-02-26T11:12:16Z</time>
      </trkpt>
      <trkpt lat="43.59327" lon="6.86633">
        <ele>321</ele>
        <time>2012-02-26T11:12:21Z</time>
      </trkpt>
      <trkpt lat="43.59336" lon="6.86643">
        <ele>322</ele>
        <time>2012-02-26T11:12:26Z</time>
      </trkpt>
      <trkpt lat="43.59346" lon="6.86652">
        <ele>323</ele>
        <time>2012-02-26T11:12:31Z</time>
      </trkpt>
      <trkpt lat="43.59357" lon="6.86659">
        <ele>323</ele>
        <time>2012-02-26T11:12:36Z</time>
      </trkpt>
      <trkpt lat="43.5937" lon="6.86666">
        <ele>324</ele>
        <time>2012-02-26T11:12:41Z</time>
      </trkpt>
      <trkpt lat="43.59383" lon="6.86675">
        <ele>324</ele>
        <time>2012-02-26T11:12:46Z</time>
      </trkpt>
      <trkpt lat="43.59392" lon="6.86689">
        <ele>325</ele>
        <time>2012-02-26T11:12:51Z</time>
      </trkpt>
      <trkpt lat="43.59393" lon="6.86708">
        <ele>326</ele>
        <time>2012-02-26T11:12:56Z</time>
      </trkpt>
      <trkpt lat="43.59386" lon="6.86723">
        <ele>327</ele>
        <time>2012-02-26T11:13:01Z</time>
      </trkpt>
      <trkpt lat="43.59377" lon="6.86734">
        <ele>328</ele>
        <time>2012-02-26T11:13:06Z</time>
      </trkpt>
      <trkpt lat="43.59367" lon="6.86744">
        <ele>328</ele>
        <time>2012-02-26T11:13:11Z</time>
      </trkpt>
      <trkpt lat="43.59358" lon="6.86758">
        <ele>329</ele>
        <time>2012-02-26T11:13:16Z</time>
      </trkpt>
      <trkpt lat="43.59353" lon="6.86775">
        <ele>330</ele>
        <time>2012-02-26T11:13:21Z</time>
      </trkpt>
      <trkpt lat="43.59351" lon="6.86792">
        <ele>331</ele>
        <time>2012-02-26T11:13:26Z</time>
      </trkpt>
      <trkpt lat="43.59349" lon="6.86808">
        <ele>331</ele>
        <time>2012-02-26T11:13:31Z</time>
      </trkpt>
      <trkpt lat="43.59349" lon="6.86825">
        <ele>331</ele>
        <time>2012-02-26T11:13:36Z</time>
      </trkpt>
      <trkpt lat="43.59349" lon="6.86843">
        <ele>331</ele>
        <time>2012-02-26T11:13:41Z</time>
      </trkpt>
      <trkpt lat="43.59347" lon="6.86863">
        <ele>333</ele>
        <time>2012-02-26T11:13:46Z</time>
      </trkpt>
      <trkpt lat="43.59342" lon="6.86881">
        <ele>334</ele>
        <time>2012-02-26T11:13:51Z</time>
      </trkpt>
      <trkpt lat="43.59343" lon="6.86898">
        <ele>334</ele>
        <time>2012-02-26T11:13:56Z</time>
      </trkpt>
      <trkpt lat="43.59351" lon="6.86913">
        <ele>334</ele>
        <time>2012-02-26T11:14:01Z</time>
      </trkpt>
      <trkpt lat="43.59362" lon="6.86926">
        <ele>335</ele>
        <time>2012-02-26T11:14:06Z</time>
      </trkpt>
      <trkpt lat="43.5937" lon="6.86941">
        <ele>335</ele>
        <time>2012-02-26T11:14:11Z</time>
      </trkpt>
      <trkpt lat="43.59375" lon="6.86959">
        <ele>336</ele>
        <time>2012-02-26T11:14:16Z</time>
      </trkpt>
      <trkpt lat="43.59379" lon="6.86978">
        <ele>337</ele>
        <time>2012-02-26T11:14:21Z</time>
      </trkpt>
      <trkpt lat="43.59378" lon="6.86999">
        <ele>338</ele>
        <time>2012-02-26T11:14:26Z</time>
      </trkpt>
      <trkpt lat="43.59368" lon="6.87015">
        <ele>338</ele>
        <time>2012-02-26T11:14:31Z</time>
      </trkpt>
      <trkpt lat="43.59355" lon="6.87024">
        <ele>339</ele>
        <time>2012-02-26T11:14:36Z</time>
      </trkpt>
      <trkpt lat="43.59342" lon="6.87031">
        <ele>340</ele>
        <time>2012-02-26T11:14:41Z</time>
      </trkpt>
      <trkpt lat="43.59329" lon="6.87038">
        <ele>341</ele>
        <time>2012-02-26T11:14:46Z</time>
      </trkpt>
      <trkpt lat="43.59317" lon="6.87047">
        <ele>341</ele>
        <time>2012-02-26T11:14:51Z</time>
      </trkpt>
      <trkpt lat="43.59307" lon="6.87058">
        <ele>341</ele>
        <time>2012-02-26T11:14:56Z</time>
      </trkpt>
      <trkpt lat="43.59299" lon="6.87075">
        <ele>342</ele>
        <time>2012-02-26T11:15:01Z</time>
      </trkpt>
      <trkpt lat="43.59297" lon="6.87093">
        <ele>344</ele>
        <time>2012-02-26T11:15:06Z</time>
      </trkpt>
      <trkpt lat="43.59296" lon="6.87113">
        <ele>344</ele>
        <time>2012-02-26T11:15:11Z</time>
      </trkpt>
      <trkpt lat="43.59295" lon="6.87134">
        <ele>345</ele>
        <time>2012-02-26T11:15:16Z</time>
      </trkpt>
      <trkpt lat="43.59294" lon="6.87155">
        <ele>346</ele>
        <time>2012-02-26T11:15:21Z</time>
      </trkpt>
      <trkpt lat="43.59293" lon="6.87176">
        <ele>347</ele>
        <time>2012-02-26T11:15:26Z</time>
      </trkpt>
      <trkpt lat="43.59288" lon="6.87196">
        <ele>349</ele>
        <time>2012-02-26T11:15:31Z</time>
      </trkpt>
      <trkpt lat="43.59278" lon="6.87212">
        <ele>350</ele>
        <time>2012-02-26T11:15:36Z</time>
      </trkpt>
      <trkpt lat="43.59267" lon="6.87224">
        <ele>351</ele>
        <time>2012-02-26T11:15:41Z</time>
      </trkpt>
      <trkpt lat="43.59255" lon="6.87234">
        <ele>351</ele>
        <time>2012-02-26T11:15:46Z</time>
      </trkpt>
      <trkpt lat="43.59242" lon="6.87241">
        <ele>352</ele>
        <time>2012-02-26T11:15:51Z</time>
      </trkpt>
      <trkpt lat="43.59228" lon="6.87247">
        <ele>352</ele>
        <time>2012-02-26T11:15:56Z</time>
      </trkpt>
      <trkpt lat="43.59214" lon="6.87249">
        <ele>353</ele>
        <time>2012-02-26T11:16:01Z</time>
      </trkpt>
      <trkpt lat="43.592" lon="6.87252">
        <ele>354</ele>
        <time>2012-02-26T11:16:06Z</time>
      </trkpt>
      <trkpt lat="43.59187" lon="6.87259">
        <ele>355</ele>
        <time>2012-02-26T11:16:11Z</time>
      </trkpt>
      <trkpt lat="43.59175" lon="6.8727">
        <ele>356</ele>
        <time>2012-02-26T11:16:16Z</time>
      </trkpt>
      <trkpt lat="43.59164" lon="6.87281">
        <ele>357</ele>
        <time>2012-02-26T11:16:21Z</time>
      </trkpt>
      <trkpt lat="43.59155" lon="6.87294">
        <ele>358</ele>
        <time>2012-02-26T11:16:26Z</time>
      </trkpt>
      <trkpt lat="43.5915" lon="6.8731">
        <ele>358</ele>
        <time>2012-02-26T11:16:31Z</time>
      </trkpt>
      <trkpt lat="43.59145" lon="6.87328">
        <ele>360</ele>
        <time>2012-02-26T11:16:36Z</time>
      </trkpt>
      <trkpt lat="43.5914" lon="6.87345">
        <ele>360</ele>
        <time>2012-02-26T11:16:41Z</time>
      </trkpt>
      <trkpt lat="43.59134" lon="6.87363">
        <ele>360</ele>
        <time>2012-02-26T11:16:46Z</time>
      </trkpt>
      <trkpt lat="43.59128" lon="6.87381">
        <ele>360</ele>
        <time>2012-02-26T11:16:51Z</time>
      </trkpt>
      <trkpt lat="43.59125" lon="6.874">
        <ele>361</ele>
        <time>2012-02-26T11:16:56Z</time>
      </trkpt>
      <trkpt lat="43.59123" lon="6.87418">
        <ele>361</ele>
        <time>2012-02-26T11:17:01Z</time>
      </trkpt>
      <trkpt lat="43.59122" lon="6.87438">
        <ele>361</ele>
        <time>2012-02-26T11:17:06Z</time>
      </trkpt>
      <trkpt lat="43.5912" lon="6.87458">
        <ele>363</ele>
        <time>2012-02-26T11:17:11Z</time>
      </trkpt>
      <trkpt lat="43.59117" lon="6.87477">
        <ele>364</ele>
        <time>2012-02-26T11:17:16Z</time>
      </trkpt>
      <trkpt lat="43.59114" lon="6.87494">
        <ele>365</ele>
        <time>2012-02-26T11:17:21Z</time>
      </trkpt>
      <trkpt lat="43.5911" lon="6.87505">
        <ele>366</ele>
        <time>2012-02-26T11:17:27Z</time>
      </trkpt>
      <trkpt lat="43.59109" lon="6.87507">
        <ele>368</ele>
        <time>2012-02-26T11:17:41Z</time>
      </trkpt>
      <trkpt lat="43.59108" lon="6.87507">
        <ele>368</ele>
        <time>2012-02-26T11:18:02Z</time>
      </trkpt>
      <trkpt lat="43.59102" lon="6.87511">
        <ele>368</ele>
        <time>2012-02-26T11:18:07Z</time>
      </trkpt>
      <trkpt lat="43.59095" lon="6.87519">
        <ele>368</ele>
        <time>2012-02-26T11:18:12Z</time>
      </trkpt>
      <trkpt lat="43.59086" lon="6.87528">
        <ele>368</ele>
        <time>2012-02-26T11:18:17Z</time>
      </trkpt>
      <trkpt lat="43.59077" lon="6.87535">
        <ele>369</ele>
        <time>2012-02-26T11:18:22Z</time>
      </trkpt>
      <trkpt lat="43.59067" lon="6.87544">
        <ele>369</ele>
        <time>2012-02-26T11:18:27Z</time>
      </trkpt>
      <trkpt lat="43.59059" lon="6.87554">
        <ele>370</ele>
        <time>2012-02-26T11:18:32Z</time>
      </trkpt>
      <trkpt lat="43.59049" lon="6.87564">
        <ele>370</ele>
        <time>2012-02-26T11:18:37Z</time>
      </trkpt>
      <trkpt lat="43.59039" lon="6.87579">
        <ele>370</ele>
        <time>2012-02-26T11:18:42Z</time>
      </trkpt>
      <trkpt lat="43.59029" lon="6.87592">
        <ele>371</ele>
        <time>2012-02-26T11:18:47Z</time>
      </trkpt>
      <trkpt lat="43.5902" lon="6.87602">
        <ele>371</ele>
        <time>2012-02-26T11:18:52Z</time>
      </trkpt>
      <trkpt lat="43.5901" lon="6.87615">
        <ele>371</ele>
        <time>2012-02-26T11:18:57Z</time>
      </trkpt>
      <trkpt lat="43.58997" lon="6.8763">
        <ele>371</ele>
        <time>2012-02-26T11:19:02Z</time>
      </trkpt>
      <trkpt lat="43.58984" lon="6.87645">
        <ele>371</ele>
        <time>2012-02-26T11:19:07Z</time>
      </trkpt>
      <trkpt lat="43.58967" lon="6.87663">
        <ele>371</ele>
        <time>2012-02-26T11:19:12Z</time>
      </trkpt>
      <trkpt lat="43.58955" lon="6.87688">
        <ele>371</ele>
        <time>2012-02-26T11:19:17Z</time>
      </trkpt>
      <trkpt lat="43.58946" lon="6.87728">
        <ele>371</ele>
        <time>2012-02-26T11:19:22Z</time>
      </trkpt>
      <trkpt lat="43.58928" lon="6.87771">
        <ele>371</ele>
        <time>2012-02-26T11:19:27Z</time>
      </trkpt>
      <trkpt lat="43.58897" lon="6.87806">
        <ele>369</ele>
        <time>2012-02-26T11:19:32Z</time>
      </trkpt>
      <trkpt lat="43.58874" lon="6.87844">
        <ele>366</ele>
        <time>2012-02-26T11:19:37Z</time>
      </trkpt>
      <trkpt lat="43.58885" lon="6.8789">
        <ele>363</ele>
        <time>2012-02-26T11:19:42Z</time>
      </trkpt>
      <trkpt lat="43.58904" lon="6.87937">
        <ele>360</ele>
        <time>2012-02-26T11:19:47Z</time>
      </trkpt>
      <trkpt lat="43.58895" lon="6.8798">
        <ele>357</ele>
        <time>2012-02-26T11:19:52Z</time>
      </trkpt>
      <trkpt lat="43.58865" lon="6.88017">
        <ele>354</ele>
        <time>2012-02-26T11:19:57Z</time>
      </trkpt>
      <trkpt lat="43.5883" lon="6.88041">
        <ele>351</ele>
        <time>2012-02-26T11:20:02Z</time>
      </trkpt>
      <trkpt lat="43.58789" lon="6.88069">
        <ele>348</ele>
        <time>2012-02-26T11:20:07Z</time>
      </trkpt>
      <trkpt lat="43.5875" lon="6.88097">
        <ele>343</ele>
        <time>2012-02-26T11:20:12Z</time>
      </trkpt>
      <trkpt lat="43.58728" lon="6.88128">
        <ele>340</ele>
        <time>2012-02-26T11:20:17Z</time>
      </trkpt>
      <trkpt lat="43.58735" lon="6.8818">
        <ele>337</ele>
        <time>2012-02-26T11:20:22Z</time>
      </trkpt>
      <trkpt lat="43.58758" lon="6.88233">
        <ele>334</ele>
        <time>2012-02-26T11:20:27Z</time>
      </trkpt>
      <trkpt lat="43.58791" lon="6.8827">
        <ele>330</ele>
        <time>2012-02-26T11:20:32Z</time>
      </trkpt>
      <trkpt lat="43.58807" lon="6.88314">
        <ele>327</ele>
        <time>2012-02-26T11:20:37Z</time>
      </trkpt>
      <trkpt lat="43.58791" lon="6.88357">
        <ele>323</ele>
        <time>2012-02-26T11:20:42Z</time>
      </trkpt>
      <trkpt lat="43.58772" lon="6.88407">
        <ele>321</ele>
        <time>2012-02-26T11:20:47Z</time>
      </trkpt>
      <trkpt lat="43.58743" lon="6.88448">
        <ele>317</ele>
        <time>2012-02-26T11:20:52Z</time>
      </trkpt>
      <trkpt lat="43.58706" lon="6.88477">
        <ele>314</ele>
        <time>2012-02-26T11:20:57Z</time>
      </trkpt>
      <trkpt lat="43.58666" lon="6.88487">
        <ele>312</ele>
        <time>2012-02-26T11:21:02Z</time>
      </trkpt>
      <trkpt lat="43.58632" lon="6.88521">
        <ele>311</ele>
        <time>2012-02-26T11:21:07Z</time>
      </trkpt>
      <trkpt lat="43.58609" lon="6.88569">
        <ele>308</ele>
        <time>2012-02-26T11:21:12Z</time>
      </trkpt>
      <trkpt lat="43.58575" lon="6.88597">
        <ele>306</ele>
        <time>2012-02-26T11:21:17Z</time>
      </trkpt>
      <trkpt lat="43.58535" lon="6.88618">
        <ele>304</ele>
        <time>2012-02-26T11:21:22Z</time>
      </trkpt>
      <trkpt lat="43.58492" lon="6.88631">
        <ele>301</ele>
        <time>2012-02-26T11:21:27Z</time>
      </trkpt>
      <trkpt lat="43.58464" lon="6.88648">
        <ele>299</ele>
        <time>2012-02-26T11:21:32Z</time>
      </trkpt>
      <trkpt lat="43.58466" lon="6.88687">
        <ele>296</ele>
        <time>2012-02-26T11:21:37Z</time>
      </trkpt>
      <trkpt lat="43.58489" lon="6.88713">
        <ele>295</ele>
        <time>2012-02-26T11:21:42Z</time>
      </trkpt>
      <trkpt lat="43.58498" lon="6.8875">
        <ele>295</ele>
        <time>2012-02-26T11:21:47Z</time>
      </trkpt>
      <trkpt lat="43.58489" lon="6.88785">
        <ele>295</ele>
        <time>2012-02-26T11:21:52Z</time>
      </trkpt>
      <trkpt lat="43.58481" lon="6.88818">
        <ele>295</ele>
        <time>2012-02-26T11:21:57Z</time>
      </trkpt>
      <trkpt lat="43.58474" lon="6.88852">
        <ele>295</ele>
        <time>2012-02-26T11:22:02Z</time>
      </trkpt>
      <trkpt lat="43.58475" lon="6.88886">
        <ele>295</ele>
        <time>2012-02-26T11:22:07Z</time>
      </trkpt>
      <trkpt lat="43.58489" lon="6.88914">
        <ele>295</ele>
        <time>2012-02-26T11:22:12Z</time>
      </trkpt>
      <trkpt lat="43.58505" lon="6.8894">
        <ele>295</ele>
        <time>2012-02-26T11:22:17Z</time>
      </trkpt>
      <trkpt lat="43.585" lon="6.88971">
        <ele>295</ele>
        <time>2012-02-26T11:22:22Z</time>
      </trkpt>
      <trkpt lat="43.58494" lon="6.89005">
        <ele>294</ele>
        <time>2012-02-26T11:22:27Z</time>
      </trkpt>
      <trkpt lat="43.58501" lon="6.89042">
        <ele>294</ele>
        <time>2012-02-26T11:22:32Z</time>
      </trkpt>
      <trkpt lat="43.58521" lon="6.89075">
        <ele>293</ele>
        <time>2012-02-26T11:22:37Z</time>
      </trkpt>
      <trkpt lat="43.58544" lon="6.89105">
        <ele>293</ele>
        <time>2012-02-26T11:22:42Z</time>
      </trkpt>
      <trkpt lat="43.58565" lon="6.89138">
        <ele>292</ele>
        <time>2012-02-26T11:22:47Z</time>
      </trkpt>
      <trkpt lat="43.58571" lon="6.89182">
        <ele>289</ele>
        <time>2012-02-26T11:22:52Z</time>
      </trkpt>
      <trkpt lat="43.58585" lon="6.89221">
        <ele>288</ele>
        <time>2012-02-26T11:22:57Z</time>
      </trkpt>
      <trkpt lat="43.58586" lon="6.89262">
        <ele>287</ele>
        <time>2012-02-26T11:23:02Z</time>
      </trkpt>
      <trkpt lat="43.58563" lon="6.89283">
        <ele>284</ele>
        <time>2012-02-26T11:23:07Z</time>
      </trkpt>
      <trkpt lat="43.58535" lon="6.89301">
        <ele>281</ele>
        <time>2012-02-26T11:23:12Z</time>
      </trkpt>
      <trkpt lat="43.5851" lon="6.89322">
        <ele>281</ele>
        <time>2012-02-26T11:23:17Z</time>
      </trkpt>
      <trkpt lat="43.58519" lon="6.89358">
        <ele>281</ele>
        <time>2012-02-26T11:23:22Z</time>
      </trkpt>
      <trkpt lat="43.58548" lon="6.89376">
        <ele>280</ele>
        <time>2012-02-26T11:23:27Z</time>
      </trkpt>
      <trkpt lat="43.58577" lon="6.89402">
        <ele>280</ele>
        <time>2012-02-26T11:23:32Z</time>
      </trkpt>
      <trkpt lat="43.58591" lon="6.89443">
        <ele>278</ele>
        <time>2012-02-26T11:23:37Z</time>
      </trkpt>
      <trkpt lat="43.58575" lon="6.89485">
        <ele>277</ele>
        <time>2012-02-26T11:23:42Z</time>
      </trkpt>
      <trkpt lat="43.58562" lon="6.89528">
        <ele>276</ele>
        <time>2012-02-26T11:23:47Z</time>
      </trkpt>
      <trkpt lat="43.58538" lon="6.8956">
        <ele>275</ele>
        <time>2012-02-26T11:23:52Z</time>
      </trkpt>
      <trkpt lat="43.58537" lon="6.89598">
        <ele>274</ele>
        <time>2012-02-26T11:23:57Z</time>
      </trkpt>
      <trkpt lat="43.58546" lon="6.89638">
        <ele>273</ele>
        <time>2012-02-26T11:24:02Z</time>
      </trkpt>
      <trkpt lat="43.58532" lon="6.89679">
        <ele>272</ele>
        <time>2012-02-26T11:24:07Z</time>
      </trkpt>
      <trkpt lat="43.58526" lon="6.89725">
        <ele>271</ele>
        <time>2012-02-26T11:24:12Z</time>
      </trkpt>
      <trkpt lat="43.58518" lon="6.89773">
        <ele>270</ele>
        <time>2012-02-26T11:24:17Z</time>
      </trkpt>
      <trkpt lat="43.58506" lon="6.89819">
        <ele>269</ele>
        <time>2012-02-26T11:24:22Z</time>
      </trkpt>
      <trkpt lat="43.58526" lon="6.89851">
        <ele>268</ele>
        <time>2012-02-26T11:24:27Z</time>
      </trkpt>
      <trkpt lat="43.58546" lon="6.89849">
        <ele>267</ele>
        <time>2012-02-26T11:24:32Z</time>
      </trkpt>
      <trkpt lat="43.58558" lon="6.8984">
        <ele>267</ele>
        <time>2012-02-26T11:24:37Z</time>
      </trkpt>
      <trkpt lat="43.58566" lon="6.89826">
        <ele>267</ele>
        <time>2012-02-26T11:24:42Z</time>
      </trkpt>
      <trkpt lat="43.58575" lon="6.89814">
        <ele>267</ele>
        <time>2012-02-26T11:24:47Z</time>
      </trkpt>
      <trkpt lat="43.58586" lon="6.89806">
        <ele>267</ele>
        <time>2012-02-26T11:24:52Z</time>
      </trkpt>
      <trkpt lat="43.58597" lon="6.89798">
        <ele>267</ele>
        <time>2012-02-26T11:24:57Z</time>
      </trkpt>
      <trkpt lat="43.58603" lon="6.89785">
        <ele>267</ele>
        <time>2012-02-26T11:25:02Z</time>
      </trkpt>
      <trkpt lat="43.58606" lon="6.89769">
        <ele>268</ele>
        <time>2012-02-26T11:25:07Z</time>
      </trkpt>
      <trkpt lat="43.58612" lon="6.89754">
        <ele>269</ele>
        <time>2012-02-26T11:25:12Z</time>
      </trkpt>
      <trkpt lat="43.5862" lon="6.89743">
        <ele>269</ele>
        <time>2012-02-26T11:25:17Z</time>
      </trkpt>
      <trkpt lat="43.58629" lon="6.89734">
        <ele>270</ele>
        <time>2012-02-26T11:25:22Z</time>
      </trkpt>
      <trkpt lat="43.58641" lon="6.89726">
        <ele>270</ele>
        <time>2012-02-26T11:25:27Z</time>
      </trkpt>
      <trkpt lat="43.58651" lon="6.89715">
        <ele>272</ele>
        <time>2012-02-26T11:25:32Z</time>
      </trkpt>
      <trkpt lat="43.58661" lon="6.89706">
        <ele>273</ele>
        <time>2012-02-26T11:25:37Z</time>
      </trkpt>
      <trkpt lat="43.5867" lon="6.89696">
        <ele>274</ele>
        <time>2012-02-26T11:25:42Z</time>
      </trkpt>
      <trkpt lat="43.58677" lon="6.89683">
        <ele>274</ele>
        <time>2012-02-26T11:25:47Z</time>
      </trkpt>
      <trkpt lat="43.58685" lon="6.89669">
        <ele>274</ele>
        <time>2012-02-26T11:25:52Z</time>
      </trkpt>
      <trkpt lat="43.58693" lon="6.89657">
        <ele>275</ele>
        <time>2012-02-26T11:25:57Z</time>
      </trkpt>
      <trkpt lat="43.58703" lon="6.89647">
        <ele>275</ele>
        <time>2012-02-26T11:26:02Z</time>
      </trkpt>
      <trkpt lat="43.58714" lon="6.89639">
        <ele>276</ele>
        <time>2012-02-26T11:26:07Z</time>
      </trkpt>
      <trkpt lat="43.58726" lon="6.89636">
        <ele>276</ele>
        <time>2012-02-26T11:26:12Z</time>
      </trkpt>
      <trkpt lat="43.58737" lon="6.89643">
        <ele>277</ele>
        <time>2012-02-26T11:26:17Z</time>
      </trkpt>
      <trkpt lat="43.58746" lon="6.89654">
        <ele>278</ele>
        <time>2012-02-26T11:26:22Z</time>
      </trkpt>
      <trkpt lat="43.58756" lon="6.89667">
        <ele>278</ele>
        <time>2012-02-26T11:26:27Z</time>
      </trkpt>
      <trkpt lat="43.58768" lon="6.8967">
        <ele>279</ele>
        <time>2012-02-26T11:26:32Z</time>
      </trkpt>
      <trkpt lat="43.58785" lon="6.89668">
        <ele>279</ele>
        <time>2012-02-26T11:26:37Z</time>
      </trkpt>
      <trkpt lat="43.58801" lon="6.89666">
        <ele>280</ele>
        <time>2012-02-26T11:26:42Z</time>
      </trkpt>
      <trkpt lat="43.58816" lon="6.89659">
        <ele>281</ele>
        <time>2012-02-26T11:26:47Z</time>
      </trkpt>
      <trkpt lat="43.58832" lon="6.89657">
        <ele>281</ele>
        <time>2012-02-26T11:26:52Z</time>
      </trkpt>
      <trkpt lat="43.58847" lon="6.89666">
        <ele>281</ele>
        <time>2012-02-26T11:26:57Z</time>
      </trkpt>
      <trkpt lat="43.5886" lon="6.8968">
        <ele>282</ele>
        <time>2012-02-26T11:27:02Z</time>
      </trkpt>
      <trkpt lat="43.58868" lon="6.89698">
        <ele>283</ele>
        <time>2012-02-26T11:27:07Z</time>
      </trkpt>
      <trkpt lat="43.58865" lon="6.89722">
        <ele>283</ele>
        <time>2012-02-26T11:27:12Z</time>
      </trkpt>
      <trkpt lat="43.58853" lon="6.8975">
        <ele>283</ele>
        <time>2012-02-26T11:27:17Z</time>
      </trkpt>
      <trkpt lat="43.58839" lon="6.89788">
        <ele>283</ele>
        <time>2012-02-26T11:27:22Z</time>
      </trkpt>
      <trkpt lat="43.58817" lon="6.89826">
        <ele>283</ele>
        <time>2012-02-26T11:27:27Z</time>
      </trkpt>
      <trkpt lat="43.58804" lon="6.89875">
        <ele>281</ele>
        <time>2012-02-26T11:27:32Z</time>
      </trkpt>
      <trkpt lat="43.58794" lon="6.89931">
        <ele>279</ele>
        <time>2012-02-26T11:27:37Z</time>
      </trkpt>
      <trkpt lat="43.58781" lon="6.89973">
        <ele>276</ele>
        <time>2012-02-26T11:27:42Z</time>
      </trkpt>
      <trkpt lat="43.58773" lon="6.90015">
        <ele>273</ele>
        <time>2012-02-26T11:27:47Z</time>
      </trkpt>
      <trkpt lat="43.58788" lon="6.90061">
        <ele>269</ele>
        <time>2012-02-26T11:27:52Z</time>
      </trkpt>
      <trkpt lat="43.58802" lon="6.90107">
        <ele>267</ele>
        <time>2012-02-26T11:27:57Z</time>
      </trkpt>
      <trkpt lat="43.58801" lon="6.90157">
        <ele>265</ele>
        <time>2012-02-26T11:28:03Z</time>
      </trkpt>
      <trkpt lat="43.58826" lon="6.9019">
        <ele>262</ele>
        <time>2012-02-26T11:28:08Z</time>
      </trkpt>
      <trkpt lat="43.58861" lon="6.90218">
        <ele>260</ele>
        <time>2012-02-26T11:28:13Z</time>
      </trkpt>
      <trkpt lat="43.58894" lon="6.90236">
        <ele>258</ele>
        <time>2012-02-26T11:28:18Z</time>
      </trkpt>
      <trkpt lat="43.58913" lon="6.90204">
        <ele>255</ele>
        <time>2012-02-26T11:28:23Z</time>
      </trkpt>
      <trkpt lat="43.58939" lon="6.90177">
        <ele>252</ele>
        <time>2012-02-26T11:28:28Z</time>
      </trkpt>
      <trkpt lat="43.58974" lon="6.902">
        <ele>250</ele>
        <time>2012-02-26T11:28:33Z</time>
      </trkpt>
      <trkpt lat="43.59009" lon="6.90233">
        <ele>247</ele>
        <time>2012-02-26T11:28:38Z</time>
      </trkpt>
      <trkpt lat="43.59028" lon="6.90277">
        <ele>244</ele>
        <time>2012-02-26T11:28:43Z</time>
      </trkpt>
      <trkpt lat="43.59042" lon="6.90305">
        <ele>241</ele>
        <time>2012-02-26T11:28:48Z</time>
      </trkpt>
      <trkpt lat="43.59076" lon="6.90305">
        <ele>240</ele>
        <time>2012-02-26T11:28:53Z</time>
      </trkpt>
      <trkpt lat="43.59112" lon="6.90315">
        <ele>238</ele>
        <time>2012-02-26T11:28:58Z</time>
      </trkpt>
      <trkpt lat="43.59148" lon="6.90329">
        <ele>236</ele>
        <time>2012-02-26T11:29:03Z</time>
      </trkpt>
      <trkpt lat="43.59172" lon="6.9037">
        <ele>233</ele>
        <time>2012-02-26T11:29:08Z</time>
      </trkpt>
      <trkpt lat="43.59206" lon="6.90392">
        <ele>230</ele>
        <time>2012-02-26T11:29:13Z</time>
      </trkpt>
      <trkpt lat="43.59235" lon="6.9043">
        <ele>227</ele>
        <time>2012-02-26T11:29:18Z</time>
      </trkpt>
      <trkpt lat="43.59266" lon="6.90472">
        <ele>224</ele>
        <time>2012-02-26T11:29:23Z</time>
      </trkpt>
      <trkpt lat="43.59294" lon="6.90513">
        <ele>221</ele>
        <time>2012-02-26T11:29:28Z</time>
      </trkpt>
      <trkpt lat="43.59283" lon="6.90548">
        <ele>219</ele>
        <time>2012-02-26T11:29:33Z</time>
      </trkpt>
      <trkpt lat="43.59251" lon="6.90565">
        <ele>217</ele>
        <time>2012-02-26T11:29:38Z</time>
      </trkpt>
      <trkpt lat="43.59214" lon="6.90583">
        <ele>214</ele>
        <time>2012-02-26T11:29:43Z</time>
      </trkpt>
      <trkpt lat="43.59176" lon="6.90604">
        <ele>212</ele>
        <time>2012-02-26T11:29:48Z</time>
      </trkpt>
      <trkpt lat="43.59135" lon="6.90615">
        <ele>210</ele>
        <time>2012-02-26T11:29:53Z</time>
      </trkpt>
      <trkpt lat="43.59097" lon="6.90627">
        <ele>207</ele>
        <time>2012-02-26T11:29:58Z</time>
      </trkpt>
      <trkpt lat="43.59063" lon="6.90632">
        <ele>205</ele>
        <time>2012-02-26T11:30:03Z</time>
      </trkpt>
      <trkpt lat="43.59036" lon="6.90661">
        <ele>202</ele>
        <time>2012-02-26T11:30:08Z</time>
      </trkpt>
      <trkpt lat="43.59003" lon="6.90643">
        <ele>200</ele>
        <time>2012-02-26T11:30:13Z</time>
      </trkpt>
      <trkpt lat="43.58986" lon="6.90595">
        <ele>196</ele>
        <time>2012-02-26T11:30:18Z</time>
      </trkpt>
      <trkpt lat="43.58966" lon="6.9056">
        <ele>193</ele>
        <time>2012-02-26T11:30:23Z</time>
      </trkpt>
      <trkpt lat="43.5894" lon="6.90575">
        <ele>192</ele>
        <time>2012-02-26T11:30:28Z</time>
      </trkpt>
      <trkpt lat="43.58918" lon="6.90607">
        <ele>190</ele>
        <time>2012-02-26T11:30:33Z</time>
      </trkpt>
      <trkpt lat="43.58892" lon="6.90593">
        <ele>189</ele>
        <time>2012-02-26T11:30:38Z</time>
      </trkpt>
      <trkpt lat="43.58866" lon="6.90594">
        <ele>188</ele>
        <time>2012-02-26T11:30:43Z</time>
      </trkpt>
      <trkpt lat="43.58862" lon="6.90625">
        <ele>187</ele>
        <time>2012-02-26T11:30:48Z</time>
      </trkpt>
      <trkpt lat="43.58869" lon="6.90668">
        <ele>184</ele>
        <time>2012-02-26T11:30:53Z</time>
      </trkpt>
      <trkpt lat="43.58879" lon="6.9072">
        <ele>182</ele>
        <time>2012-02-26T11:30:58Z</time>
      </trkpt>
      <trkpt lat="43.58894" lon="6.90773">
        <ele>180</ele>
        <time>2012-02-26T11:31:03Z</time>
      </trkpt>
      <trkpt lat="43.58916" lon="6.90825">
        <ele>178</ele>
        <time>2012-02-26T11:31:08Z</time>
      </trkpt>
      <trkpt lat="43.58948" lon="6.90866">
        <ele>176</ele>
        <time>2012-02-26T11:31:13Z</time>
      </trkpt>
      <trkpt lat="43.58949" lon="6.90917">
        <ele>173</ele>
        <time>2012-02-26T11:31:18Z</time>
      </trkpt>
      <trkpt lat="43.58934" lon="6.90967">
        <ele>170</ele>
        <time>2012-02-26T11:31:23Z</time>
      </trkpt>
      <trkpt lat="43.5892" lon="6.9102">
        <ele>167</ele>
        <time>2012-02-26T11:31:28Z</time>
      </trkpt>
      <trkpt lat="43.58892" lon="6.91023">
        <ele>165</ele>
        <time>2012-02-26T11:31:33Z</time>
      </trkpt>
      <trkpt lat="43.58858" lon="6.91009">
        <ele>163</ele>
        <time>2012-02-26T11:31:38Z</time>
      </trkpt>
      <trkpt lat="43.58819" lon="6.90997">
        <ele>161</ele>
        <time>2012-02-26T11:31:43Z</time>
      </trkpt>
      <trkpt lat="43.58796" lon="6.91033">
        <ele>159</ele>
        <time>2012-02-26T11:31:48Z</time>
      </trkpt>
      <trkpt lat="43.58799" lon="6.91092">
        <ele>155</ele>
        <time>2012-02-26T11:31:53Z</time>
      </trkpt>
      <trkpt lat="43.58802" lon="6.91158">
        <ele>152</ele>
        <time>2012-02-26T11:31:58Z</time>
      </trkpt>
      <trkpt lat="43.5881" lon="6.91228">
        <ele>149</ele>
        <time>2012-02-26T11:32:03Z</time>
      </trkpt>
      <trkpt lat="43.58823" lon="6.91295">
        <ele>146</ele>
        <time>2012-02-26T11:32:08Z</time>
      </trkpt>
      <trkpt lat="43.58821" lon="6.91354">
        <ele>143</ele>
        <time>2012-02-26T11:32:13Z</time>
      </trkpt>
      <trkpt lat="43.58818" lon="6.91418">
        <ele>140</ele>
        <time>2012-02-26T11:32:18Z</time>
      </trkpt>
      <trkpt lat="43.58807" lon="6.91478">
        <ele>136</ele>
        <time>2012-02-26T11:32:23Z</time>
      </trkpt>
      <trkpt lat="43.58778" lon="6.91502">
        <ele>132</ele>
        <time>2012-02-26T11:32:28Z</time>
      </trkpt>
      <trkpt lat="43.58757" lon="6.91532">
        <ele>128</ele>
        <time>2012-02-26T11:32:33Z</time>
      </trkpt>
      <trkpt lat="43.58784" lon="6.91553">
        <ele>126</ele>
        <time>2012-02-26T11:32:38Z</time>
      </trkpt>
      <trkpt lat="43.58828" lon="6.91538">
        <ele>121</ele>
        <time>2012-02-26T11:32:44Z</time>
      </trkpt>
      <trkpt lat="43.58838" lon="6.91491">
        <ele>118</ele>
        <time>2012-02-26T11:32:49Z</time>
      </trkpt>
      <trkpt lat="43.58857" lon="6.91479">
        <ele>116</ele>
        <time>2012-02-26T11:32:54Z</time>
      </trkpt>
      <trkpt lat="43.58869" lon="6.91524">
        <ele>114</ele>
        <time>2012-02-26T11:32:59Z</time>
      </trkpt>
      <trkpt lat="43.58902" lon="6.9156">
        <ele>112</ele>
        <time>2012-02-26T11:33:04Z</time>
      </trkpt>
      <trkpt lat="43.58923" lon="6.91599">
        <ele>109</ele>
        <time>2012-02-26T11:33:09Z</time>
      </trkpt>
      <trkpt lat="43.58897" lon="6.91604">
        <ele>105</ele>
        <time>2012-02-26T11:33:14Z</time>
      </trkpt>
      <trkpt lat="43.58863" lon="6.91578">
        <ele>102</ele>
        <time>2012-02-26T11:33:19Z</time>
      </trkpt>
      <trkpt lat="43.58833" lon="6.91597">
        <ele>100</ele>
        <time>2012-02-26T11:33:24Z</time>
      </trkpt>
      <trkpt lat="43.58817" lon="6.91646">
        <ele>98</ele>
        <time>2012-02-26T11:33:29Z</time>
      </trkpt>
      <trkpt lat="43.58794" lon="6.91663">
        <ele>95</ele>
        <time>2012-02-26T11:33:34Z</time>
      </trkpt>
      <trkpt lat="43.58771" lon="6.91668">
        <ele>92</ele>
        <time>2012-02-26T11:33:39Z</time>
      </trkpt>
      <trkpt lat="43.58784" lon="6.91693">
        <ele>90</ele>
        <time>2012-02-26T11:33:44Z</time>
      </trkpt>
      <trkpt lat="43.58818" lon="6.91696">
        <ele>88</ele>
        <time>2012-02-26T11:33:49Z</time>
      </trkpt>
      <trkpt lat="43.58841" lon="6.91657">
        <ele>85</ele>
        <time>2012-02-26T11:33:54Z</time>
      </trkpt>
      <trkpt lat="43.58859" lon="6.91633">
        <ele>82</ele>
        <time>2012-02-26T11:33:59Z</time>
      </trkpt>
      <trkpt lat="43.58884" lon="6.91672">
        <ele>79</ele>
        <time>2012-02-26T11:34:04Z</time>
      </trkpt>
      <trkpt lat="43.58917" lon="6.91699">
        <ele>76</ele>
        <time>2012-02-26T11:34:09Z</time>
      </trkpt>
      <trkpt lat="43.5893" lon="6.91748">
        <ele>74</ele>
        <time>2012-02-26T11:34:14Z</time>
      </trkpt>
      <trkpt lat="43.5895" lon="6.9177">
        <ele>73</ele>
        <time>2012-02-26T11:34:19Z</time>
      </trkpt>
      <trkpt lat="43.58974" lon="6.91767">
        <ele>70</ele>
        <time>2012-02-26T11:34:24Z</time>
      </trkpt>
      <trkpt lat="43.58958" lon="6.91797">
        <ele>66</ele>
        <time>2012-02-26T11:34:29Z</time>
      </trkpt>
      <trkpt lat="43.58928" lon="6.91807">
        <ele>62</ele>
        <time>2012-02-26T11:34:34Z</time>
      </trkpt>
      <trkpt lat="43.5891" lon="6.91761">
        <ele>59</ele>
        <time>2012-02-26T11:34:39Z</time>
      </trkpt>
      <trkpt lat="43.58881" lon="6.9174">
        <ele>56</ele>
        <time>2012-02-26T11:34:44Z</time>
      </trkpt>
      <trkpt lat="43.58857" lon="6.91773">
        <ele>53</ele>
        <time>2012-02-26T11:34:49Z</time>
      </trkpt>
      <trkpt lat="43.58835" lon="6.91816">
        <ele>50</ele>
        <time>2012-02-26T11:34:54Z</time>
      </trkpt>
      <trkpt lat="43.588" lon="6.91807">
        <ele>47</ele>
        <time>2012-02-26T11:34:59Z</time>
      </trkpt>
      <trkpt lat="43.58764" lon="6.91784">
        <ele>46</ele>
        <time>2012-02-26T11:35:04Z</time>
      </trkpt>
      <trkpt lat="43.58747" lon="6.91799">
        <ele>45</ele>
        <time>2012-02-26T11:35:09Z</time>
      </trkpt>
      <trkpt lat="43.58764" lon="6.91816">
        <ele>43</ele>
        <time>2012-02-26T11:35:14Z</time>
      </trkpt>
      <trkpt lat="43.58794" lon="6.91822">
        <ele>40</ele>
        <time>2012-02-26T11:35:19Z</time>
      </trkpt>
      <trkpt lat="43.58823" lon="6.91851">
        <ele>38</ele>
        <time>2012-02-26T11:35:24Z</time>
      </trkpt>
      <trkpt lat="43.58854" lon="6.91852">
        <ele>36</ele>
        <time>2012-02-26T11:35:29Z</time>
      </trkpt>
      <trkpt lat="43.58875" lon="6.9183">
        <ele>32</ele>
        <time>2012-02-26T11:35:34Z</time>
      </trkpt>
      <trkpt lat="43.58889" lon="6.9186">
        <ele>32</ele>
        <time>2012-02-26T11:35:39Z</time>
      </trkpt>
      <trkpt lat="43.58917" lon="6.91887">
        <ele>30</ele>
        <time>2012-02-26T11:35:44Z</time>
      </trkpt>
      <trkpt lat="43.58956" lon="6.91904">
        <ele>27</ele>
        <time>2012-02-26T11:35:49Z</time>
      </trkpt>
      <trkpt lat="43.58978" lon="6.91925">
        <ele>25</ele>
        <time>2012-02-26T11:35:54Z</time>
      </trkpt>
      <trkpt lat="43.58986" lon="6.9197">
        <ele>23</ele>
        <time>2012-02-26T11:35:59Z</time>
      </trkpt>
      <trkpt lat="43.59" lon="6.92017">
        <ele>21</ele>
        <time>2012-02-26T11:36:04Z</time>
      </trkpt>
      <trkpt lat="43.59031" lon="6.92048">
        <ele>20</ele>
        <time>2012-02-26T11:36:09Z</time>
      </trkpt>
      <trkpt lat="43.59057" lon="6.92082">
        <ele>19</ele>
        <time>2012-02-26T11:36:14Z</time>
      </trkpt>
      <trkpt lat="43.59062" lon="6.92122">
        <ele>19</ele>
        <time>2012-02-26T11:36:19Z</time>
      </trkpt>
      <trkpt lat="43.59057" lon="6.92158">
        <ele>19</ele>
        <time>2012-02-26T11:36:24Z</time>
      </trkpt>
      <trkpt lat="43.5905" lon="6.92191">
        <ele>19</ele>
        <time>2012-02-26T11:36:29Z</time>
      </trkpt>
      <trkpt lat="43.59044" lon="6.92227">
        <ele>18</ele>
        <time>2012-02-26T11:36:34Z</time>
      </trkpt>
      <trkpt lat="43.59035" lon="6.92259">
        <ele>17</ele>
        <time>2012-02-26T11:36:39Z</time>
      </trkpt>
      <trkpt lat="43.59024" lon="6.92286">
        <ele>15</ele>
        <time>2012-02-26T11:36:44Z</time>
      </trkpt>
      <trkpt lat="43.59014" lon="6.92313">
        <ele>15</ele>
        <time>2012-02-26T11:36:49Z</time>
      </trkpt>
      <trkpt lat="43.59003" lon="6.92342">
        <ele>14</ele>
        <time>2012-02-26T11:36:54Z</time>
      </trkpt>
      <trkpt lat="43.58991" lon="6.92371">
        <ele>14</ele>
        <time>2012-02-26T11:36:59Z</time>
      </trkpt>
      <trkpt lat="43.58982" lon="6.924">
        <ele>14</ele>
        <time>2012-02-26T11:37:04Z</time>
      </trkpt>
      <trkpt lat="43.58976" lon="6.92431">
        <ele>14</ele>
        <time>2012-02-26T11:37:09Z</time>
      </trkpt>
      <trkpt lat="43.58971" lon="6.92463">
        <ele>14</ele>
        <time>2012-02-26T11:37:14Z</time>
      </trkpt>
      <trkpt lat="43.5897" lon="6.92496">
        <ele>14</ele>
        <time>2012-02-26T11:37:19Z</time>
      </trkpt>
      <trkpt lat="43.58969" lon="6.92532">
        <ele>14</ele>
        <time>2012-02-26T11:37:24Z</time>
      </trkpt>
      <trkpt lat="43.58973" lon="6.92568">
        <ele>14</ele>
        <time>2012-02-26T11:37:29Z</time>
      </trkpt>
      <trkpt lat="43.58975" lon="6.92603">
        <ele>14</ele>
        <time>2012-02-26T11:37:34Z</time>
      </trkpt>
      <trkpt lat="43.58969" lon="6.92637">
        <ele>14</ele>
        <time>2012-02-26T11:37:39Z</time>
      </trkpt>
      <trkpt lat="43.58958" lon="6.92669">
        <ele>14</ele>
        <time>2012-02-26T11:37:44Z</time>
      </trkpt>
      <trkpt lat="43.58946" lon="6.92701">
        <ele>14</ele>
        <time>2012-02-26T11:37:49Z</time>
      </trkpt>
      <trkpt lat="43.58931" lon="6.92726">
        <ele>14</ele>
        <time>2012-02-26T11:37:54Z</time>
      </trkpt>
      <trkpt lat="43.58918" lon="6.92747">
        <ele>14</ele>
        <time>2012-02-26T11:37:59Z</time>
      </trkpt>
      <trkpt lat="43.58918" lon="6.92766">
        <ele>14</ele>
        <time>2012-02-26T11:38:04Z</time>
      </trkpt>
      <trkpt lat="43.58931" lon="6.92783">
        <ele>14</ele>
        <time>2012-02-26T11:38:09Z</time>
      </trkpt>
      <trkpt lat="43.58947" lon="6.92802">
        <ele>14</ele>
        <time>2012-02-26T11:38:14Z</time>
      </trkpt>
      <trkpt lat="43.58962" lon="6.92821">
        <ele>14</ele>
        <time>2012-02-26T11:38:19Z</time>
      </trkpt>
      <trkpt lat="43.58982" lon="6.92845">
        <ele>14</ele>
        <time>2012-02-26T11:38:24Z</time>
      </trkpt>
      <trkpt lat="43.5901" lon="6.92867">
        <ele>14</ele>
        <time>2012-02-26T11:38:29Z</time>
      </trkpt>
      <trkpt lat="43.59039" lon="6.92879">
        <ele>14</ele>
        <time>2012-02-26T11:38:34Z</time>
      </trkpt>
      <trkpt lat="43.59062" lon="6.92888">
        <ele>14</ele>
        <time>2012-02-26T11:38:39Z</time>
      </trkpt>
      <trkpt lat="43.59078" lon="6.92904">
        <ele>14</ele>
        <time>2012-02-26T11:38:44Z</time>
      </trkpt>
      <trkpt lat="43.59097" lon="6.92922">
        <ele>14</ele>
        <time>2012-02-26T11:38:49Z</time>
      </trkpt>
      <trkpt lat="43.59119" lon="6.92929">
        <ele>14</ele>
        <time>2012-02-26T11:38:54Z</time>
      </trkpt>
      <trkpt lat="43.59145" lon="6.92931">
        <ele>14</ele>
        <time>2012-02-26T11:38:59Z</time>
      </trkpt>
      <trkpt lat="43.59172" lon="6.92941">
        <ele>14</ele>
        <time>2012-02-26T11:39:04Z</time>
      </trkpt>
      <trkpt lat="43.59198" lon="6.92951">
        <ele>14</ele>
        <time>2012-02-26T11:39:09Z</time>
      </trkpt>
      <trkpt lat="43.59224" lon="6.9296">
        <ele>14</ele>
        <time>2012-02-26T11:39:14Z</time>
      </trkpt>
      <trkpt lat="43.59251" lon="6.92971">
        <ele>14</ele>
        <time>2012-02-26T11:39:19Z</time>
      </trkpt>
      <trkpt lat="43.59269" lon="6.92996">
        <ele>14</ele>
        <time>2012-02-26T11:39:24Z</time>
      </trkpt>
      <trkpt lat="43.59273" lon="6.9302">
        <ele>14</ele>
        <time>2012-02-26T11:39:29Z</time>
      </trkpt>
      <trkpt lat="43.59274" lon="6.93041">
        <ele>14</ele>
        <time>2012-02-26T11:39:34Z</time>
      </trkpt>
      <trkpt lat="43.5929" lon="6.93028">
        <ele>14</ele>
        <time>2012-02-26T11:39:39Z</time>
      </trkpt>
      <trkpt lat="43.59306" lon="6.93008">
        <ele>14</ele>
        <time>2012-02-26T11:39:44Z</time>
      </trkpt>
      <trkpt lat="43.59321" lon="6.92988">
        <ele>14</ele>
        <time>2012-02-26T11:39:49Z</time>
      </trkpt>
      <trkpt lat="43.59331" lon="6.92967">
        <ele>16</ele>
        <time>2012-02-26T11:39:54Z</time>
      </trkpt>
      <trkpt lat="43.59348" lon="6.92973">
        <ele>16</ele>
        <time>2012-02-26T11:39:59Z</time>
      </trkpt>
      <trkpt lat="43.59369" lon="6.92993">
        <ele>16</ele>
        <time>2012-02-26T11:40:04Z</time>
      </trkpt>
      <trkpt lat="43.59389" lon="6.93011">
        <ele>16</ele>
        <time>2012-02-26T11:40:09Z</time>
      </trkpt>
      <trkpt lat="43.59406" lon="6.93031">
        <ele>16</ele>
        <time>2012-02-26T11:40:14Z</time>
      </trkpt>
      <trkpt lat="43.59419" lon="6.9305">
        <ele>16</ele>
        <time>2012-02-26T11:40:19Z</time>
      </trkpt>
      <trkpt lat="43.59433" lon="6.9307">
        <ele>16</ele>
        <time>2012-02-26T11:40:24Z</time>
      </trkpt>
      <trkpt lat="43.59449" lon="6.93094">
        <ele>16</ele>
        <time>2012-02-26T11:40:29Z</time>
      </trkpt>
      <trkpt lat="43.59466" lon="6.93118">
        <ele>16</ele>
        <time>2012-02-26T11:40:34Z</time>
      </trkpt>
      <trkpt lat="43.59482" lon="6.93141">
        <ele>16</ele>
        <time>2012-02-26T11:40:39Z</time>
      </trkpt>
      <trkpt lat="43.59491" lon="6.93165">
        <ele>16</ele>
        <time>2012-02-26T11:40:44Z</time>
      </trkpt>
      <trkpt lat="43.59481" lon="6.93181">
        <ele>16</ele>
        <time>2012-02-26T11:40:49Z</time>
      </trkpt>
      <trkpt lat="43.59485" lon="6.932">
        <ele>16</ele>
        <time>2012-02-26T11:40:54Z</time>
      </trkpt>
      <trkpt lat="43.59497" lon="6.93217">
        <ele>16</ele>
        <time>2012-02-26T11:40:59Z</time>
      </trkpt>
      <trkpt lat="43.5951" lon="6.93229">
        <ele>16</ele>
        <time>2012-02-26T11:41:04Z</time>
      </trkpt>
      <trkpt lat="43.59515" lon="6.93232">
        <ele>16</ele>
        <time>2012-02-26T11:41:23Z</time>
      </trkpt>
      <trkpt lat="43.59523" lon="6.93236">
        <ele>16</ele>
        <time>2012-02-26T11:41:28Z</time>
      </trkpt>
      <trkpt lat="43.59537" lon="6.93244">
        <ele>16</ele>
        <time>2012-02-26T11:41:33Z</time>
      </trkpt>
      <trkpt lat="43.59553" lon="6.93254">
        <ele>16</ele>
        <time>2012-02-26T11:41:38Z</time>
      </trkpt>
      <trkpt lat="43.59568" lon="6.93264">
        <ele>16</ele>
        <time>2012-02-26T11:41:43Z</time>
      </trkpt>
      <trkpt lat="43.59583" lon="6.93276">
        <ele>16</ele>
        <time>2012-02-26T11:41:48Z</time>
      </trkpt>
      <trkpt lat="43.59594" lon="6.9329">
        <ele>16</ele>
        <time>2012-02-26T11:41:53Z</time>
      </trkpt>
      <trkpt lat="43.59605" lon="6.93304">
        <ele>19</ele>
        <time>2012-02-26T11:41:58Z</time>
      </trkpt>
      <trkpt lat="43.59612" lon="6.93321">
        <ele>21</ele>
        <time>2012-02-26T11:42:03Z</time>
      </trkpt>
      <trkpt lat="43.59616" lon="6.93336">
        <ele>22</ele>
        <time>2012-02-26T11:42:08Z</time>
      </trkpt>
      <trkpt lat="43.59624" lon="6.93351">
        <ele>23</ele>
        <time>2012-02-26T11:42:13Z</time>
      </trkpt>
      <trkpt lat="43.59634" lon="6.93364">
        <ele>23</ele>
        <time>2012-02-26T11:42:18Z</time>
      </trkpt>
      <trkpt lat="43.59645" lon="6.93376">
        <ele>23</ele>
        <time>2012-02-26T11:42:23Z</time>
      </trkpt>
      <trkpt lat="43.59659" lon="6.93391">
        <ele>23</ele>
        <time>2012-02-26T11:42:28Z</time>
      </trkpt>
      <trkpt lat="43.59671" lon="6.93403">
        <ele>23</ele>
        <time>2012-02-26T11:42:33Z</time>
      </trkpt>
      <trkpt lat="43.59684" lon="6.93415">
        <ele>23</ele>
        <time>2012-02-26T11:42:38Z</time>
      </trkpt>
      <trkpt lat="43.59694" lon="6.93431">
        <ele>23</ele>
        <time>2012-02-26T11:42:43Z</time>
      </trkpt>
      <trkpt lat="43.597" lon="6.93453">
        <ele>23</ele>
        <time>2012-02-26T11:42:49Z</time>
      </trkpt>
      <trkpt lat="43.59703" lon="6.93471">
        <ele>23</ele>
        <time>2012-02-26T11:42:54Z</time>
      </trkpt>
      <trkpt lat="43.59708" lon="6.93492">
        <ele>24</ele>
        <time>2012-02-26T11:42:59Z</time>
      </trkpt>
      <trkpt lat="43.59711" lon="6.93512">
        <ele>24</ele>
        <time>2012-02-26T11:43:04Z</time>
      </trkpt>
      <trkpt lat="43.59716" lon="6.93529">
        <ele>24</ele>
        <time>2012-02-26T11:43:09Z</time>
      </trkpt>
      <trkpt lat="43.59723" lon="6.93552">
        <ele>24</ele>
        <time>2012-02-26T11:43:14Z</time>
      </trkpt>
      <trkpt lat="43.59729" lon="6.93575">
        <ele>24</ele>
        <time>2012-02-26T11:43:19Z</time>
      </trkpt>
      <trkpt lat="43.59734" lon="6.93596">
        <ele>24</ele>
        <time>2012-02-26T11:43:24Z</time>
      </trkpt>
      <trkpt lat="43.5974" lon="6.93617">
        <ele>24</ele>
        <time>2012-02-26T11:43:29Z</time>
      </trkpt>
      <trkpt lat="43.59746" lon="6.93637">
        <ele>24</ele>
        <time>2012-02-26T11:43:34Z</time>
      </trkpt>
      <trkpt lat="43.59751" lon="6.93657">
        <ele>24</ele>
        <time>2012-02-26T11:43:39Z</time>
      </trkpt>
      <trkpt lat="43.59758" lon="6.93679">
        <ele>25</ele>
        <time>2012-02-26T11:43:44Z</time>
      </trkpt>
      <trkpt lat="43.59764" lon="6.93701">
        <ele>26</ele>
        <time>2012-02-26T11:43:49Z</time>
      </trkpt>
      <trkpt lat="43.59772" lon="6.93721">
        <ele>28</ele>
        <time>2012-02-26T11:43:54Z</time>
      </trkpt>
      <trkpt lat="43.59777" lon="6.93744">
        <ele>29</ele>
        <time>2012-02-26T11:43:59Z</time>
      </trkpt>
      <trkpt lat="43.59779" lon="6.93767">
        <ele>31</ele>
        <time>2012-02-26T11:44:04Z</time>
      </trkpt>
      <trkpt lat="43.5978" lon="6.93788">
        <ele>32</ele>
        <time>2012-02-26T11:44:09Z</time>
      </trkpt>
      <trkpt lat="43.59783" lon="6.93809">
        <ele>32</ele>
        <time>2012-02-26T11:44:14Z</time>
      </trkpt>
      <trkpt lat="43.59789" lon="6.93826">
        <ele>33</ele>
        <time>2012-02-26T11:44:19Z</time>
      </trkpt>
      <trkpt lat="43.59794" lon="6.9384">
        <ele>34</ele>
        <time>2012-02-26T11:44:24Z</time>
      </trkpt>
      <trkpt lat="43.59799" lon="6.93854">
        <ele>35</ele>
        <time>2012-02-26T11:44:29Z</time>
      </trkpt>
      <trkpt lat="43.598" lon="6.93862">
        <ele>36</ele>
        <time>2012-02-26T11:44:34Z</time>
      </trkpt>
      <trkpt lat="43.59801" lon="6.93868">
        <ele>37</ele>
        <time>2012-02-26T11:44:40Z</time>
      </trkpt>
      <trkpt lat="43.59801" lon="6.93876">
        <ele>37</ele>
        <time>2012-02-26T11:44:45Z</time>
      </trkpt>
      <trkpt lat="43.598" lon="6.93883">
        <ele>37</ele>
        <time>2012-02-26T11:44:50Z</time>
      </trkpt>
      <trkpt lat="43.59798" lon="6.93891">
        <ele>37</ele>
        <time>2012-02-26T11:44:56Z</time>
      </trkpt>
      <trkpt lat="43.59798" lon="6.93899">
        <ele>37</ele>
        <time>2012-02-26T11:45:02Z</time>
      </trkpt>
      <trkpt lat="43.59798" lon="6.93907">
        <ele>40</ele>
        <time>2012-02-26T11:45:08Z</time>
      </trkpt>
      <trkpt lat="43.598" lon="6.93913">
        <ele>41</ele>
        <time>2012-02-26T11:45:14Z</time>
      </trkpt>
      <trkpt lat="43.59801" lon="6.93919">
        <ele>43</ele>
        <time>2012-02-26T11:45:19Z</time>
      </trkpt>
      <trkpt lat="43.59801" lon="6.93926">
        <ele>45</ele>
        <time>2012-02-26T11:45:24Z</time>
      </trkpt>
      <trkpt lat="43.59802" lon="6.93934">
        <ele>46</ele>
        <time>2012-02-26T11:45:29Z</time>
      </trkpt>
      <trkpt lat="43.59803" lon="6.93941">
        <ele>48</ele>
        <time>2012-02-26T11:45:34Z</time>
      </trkpt>
      <trkpt lat="43.59804" lon="6.93948">
        <ele>49</ele>
        <time>2012-02-26T11:45:39Z</time>
      </trkpt>
      <trkpt lat="43.59804" lon="6.93957">
        <ele>53</ele>
        <time>2012-02-26T11:45:45Z</time>
      </trkpt>
      <trkpt lat="43.59805" lon="6.93963">
        <ele>57</ele>
        <time>2012-02-26T11:45:50Z</time>
      </trkpt>
      <trkpt lat="43.59807" lon="6.93969">
        <ele>57</ele>
        <time>2012-02-26T11:45:55Z</time>
      </trkpt>
      <trkpt lat="43.59813" lon="6.93977">
        <ele>58</ele>
        <time>2012-02-26T11:46:01Z</time>
      </trkpt>
      <trkpt lat="43.59812" lon="6.93984">
        <ele>58</ele>
        <time>2012-02-26T11:46:06Z</time>
      </trkpt>
      <trkpt lat="43.59811" lon="6.93984">
        <ele>58</ele>
        <time>2012-02-26T11:46:11Z</time>
      </trkpt>
      <trkpt lat="43.59809" lon="6.93986">
        <ele>58</ele>
        <time>2012-02-26T11:46:17Z</time>
      </trkpt>
      <trkpt lat="43.59805" lon="6.93991">
        <ele>58</ele>
        <time>2012-02-26T11:46:22Z</time>
      </trkpt>
      <trkpt lat="43.598" lon="6.93994">
        <ele>58</ele>
        <time>2012-02-26T11:46:27Z</time>
      </trkpt>
      <trkpt lat="43.59797" lon="6.93998">
        <ele>58</ele>
        <time>2012-02-26T11:46:33Z</time>
      </trkpt>
      <trkpt lat="43.59793" lon="6.94002">
        <ele>58</ele>
        <time>2012-02-26T11:46:39Z</time>
      </trkpt>
      <trkpt lat="43.5979" lon="6.94004">
        <ele>58</ele>
        <time>2012-02-26T11:46:51Z</time>
      </trkpt>
      <trkpt lat="43.59786" lon="6.94009">
        <ele>58</ele>
        <time>2012-02-26T11:46:57Z</time>
      </trkpt>
      <trkpt lat="43.59782" lon="6.94015">
        <ele>59</ele>
        <time>2012-02-26T11:47:03Z</time>
      </trkpt>
      <trkpt lat="43.5978" lon="6.94022">
        <ele>60</ele>
        <time>2012-02-26T11:47:09Z</time>
      </trkpt>
      <trkpt lat="43.59778" lon="6.94028">
        <ele>62</ele>
        <time>2012-02-26T11:47:14Z</time>
      </trkpt>
      <trkpt lat="43.59776" lon="6.94035">
        <ele>64</ele>
        <time>2012-02-26T11:47:21Z</time>
      </trkpt>
      <trkpt lat="43.59775" lon="6.94038">
        <ele>72</ele>
        <time>2012-02-26T11:47:32Z</time>
      </trkpt>
      <trkpt lat="43.59773" lon="6.94047">
        <ele>73</ele>
        <time>2012-02-26T11:47:37Z</time>
      </trkpt>
      <trkpt lat="43.59772" lon="6.94055">
        <ele>73</ele>
        <time>2012-02-26T11:47:42Z</time>
      </trkpt>
      <trkpt lat="43.59771" lon="6.94064">
        <ele>73</ele>
        <time>2012-02-26T11:47:48Z</time>
      </trkpt>
      <trkpt lat="43.59773" lon="6.94072">
        <ele>73</ele>
        <time>2012-02-26T11:47:53Z</time>
      </trkpt>
      <trkpt lat="43.59768" lon="6.94082">
        <ele>73</ele>
        <time>2012-02-26T11:47:58Z</time>
      </trkpt>
      <trkpt lat="43.59767" lon="6.94085">
        <ele>73</ele>
        <time>2012-02-26T11:48:03Z</time>
      </trkpt>
      <trkpt lat="43.59768" lon="6.94086">
        <ele>76</ele>
        <time>2012-02-26T11:48:11Z</time>
      </trkpt>
      <trkpt lat="43.5977" lon="6.94089">
        <ele>79</ele>
        <time>2012-02-26T11:48:17Z</time>
      </trkpt>
      <trkpt lat="43.59763" lon="6.94093">
        <ele>80</ele>
        <time>2012-02-26T11:48:22Z</time>
      </trkpt>
      <trkpt lat="43.59758" lon="6.94096">
        <ele>80</ele>
        <time>2012-02-26T11:48:27Z</time>
      </trkpt>
      <trkpt lat="43.59754" lon="6.94097">
        <ele>80</ele>
        <time>2012-02-26T11:48:33Z</time>
      </trkpt>
      <trkpt lat="43.5975" lon="6.94098">
        <ele>81</ele>
        <time>2012-02-26T11:48:39Z</time>
      </trkpt>
      <trkpt lat="43.59745" lon="6.94101">
        <ele>83</ele>
        <time>2012-02-26T11:48:45Z</time>
      </trkpt>
      <trkpt lat="43.5974" lon="6.94107">
        <ele>84</ele>
        <time>2012-02-26T11:48:51Z</time>
      </trkpt>
      <trkpt lat="43.59739" lon="6.94111">
        <ele>84</ele>
        <time>2012-02-26T11:48:57Z</time>
      </trkpt>
      <trkpt lat="43.59738" lon="6.94114">
        <ele>86</ele>
        <time>2012-02-26T11:49:03Z</time>
      </trkpt>
      <trkpt lat="43.59742" lon="6.9412">
        <ele>88</ele>
        <time>2012-02-26T11:49:08Z</time>
      </trkpt>
      <trkpt lat="43.59748" lon="6.94128">
        <ele>88</ele>
        <time>2012-02-26T11:49:14Z</time>
      </trkpt>
      <trkpt lat="43.59747" lon="6.9413">
        <ele>89</ele>
        <time>2012-02-26T11:49:20Z</time>
      </trkpt>
      <trkpt lat="43.59745" lon="6.94127">
        <ele>90</ele>
        <time>2012-02-26T11:49:30Z</time>
      </trkpt>
      <trkpt lat="43.59745" lon="6.94125">
        <ele>90</ele>
        <time>2012-02-26T11:49:35Z</time>
      </trkpt>
      <trkpt lat="43.59747" lon="6.94127">
        <ele>90</ele>
        <time>2012-02-26T11:49:43Z</time>
      </trkpt>
      <trkpt lat="43.59748" lon="6.94135">
        <ele>89</ele>
        <time>2012-02-26T11:49:48Z</time>
      </trkpt>
      <trkpt lat="43.59749" lon="6.94141">
        <ele>89</ele>
        <time>2012-02-26T11:49:54Z</time>
      </trkpt>
      <trkpt lat="43.59751" lon="6.94148">
        <ele>89</ele>
        <time>2012-02-26T11:50:00Z</time>
      </trkpt>
      <trkpt lat="43.59753" lon="6.94154">
        <ele>91</ele>
        <time>2012-02-26T11:50:05Z</time>
      </trkpt>
      <trkpt lat="43.59754" lon="6.94161">
        <ele>91</ele>
        <time>2012-02-26T11:50:10Z</time>
      </trkpt>
      <trkpt lat="43.59756" lon="6.94168">
        <ele>92</ele>
        <time>2012-02-26T11:50:16Z</time>
      </trkpt>
      <trkpt lat="43.59755" lon="6.94169">
        <ele>92</ele>
        <time>2012-02-26T11:50:24Z</time>
      </trkpt>
      <trkpt lat="43.59758" lon="6.94172">
        <ele>92</ele>
        <time>2012-02-26T11:50:29Z</time>
      </trkpt>
      <trkpt lat="43.5976" lon="6.94175">
        <ele>94</ele>
        <time>2012-02-26T11:50:38Z</time>
      </trkpt>
      <trkpt lat="43.59763" lon="6.94179">
        <ele>95</ele>
        <time>2012-02-26T11:50:44Z</time>
      </trkpt>
      <trkpt lat="43.59767" lon="6.94184">
        <ele>96</ele>
        <time>2012-02-26T11:50:50Z</time>
      </trkpt>
      <trkpt lat="43.59772" lon="6.94189">
        <ele>97</ele>
        <time>2012-02-26T11:50:56Z</time>
      </trkpt>
      <trkpt lat="43.59777" lon="6.94194">
        <ele>98</ele>
        <time>2012-02-26T11:51:02Z</time>
      </trkpt>
      <trkpt lat="43.59781" lon="6.94195">
        <ele>99</ele>
        <time>2012-02-26T11:51:08Z</time>
      </trkpt>
      <trkpt lat="43.59782" lon="6.94193">
        <ele>103</ele>
        <time>2012-02-26T11:51:16Z</time>
      </trkpt>
      <trkpt lat="43.59787" lon="6.94194">
        <ele>103</ele>
        <time>2012-02-26T11:51:21Z</time>
      </trkpt>
      <trkpt lat="43.59794" lon="6.94195">
        <ele>103</ele>
        <time>2012-02-26T11:51:27Z</time>
      </trkpt>
      <trkpt lat="43.59798" lon="6.9419">
        <ele>103</ele>
        <time>2012-02-26T11:51:32Z</time>
      </trkpt>
      <trkpt lat="43.59801" lon="6.94184">
        <ele>103</ele>
        <time>2012-02-26T11:51:37Z</time>
      </trkpt>
      <trkpt lat="43.59805" lon="6.94179">
        <ele>104</ele>
        <time>2012-02-26T11:51:44Z</time>
      </trkpt>
      <trkpt lat="43.59805" lon="6.94179">
        <ele>105</ele>
        <time>2012-02-26T11:51:50Z</time>
      </trkpt>
      <trkpt lat="43.59809" lon="6.94178">
        <ele>106</ele>
        <time>2012-02-26T11:51:56Z</time>
      </trkpt>
      <trkpt lat="43.59812" lon="6.94177">
        <ele>106</ele>
        <time>2012-02-26T11:52:01Z</time>
      </trkpt>
      <trkpt lat="43.59817" lon="6.94178">
        <ele>107</ele>
        <time>2012-02-26T11:52:07Z</time>
      </trkpt>
      <trkpt lat="43.5982" lon="6.94174">
        <ele>108</ele>
        <time>2012-02-26T11:52:13Z</time>
      </trkpt>
      <trkpt lat="43.59825" lon="6.94176">
        <ele>108</ele>
        <time>2012-02-26T11:52:19Z</time>
      </trkpt>
      <trkpt lat="43.59831" lon="6.94178">
        <ele>108</ele>
        <time>2012-02-26T11:52:24Z</time>
      </trkpt>
      <trkpt lat="43.59837" lon="6.9418">
        <ele>109</ele>
        <time>2012-02-26T11:52:29Z</time>
      </trkpt>
      <trkpt lat="43.59843" lon="6.94181">
        <ele>110</ele>
        <time>2012-02-26T11:52:34Z</time>
      </trkpt>
      <trkpt lat="43.5985" lon="6.94185">
        <ele>111</ele>
        <time>2012-02-26T11:52:40Z</time>
      </trkpt>
      <trkpt lat="43.59855" lon="6.94189">
        <ele>113</ele>
        <time>2012-02-26T11:52:46Z</time>
      </trkpt>
      <trkpt lat="43.59855" lon="6.9419">
        <ele>114</ele>
        <time>2012-02-26T11:52:53Z</time>
      </trkpt>
      <trkpt lat="43.59853" lon="6.94189">
        <ele>114</ele>
        <time>2012-02-26T11:52:58Z</time>
      </trkpt>
      <trkpt lat="43.59853" lon="6.9419">
        <ele>115</ele>
        <time>2012-02-26T11:53:03Z</time>
      </trkpt>
      <trkpt lat="43.59857" lon="6.94196">
        <ele>116</ele>
        <time>2012-02-26T11:53:08Z</time>
      </trkpt>
      <trkpt lat="43.59859" lon="6.94206">
        <ele>117</ele>
        <time>2012-02-26T11:53:14Z</time>
      </trkpt>
      <trkpt lat="43.59862" lon="6.94215">
        <ele>118</ele>
        <time>2012-02-26T11:53:19Z</time>
      </trkpt>
      <trkpt lat="43.59865" lon="6.94225">
        <ele>118</ele>
        <time>2012-02-26T11:53:25Z</time>
      </trkpt>
      <trkpt lat="43.59864" lon="6.94235">
        <ele>120</ele>
        <time>2012-02-26T11:53:30Z</time>
      </trkpt>
      <trkpt lat="43.59868" lon="6.94246">
        <ele>121</ele>
        <time>2012-02-26T11:53:36Z</time>
      </trkpt>
      <trkpt lat="43.59869" lon="6.94255">
        <ele>123</ele>
        <time>2012-02-26T11:53:41Z</time>
      </trkpt>
      <trkpt lat="43.59871" lon="6.94262">
        <ele>124</ele>
        <time>2012-02-26T11:53:46Z</time>
      </trkpt>
      <trkpt lat="43.59874" lon="6.94272">
        <ele>125</ele>
        <time>2012-02-26T11:53:54Z</time>
      </trkpt>
      <trkpt lat="43.59875" lon="6.94272">
        <ele>126</ele>
        <time>2012-02-26T11:54:02Z</time>
      </trkpt>
      <trkpt lat="43.59875" lon="6.94271">
        <ele>127</ele>
        <time>2012-02-26T11:54:08Z</time>
      </trkpt>
      <trkpt lat="43.59877" lon="6.94272">
        <ele>128</ele>
        <time>2012-02-26T11:54:14Z</time>
      </trkpt>
      <trkpt lat="43.59879" lon="6.94279">
        <ele>128</ele>
        <time>2012-02-26T11:54:19Z</time>
      </trkpt>
      <trkpt lat="43.59882" lon="6.94289">
        <ele>128</ele>
        <time>2012-02-26T11:54:26Z</time>
      </trkpt>
      <trkpt lat="43.59883" lon="6.94297">
        <ele>128</ele>
        <time>2012-02-26T11:54:31Z</time>
      </trkpt>
      <trkpt lat="43.59886" lon="6.94304">
        <ele>128</ele>
        <time>2012-02-26T11:54:36Z</time>
      </trkpt>
      <trkpt lat="43.59887" lon="6.94311">
        <ele>128</ele>
        <time>2012-02-26T11:54:41Z</time>
      </trkpt>
      <trkpt lat="43.59893" lon="6.9432">
        <ele>128</ele>
        <time>2012-02-26T11:54:47Z</time>
      </trkpt>
      <trkpt lat="43.59897" lon="6.94328">
        <ele>128</ele>
        <time>2012-02-26T11:54:52Z</time>
      </trkpt>
      <trkpt lat="43.59901" lon="6.94336">
        <ele>128</ele>
        <time>2012-02-26T11:54:58Z</time>
      </trkpt>
      <trkpt lat="43.59903" lon="6.94345">
        <ele>128</ele>
        <time>2012-02-26T11:55:04Z</time>
      </trkpt>
      <trkpt lat="43.59903" lon="6.94353">
        <ele>130</ele>
        <time>2012-02-26T11:55:09Z</time>
      </trkpt>
      <trkpt lat="43.59904" lon="6.94361">
        <ele>131</ele>
        <time>2012-02-26T11:55:14Z</time>
      </trkpt>
      <trkpt lat="43.59906" lon="6.94368">
        <ele>133</ele>
        <time>2012-02-26T11:55:20Z</time>
      </trkpt>
      <trkpt lat="43.59909" lon="6.94378">
        <ele>133</ele>
        <time>2012-02-26T11:55:25Z</time>
      </trkpt>
      <trkpt lat="43.59912" lon="6.9439">
        <ele>134</ele>
        <time>2012-02-26T11:55:30Z</time>
      </trkpt>
      <trkpt lat="43.59916" lon="6.94403">
        <ele>134</ele>
        <time>2012-02-26T11:55:36Z</time>
      </trkpt>
      <trkpt lat="43.5992" lon="6.94413">
        <ele>135</ele>
        <time>2012-02-26T11:55:41Z</time>
      </trkpt>
      <trkpt lat="43.59924" lon="6.94423">
        <ele>136</ele>
        <time>2012-02-26T11:55:46Z</time>
      </trkpt>
      <trkpt lat="43.59927" lon="6.94434">
        <ele>136</ele>
        <time>2012-02-26T11:55:51Z</time>
      </trkpt>
      <trkpt lat="43.59929" lon="6.94444">
        <ele>137</ele>
        <time>2012-02-26T11:55:56Z</time>
      </trkpt>
      <trkpt lat="43.59932" lon="6.94456">
        <ele>138</ele>
        <time>2012-02-26T11:56:01Z</time>
      </trkpt>
      <trkpt lat="43.59941" lon="6.94477">
        <ele>139</ele>
        <time>2012-02-26T11:56:07Z</time>
      </trkpt>
      <trkpt lat="43.59949" lon="6.94501">
        <ele>139</ele>
        <time>2012-02-26T11:56:12Z</time>
      </trkpt>
      <trkpt lat="43.59957" lon="6.94527">
        <ele>139</ele>
        <time>2012-02-26T11:56:17Z</time>
      </trkpt>
      <trkpt lat="43.59963" lon="6.94564">
        <ele>139</ele>
        <time>2012-02-26T11:56:22Z</time>
      </trkpt>
      <trkpt lat="43.59968" lon="6.94609">
        <ele>139</ele>
        <time>2012-02-26T11:56:27Z</time>
      </trkpt>
      <trkpt lat="43.59977" lon="6.94664">
        <ele>138</ele>
        <time>2012-02-26T11:56:33Z</time>
      </trkpt>
      <trkpt lat="43.59987" lon="6.94704">
        <ele>138</ele>
        <time>2012-02-26T11:56:38Z</time>
      </trkpt>
      <trkpt lat="43.60001" lon="6.94745">
        <ele>138</ele>
        <time>2012-02-26T11:56:44Z</time>
      </trkpt>
      <trkpt lat="43.60011" lon="6.94774">
        <ele>138</ele>
        <time>2012-02-26T11:56:49Z</time>
      </trkpt>
      <trkpt lat="43.60018" lon="6.94802">
        <ele>138</ele>
        <time>2012-02-26T11:56:54Z</time>
      </trkpt>
      <trkpt lat="43.60025" lon="6.94836">
        <ele>138</ele>
        <time>2012-02-26T11:57:00Z</time>
      </trkpt>
      <trkpt lat="43.60019" lon="6.94862">
        <ele>138</ele>
        <time>2012-02-26T11:57:05Z</time>
      </trkpt>
      <trkpt lat="43.60012" lon="6.94876">
        <ele>138</ele>
        <time>2012-02-26T11:57:10Z</time>
      </trkpt>
      <trkpt lat="43.60011" lon="6.94879">
        <ele>138</ele>
        <time>2012-02-26T11:57:21Z</time>
      </trkpt>
      <trkpt lat="43.6001" lon="6.94885">
        <ele>138</ele>
        <time>2012-02-26T11:57:26Z</time>
      </trkpt>
      <trkpt lat="43.60005" lon="6.94901">
        <ele>138</ele>
        <time>2012-02-26T11:57:31Z</time>
      </trkpt>
      <trkpt lat="43.6" lon="6.94922">
        <ele>138</ele>
        <time>2012-02-26T11:57:36Z</time>
      </trkpt>
      <trkpt lat="43.59993" lon="6.94945">
        <ele>138</ele>
        <time>2012-02-26T11:57:41Z</time>
      </trkpt>
      <trkpt lat="43.59987" lon="6.94969">
        <ele>138</ele>
        <time>2012-02-26T11:57:46Z</time>
      </trkpt>
      <trkpt lat="43.59979" lon="6.94993">
        <ele>138</ele>
        <time>2012-02-26T11:57:51Z</time>
      </trkpt>
      <trkpt lat="43.59972" lon="6.95016">
        <ele>138</ele>
        <time>2012-02-26T11:57:56Z</time>
      </trkpt>
      <trkpt lat="43.59964" lon="6.9504">
        <ele>138</ele>
        <time>2012-02-26T11:58:01Z</time>
      </trkpt>
      <trkpt lat="43.59958" lon="6.95063">
        <ele>138</ele>
        <time>2012-02-26T11:58:06Z</time>
      </trkpt>
      <trkpt lat="43.5995" lon="6.9509">
        <ele>138</ele>
        <time>2012-02-26T11:58:12Z</time>
      </trkpt>
      <trkpt lat="43.59943" lon="6.95113">
        <ele>138</ele>
        <time>2012-02-26T11:58:17Z</time>
      </trkpt>
      <trkpt lat="43.59935" lon="6.95134">
        <ele>139</ele>
        <time>2012-02-26T11:58:22Z</time>
      </trkpt>
      <trkpt lat="43.59929" lon="6.95156">
        <ele>140</ele>
        <time>2012-02-26T11:58:27Z</time>
      </trkpt>
      <trkpt lat="43.59922" lon="6.95176">
        <ele>141</ele>
        <time>2012-02-26T11:58:33Z</time>
      </trkpt>
      <trkpt lat="43.59917" lon="6.95193">
        <ele>142</ele>
        <time>2012-02-26T11:58:38Z</time>
      </trkpt>
      <trkpt lat="43.59911" lon="6.95213">
        <ele>142</ele>
        <time>2012-02-26T11:58:43Z</time>
      </trkpt>
      <trkpt lat="43.59905" lon="6.95239">
        <ele>143</ele>
        <time>2012-02-26T11:58:49Z</time>
      </trkpt>
      <trkpt lat="43.59912" lon="6.9526">
        <ele>144</ele>
        <time>2012-02-26T11:58:54Z</time>
      </trkpt>
      <trkpt lat="43.5992" lon="6.95281">
        <ele>145</ele>
        <time>2012-02-26T11:58:59Z</time>
      </trkpt>
      <trkpt lat="43.59928" lon="6.95304">
        <ele>146</ele>
        <time>2012-02-26T11:59:05Z</time>
      </trkpt>
      <trkpt lat="43.59934" lon="6.95323">
        <ele>146</ele>
        <time>2012-02-26T11:59:10Z</time>
      </trkpt>
      <trkpt lat="43.59937" lon="6.95342">
        <ele>147</ele>
        <time>2012-02-26T11:59:16Z</time>
      </trkpt>
      <trkpt lat="43.59941" lon="6.95359">
        <ele>148</ele>
        <time>2012-02-26T11:59:21Z</time>
      </trkpt>
      <trkpt lat="43.59935" lon="6.95381">
        <ele>148</ele>
        <time>2012-02-26T11:59:27Z</time>
      </trkpt>
      <trkpt lat="43.59925" lon="6.95404">
        <ele>149</ele>
        <time>2012-02-26T11:59:33Z</time>
      </trkpt>
      <trkpt lat="43.59911" lon="6.95416">
        <ele>150</ele>
        <time>2012-02-26T11:59:38Z</time>
      </trkpt>
      <trkpt lat="43.59894" lon="6.9542">
        <ele>150</ele>
        <time>2012-02-26T11:59:43Z</time>
      </trkpt>
      <trkpt lat="43.59873" lon="6.95424">
        <ele>150</ele>
        <time>2012-02-26T11:59:49Z</time>
      </trkpt>
      <trkpt lat="43.59845" lon="6.9543">
        <ele>150</ele>
        <time>2012-02-26T11:59:55Z</time>
      </trkpt>
      <trkpt lat="43.59812" lon="6.95438">
        <ele>150</ele>
        <time>2012-02-26T12:00:00Z</time>
      </trkpt>
      <trkpt lat="43.59787" lon="6.95448">
        <ele>150</ele>
        <time>2012-02-26T12:00:05Z</time>
      </trkpt>
      <trkpt lat="43.59762" lon="6.95449">
        <ele>150</ele>
        <time>2012-02-26T12:00:10Z</time>
      </trkpt>
      <trkpt lat="43.59734" lon="6.95451">
        <ele>150</ele>
        <time>2012-02-26T12:00:15Z</time>
      </trkpt>
      <trkpt lat="43.59707" lon="6.9546">
        <ele>150</ele>
        <time>2012-02-26T12:00:20Z</time>
      </trkpt>
      <trkpt lat="43.59689" lon="6.9549">
        <ele>150</ele>
        <time>2012-02-26T12:00:25Z</time>
      </trkpt>
      <trkpt lat="43.59659" lon="6.95526">
        <ele>147</ele>
        <time>2012-02-26T12:00:30Z</time>
      </trkpt>
      <trkpt lat="43.5963" lon="6.9558">
        <ele>143</ele>
        <time>2012-02-26T12:00:35Z</time>
      </trkpt>
      <trkpt lat="43.59585" lon="6.9561">
        <ele>141</ele>
        <time>2012-02-26T12:00:41Z</time>
      </trkpt>
      <trkpt lat="43.5955" lon="6.95625">
        <ele>141</ele>
        <time>2012-02-26T12:00:46Z</time>
      </trkpt>
      <trkpt lat="43.59516" lon="6.95635">
        <ele>140</ele>
        <time>2012-02-26T12:00:51Z</time>
      </trkpt>
      <trkpt lat="43.59491" lon="6.95615">
        <ele>139</ele>
        <time>2012-02-26T12:00:56Z</time>
      </trkpt>
      <trkpt lat="43.59474" lon="6.95571">
        <ele>136</ele>
        <time>2012-02-26T12:01:01Z</time>
      </trkpt>
      <trkpt lat="43.59435" lon="6.95553">
        <ele>132</ele>
        <time>2012-02-26T12:01:06Z</time>
      </trkpt>
      <trkpt lat="43.59406" lon="6.95543">
        <ele>130</ele>
        <time>2012-02-26T12:01:12Z</time>
      </trkpt>
      <trkpt lat="43.59404" lon="6.95543">
        <ele>130</ele>
        <time>2012-02-26T12:01:19Z</time>
      </trkpt>
      <trkpt lat="43.59402" lon="6.95544">
        <ele>130</ele>
        <time>2012-02-26T12:01:27Z</time>
      </trkpt>
      <trkpt lat="43.59393" lon="6.95551">
        <ele>130</ele>
        <time>2012-02-26T12:01:32Z</time>
      </trkpt>
      <trkpt lat="43.59383" lon="6.95572">
        <ele>130</ele>
        <time>2012-02-26T12:01:37Z</time>
      </trkpt>
      <trkpt lat="43.59373" lon="6.95597">
        <ele>130</ele>
        <time>2012-02-26T12:01:43Z</time>
      </trkpt>
      <trkpt lat="43.59364" lon="6.95613">
        <ele>130</ele>
        <time>2012-02-26T12:01:48Z</time>
      </trkpt>
      <trkpt lat="43.59359" lon="6.95635">
        <ele>130</ele>
        <time>2012-02-26T12:01:54Z</time>
      </trkpt>
      <trkpt lat="43.59344" lon="6.95621">
        <ele>130</ele>
        <time>2012-02-26T12:01:59Z</time>
      </trkpt>
      <trkpt lat="43.59336" lon="6.95613">
        <ele>132</ele>
        <time>2012-02-26T12:02:14Z</time>
      </trkpt>
      <trkpt lat="43.59336" lon="6.95615">
        <ele>132</ele>
        <time>2012-02-26T12:02:23Z</time>
      </trkpt>
      <trkpt lat="43.59333" lon="6.95616">
        <ele>134</ele>
        <time>2012-02-26T12:02:30Z</time>
      </trkpt>
      <trkpt lat="43.59334" lon="6.95616">
        <ele>134</ele>
        <time>2012-02-26T12:02:37Z</time>
      </trkpt>
      <trkpt lat="43.59336" lon="6.95619">
        <ele>134</ele>
        <time>2012-02-26T12:02:42Z</time>
      </trkpt>
    </trkseg>
  </trk>
</gpx>